<?xml version="1.0" encoding="utf-8"?>
<gpx xmlns:xsi="http://www.w3.org/2001/XMLSchema-instance" xmlns:xsd="http://www.w3.org/2001/XMLSchema" version="1.1" creator="Shapelink.com" xmlns="http://www.topografix.com/GPX/1/1" xmlns:gpxtpx="http://www.garmin.com/xmlschemas/TrackPointExtension/v1">
  <metadata>
    <name>Sykling 77.35 km, 2017-09-02</name>
    <desc></desc>
    <author><name>Jörgen Larsson</name></author> 
    <time>2017-09-02T08:28:10Z</time>
  </metadata>
  <trk>
    <name>Sykling 77.35 km, 2017-09-02</name>
    <trkseg>
      <trkpt lat="59.204674489993" lon="17.753957283579">
        <ele>51.2</ele>
        <time>2017-09-02T08:28:10Z</time>
      </trkpt>
      <trkpt lat="59.204771217119" lon="17.75396558166">
        <ele>51</ele>
        <time>2017-09-02T08:28:12Z</time>
      </trkpt>
      <trkpt lat="59.204836260663" lon="17.753957535036">
        <ele>51</ele>
        <time>2017-09-02T08:28:13Z</time>
      </trkpt>
      <trkpt lat="59.204902645311" lon="17.753923169246">
        <ele>51</ele>
        <time>2017-09-02T08:28:14Z</time>
      </trkpt>
      <trkpt lat="59.205006077957" lon="17.753747736079">
        <ele>50.8</ele>
        <time>2017-09-02T08:28:16Z</time>
      </trkpt>
      <trkpt lat="59.20506869075" lon="17.753482532763">
        <ele>50.2</ele>
        <time>2017-09-02T08:28:18Z</time>
      </trkpt>
      <trkpt lat="59.205085370731" lon="17.753321516464">
        <ele>49.6</ele>
        <time>2017-09-02T08:28:19Z</time>
      </trkpt>
      <trkpt lat="59.205088723491" lon="17.753161841269">
        <ele>49</ele>
        <time>2017-09-02T08:28:20Z</time>
      </trkpt>
      <trkpt lat="59.205083442894" lon="17.753002417531">
        <ele>48.2</ele>
        <time>2017-09-02T08:28:21Z</time>
      </trkpt>
      <trkpt lat="59.205075144813" lon="17.752842742336">
        <ele>47.6</ele>
        <time>2017-09-02T08:28:22Z</time>
      </trkpt>
      <trkpt lat="59.20506366161" lon="17.752688850652">
        <ele>46.8</ele>
        <time>2017-09-02T08:28:23Z</time>
      </trkpt>
      <trkpt lat="59.205041784851" lon="17.75252976219">
        <ele>46.4</ele>
        <time>2017-09-02T08:28:24Z</time>
      </trkpt>
      <trkpt lat="59.204983782103" lon="17.752219548071">
        <ele>46.2</ele>
        <time>2017-09-02T08:28:26Z</time>
      </trkpt>
      <trkpt lat="59.204905076062" lon="17.751933976738">
        <ele>46.2</ele>
        <time>2017-09-02T08:28:28Z</time>
      </trkpt>
      <trkpt lat="59.204812623705" lon="17.75167061744">
        <ele>46.2</ele>
        <time>2017-09-02T08:28:30Z</time>
      </trkpt>
      <trkpt lat="59.204721260995" lon="17.751415053309">
        <ele>46.2</ele>
        <time>2017-09-02T08:28:32Z</time>
      </trkpt>
      <trkpt lat="59.204634089235" lon="17.75116099792">
        <ele>46.2</ele>
        <time>2017-09-02T08:28:34Z</time>
      </trkpt>
      <trkpt lat="59.204541636878" lon="17.75090786454">
        <ele>46.6</ele>
        <time>2017-09-02T08:28:36Z</time>
      </trkpt>
      <trkpt lat="59.204439964431" lon="17.750657832463">
        <ele>46.6</ele>
        <time>2017-09-02T08:28:38Z</time>
      </trkpt>
      <trkpt lat="59.204340219821" lon="17.750416601381">
        <ele>46.8</ele>
        <time>2017-09-02T08:28:40Z</time>
      </trkpt>
      <trkpt lat="59.204213569312" lon="17.750199761628">
        <ele>46.8</ele>
        <time>2017-09-02T08:28:42Z</time>
      </trkpt>
      <trkpt lat="59.204083985138" lon="17.750024579918">
        <ele>47.2</ele>
        <time>2017-09-02T08:28:44Z</time>
      </trkpt>
      <trkpt lat="59.203940738467" lon="17.749897761771">
        <ele>47.4</ele>
        <time>2017-09-02T08:28:46Z</time>
      </trkpt>
      <trkpt lat="59.203868570308" lon="17.749848643837">
        <ele>47.6</ele>
        <time>2017-09-02T08:28:47Z</time>
      </trkpt>
      <trkpt lat="59.20379548014" lon="17.749809332726">
        <ele>47.4</ele>
        <time>2017-09-02T08:28:48Z</time>
      </trkpt>
      <trkpt lat="59.203720545954" lon="17.749783516474">
        <ele>47.6</ele>
        <time>2017-09-02T08:28:49Z</time>
      </trkpt>
      <trkpt lat="59.2036395768" lon="17.749773206737">
        <ele>47.6</ele>
        <time>2017-09-02T08:28:50Z</time>
      </trkpt>
      <trkpt lat="59.203477973768" lon="17.749795502591">
        <ele>47.8</ele>
        <time>2017-09-02T08:28:52Z</time>
      </trkpt>
      <trkpt lat="59.203318717668" lon="17.74987437627">
        <ele>47.8</ele>
        <time>2017-09-02T08:28:54Z</time>
      </trkpt>
      <trkpt lat="59.203156276446" lon="17.750002786978">
        <ele>47.8</ele>
        <time>2017-09-02T08:28:56Z</time>
      </trkpt>
      <trkpt lat="59.20307463674" lon="17.750084426684">
        <ele>47.8</ele>
        <time>2017-09-02T08:28:57Z</time>
      </trkpt>
      <trkpt lat="59.202991739749" lon="17.750168748598">
        <ele>47.8</ele>
        <time>2017-09-02T08:28:58Z</time>
      </trkpt>
      <trkpt lat="59.2028097687" lon="17.750329345802">
        <ele>47.8</ele>
        <time>2017-09-02T08:29:00Z</time>
      </trkpt>
      <trkpt lat="59.202716059058" lon="17.750389276387">
        <ele>47.8</ele>
        <time>2017-09-02T08:29:01Z</time>
      </trkpt>
      <trkpt lat="59.202615643896" lon="17.750433868095">
        <ele>47.6</ele>
        <time>2017-09-02T08:29:02Z</time>
      </trkpt>
      <trkpt lat="59.202407102224" lon="17.75048793135">
        <ele>47</ele>
        <time>2017-09-02T08:29:04Z</time>
      </trkpt>
      <trkpt lat="59.202195543068" lon="17.75048541678">
        <ele>46</ele>
        <time>2017-09-02T08:29:06Z</time>
      </trkpt>
      <trkpt lat="59.202093870621" lon="17.750470413179">
        <ele>45.2</ele>
        <time>2017-09-02T08:29:07Z</time>
      </trkpt>
      <trkpt lat="59.201991946717" lon="17.750453062646">
        <ele>44.4</ele>
        <time>2017-09-02T08:29:08Z</time>
      </trkpt>
      <trkpt lat="59.201789272375" lon="17.750410231137">
        <ele>42.8</ele>
        <time>2017-09-02T08:29:10Z</time>
      </trkpt>
      <trkpt lat="59.201600931082" lon="17.750367902542">
        <ele>40.6</ele>
        <time>2017-09-02T08:29:12Z</time>
      </trkpt>
      <trkpt lat="59.201423486259" lon="17.75034208629">
        <ele>40</ele>
        <time>2017-09-02T08:29:14Z</time>
      </trkpt>
      <trkpt lat="59.201260877399" lon="17.750355413511">
        <ele>39.8</ele>
        <time>2017-09-02T08:29:16Z</time>
      </trkpt>
      <trkpt lat="59.201113858873" lon="17.750381397401">
        <ele>39.8</ele>
        <time>2017-09-02T08:29:18Z</time>
      </trkpt>
      <trkpt lat="59.201009085123" lon="17.750267319742">
        <ele>39.8</ele>
        <time>2017-09-02T08:29:20Z</time>
      </trkpt>
      <trkpt lat="59.200951585289" lon="17.750044947935">
        <ele>39.8</ele>
        <time>2017-09-02T08:29:22Z</time>
      </trkpt>
      <trkpt lat="59.200928954159" lon="17.749919554711">
        <ele>39.8</ele>
        <time>2017-09-02T08:29:23Z</time>
      </trkpt>
      <trkpt lat="59.200904646649" lon="17.7497880427">
        <ele>40.2</ele>
        <time>2017-09-02T08:29:24Z</time>
      </trkpt>
      <trkpt lat="59.200863072425" lon="17.74949802896">
        <ele>40.4</ele>
        <time>2017-09-02T08:29:26Z</time>
      </trkpt>
      <trkpt lat="59.200840106019" lon="17.749168871747">
        <ele>40.4</ele>
        <time>2017-09-02T08:29:28Z</time>
      </trkpt>
      <trkpt lat="59.200836753259" lon="17.748810210246">
        <ele>40.6</ele>
        <time>2017-09-02T08:29:30Z</time>
      </trkpt>
      <trkpt lat="59.200867179556" lon="17.748427073597">
        <ele>40.6</ele>
        <time>2017-09-02T08:29:32Z</time>
      </trkpt>
      <trkpt lat="59.200924511752" lon="17.748032537564">
        <ele>40.6</ele>
        <time>2017-09-02T08:29:34Z</time>
      </trkpt>
      <trkpt lat="59.200989303839" lon="17.747648478906">
        <ele>39.6</ele>
        <time>2017-09-02T08:29:36Z</time>
      </trkpt>
      <trkpt lat="59.20101939486" lon="17.747471117902">
        <ele>38.8</ele>
        <time>2017-09-02T08:29:37Z</time>
      </trkpt>
      <trkpt lat="59.201041858352" lon="17.747308844318">
        <ele>38</ele>
        <time>2017-09-02T08:29:38Z</time>
      </trkpt>
      <trkpt lat="59.201053593012" lon="17.747161239059">
        <ele>37</ele>
        <time>2017-09-02T08:29:39Z</time>
      </trkpt>
      <trkpt lat="59.201056191401" lon="17.747027463935">
        <ele>35.2</ele>
        <time>2017-09-02T08:29:40Z</time>
      </trkpt>
      <trkpt lat="59.201012521702" lon="17.746794195658">
        <ele>34.4</ele>
        <time>2017-09-02T08:29:42Z</time>
      </trkpt>
      <trkpt lat="59.200915962214" lon="17.74665740305">
        <ele>34.2</ele>
        <time>2017-09-02T08:29:44Z</time>
      </trkpt>
      <trkpt lat="59.200795095216" lon="17.746589677298">
        <ele>34.2</ele>
        <time>2017-09-02T08:29:46Z</time>
      </trkpt>
      <trkpt lat="59.200726950369" lon="17.746577188267">
        <ele>33.8</ele>
        <time>2017-09-02T08:29:47Z</time>
      </trkpt>
      <trkpt lat="59.200643215188" lon="17.746579954294">
        <ele>33.8</ele>
        <time>2017-09-02T08:29:48Z</time>
      </trkpt>
      <trkpt lat="59.20047708593" lon="17.746595712266">
        <ele>33.8</ele>
        <time>2017-09-02T08:29:50Z</time>
      </trkpt>
      <trkpt lat="59.200308190645" lon="17.746612476066">
        <ele>33.8</ele>
        <time>2017-09-02T08:29:52Z</time>
      </trkpt>
      <trkpt lat="59.200150694744" lon="17.746637370309">
        <ele>33.8</ele>
        <time>2017-09-02T08:29:54Z</time>
      </trkpt>
      <trkpt lat="59.199997473612" lon="17.746663689475">
        <ele>33.8</ele>
        <time>2017-09-02T08:29:56Z</time>
      </trkpt>
      <trkpt lat="59.199853053475" lon="17.746687494071">
        <ele>33.8</ele>
        <time>2017-09-02T08:29:58Z</time>
      </trkpt>
      <trkpt lat="59.19970259837" lon="17.746718088006">
        <ele>34</ele>
        <time>2017-09-02T08:30:00Z</time>
      </trkpt>
      <trkpt lat="59.199542755537" lon="17.74674206024">
        <ele>34</ele>
        <time>2017-09-02T08:30:02Z</time>
      </trkpt>
      <trkpt lat="59.199376710098" lon="17.746776509849">
        <ele>34.4</ele>
        <time>2017-09-02T08:30:04Z</time>
      </trkpt>
      <trkpt lat="59.199211921944" lon="17.74681414458">
        <ele>34.6</ele>
        <time>2017-09-02T08:30:06Z</time>
      </trkpt>
      <trkpt lat="59.199044032487" lon="17.746863933066">
        <ele>34.6</ele>
        <time>2017-09-02T08:30:08Z</time>
      </trkpt>
      <trkpt lat="59.198878825238" lon="17.746929730981">
        <ele>34.8</ele>
        <time>2017-09-02T08:30:10Z</time>
      </trkpt>
      <trkpt lat="59.198712360704" lon="17.747013130886">
        <ele>34.8</ele>
        <time>2017-09-02T08:30:12Z</time>
      </trkpt>
      <trkpt lat="59.198550422396" lon="17.74714522963">
        <ele>34.8</ele>
        <time>2017-09-02T08:30:14Z</time>
      </trkpt>
      <trkpt lat="59.198388148812" lon="17.747296858201">
        <ele>34.6</ele>
        <time>2017-09-02T08:30:16Z</time>
      </trkpt>
      <trkpt lat="59.198222773925" lon="17.747449660238">
        <ele>34.2</ele>
        <time>2017-09-02T08:30:18Z</time>
      </trkpt>
      <trkpt lat="59.198061338531" lon="17.747611179451">
        <ele>33.8</ele>
        <time>2017-09-02T08:30:20Z</time>
      </trkpt>
      <trkpt lat="59.197899735499" lon="17.747774794139">
        <ele>33.2</ele>
        <time>2017-09-02T08:30:22Z</time>
      </trkpt>
      <trkpt lat="59.197743161607" lon="17.747947712736">
        <ele>32.6</ele>
        <time>2017-09-02T08:30:24Z</time>
      </trkpt>
      <trkpt lat="59.19758952138" lon="17.748117362392">
        <ele>32</ele>
        <time>2017-09-02T08:30:26Z</time>
      </trkpt>
      <trkpt lat="59.197441664664" lon="17.748287012048">
        <ele>31.8</ele>
        <time>2017-09-02T08:30:28Z</time>
      </trkpt>
      <trkpt lat="59.197294143224" lon="17.748448363623">
        <ele>31.4</ele>
        <time>2017-09-02T08:30:30Z</time>
      </trkpt>
      <trkpt lat="59.197147962888" lon="17.748600662746">
        <ele>31.4</ele>
        <time>2017-09-02T08:30:32Z</time>
      </trkpt>
      <trkpt lat="59.196999938534" lon="17.748758493923">
        <ele>31.2</ele>
        <time>2017-09-02T08:30:34Z</time>
      </trkpt>
      <trkpt lat="59.196857697691" lon="17.748915319272">
        <ele>31</ele>
        <time>2017-09-02T08:30:36Z</time>
      </trkpt>
      <trkpt lat="59.196706236758" lon="17.749079101598">
        <ele>31</ele>
        <time>2017-09-02T08:30:38Z</time>
      </trkpt>
      <trkpt lat="59.196549159952" lon="17.749250930548">
        <ele>31</ele>
        <time>2017-09-02T08:30:40Z</time>
      </trkpt>
      <trkpt lat="59.196385377626" lon="17.749426615172">
        <ele>30.8</ele>
        <time>2017-09-02T08:30:42Z</time>
      </trkpt>
      <trkpt lat="59.196206591699" lon="17.749569358929">
        <ele>30.8</ele>
        <time>2017-09-02T08:30:44Z</time>
      </trkpt>
      <trkpt lat="59.196007186298" lon="17.749655189585">
        <ele>30.4</ele>
        <time>2017-09-02T08:30:46Z</time>
      </trkpt>
      <trkpt lat="59.195807613259" lon="17.749720819862">
        <ele>29.8</ele>
        <time>2017-09-02T08:30:48Z</time>
      </trkpt>
      <trkpt lat="59.195603681632" lon="17.749743115716">
        <ele>29</ele>
        <time>2017-09-02T08:30:50Z</time>
      </trkpt>
      <trkpt lat="59.195400001462" lon="17.749717299464">
        <ele>28.2</ele>
        <time>2017-09-02T08:30:52Z</time>
      </trkpt>
      <trkpt lat="59.19530377725" lon="17.749692321402">
        <ele>27.6</ele>
        <time>2017-09-02T08:30:53Z</time>
      </trkpt>
      <trkpt lat="59.19520906178" lon="17.749660889277">
        <ele>27</ele>
        <time>2017-09-02T08:30:54Z</time>
      </trkpt>
      <trkpt lat="59.195117363794" lon="17.749621494347">
        <ele>26.4</ele>
        <time>2017-09-02T08:30:55Z</time>
      </trkpt>
      <trkpt lat="59.195027006912" lon="17.749568939834">
        <ele>25.8</ele>
        <time>2017-09-02T08:30:56Z</time>
      </trkpt>
      <trkpt lat="59.19485366922" lon="17.749430051751">
        <ele>25.2</ele>
        <time>2017-09-02T08:30:58Z</time>
      </trkpt>
      <trkpt lat="59.194715451689" lon="17.749201812614">
        <ele>25</ele>
        <time>2017-09-02T08:31:00Z</time>
      </trkpt>
      <trkpt lat="59.194585783696" lon="17.749010034742">
        <ele>24.8</ele>
        <time>2017-09-02T08:31:02Z</time>
      </trkpt>
      <trkpt lat="59.194529624966" lon="17.748961922636">
        <ele>24.6</ele>
        <time>2017-09-02T08:31:03Z</time>
      </trkpt>
      <trkpt lat="59.19448067467" lon="17.748929317045">
        <ele>24.6</ele>
        <time>2017-09-02T08:31:04Z</time>
      </trkpt>
      <trkpt lat="59.194397107127" lon="17.74895907279">
        <ele>23.6</ele>
        <time>2017-09-02T08:31:06Z</time>
      </trkpt>
      <trkpt lat="59.194357712197" lon="17.749043310885">
        <ele>23.6</ele>
        <time>2017-09-02T08:31:08Z</time>
      </trkpt>
      <trkpt lat="59.194348575926" lon="17.74906300835">
        <ele>23.4</ele>
        <time>2017-09-02T08:31:09Z</time>
      </trkpt>
      <trkpt lat="59.194332985592" lon="17.749132913396">
        <ele>23.2</ele>
        <time>2017-09-02T08:37:19Z</time>
      </trkpt>
      <trkpt lat="59.194325022787" lon="17.749158645829">
        <ele>23.2</ele>
        <time>2017-09-02T08:37:20Z</time>
      </trkpt>
      <trkpt lat="59.194327369719" lon="17.749185132633">
        <ele>23.2</ele>
        <time>2017-09-02T08:37:21Z</time>
      </trkpt>
      <trkpt lat="59.194339439655" lon="17.749195107094">
        <ele>23.2</ele>
        <time>2017-09-02T08:37:22Z</time>
      </trkpt>
      <trkpt lat="59.194353437428" lon="17.749190329411">
        <ele>23.2</ele>
        <time>2017-09-02T08:37:23Z</time>
      </trkpt>
      <trkpt lat="59.194367686658" lon="17.749184126805">
        <ele>23.2</ele>
        <time>2017-09-02T08:37:24Z</time>
      </trkpt>
      <trkpt lat="59.194384869553" lon="17.749185719366">
        <ele>23.2</ele>
        <time>2017-09-02T08:37:25Z</time>
      </trkpt>
      <trkpt lat="59.194404734656" lon="17.749198962768">
        <ele>23.2</ele>
        <time>2017-09-02T08:37:26Z</time>
      </trkpt>
      <trkpt lat="59.194445973604" lon="17.749242464829">
        <ele>23.2</ele>
        <time>2017-09-02T08:37:28Z</time>
      </trkpt>
      <trkpt lat="59.194487799285" lon="17.749289906383">
        <ele>23.2</ele>
        <time>2017-09-02T08:37:30Z</time>
      </trkpt>
      <trkpt lat="59.19453599521" lon="17.749365678759">
        <ele>23.4</ele>
        <time>2017-09-02T08:37:32Z</time>
      </trkpt>
      <trkpt lat="59.19459802127" lon="17.74941169539">
        <ele>23.4</ele>
        <time>2017-09-02T08:37:34Z</time>
      </trkpt>
      <trkpt lat="59.194659628235" lon="17.749431728131">
        <ele>23.4</ele>
        <time>2017-09-02T08:37:36Z</time>
      </trkpt>
      <trkpt lat="59.194730287652" lon="17.749472631803">
        <ele>23.6</ele>
        <time>2017-09-02T08:37:38Z</time>
      </trkpt>
      <trkpt lat="59.194810250978" lon="17.749531137465">
        <ele>23.6</ele>
        <time>2017-09-02T08:37:40Z</time>
      </trkpt>
      <trkpt lat="59.194892980331" lon="17.749590648955">
        <ele>23.6</ele>
        <time>2017-09-02T08:37:42Z</time>
      </trkpt>
      <trkpt lat="59.194981157919" lon="17.749662984752">
        <ele>23.8</ele>
        <time>2017-09-02T08:37:44Z</time>
      </trkpt>
      <trkpt lat="59.195080148158" lon="17.749723418251">
        <ele>24.2</ele>
        <time>2017-09-02T08:37:46Z</time>
      </trkpt>
      <trkpt lat="59.195129182273" lon="17.749752922539">
        <ele>24.4</ele>
        <time>2017-09-02T08:37:47Z</time>
      </trkpt>
      <trkpt lat="59.195176288551" lon="17.749780750447">
        <ele>24.6</ele>
        <time>2017-09-02T08:37:48Z</time>
      </trkpt>
      <trkpt lat="59.195269998193" lon="17.749823498137">
        <ele>25.2</ele>
        <time>2017-09-02T08:37:50Z</time>
      </trkpt>
      <trkpt lat="59.195318277937" lon="17.749843027964">
        <ele>25.4</ele>
        <time>2017-09-02T08:37:51Z</time>
      </trkpt>
      <trkpt lat="59.195366390043" lon="17.749860210859">
        <ele>25.6</ele>
        <time>2017-09-02T08:37:52Z</time>
      </trkpt>
      <trkpt lat="59.195414083054" lon="17.749877896668">
        <ele>26</ele>
        <time>2017-09-02T08:37:53Z</time>
      </trkpt>
      <trkpt lat="59.195461943703" lon="17.749894660468">
        <ele>26.2</ele>
        <time>2017-09-02T08:37:54Z</time>
      </trkpt>
      <trkpt lat="59.195558670829" lon="17.749928188068">
        <ele>26.4</ele>
        <time>2017-09-02T08:37:56Z</time>
      </trkpt>
      <trkpt lat="59.195660510914" lon="17.749952411759">
        <ele>26.8</ele>
        <time>2017-09-02T08:37:58Z</time>
      </trkpt>
      <trkpt lat="59.195713903617" lon="17.749951070655">
        <ele>27</ele>
        <time>2017-09-02T08:37:59Z</time>
      </trkpt>
      <trkpt lat="59.195768302148" lon="17.749943191669">
        <ele>27</ele>
        <time>2017-09-02T08:38:00Z</time>
      </trkpt>
      <trkpt lat="59.19587709921" lon="17.749917459236">
        <ele>27.2</ele>
        <time>2017-09-02T08:38:02Z</time>
      </trkpt>
      <trkpt lat="59.195972149956" lon="17.749864737085">
        <ele>27.4</ele>
        <time>2017-09-02T08:38:04Z</time>
      </trkpt>
      <trkpt lat="59.196020597338" lon="17.749833556417">
        <ele>27.6</ele>
        <time>2017-09-02T08:38:05Z</time>
      </trkpt>
      <trkpt lat="59.19606736834" lon="17.749796927514">
        <ele>27.6</ele>
        <time>2017-09-02T08:38:06Z</time>
      </trkpt>
      <trkpt lat="59.19615873105" lon="17.749721238957">
        <ele>27.8</ele>
        <time>2017-09-02T08:38:08Z</time>
      </trkpt>
      <trkpt lat="59.196252105416" lon="17.749647562056">
        <ele>27.8</ele>
        <time>2017-09-02T08:38:10Z</time>
      </trkpt>
      <trkpt lat="59.196345898877" lon="17.749559887382">
        <ele>28</ele>
        <time>2017-09-02T08:38:12Z</time>
      </trkpt>
      <trkpt lat="59.196438937967" lon="17.749466848292">
        <ele>28.2</ele>
        <time>2017-09-02T08:38:14Z</time>
      </trkpt>
      <trkpt lat="59.19648562515" lon="17.749417311263">
        <ele>28.6</ele>
        <time>2017-09-02T08:38:15Z</time>
      </trkpt>
      <trkpt lat="59.196535413636" lon="17.749370791718">
        <ele>28.8</ele>
        <time>2017-09-02T08:38:16Z</time>
      </trkpt>
      <trkpt lat="59.196636583169" lon="17.749278926094">
        <ele>29.2</ele>
        <time>2017-09-02T08:38:18Z</time>
      </trkpt>
      <trkpt lat="59.196684359999" lon="17.749227042133">
        <ele>29.6</ele>
        <time>2017-09-02T08:38:19Z</time>
      </trkpt>
      <trkpt lat="59.19673037663" lon="17.749174739077">
        <ele>30</ele>
        <time>2017-09-02T08:38:20Z</time>
      </trkpt>
      <trkpt lat="59.196830791792" lon="17.749076084114">
        <ele>30.8</ele>
        <time>2017-09-02T08:38:22Z</time>
      </trkpt>
      <trkpt lat="59.196926848366" lon="17.748968544337">
        <ele>31.4</ele>
        <time>2017-09-02T08:38:24Z</time>
      </trkpt>
      <trkpt lat="59.197029275184" lon="17.748861423655">
        <ele>32</ele>
        <time>2017-09-02T08:38:26Z</time>
      </trkpt>
      <trkpt lat="59.197133881296" lon="17.748754470611">
        <ele>32.2</ele>
        <time>2017-09-02T08:38:28Z</time>
      </trkpt>
      <trkpt lat="59.197239241779" lon="17.748647685205">
        <ele>32.4</ele>
        <time>2017-09-02T08:38:30Z</time>
      </trkpt>
      <trkpt lat="59.197345021357" lon="17.74853578684">
        <ele>32.6</ele>
        <time>2017-09-02T08:38:32Z</time>
      </trkpt>
      <trkpt lat="59.197397743508" lon="17.748475772436">
        <ele>32.8</ele>
        <time>2017-09-02T08:38:33Z</time>
      </trkpt>
      <trkpt lat="59.197447196718" lon="17.748412824367">
        <ele>32.8</ele>
        <time>2017-09-02T08:38:34Z</time>
      </trkpt>
      <trkpt lat="59.197560436187" lon="17.748285335668">
        <ele>33.2</ele>
        <time>2017-09-02T08:38:36Z</time>
      </trkpt>
      <trkpt lat="59.197681219366" lon="17.748171006552">
        <ele>33.2</ele>
        <time>2017-09-02T08:38:38Z</time>
      </trkpt>
      <trkpt lat="59.197808121332" lon="17.748046786794">
        <ele>33.4</ele>
        <time>2017-09-02T08:38:40Z</time>
      </trkpt>
      <trkpt lat="59.197942315551" lon="17.747917118801">
        <ele>33.4</ele>
        <time>2017-09-02T08:38:42Z</time>
      </trkpt>
      <trkpt lat="59.19807986253" lon="17.747786361161">
        <ele>33.4</ele>
        <time>2017-09-02T08:38:44Z</time>
      </trkpt>
      <trkpt lat="59.198211877455" lon="17.747646886345">
        <ele>33.4</ele>
        <time>2017-09-02T08:38:46Z</time>
      </trkpt>
      <trkpt lat="59.198341210172" lon="17.747510764289">
        <ele>33.4</ele>
        <time>2017-09-02T08:38:48Z</time>
      </trkpt>
      <trkpt lat="59.19847381183" lon="17.747386963626">
        <ele>33.6</ele>
        <time>2017-09-02T08:38:50Z</time>
      </trkpt>
      <trkpt lat="59.198605072384" lon="17.747271293406">
        <ele>33.6</ele>
        <time>2017-09-02T08:38:52Z</time>
      </trkpt>
      <trkpt lat="59.198739685698" lon="17.747175069194">
        <ele>33.8</ele>
        <time>2017-09-02T08:38:54Z</time>
      </trkpt>
      <trkpt lat="59.198881507446" lon="17.747100470284">
        <ele>33.8</ele>
        <time>2017-09-02T08:38:56Z</time>
      </trkpt>
      <trkpt lat="59.199022239547" lon="17.747042216079">
        <ele>34</ele>
        <time>2017-09-02T08:38:58Z</time>
      </trkpt>
      <trkpt lat="59.199160121802" lon="17.746997121457">
        <ele>34.2</ele>
        <time>2017-09-02T08:39:00Z</time>
      </trkpt>
      <trkpt lat="59.199295154211" lon="17.746957055975">
        <ele>34.6</ele>
        <time>2017-09-02T08:39:02Z</time>
      </trkpt>
      <trkpt lat="59.199431779181" lon="17.746924450384">
        <ele>34.8</ele>
        <time>2017-09-02T08:39:04Z</time>
      </trkpt>
      <trkpt lat="59.199570248169" lon="17.7468962872">
        <ele>35.2</ele>
        <time>2017-09-02T08:39:06Z</time>
      </trkpt>
      <trkpt lat="59.199713997754" lon="17.746874997174">
        <ele>35.4</ele>
        <time>2017-09-02T08:39:08Z</time>
      </trkpt>
      <trkpt lat="59.199862189746" lon="17.746855551166">
        <ele>35.4</ele>
        <time>2017-09-02T08:39:10Z</time>
      </trkpt>
      <trkpt lat="59.200015494697" lon="17.746835602244">
        <ele>35.6</ele>
        <time>2017-09-02T08:39:12Z</time>
      </trkpt>
      <trkpt lat="59.200175002254" lon="17.746815485684">
        <ele>35.6</ele>
        <time>2017-09-02T08:39:14Z</time>
      </trkpt>
      <trkpt lat="59.200339455132" lon="17.746796877866">
        <ele>35.6</ele>
        <time>2017-09-02T08:39:16Z</time>
      </trkpt>
      <trkpt lat="59.200501477259" lon="17.74678899888">
        <ele>35.6</ele>
        <time>2017-09-02T08:39:18Z</time>
      </trkpt>
      <trkpt lat="59.200666181594" lon="17.746771313071">
        <ele>35.4</ele>
        <time>2017-09-02T08:39:20Z</time>
      </trkpt>
      <trkpt lat="59.20082577297" lon="17.746771145433">
        <ele>35.2</ele>
        <time>2017-09-02T08:39:22Z</time>
      </trkpt>
      <trkpt lat="59.200988046554" lon="17.746763517904">
        <ele>35</ele>
        <time>2017-09-02T08:39:24Z</time>
      </trkpt>
      <trkpt lat="59.201149733405" lon="17.746768798501">
        <ele>34.8</ele>
        <time>2017-09-02T08:39:26Z</time>
      </trkpt>
      <trkpt lat="59.201315024473" lon="17.746787071043">
        <ele>34.6</ele>
        <time>2017-09-02T08:39:28Z</time>
      </trkpt>
      <trkpt lat="59.201477298057" lon="17.746811043277">
        <ele>34.6</ele>
        <time>2017-09-02T08:39:30Z</time>
      </trkpt>
      <trkpt lat="59.201639152546" lon="17.746843648868">
        <ele>34.2</ele>
        <time>2017-09-02T08:39:32Z</time>
      </trkpt>
      <trkpt lat="59.201804527433" lon="17.74688371435">
        <ele>34.4</ele>
        <time>2017-09-02T08:39:34Z</time>
      </trkpt>
      <trkpt lat="59.201970824329" lon="17.74693987308">
        <ele>34.4</ele>
        <time>2017-09-02T08:39:36Z</time>
      </trkpt>
      <trkpt lat="59.202140306347" lon="17.747002569692">
        <ele>34.4</ele>
        <time>2017-09-02T08:39:38Z</time>
      </trkpt>
      <trkpt lat="59.20231356022" lon="17.747066775046">
        <ele>34.2</ele>
        <time>2017-09-02T08:39:40Z</time>
      </trkpt>
      <trkpt lat="59.202491424138" lon="17.747127292364">
        <ele>34.4</ele>
        <time>2017-09-02T08:39:42Z</time>
      </trkpt>
      <trkpt lat="59.202661828165" lon="17.747200131075">
        <ele>34.2</ele>
        <time>2017-09-02T08:39:44Z</time>
      </trkpt>
      <trkpt lat="59.202833070382" lon="17.747264420248">
        <ele>34.2</ele>
        <time>2017-09-02T08:39:46Z</time>
      </trkpt>
      <trkpt lat="59.203003055314" lon="17.747329296154">
        <ele>34.2</ele>
        <time>2017-09-02T08:39:48Z</time>
      </trkpt>
      <trkpt lat="59.203170022762" lon="17.747389562015">
        <ele>34.2</ele>
        <time>2017-09-02T08:39:50Z</time>
      </trkpt>
      <trkpt lat="59.203331709613" lon="17.747456533396">
        <ele>34.2</ele>
        <time>2017-09-02T08:39:52Z</time>
      </trkpt>
      <trkpt lat="59.203480739795" lon="17.747536161446">
        <ele>34.2</ele>
        <time>2017-09-02T08:39:54Z</time>
      </trkpt>
      <trkpt lat="59.203624992294" lon="17.747619142256">
        <ele>34.4</ele>
        <time>2017-09-02T08:39:56Z</time>
      </trkpt>
      <trkpt lat="59.203768741879" lon="17.747713187174">
        <ele>34.6</ele>
        <time>2017-09-02T08:39:58Z</time>
      </trkpt>
      <trkpt lat="59.203910563627" lon="17.747820726951">
        <ele>34.6</ele>
        <time>2017-09-02T08:40:00Z</time>
      </trkpt>
      <trkpt lat="59.204045847493" lon="17.747938660284">
        <ele>35.4</ele>
        <time>2017-09-02T08:40:02Z</time>
      </trkpt>
      <trkpt lat="59.204111561589" lon="17.747999009964">
        <ele>35.6</ele>
        <time>2017-09-02T08:40:03Z</time>
      </trkpt>
      <trkpt lat="59.204177275685" lon="17.748062544766">
        <ele>36</ele>
        <time>2017-09-02T08:40:04Z</time>
      </trkpt>
      <trkpt lat="59.204308536239" lon="17.748191206931">
        <ele>36.4</ele>
        <time>2017-09-02T08:40:06Z</time>
      </trkpt>
      <trkpt lat="59.204373747421" lon="17.748255077009">
        <ele>36.6</ele>
        <time>2017-09-02T08:40:07Z</time>
      </trkpt>
      <trkpt lat="59.204439377698" lon="17.748319114725">
        <ele>37</ele>
        <time>2017-09-02T08:40:08Z</time>
      </trkpt>
      <trkpt lat="59.204574326288" lon="17.74845029146">
        <ele>37.8</ele>
        <time>2017-09-02T08:40:10Z</time>
      </trkpt>
      <trkpt lat="59.204642387316" lon="17.748517598117">
        <ele>38.4</ele>
        <time>2017-09-02T08:40:11Z</time>
      </trkpt>
      <trkpt lat="59.204710867439" lon="17.748582809299">
        <ele>38.6</ele>
        <time>2017-09-02T08:40:12Z</time>
      </trkpt>
      <trkpt lat="59.204778760829" lon="17.748649026309">
        <ele>39</ele>
        <time>2017-09-02T08:40:13Z</time>
      </trkpt>
      <trkpt lat="59.204847240952" lon="17.748715913871">
        <ele>39.2</ele>
        <time>2017-09-02T08:40:14Z</time>
      </trkpt>
      <trkpt lat="59.204986631949" lon="17.748852706479">
        <ele>39.4</ele>
        <time>2017-09-02T08:40:16Z</time>
      </trkpt>
      <trkpt lat="59.205126693498" lon="17.748990253458">
        <ele>39.8</ele>
        <time>2017-09-02T08:40:18Z</time>
      </trkpt>
      <trkpt lat="59.205268096151" lon="17.749120592003">
        <ele>40</ele>
        <time>2017-09-02T08:40:20Z</time>
      </trkpt>
      <trkpt lat="59.205408241519" lon="17.74924573377">
        <ele>40.2</ele>
        <time>2017-09-02T08:40:22Z</time>
      </trkpt>
      <trkpt lat="59.205550482362" lon="17.749355117565">
        <ele>40.4</ele>
        <time>2017-09-02T08:40:24Z</time>
      </trkpt>
      <trkpt lat="59.205695740689" lon="17.749443211334">
        <ele>40.6</ele>
        <time>2017-09-02T08:40:26Z</time>
      </trkpt>
      <trkpt lat="59.2058440165" lon="17.74952317466">
        <ele>40.8</ele>
        <time>2017-09-02T08:40:28Z</time>
      </trkpt>
      <trkpt lat="59.20592196817" lon="17.749556786079">
        <ele>40.8</ele>
        <time>2017-09-02T08:40:29Z</time>
      </trkpt>
      <trkpt lat="59.206000674211" lon="17.749587212376">
        <ele>41</ele>
        <time>2017-09-02T08:40:30Z</time>
      </trkpt>
      <trkpt lat="59.206162444881" lon="17.749633229007">
        <ele>41</ele>
        <time>2017-09-02T08:40:32Z</time>
      </trkpt>
      <trkpt lat="59.206335112021" lon="17.749652591196">
        <ele>41</ele>
        <time>2017-09-02T08:40:34Z</time>
      </trkpt>
      <trkpt lat="59.20651624488" lon="17.749671366652">
        <ele>41</ele>
        <time>2017-09-02T08:40:36Z</time>
      </trkpt>
      <trkpt lat="59.206703915621" lon="17.749697182904">
        <ele>41</ele>
        <time>2017-09-02T08:40:38Z</time>
      </trkpt>
      <trkpt lat="59.206901477004" lon="17.749720652224">
        <ele>41</ele>
        <time>2017-09-02T08:40:40Z</time>
      </trkpt>
      <trkpt lat="59.207107923201" lon="17.74975786786">
        <ele>40.6</ele>
        <time>2017-09-02T08:40:42Z</time>
      </trkpt>
      <trkpt lat="59.207325601144" lon="17.749818720454">
        <ele>40.2</ele>
        <time>2017-09-02T08:40:44Z</time>
      </trkpt>
      <trkpt lat="59.207549397874" lon="17.749932714294">
        <ele>39.6</ele>
        <time>2017-09-02T08:40:46Z</time>
      </trkpt>
      <trkpt lat="59.207665654827" lon="17.750004128082">
        <ele>38.6</ele>
        <time>2017-09-02T08:40:47Z</time>
      </trkpt>
      <trkpt lat="59.207780989771" lon="17.750085767788">
        <ele>38</ele>
        <time>2017-09-02T08:40:48Z</time>
      </trkpt>
      <trkpt lat="59.207897582" lon="17.750178806878">
        <ele>37.4</ele>
        <time>2017-09-02T08:40:49Z</time>
      </trkpt>
      <trkpt lat="59.208015012419" lon="17.750278719126">
        <ele>36.6</ele>
        <time>2017-09-02T08:40:50Z</time>
      </trkpt>
      <trkpt lat="59.208133029571" lon="17.750391623319">
        <ele>35.6</ele>
        <time>2017-09-02T08:40:51Z</time>
      </trkpt>
      <trkpt lat="59.208249789438" lon="17.750516765086">
        <ele>35</ele>
        <time>2017-09-02T08:40:52Z</time>
      </trkpt>
      <trkpt lat="59.208364537649" lon="17.750653725332">
        <ele>34.2</ele>
        <time>2017-09-02T08:40:53Z</time>
      </trkpt>
      <trkpt lat="59.208476436014" lon="17.750794960347">
        <ele>33.2</ele>
        <time>2017-09-02T08:40:54Z</time>
      </trkpt>
      <trkpt lat="59.20858657418" lon="17.750937368828">
        <ele>32.4</ele>
        <time>2017-09-02T08:40:55Z</time>
      </trkpt>
      <trkpt lat="59.208696796165" lon="17.751081537508">
        <ele>31.6</ele>
        <time>2017-09-02T08:40:56Z</time>
      </trkpt>
      <trkpt lat="59.208805509408" lon="17.751229310405">
        <ele>30.8</ele>
        <time>2017-09-02T08:40:57Z</time>
      </trkpt>
      <trkpt lat="59.208912713909" lon="17.751375239284">
        <ele>29.8</ele>
        <time>2017-09-02T08:40:58Z</time>
      </trkpt>
      <trkpt lat="59.209016481831" lon="17.751518737412">
        <ele>29</ele>
        <time>2017-09-02T08:40:59Z</time>
      </trkpt>
      <trkpt lat="59.209117483726" lon="17.751660475341">
        <ele>28.2</ele>
        <time>2017-09-02T08:41:00Z</time>
      </trkpt>
      <trkpt lat="59.209217395974" lon="17.751800201614">
        <ele>27.2</ele>
        <time>2017-09-02T08:41:01Z</time>
      </trkpt>
      <trkpt lat="59.209316134756" lon="17.751941771905">
        <ele>26.4</ele>
        <time>2017-09-02T08:41:02Z</time>
      </trkpt>
      <trkpt lat="59.209415963185" lon="17.752080659988">
        <ele>25.8</ele>
        <time>2017-09-02T08:41:03Z</time>
      </trkpt>
      <trkpt lat="59.209515791614" lon="17.752223068469">
        <ele>25.4</ele>
        <time>2017-09-02T08:41:04Z</time>
      </trkpt>
      <trkpt lat="59.209709078228" lon="17.752502688653">
        <ele>25</ele>
        <time>2017-09-02T08:41:06Z</time>
      </trkpt>
      <trkpt lat="59.209895156408" lon="17.752766383227">
        <ele>25</ele>
        <time>2017-09-02T08:41:08Z</time>
      </trkpt>
      <trkpt lat="59.210072768869" lon="17.753017169675">
        <ele>25</ele>
        <time>2017-09-02T08:41:10Z</time>
      </trkpt>
      <trkpt lat="59.210242669982" lon="17.753247420468">
        <ele>25</ele>
        <time>2017-09-02T08:41:12Z</time>
      </trkpt>
      <trkpt lat="59.210402848091" lon="17.753459566357">
        <ele>25</ele>
        <time>2017-09-02T08:41:14Z</time>
      </trkpt>
      <trkpt lat="59.210553889929" lon="17.753662827432">
        <ele>25.2</ele>
        <time>2017-09-02T08:41:16Z</time>
      </trkpt>
      <trkpt lat="59.210698477704" lon="17.753856281684">
        <ele>25.6</ele>
        <time>2017-09-02T08:41:18Z</time>
      </trkpt>
      <trkpt lat="59.210837198149" lon="17.754033894145">
        <ele>26.2</ele>
        <time>2017-09-02T08:41:20Z</time>
      </trkpt>
      <trkpt lat="59.210971895282" lon="17.754206728923">
        <ele>26.8</ele>
        <time>2017-09-02T08:41:22Z</time>
      </trkpt>
      <trkpt lat="59.211106340958" lon="17.754373193457">
        <ele>27.4</ele>
        <time>2017-09-02T08:41:24Z</time>
      </trkpt>
      <trkpt lat="59.21124279829" lon="17.754537311059">
        <ele>28</ele>
        <time>2017-09-02T08:41:26Z</time>
      </trkpt>
      <trkpt lat="59.211378249794" lon="17.754695477512">
        <ele>28.8</ele>
        <time>2017-09-02T08:41:28Z</time>
      </trkpt>
      <trkpt lat="59.211514288031" lon="17.754842747495">
        <ele>29.2</ele>
        <time>2017-09-02T08:41:30Z</time>
      </trkpt>
      <trkpt lat="59.211655439227" lon="17.754983311958">
        <ele>29.8</ele>
        <time>2017-09-02T08:41:32Z</time>
      </trkpt>
      <trkpt lat="59.211799775545" lon="17.755122367679">
        <ele>30.2</ele>
        <time>2017-09-02T08:41:34Z</time>
      </trkpt>
      <trkpt lat="59.211948889546" lon="17.755252622405">
        <ele>30.4</ele>
        <time>2017-09-02T08:41:36Z</time>
      </trkpt>
      <trkpt lat="59.212098757918" lon="17.755383463864">
        <ele>30.4</ele>
        <time>2017-09-02T08:41:38Z</time>
      </trkpt>
      <trkpt lat="59.212248039557" lon="17.755510282011">
        <ele>30.6</ele>
        <time>2017-09-02T08:41:40Z</time>
      </trkpt>
      <trkpt lat="59.212394638988" lon="17.755625868412">
        <ele>31</ele>
        <time>2017-09-02T08:41:42Z</time>
      </trkpt>
      <trkpt lat="59.212533443252" lon="17.755759140622">
        <ele>30.8</ele>
        <time>2017-09-02T08:41:44Z</time>
      </trkpt>
      <trkpt lat="59.212669062394" lon="17.75589677142">
        <ele>30.8</ele>
        <time>2017-09-02T08:41:46Z</time>
      </trkpt>
      <trkpt lat="59.212738296888" lon="17.755959887127">
        <ele>31</ele>
        <time>2017-09-02T08:41:47Z</time>
      </trkpt>
      <trkpt lat="59.21280434626" lon="17.75601747078">
        <ele>31.2</ele>
        <time>2017-09-02T08:41:48Z</time>
      </trkpt>
      <trkpt lat="59.21294180942" lon="17.756128195679">
        <ele>31.6</ele>
        <time>2017-09-02T08:41:50Z</time>
      </trkpt>
      <trkpt lat="59.213075584544" lon="17.756236322189">
        <ele>32</ele>
        <time>2017-09-02T08:41:52Z</time>
      </trkpt>
      <trkpt lat="59.21320835384" lon="17.756338665188">
        <ele>32.4</ele>
        <time>2017-09-02T08:41:54Z</time>
      </trkpt>
      <trkpt lat="59.213345062629" lon="17.756441762558">
        <ele>32.8</ele>
        <time>2017-09-02T08:41:56Z</time>
      </trkpt>
      <trkpt lat="59.213482274332" lon="17.756551146353">
        <ele>33.2</ele>
        <time>2017-09-02T08:41:58Z</time>
      </trkpt>
      <trkpt lat="59.213619150759" lon="17.756660530148">
        <ele>34</ele>
        <time>2017-09-02T08:42:00Z</time>
      </trkpt>
      <trkpt lat="59.213756865376" lon="17.756771422685">
        <ele>34.2</ele>
        <time>2017-09-02T08:42:02Z</time>
      </trkpt>
      <trkpt lat="59.21389818421" lon="17.756889523656">
        <ele>34.6</ele>
        <time>2017-09-02T08:42:04Z</time>
      </trkpt>
      <trkpt lat="59.214045621831" lon="17.757016844717">
        <ele>34.4</ele>
        <time>2017-09-02T08:42:06Z</time>
      </trkpt>
      <trkpt lat="59.214206889587" lon="17.757157828275">
        <ele>34.4</ele>
        <time>2017-09-02T08:42:08Z</time>
      </trkpt>
      <trkpt lat="59.214375449596" lon="17.757318928393">
        <ele>34.4</ele>
        <time>2017-09-02T08:42:10Z</time>
      </trkpt>
      <trkpt lat="59.214548535831" lon="17.757495451207">
        <ele>34.4</ele>
        <time>2017-09-02T08:42:12Z</time>
      </trkpt>
      <trkpt lat="59.214720532419" lon="17.757675494419">
        <ele>34.4</ele>
        <time>2017-09-02T08:42:14Z</time>
      </trkpt>
      <trkpt lat="59.214888421876" lon="17.757858219839">
        <ele>34</ele>
        <time>2017-09-02T08:42:16Z</time>
      </trkpt>
      <trkpt lat="59.215053377668" lon="17.758042202544">
        <ele>33.6</ele>
        <time>2017-09-02T08:42:18Z</time>
      </trkpt>
      <trkpt lat="59.215218501098" lon="17.758224676507">
        <ele>33.2</ele>
        <time>2017-09-02T08:42:20Z</time>
      </trkpt>
      <trkpt lat="59.215382031967" lon="17.758407318108">
        <ele>32.6</ele>
        <time>2017-09-02T08:42:22Z</time>
      </trkpt>
      <trkpt lat="59.215544640827" lon="17.758587026044">
        <ele>31.8</ele>
        <time>2017-09-02T08:42:24Z</time>
      </trkpt>
      <trkpt lat="59.215705238031" lon="17.758768745636">
        <ele>31.2</ele>
        <time>2017-09-02T08:42:26Z</time>
      </trkpt>
      <trkpt lat="59.215862482475" lon="17.758951387237">
        <ele>31</ele>
        <time>2017-09-02T08:42:28Z</time>
      </trkpt>
      <trkpt lat="59.216018553453" lon="17.759130927535">
        <ele>31</ele>
        <time>2017-09-02T08:42:30Z</time>
      </trkpt>
      <trkpt lat="59.216174037698" lon="17.759306276883">
        <ele>31</ele>
        <time>2017-09-02T08:42:32Z</time>
      </trkpt>
      <trkpt lat="59.216324157527" lon="17.759481877688">
        <ele>30.8</ele>
        <time>2017-09-02T08:42:34Z</time>
      </trkpt>
      <trkpt lat="59.216472684795" lon="17.759653287543">
        <ele>30.8</ele>
        <time>2017-09-02T08:42:36Z</time>
      </trkpt>
      <trkpt lat="59.216621128244" lon="17.759823021018">
        <ele>30.8</ele>
        <time>2017-09-02T08:42:38Z</time>
      </trkpt>
      <trkpt lat="59.2167656322" lon="17.759994179416">
        <ele>30.8</ele>
        <time>2017-09-02T08:42:40Z</time>
      </trkpt>
      <trkpt lat="59.216907705405" lon="17.760156620638">
        <ele>30.8</ele>
        <time>2017-09-02T08:42:42Z</time>
      </trkpt>
      <trkpt lat="59.217051790266" lon="17.760319564774">
        <ele>30.8</ele>
        <time>2017-09-02T08:42:44Z</time>
      </trkpt>
      <trkpt lat="59.217199144068" lon="17.760488124783">
        <ele>30.8</ele>
        <time>2017-09-02T08:42:46Z</time>
      </trkpt>
      <trkpt lat="59.217346162594" lon="17.760657355344">
        <ele>30.6</ele>
        <time>2017-09-02T08:42:48Z</time>
      </trkpt>
      <trkpt lat="59.217490750369" lon="17.760828094647">
        <ele>30.2</ele>
        <time>2017-09-02T08:42:50Z</time>
      </trkpt>
      <trkpt lat="59.21763315885" lon="17.760979974675">
        <ele>29</ele>
        <time>2017-09-02T08:42:52Z</time>
      </trkpt>
      <trkpt lat="59.217786296163" lon="17.761025320754">
        <ele>28.4</ele>
        <time>2017-09-02T08:42:54Z</time>
      </trkpt>
      <trkpt lat="59.217920909477" lon="17.760904537575">
        <ele>28</ele>
        <time>2017-09-02T08:42:56Z</time>
      </trkpt>
      <trkpt lat="59.218007997418" lon="17.760684093605">
        <ele>27.6</ele>
        <time>2017-09-02T08:42:58Z</time>
      </trkpt>
      <trkpt lat="59.218042447027" lon="17.760568674842">
        <ele>27.6</ele>
        <time>2017-09-02T08:42:59Z</time>
      </trkpt>
      <trkpt lat="59.218082344871" lon="17.760459374866">
        <ele>27.4</ele>
        <time>2017-09-02T08:43:00Z</time>
      </trkpt>
      <trkpt lat="59.21815954217" lon="17.760226358046">
        <ele>27.2</ele>
        <time>2017-09-02T08:43:02Z</time>
      </trkpt>
      <trkpt lat="59.218234895451" lon="17.759983115308">
        <ele>27.2</ele>
        <time>2017-09-02T08:43:04Z</time>
      </trkpt>
      <trkpt lat="59.218301699194" lon="17.759755127628">
        <ele>27</ele>
        <time>2017-09-02T08:43:06Z</time>
      </trkpt>
      <trkpt lat="59.218359701942" lon="17.759539461341">
        <ele>27</ele>
        <time>2017-09-02T08:43:08Z</time>
      </trkpt>
      <trkpt lat="59.218417620871" lon="17.759344749804">
        <ele>27.2</ele>
        <time>2017-09-02T08:43:10Z</time>
      </trkpt>
      <trkpt lat="59.218475120705" lon="17.759170406284">
        <ele>27.2</ele>
        <time>2017-09-02T08:43:12Z</time>
      </trkpt>
      <trkpt lat="59.218535218928" lon="17.759014586763">
        <ele>27.2</ele>
        <time>2017-09-02T08:43:14Z</time>
      </trkpt>
      <trkpt lat="59.218587521984" lon="17.758859605432">
        <ele>27.4</ele>
        <time>2017-09-02T08:43:16Z</time>
      </trkpt>
      <trkpt lat="59.218624989077" lon="17.758697080391">
        <ele>27.6</ele>
        <time>2017-09-02T08:43:18Z</time>
      </trkpt>
      <trkpt lat="59.218672765907" lon="17.758546038553">
        <ele>27.8</ele>
        <time>2017-09-02T08:43:20Z</time>
      </trkpt>
      <trkpt lat="59.218719788366" lon="17.758391895412">
        <ele>28</ele>
        <time>2017-09-02T08:43:22Z</time>
      </trkpt>
      <trkpt lat="59.218774689811" lon="17.758233393683">
        <ele>28</ele>
        <time>2017-09-02T08:43:24Z</time>
      </trkpt>
      <trkpt lat="59.218832357283" lon="17.758067515882">
        <ele>28</ele>
        <time>2017-09-02T08:43:26Z</time>
      </trkpt>
      <trkpt lat="59.218888180737" lon="17.757889903421">
        <ele>28</ele>
        <time>2017-09-02T08:43:28Z</time>
      </trkpt>
      <trkpt lat="59.218946015847" lon="17.757713715883">
        <ele>28</ele>
        <time>2017-09-02T08:43:30Z</time>
      </trkpt>
      <trkpt lat="59.219002928948" lon="17.757533505033">
        <ele>28</ele>
        <time>2017-09-02T08:43:32Z</time>
      </trkpt>
      <trkpt lat="59.219059339135" lon="17.757342146256">
        <ele>28</ele>
        <time>2017-09-02T08:43:34Z</time>
      </trkpt>
      <trkpt lat="59.219123544489" lon="17.757132095842">
        <ele>27.6</ele>
        <time>2017-09-02T08:43:36Z</time>
      </trkpt>
      <trkpt lat="59.219193952449" lon="17.75691601046">
        <ele>27.4</ele>
        <time>2017-09-02T08:43:38Z</time>
      </trkpt>
      <trkpt lat="59.21926511478" lon="17.756694979757">
        <ele>27.4</ele>
        <time>2017-09-02T08:43:40Z</time>
      </trkpt>
      <trkpt lat="59.2193388755" lon="17.756469590466">
        <ele>26.8</ele>
        <time>2017-09-02T08:43:42Z</time>
      </trkpt>
      <trkpt lat="59.219377013145" lon="17.756353417332">
        <ele>26.6</ele>
        <time>2017-09-02T08:43:43Z</time>
      </trkpt>
      <trkpt lat="59.219414564057" lon="17.756235232542">
        <ele>26.4</ele>
        <time>2017-09-02T08:43:44Z</time>
      </trkpt>
      <trkpt lat="59.219487570406" lon="17.755992995632">
        <ele>26</ele>
        <time>2017-09-02T08:43:46Z</time>
      </trkpt>
      <trkpt lat="59.219564264791" lon="17.755752267464">
        <ele>25.8</ele>
        <time>2017-09-02T08:43:48Z</time>
      </trkpt>
      <trkpt lat="59.219644898669" lon="17.755510701106">
        <ele>25.8</ele>
        <time>2017-09-02T08:43:50Z</time>
      </trkpt>
      <trkpt lat="59.21968420978" lon="17.755385978434">
        <ele>25.6</ele>
        <time>2017-09-02T08:43:51Z</time>
      </trkpt>
      <trkpt lat="59.219723017977" lon="17.75526058521">
        <ele>25.4</ele>
        <time>2017-09-02T08:43:52Z</time>
      </trkpt>
      <trkpt lat="59.219800550552" lon="17.755007284192">
        <ele>25.2</ele>
        <time>2017-09-02T08:43:54Z</time>
      </trkpt>
      <trkpt lat="59.219880681516" lon="17.754752139156">
        <ele>25</ele>
        <time>2017-09-02T08:43:56Z</time>
      </trkpt>
      <trkpt lat="59.219959890471" lon="17.754492048799">
        <ele>24.8</ele>
        <time>2017-09-02T08:43:58Z</time>
      </trkpt>
      <trkpt lat="59.220040272892" lon="17.754230784976">
        <ele>24.8</ele>
        <time>2017-09-02T08:44:00Z</time>
      </trkpt>
      <trkpt lat="59.220122750788" lon="17.753969437334">
        <ele>24.6</ele>
        <time>2017-09-02T08:44:02Z</time>
      </trkpt>
      <trkpt lat="59.220207156521" lon="17.753701719448">
        <ele>24.6</ele>
        <time>2017-09-02T08:44:04Z</time>
      </trkpt>
      <trkpt lat="59.220288712408" lon="17.753431151716">
        <ele>24.6</ele>
        <time>2017-09-02T08:44:06Z</time>
      </trkpt>
      <trkpt lat="59.220329699899" lon="17.753297879506">
        <ele>24.2</ele>
        <time>2017-09-02T08:44:07Z</time>
      </trkpt>
      <trkpt lat="59.22037068739" lon="17.753165026391">
        <ele>24.2</ele>
        <time>2017-09-02T08:44:08Z</time>
      </trkpt>
      <trkpt lat="59.220450985992" lon="17.752895715944">
        <ele>24</ele>
        <time>2017-09-02T08:44:10Z</time>
      </trkpt>
      <trkpt lat="59.220522651237" lon="17.752616514855">
        <ele>24</ele>
        <time>2017-09-02T08:44:12Z</time>
      </trkpt>
      <trkpt lat="59.22058610222" lon="17.752332284626">
        <ele>23.8</ele>
        <time>2017-09-02T08:44:14Z</time>
      </trkpt>
      <trkpt lat="59.220641338941" lon="17.75204025923">
        <ele>23.8</ele>
        <time>2017-09-02T08:44:16Z</time>
      </trkpt>
      <trkpt lat="59.220688696676" lon="17.751747144187">
        <ele>23.6</ele>
        <time>2017-09-02T08:44:18Z</time>
      </trkpt>
      <trkpt lat="59.220733456022" lon="17.751450676384">
        <ele>23.6</ele>
        <time>2017-09-02T08:44:20Z</time>
      </trkpt>
      <trkpt lat="59.220778718282" lon="17.751151945468">
        <ele>23.6</ele>
        <time>2017-09-02T08:44:22Z</time>
      </trkpt>
      <trkpt lat="59.220822974714" lon="17.750856148217">
        <ele>23.6</ele>
        <time>2017-09-02T08:44:24Z</time>
      </trkpt>
      <trkpt lat="59.220864548938" lon="17.750564961011">
        <ele>23.6</ele>
        <time>2017-09-02T08:44:26Z</time>
      </trkpt>
      <trkpt lat="59.220909224465" lon="17.750278802945">
        <ele>23.6</ele>
        <time>2017-09-02T08:44:28Z</time>
      </trkpt>
      <trkpt lat="59.220949122309" lon="17.74999339925">
        <ele>23.6</ele>
        <time>2017-09-02T08:44:30Z</time>
      </trkpt>
      <trkpt lat="59.220988517239" lon="17.749711851229">
        <ele>23.8</ele>
        <time>2017-09-02T08:44:32Z</time>
      </trkpt>
      <trkpt lat="59.221026571065" lon="17.749432566321">
        <ele>24</ele>
        <time>2017-09-02T08:44:34Z</time>
      </trkpt>
      <trkpt lat="59.221065043986" lon="17.749156969449">
        <ele>24.8</ele>
        <time>2017-09-02T08:44:36Z</time>
      </trkpt>
      <trkpt lat="59.221104355097" lon="17.748879109464">
        <ele>25</ele>
        <time>2017-09-02T08:44:38Z</time>
      </trkpt>
      <trkpt lat="59.221123884924" lon="17.748739299372">
        <ele>25.2</ele>
        <time>2017-09-02T08:44:39Z</time>
      </trkpt>
      <trkpt lat="59.221142492742" lon="17.748597896719">
        <ele>25.4</ele>
        <time>2017-09-02T08:44:40Z</time>
      </trkpt>
      <trkpt lat="59.221183228776" lon="17.748317438345">
        <ele>25.6</ele>
        <time>2017-09-02T08:44:42Z</time>
      </trkpt>
      <trkpt lat="59.221224719181" lon="17.748036896152">
        <ele>25.8</ele>
        <time>2017-09-02T08:44:44Z</time>
      </trkpt>
      <trkpt lat="59.221265371396" lon="17.747757443606">
        <ele>26</ele>
        <time>2017-09-02T08:44:46Z</time>
      </trkpt>
      <trkpt lat="59.22128599087" lon="17.747617633514">
        <ele>26.2</ele>
        <time>2017-09-02T08:44:47Z</time>
      </trkpt>
      <trkpt lat="59.221306526525" lon="17.747478242517">
        <ele>26.2</ele>
        <time>2017-09-02T08:44:48Z</time>
      </trkpt>
      <trkpt lat="59.221345921455" lon="17.747192503546">
        <ele>26.4</ele>
        <time>2017-09-02T08:44:50Z</time>
      </trkpt>
      <trkpt lat="59.221383053272" lon="17.746899304684">
        <ele>26.6</ele>
        <time>2017-09-02T08:44:52Z</time>
      </trkpt>
      <trkpt lat="59.221420017451" lon="17.746606105822">
        <ele>26.6</ele>
        <time>2017-09-02T08:44:54Z</time>
      </trkpt>
      <trkpt lat="59.221458825648" lon="17.746309973295">
        <ele>26.6</ele>
        <time>2017-09-02T08:44:56Z</time>
      </trkpt>
      <trkpt lat="59.221495454551" lon="17.746010068913">
        <ele>26.6</ele>
        <time>2017-09-02T08:44:58Z</time>
      </trkpt>
      <trkpt lat="59.221536777318" lon="17.745710164531">
        <ele>26.6</ele>
        <time>2017-09-02T08:45:00Z</time>
      </trkpt>
      <trkpt lat="59.221578854456" lon="17.745406320656">
        <ele>26.6</ele>
        <time>2017-09-02T08:45:02Z</time>
      </trkpt>
      <trkpt lat="59.221626715105" lon="17.745107673559">
        <ele>26.6</ele>
        <time>2017-09-02T08:45:04Z</time>
      </trkpt>
      <trkpt lat="59.221683712025" lon="17.744813552688">
        <ele>26.6</ele>
        <time>2017-09-02T08:45:06Z</time>
      </trkpt>
      <trkpt lat="59.221749426121" lon="17.744524293319">
        <ele>26.6</ele>
        <time>2017-09-02T08:45:08Z</time>
      </trkpt>
      <trkpt lat="59.221819414986" lon="17.744239141081">
        <ele>26.6</ele>
        <time>2017-09-02T08:45:10Z</time>
      </trkpt>
      <trkpt lat="59.221892672792" lon="17.743960610544">
        <ele>26.6</ele>
        <time>2017-09-02T08:45:12Z</time>
      </trkpt>
      <trkpt lat="59.22197246848" lon="17.743683672568">
        <ele>26.4</ele>
        <time>2017-09-02T08:45:14Z</time>
      </trkpt>
      <trkpt lat="59.222051425978" lon="17.743406399316">
        <ele>26.4</ele>
        <time>2017-09-02T08:45:16Z</time>
      </trkpt>
      <trkpt lat="59.222130383476" lon="17.743121247078">
        <ele>26.4</ele>
        <time>2017-09-02T08:45:18Z</time>
      </trkpt>
      <trkpt lat="59.222215627399" lon="17.742833244994">
        <ele>26.4</ele>
        <time>2017-09-02T08:45:20Z</time>
      </trkpt>
      <trkpt lat="59.222302547702" lon="17.742534262621">
        <ele>26.4</ele>
        <time>2017-09-02T08:45:22Z</time>
      </trkpt>
      <trkpt lat="59.222392653127" lon="17.742226143977">
        <ele>26.2</ele>
        <time>2017-09-02T08:45:24Z</time>
      </trkpt>
      <trkpt lat="59.222486362769" lon="17.741912744736">
        <ele>26.2</ele>
        <time>2017-09-02T08:45:26Z</time>
      </trkpt>
      <trkpt lat="59.222578396031" lon="17.741592891432">
        <ele>26.2</ele>
        <time>2017-09-02T08:45:28Z</time>
      </trkpt>
      <trkpt lat="59.222681744858" lon="17.741288460824">
        <ele>25.6</ele>
        <time>2017-09-02T08:45:30Z</time>
      </trkpt>
      <trkpt lat="59.222793727042" lon="17.740987131519">
        <ele>25</ele>
        <time>2017-09-02T08:45:32Z</time>
      </trkpt>
      <trkpt lat="59.222850556324" lon="17.740835922043">
        <ele>24.6</ele>
        <time>2017-09-02T08:45:33Z</time>
      </trkpt>
      <trkpt lat="59.222908810529" lon="17.740685383119">
        <ele>24.2</ele>
        <time>2017-09-02T08:45:34Z</time>
      </trkpt>
      <trkpt lat="59.223028336423" lon="17.740382964167">
        <ele>23.6</ele>
        <time>2017-09-02T08:45:36Z</time>
      </trkpt>
      <trkpt lat="59.223151634172" lon="17.740079120292">
        <ele>22.8</ele>
        <time>2017-09-02T08:45:38Z</time>
      </trkpt>
      <trkpt lat="59.223212738223" lon="17.739925480065">
        <ele>22.6</ele>
        <time>2017-09-02T08:45:39Z</time>
      </trkpt>
      <trkpt lat="59.223273758455" lon="17.739771001648">
        <ele>22.2</ele>
        <time>2017-09-02T08:45:40Z</time>
      </trkpt>
      <trkpt lat="59.223397307661" lon="17.739461374262">
        <ele>22</ele>
        <time>2017-09-02T08:45:42Z</time>
      </trkpt>
      <trkpt lat="59.223521527419" lon="17.739149399944">
        <ele>21.6</ele>
        <time>2017-09-02T08:45:44Z</time>
      </trkpt>
      <trkpt lat="59.223583553479" lon="17.738992742233">
        <ele>21.4</ele>
        <time>2017-09-02T08:45:45Z</time>
      </trkpt>
      <trkpt lat="59.22364633391" lon="17.73883625216">
        <ele>21</ele>
        <time>2017-09-02T08:45:46Z</time>
      </trkpt>
      <trkpt lat="59.223774325523" lon="17.73852360729">
        <ele>20.6</ele>
        <time>2017-09-02T08:45:48Z</time>
      </trkpt>
      <trkpt lat="59.223838111782" lon="17.738366614303">
        <ele>20.4</ele>
        <time>2017-09-02T08:45:49Z</time>
      </trkpt>
      <trkpt lat="59.223901898041" lon="17.738211046239">
        <ele>20.2</ele>
        <time>2017-09-02T08:45:50Z</time>
      </trkpt>
      <trkpt lat="59.224028883826" lon="17.737902927595">
        <ele>19.8</ele>
        <time>2017-09-02T08:45:52Z</time>
      </trkpt>
      <trkpt lat="59.224154109412" lon="17.737600005729">
        <ele>19.2</ele>
        <time>2017-09-02T08:45:54Z</time>
      </trkpt>
      <trkpt lat="59.224275982238" lon="17.73729649713">
        <ele>18.6</ele>
        <time>2017-09-02T08:45:56Z</time>
      </trkpt>
      <trkpt lat="59.224399447625" lon="17.736997682395">
        <ele>17.8</ele>
        <time>2017-09-02T08:45:58Z</time>
      </trkpt>
      <trkpt lat="59.224527606876" lon="17.736704902628">
        <ele>17.4</ele>
        <time>2017-09-02T08:46:00Z</time>
      </trkpt>
      <trkpt lat="59.224655011756" lon="17.736414553612">
        <ele>17</ele>
        <time>2017-09-02T08:46:02Z</time>
      </trkpt>
      <trkpt lat="59.224778812419" lon="17.736128311727">
        <ele>16.6</ele>
        <time>2017-09-02T08:46:04Z</time>
      </trkpt>
      <trkpt lat="59.22489691339" lon="17.735845757878">
        <ele>16.4</ele>
        <time>2017-09-02T08:46:06Z</time>
      </trkpt>
      <trkpt lat="59.225012164515" lon="17.735567227341">
        <ele>16.4</ele>
        <time>2017-09-02T08:46:08Z</time>
      </trkpt>
      <trkpt lat="59.225123811423" lon="17.735289451175">
        <ele>16.4</ele>
        <time>2017-09-02T08:46:10Z</time>
      </trkpt>
      <trkpt lat="59.22523218939" lon="17.735005975317">
        <ele>16.4</ele>
        <time>2017-09-02T08:46:12Z</time>
      </trkpt>
      <trkpt lat="59.225337633692" lon="17.734715626301">
        <ele>16.4</ele>
        <time>2017-09-02T08:46:14Z</time>
      </trkpt>
      <trkpt lat="59.225439557596" lon="17.734415135186">
        <ele>16.4</ele>
        <time>2017-09-02T08:46:16Z</time>
      </trkpt>
      <trkpt lat="59.225539218387" lon="17.734106848904">
        <ele>16.4</ele>
        <time>2017-09-02T08:46:18Z</time>
      </trkpt>
      <trkpt lat="59.225639968825" lon="17.733797137699">
        <ele>16.4</ele>
        <time>2017-09-02T08:46:20Z</time>
      </trkpt>
      <trkpt lat="59.225739881073" lon="17.733491533625">
        <ele>16.2</ele>
        <time>2017-09-02T08:46:22Z</time>
      </trkpt>
      <trkpt lat="59.225838368398" lon="17.733191713062">
        <ele>16.2</ele>
        <time>2017-09-02T08:46:24Z</time>
      </trkpt>
      <trkpt lat="59.225934760248" lon="17.732898765657">
        <ele>16</ele>
        <time>2017-09-02T08:46:26Z</time>
      </trkpt>
      <trkpt lat="59.22603098446" lon="17.732605063881">
        <ele>15.8</ele>
        <time>2017-09-02T08:46:28Z</time>
      </trkpt>
      <trkpt lat="59.226128382138" lon="17.73231345758">
        <ele>15.8</ele>
        <time>2017-09-02T08:46:30Z</time>
      </trkpt>
      <trkpt lat="59.22622544454" lon="17.732025706953">
        <ele>15.8</ele>
        <time>2017-09-02T08:46:32Z</time>
      </trkpt>
      <trkpt lat="59.226320327648" lon="17.73173762105">
        <ele>15.4</ele>
        <time>2017-09-02T08:46:34Z</time>
      </trkpt>
      <trkpt lat="59.22641655186" lon="17.731452049717">
        <ele>15.4</ele>
        <time>2017-09-02T08:46:36Z</time>
      </trkpt>
      <trkpt lat="59.226512776072" lon="17.731168992954">
        <ele>15.4</ele>
        <time>2017-09-02T08:46:38Z</time>
      </trkpt>
      <trkpt lat="59.226603300592" lon="17.730882918707">
        <ele>15.6</ele>
        <time>2017-09-02T08:46:40Z</time>
      </trkpt>
      <trkpt lat="59.226688293058" lon="17.730591647682">
        <ele>15.6</ele>
        <time>2017-09-02T08:46:42Z</time>
      </trkpt>
      <trkpt lat="59.226767585832" lon="17.73029258149">
        <ele>15.6</ele>
        <time>2017-09-02T08:46:44Z</time>
      </trkpt>
      <trkpt lat="59.226845118407" lon="17.729990581633">
        <ele>15.6</ele>
        <time>2017-09-02T08:46:46Z</time>
      </trkpt>
      <trkpt lat="59.226917538023" lon="17.729684809921">
        <ele>15.8</ele>
        <time>2017-09-02T08:46:48Z</time>
      </trkpt>
      <trkpt lat="59.226988281259" lon="17.729380882227">
        <ele>15.8</ele>
        <time>2017-09-02T08:46:50Z</time>
      </trkpt>
      <trkpt lat="59.227057934848" lon="17.729080894026">
        <ele>15.8</ele>
        <time>2017-09-02T08:46:52Z</time>
      </trkpt>
      <trkpt lat="59.227127253161" lon="17.728783336576">
        <ele>16</ele>
        <time>2017-09-02T08:46:54Z</time>
      </trkpt>
      <trkpt lat="59.227194811275" lon="17.728488293696">
        <ele>16.2</ele>
        <time>2017-09-02T08:46:56Z</time>
      </trkpt>
      <trkpt lat="59.227261866475" lon="17.728197693223">
        <ele>16.2</ele>
        <time>2017-09-02T08:46:58Z</time>
      </trkpt>
      <trkpt lat="59.227328418761" lon="17.727911451338">
        <ele>16</ele>
        <time>2017-09-02T08:47:00Z</time>
      </trkpt>
      <trkpt lat="59.227395473961" lon="17.727629400403">
        <ele>16.2</ele>
        <time>2017-09-02T08:47:02Z</time>
      </trkpt>
      <trkpt lat="59.227461355695" lon="17.727350450771">
        <ele>16.4</ele>
        <time>2017-09-02T08:47:04Z</time>
      </trkpt>
      <trkpt lat="59.227521453918" lon="17.727074267166">
        <ele>16.4</ele>
        <time>2017-09-02T08:47:06Z</time>
      </trkpt>
      <trkpt lat="59.227575600992" lon="17.726802190692">
        <ele>16.8</ele>
        <time>2017-09-02T08:47:08Z</time>
      </trkpt>
      <trkpt lat="59.227630167161" lon="17.726535730091">
        <ele>17.2</ele>
        <time>2017-09-02T08:47:10Z</time>
      </trkpt>
      <trkpt lat="59.227684146597" lon="17.726271951698">
        <ele>17.8</ele>
        <time>2017-09-02T08:47:12Z</time>
      </trkpt>
      <trkpt lat="59.227736198196" lon="17.726009765866">
        <ele>18.4</ele>
        <time>2017-09-02T08:47:14Z</time>
      </trkpt>
      <trkpt lat="59.227783723569" lon="17.725749926966">
        <ele>19.2</ele>
        <time>2017-09-02T08:47:16Z</time>
      </trkpt>
      <trkpt lat="59.227831919494" lon="17.725499391975">
        <ele>19.6</ele>
        <time>2017-09-02T08:47:18Z</time>
      </trkpt>
      <trkpt lat="59.227878858134" lon="17.725254724314">
        <ele>20.4</ele>
        <time>2017-09-02T08:47:20Z</time>
      </trkpt>
      <trkpt lat="59.227925210041" lon="17.725014247603">
        <ele>21</ele>
        <time>2017-09-02T08:47:22Z</time>
      </trkpt>
      <trkpt lat="59.227974663251" lon="17.724776536919">
        <ele>21.6</ele>
        <time>2017-09-02T08:47:24Z</time>
      </trkpt>
      <trkpt lat="59.228025960479" lon="17.724537736588">
        <ele>22.2</ele>
        <time>2017-09-02T08:47:26Z</time>
      </trkpt>
      <trkpt lat="59.228075832784" lon="17.724296002592">
        <ele>22.6</ele>
        <time>2017-09-02T08:47:28Z</time>
      </trkpt>
      <trkpt lat="59.22812897403" lon="17.72405477151">
        <ele>23.2</ele>
        <time>2017-09-02T08:47:30Z</time>
      </trkpt>
      <trkpt lat="59.228187144416" lon="17.723814881532">
        <ele>24.4</ele>
        <time>2017-09-02T08:47:32Z</time>
      </trkpt>
      <trkpt lat="59.228248248467" lon="17.723575410649">
        <ele>24.6</ele>
        <time>2017-09-02T08:47:34Z</time>
      </trkpt>
      <trkpt lat="59.228314549296" lon="17.723336275042">
        <ele>25.2</ele>
        <time>2017-09-02T08:47:36Z</time>
      </trkpt>
      <trkpt lat="59.228350340009" lon="17.723215910958">
        <ele>25.4</ele>
        <time>2017-09-02T08:47:37Z</time>
      </trkpt>
      <trkpt lat="59.228389902577" lon="17.723096971797">
        <ele>25.6</ele>
        <time>2017-09-02T08:47:38Z</time>
      </trkpt>
      <trkpt lat="59.228467183695" lon="17.722859344932">
        <ele>26</ele>
        <time>2017-09-02T08:47:40Z</time>
      </trkpt>
      <trkpt lat="59.228552427618" lon="17.722633788003">
        <ele>26.4</ele>
        <time>2017-09-02T08:47:42Z</time>
      </trkpt>
      <trkpt lat="59.228597857516" lon="17.722523733656">
        <ele>26.4</ele>
        <time>2017-09-02T08:47:43Z</time>
      </trkpt>
      <trkpt lat="59.228643874147" lon="17.722413344033">
        <ele>26.6</ele>
        <time>2017-09-02T08:47:44Z</time>
      </trkpt>
      <trkpt lat="59.228734650124" lon="17.72218979876">
        <ele>26.6</ele>
        <time>2017-09-02T08:47:46Z</time>
      </trkpt>
      <trkpt lat="59.228823582083" lon="17.721963068365">
        <ele>27</ele>
        <time>2017-09-02T08:47:48Z</time>
      </trkpt>
      <trkpt lat="59.228915028612" lon="17.721737679074">
        <ele>27.4</ele>
        <time>2017-09-02T08:47:50Z</time>
      </trkpt>
      <trkpt lat="59.229007816245" lon="17.721512038326">
        <ele>27.8</ele>
        <time>2017-09-02T08:47:52Z</time>
      </trkpt>
      <trkpt lat="59.229103705181" lon="17.721290756166">
        <ele>28</ele>
        <time>2017-09-02T08:47:54Z</time>
      </trkpt>
      <trkpt lat="59.22919096076" lon="17.721067797626">
        <ele>28.4</ele>
        <time>2017-09-02T08:47:56Z</time>
      </trkpt>
      <trkpt lat="59.229235133373" lon="17.720956988908">
        <ele>28.4</ele>
        <time>2017-09-02T08:47:57Z</time>
      </trkpt>
      <trkpt lat="59.229281401461" lon="17.720843917077">
        <ele>28.6</ele>
        <time>2017-09-02T08:47:58Z</time>
      </trkpt>
      <trkpt lat="59.229369998144" lon="17.720607631316">
        <ele>29</ele>
        <time>2017-09-02T08:48:00Z</time>
      </trkpt>
      <trkpt lat="59.229464043062" lon="17.720376374695">
        <ele>29.2</ele>
        <time>2017-09-02T08:48:02Z</time>
      </trkpt>
      <trkpt lat="59.229555405772" lon="17.720146207721">
        <ele>29.2</ele>
        <time>2017-09-02T08:48:04Z</time>
      </trkpt>
      <trkpt lat="59.229640482057" lon="17.719907826485">
        <ele>29.4</ele>
        <time>2017-09-02T08:48:06Z</time>
      </trkpt>
      <trkpt lat="59.229679290254" lon="17.719783942003">
        <ele>29.2</ele>
        <time>2017-09-02T08:48:07Z</time>
      </trkpt>
      <trkpt lat="59.229718098451" lon="17.719658716417">
        <ele>29.4</ele>
        <time>2017-09-02T08:48:08Z</time>
      </trkpt>
      <trkpt lat="59.229792362085" lon="17.719401224449">
        <ele>29.4</ele>
        <time>2017-09-02T08:48:10Z</time>
      </trkpt>
      <trkpt lat="59.229858579095" lon="17.719134512391">
        <ele>29.4</ele>
        <time>2017-09-02T08:48:12Z</time>
      </trkpt>
      <trkpt lat="59.229918342042" lon="17.718862268279">
        <ele>29.6</ele>
        <time>2017-09-02T08:48:14Z</time>
      </trkpt>
      <trkpt lat="59.229969220175" lon="17.718580384982">
        <ele>29.6</ele>
        <time>2017-09-02T08:48:16Z</time>
      </trkpt>
      <trkpt lat="59.230014482435" lon="17.718289197776">
        <ele>29.6</ele>
        <time>2017-09-02T08:48:18Z</time>
      </trkpt>
      <trkpt lat="59.230054464098" lon="17.71798627591">
        <ele>29.6</ele>
        <time>2017-09-02T08:48:20Z</time>
      </trkpt>
      <trkpt lat="59.230091428277" lon="17.717672541393">
        <ele>29.6</ele>
        <time>2017-09-02T08:48:22Z</time>
      </trkpt>
      <trkpt lat="59.230129146827" lon="17.717353693917">
        <ele>29.6</ele>
        <time>2017-09-02T08:48:24Z</time>
      </trkpt>
      <trkpt lat="59.230170218137" lon="17.71703576845">
        <ele>29.2</ele>
        <time>2017-09-02T08:48:26Z</time>
      </trkpt>
      <trkpt lat="59.230210032162" lon="17.716718010621">
        <ele>29</ele>
        <time>2017-09-02T08:48:28Z</time>
      </trkpt>
      <trkpt lat="59.23024875654" lon="17.716402012991">
        <ele>28.4</ele>
        <time>2017-09-02T08:48:30Z</time>
      </trkpt>
      <trkpt lat="59.230269040738" lon="17.716245522918">
        <ele>28</ele>
        <time>2017-09-02T08:48:31Z</time>
      </trkpt>
      <trkpt lat="59.230287397099" lon="17.716089032845">
        <ele>27.8</ele>
        <time>2017-09-02T08:48:32Z</time>
      </trkpt>
      <trkpt lat="59.230324445097" lon="17.715779237821">
        <ele>27.6</ele>
        <time>2017-09-02T08:48:34Z</time>
      </trkpt>
      <trkpt lat="59.230367444244" lon="17.715477740878">
        <ele>27.4</ele>
        <time>2017-09-02T08:48:36Z</time>
      </trkpt>
      <trkpt lat="59.230416813635" lon="17.715178423229">
        <ele>27.4</ele>
        <time>2017-09-02T08:48:38Z</time>
      </trkpt>
      <trkpt lat="59.230469368148" lon="17.714882290702">
        <ele>27.2</ele>
        <time>2017-09-02T08:48:40Z</time>
      </trkpt>
      <trkpt lat="59.230523347584" lon="17.714577692456">
        <ele>27.2</ele>
        <time>2017-09-02T08:48:42Z</time>
      </trkpt>
      <trkpt lat="59.230580260685" lon="17.714278626264">
        <ele>27.2</ele>
        <time>2017-09-02T08:48:44Z</time>
      </trkpt>
      <trkpt lat="59.230639101623" lon="17.71397721314">
        <ele>27.2</ele>
        <time>2017-09-02T08:48:46Z</time>
      </trkpt>
      <trkpt lat="59.230699954217" lon="17.713673453084">
        <ele>27.2</ele>
        <time>2017-09-02T08:48:48Z</time>
      </trkpt>
      <trkpt lat="59.230763153743" lon="17.713372459055">
        <ele>27.2</ele>
        <time>2017-09-02T08:48:50Z</time>
      </trkpt>
      <trkpt lat="59.230828951658" lon="17.713070375379">
        <ele>27.2</ele>
        <time>2017-09-02T08:48:52Z</time>
      </trkpt>
      <trkpt lat="59.230897599419" lon="17.712768459341">
        <ele>27</ele>
        <time>2017-09-02T08:48:54Z</time>
      </trkpt>
      <trkpt lat="59.230965660447" lon="17.712467800588">
        <ele>26.8</ele>
        <time>2017-09-02T08:48:56Z</time>
      </trkpt>
      <trkpt lat="59.231039588805" lon="17.712174098812">
        <ele>26.6</ele>
        <time>2017-09-02T08:48:58Z</time>
      </trkpt>
      <trkpt lat="59.231115696457" lon="17.711878050104">
        <ele>26.6</ele>
        <time>2017-09-02T08:49:00Z</time>
      </trkpt>
      <trkpt lat="59.231193229032" lon="17.711578480998">
        <ele>26.6</ele>
        <time>2017-09-02T08:49:02Z</time>
      </trkpt>
      <trkpt lat="59.23127973024" lon="17.71128327048">
        <ele>26.4</ele>
        <time>2017-09-02T08:49:04Z</time>
      </trkpt>
      <trkpt lat="59.231369165113" lon="17.710990825989">
        <ele>26.4</ele>
        <time>2017-09-02T08:49:06Z</time>
      </trkpt>
      <trkpt lat="59.231457677977" lon="17.710700309335">
        <ele>26.2</ele>
        <time>2017-09-02T08:49:08Z</time>
      </trkpt>
      <trkpt lat="59.231550046515" lon="17.710413899812">
        <ele>26.2</ele>
        <time>2017-09-02T08:49:10Z</time>
      </trkpt>
      <trkpt lat="59.231646773641" lon="17.710130423954">
        <ele>25.8</ele>
        <time>2017-09-02T08:49:12Z</time>
      </trkpt>
      <trkpt lat="59.231695053385" lon="17.709988518387">
        <ele>25.4</ele>
        <time>2017-09-02T08:49:13Z</time>
      </trkpt>
      <trkpt lat="59.231743919862" lon="17.709840242576">
        <ele>25.4</ele>
        <time>2017-09-02T08:49:14Z</time>
      </trkpt>
      <trkpt lat="59.231842658644" lon="17.709540841108">
        <ele>25.2</ele>
        <time>2017-09-02T08:49:16Z</time>
      </trkpt>
      <trkpt lat="59.231941145969" lon="17.709233979749">
        <ele>25.2</ele>
        <time>2017-09-02T08:49:18Z</time>
      </trkpt>
      <trkpt lat="59.232037118724" lon="17.708924436182">
        <ele>24.8</ele>
        <time>2017-09-02T08:49:20Z</time>
      </trkpt>
      <trkpt lat="59.232128565253" lon="17.708615898443">
        <ele>24.6</ele>
        <time>2017-09-02T08:49:22Z</time>
      </trkpt>
      <trkpt lat="59.232171983495" lon="17.708461755302">
        <ele>24.4</ele>
        <time>2017-09-02T08:49:23Z</time>
      </trkpt>
      <trkpt lat="59.23221431209" lon="17.708308450351">
        <ele>24.4</ele>
        <time>2017-09-02T08:49:24Z</time>
      </trkpt>
      <trkpt lat="59.232293437226" lon="17.70799840387">
        <ele>24</ele>
        <time>2017-09-02T08:49:26Z</time>
      </trkpt>
      <trkpt lat="59.232360408607" lon="17.70768156805">
        <ele>23.8</ele>
        <time>2017-09-02T08:49:28Z</time>
      </trkpt>
      <trkpt lat="59.232416567337" lon="17.707360373642">
        <ele>23.6</ele>
        <time>2017-09-02T08:49:30Z</time>
      </trkpt>
      <trkpt lat="59.232457051914" lon="17.70704119089">
        <ele>23.6</ele>
        <time>2017-09-02T08:49:32Z</time>
      </trkpt>
      <trkpt lat="59.232486556202" lon="17.706716224627">
        <ele>23.6</ele>
        <time>2017-09-02T08:49:34Z</time>
      </trkpt>
      <trkpt lat="59.232502565631" lon="17.706382541188">
        <ele>23.6</ele>
        <time>2017-09-02T08:49:36Z</time>
      </trkpt>
      <trkpt lat="59.232507008038" lon="17.706042152229">
        <ele>23.6</ele>
        <time>2017-09-02T08:49:38Z</time>
      </trkpt>
      <trkpt lat="59.232503320002" lon="17.705690363886">
        <ele>23.6</ele>
        <time>2017-09-02T08:49:40Z</time>
      </trkpt>
      <trkpt lat="59.232487394392" lon="17.705330696557">
        <ele>23.6</ele>
        <time>2017-09-02T08:49:42Z</time>
      </trkpt>
      <trkpt lat="59.232450346394" lon="17.704967844106">
        <ele>23.6</ele>
        <time>2017-09-02T08:49:44Z</time>
      </trkpt>
      <trkpt lat="59.232387649782" lon="17.704608260596">
        <ele>23.2</ele>
        <time>2017-09-02T08:49:46Z</time>
      </trkpt>
      <trkpt lat="59.232305423343" lon="17.704260579384">
        <ele>22.6</ele>
        <time>2017-09-02T08:49:48Z</time>
      </trkpt>
      <trkpt lat="59.232260244902" lon="17.704089840081">
        <ele>22.2</ele>
        <time>2017-09-02T08:49:49Z</time>
      </trkpt>
      <trkpt lat="59.2322134739" lon="17.703919603692">
        <ele>22</ele>
        <time>2017-09-02T08:49:50Z</time>
      </trkpt>
      <trkpt lat="59.232115573308" lon="17.703580639656">
        <ele>21.2</ele>
        <time>2017-09-02T08:49:52Z</time>
      </trkpt>
      <trkpt lat="59.232064527537" lon="17.703409732715">
        <ele>20.8</ele>
        <time>2017-09-02T08:49:53Z</time>
      </trkpt>
      <trkpt lat="59.232012559757" lon="17.70323832286">
        <ele>20.4</ele>
        <time>2017-09-02T08:49:54Z</time>
      </trkpt>
      <trkpt lat="59.231909127111" lon="17.702890390191">
        <ele>19.6</ele>
        <time>2017-09-02T08:49:56Z</time>
      </trkpt>
      <trkpt lat="59.23180527537" lon="17.702532734518">
        <ele>18.8</ele>
        <time>2017-09-02T08:49:58Z</time>
      </trkpt>
      <trkpt lat="59.231753642866" lon="17.70235151784">
        <ele>18.6</ele>
        <time>2017-09-02T08:49:59Z</time>
      </trkpt>
      <trkpt lat="59.231702597095" lon="17.70216879242">
        <ele>18.2</ele>
        <time>2017-09-02T08:50:00Z</time>
      </trkpt>
      <trkpt lat="59.231601092286" lon="17.701798480078">
        <ele>17.4</ele>
        <time>2017-09-02T08:50:02Z</time>
      </trkpt>
      <trkpt lat="59.231509981033" lon="17.701420791664">
        <ele>16.6</ele>
        <time>2017-09-02T08:50:04Z</time>
      </trkpt>
      <trkpt lat="59.231435717399" lon="17.701049054399">
        <ele>15.6</ele>
        <time>2017-09-02T08:50:06Z</time>
      </trkpt>
      <trkpt lat="59.23137696028" lon="17.700691650183">
        <ele>14.8</ele>
        <time>2017-09-02T08:50:08Z</time>
      </trkpt>
      <trkpt lat="59.231353239503" lon="17.700521329975">
        <ele>14.6</ele>
        <time>2017-09-02T08:50:09Z</time>
      </trkpt>
      <trkpt lat="59.23133169802" lon="17.700356122726">
        <ele>14.4</ele>
        <time>2017-09-02T08:50:10Z</time>
      </trkpt>
      <trkpt lat="59.231294650022" lon="17.700047165892">
        <ele>14.4</ele>
        <time>2017-09-02T08:50:12Z</time>
      </trkpt>
      <trkpt lat="59.231262212069" lon="17.699759415265">
        <ele>14.4</ele>
        <time>2017-09-02T08:50:14Z</time>
      </trkpt>
      <trkpt lat="59.231231701953" lon="17.699490104818">
        <ele>14.4</ele>
        <time>2017-09-02T08:50:16Z</time>
      </trkpt>
      <trkpt lat="59.231204544597" lon="17.699241581483">
        <ele>14.8</ele>
        <time>2017-09-02T08:50:18Z</time>
      </trkpt>
      <trkpt lat="59.231179734173" lon="17.699011749785">
        <ele>15.8</ele>
        <time>2017-09-02T08:50:20Z</time>
      </trkpt>
      <trkpt lat="59.231155426663" lon="17.698788791245">
        <ele>16.8</ele>
        <time>2017-09-02T08:50:22Z</time>
      </trkpt>
      <trkpt lat="59.231133717542" lon="17.698574130786">
        <ele>19</ele>
        <time>2017-09-02T08:50:24Z</time>
      </trkpt>
      <trkpt lat="59.23111293043" lon="17.69836927715">
        <ele>20.2</ele>
        <time>2017-09-02T08:50:26Z</time>
      </trkpt>
      <trkpt lat="59.231092562413" lon="17.698170877577">
        <ele>21.2</ele>
        <time>2017-09-02T08:50:28Z</time>
      </trkpt>
      <trkpt lat="59.231083174685" lon="17.6980717197">
        <ele>21.6</ele>
        <time>2017-09-02T08:50:29Z</time>
      </trkpt>
      <trkpt lat="59.231073451681" lon="17.697973567651">
        <ele>22</ele>
        <time>2017-09-02T08:50:30Z</time>
      </trkpt>
      <trkpt lat="59.231053167483" lon="17.697780951589">
        <ele>22.4</ele>
        <time>2017-09-02T08:50:32Z</time>
      </trkpt>
      <trkpt lat="59.23104252247" lon="17.697685900843">
        <ele>22.8</ele>
        <time>2017-09-02T08:50:33Z</time>
      </trkpt>
      <trkpt lat="59.231031626" lon="17.69759143683">
        <ele>23.2</ele>
        <time>2017-09-02T08:50:34Z</time>
      </trkpt>
      <trkpt lat="59.231010419793" lon="17.697403346994">
        <ele>23.8</ele>
        <time>2017-09-02T08:50:36Z</time>
      </trkpt>
      <trkpt lat="59.231001199703" lon="17.697311565189">
        <ele>24.2</ele>
        <time>2017-09-02T08:50:37Z</time>
      </trkpt>
      <trkpt lat="59.230993572174" lon="17.697222717049">
        <ele>24.4</ele>
        <time>2017-09-02T08:50:38Z</time>
      </trkpt>
      <trkpt lat="59.230983765351" lon="17.697131773434">
        <ele>25</ele>
        <time>2017-09-02T08:50:39Z</time>
      </trkpt>
      <trkpt lat="59.230972282148" lon="17.697041416552">
        <ele>25.2</ele>
        <time>2017-09-02T08:50:40Z</time>
      </trkpt>
      <trkpt lat="59.230954261063" lon="17.696862127711">
        <ele>25.8</ele>
        <time>2017-09-02T08:50:42Z</time>
      </trkpt>
      <trkpt lat="59.230936407616" lon="17.696686694544">
        <ele>26.8</ele>
        <time>2017-09-02T08:50:44Z</time>
      </trkpt>
      <trkpt lat="59.230919392359" lon="17.696508998264">
        <ele>27.4</ele>
        <time>2017-09-02T08:50:46Z</time>
      </trkpt>
      <trkpt lat="59.230902963835" lon="17.696325099378">
        <ele>28</ele>
        <time>2017-09-02T08:50:48Z</time>
      </trkpt>
      <trkpt lat="59.230884020741" lon="17.696140110845">
        <ele>28.6</ele>
        <time>2017-09-02T08:50:50Z</time>
      </trkpt>
      <trkpt lat="59.23087488447" lon="17.696045311556">
        <ele>29.2</ele>
        <time>2017-09-02T08:50:51Z</time>
      </trkpt>
      <trkpt lat="59.23086566438" lon="17.695951350457">
        <ele>29.4</ele>
        <time>2017-09-02T08:50:52Z</time>
      </trkpt>
      <trkpt lat="59.230845128725" lon="17.695763009164">
        <ele>29.6</ele>
        <time>2017-09-02T08:50:54Z</time>
      </trkpt>
      <trkpt lat="59.230826520907" lon="17.695585983436">
        <ele>30.2</ele>
        <time>2017-09-02T08:50:56Z</time>
      </trkpt>
      <trkpt lat="59.23080950565" lon="17.695410047355">
        <ele>30.6</ele>
        <time>2017-09-02T08:50:58Z</time>
      </trkpt>
      <trkpt lat="59.230795507877" lon="17.695235452378">
        <ele>31.2</ele>
        <time>2017-09-02T08:51:00Z</time>
      </trkpt>
      <trkpt lat="59.230780336638" lon="17.695062114686">
        <ele>31.6</ele>
        <time>2017-09-02T08:51:02Z</time>
      </trkpt>
      <trkpt lat="59.230756951137" lon="17.694896320704">
        <ele>32.2</ele>
        <time>2017-09-02T08:51:04Z</time>
      </trkpt>
      <trkpt lat="59.230747060495" lon="17.694817447025">
        <ele>32.6</ele>
        <time>2017-09-02T08:51:05Z</time>
      </trkpt>
      <trkpt lat="59.230738510957" lon="17.694736729328">
        <ele>33</ele>
        <time>2017-09-02T08:51:06Z</time>
      </trkpt>
      <trkpt lat="59.230725267555" lon="17.694562637265">
        <ele>33.6</ele>
        <time>2017-09-02T08:51:08Z</time>
      </trkpt>
      <trkpt lat="59.230717723845" lon="17.694473118573">
        <ele>33.8</ele>
        <time>2017-09-02T08:51:09Z</time>
      </trkpt>
      <trkpt lat="59.230707581746" lon="17.694381923501">
        <ele>34</ele>
        <time>2017-09-02T08:51:10Z</time>
      </trkpt>
      <trkpt lat="59.230686207901" lon="17.694212022388">
        <ele>34.2</ele>
        <time>2017-09-02T08:51:12Z</time>
      </trkpt>
      <trkpt lat="59.230669444101" lon="17.694045138759">
        <ele>34.8</ele>
        <time>2017-09-02T08:51:14Z</time>
      </trkpt>
      <trkpt lat="59.230646226238" lon="17.693871381972">
        <ele>35.4</ele>
        <time>2017-09-02T08:51:16Z</time>
      </trkpt>
      <trkpt lat="59.230623008375" lon="17.693696284081">
        <ele>36</ele>
        <time>2017-09-02T08:51:18Z</time>
      </trkpt>
      <trkpt lat="59.230599371417" lon="17.693510457358">
        <ele>36.6</ele>
        <time>2017-09-02T08:51:20Z</time>
      </trkpt>
      <trkpt lat="59.230576907925" lon="17.693322786617">
        <ele>37</ele>
        <time>2017-09-02T08:51:22Z</time>
      </trkpt>
      <trkpt lat="59.23055218132" lon="17.693134948238">
        <ele>37.4</ele>
        <time>2017-09-02T08:51:24Z</time>
      </trkpt>
      <trkpt lat="59.230520665376" lon="17.692941913081">
        <ele>37.6</ele>
        <time>2017-09-02T08:51:26Z</time>
      </trkpt>
      <trkpt lat="59.230491244907" lon="17.69274669863">
        <ele>38</ele>
        <time>2017-09-02T08:51:28Z</time>
      </trkpt>
      <trkpt lat="59.230475319297" lon="17.692647205477">
        <ele>38.4</ele>
        <time>2017-09-02T08:51:29Z</time>
      </trkpt>
      <trkpt lat="59.230458471678" lon="17.692548801971">
        <ele>38.6</ele>
        <time>2017-09-02T08:51:30Z</time>
      </trkpt>
      <trkpt lat="59.230422597146" lon="17.692345540896">
        <ele>38.8</ele>
        <time>2017-09-02T08:51:32Z</time>
      </trkpt>
      <trkpt lat="59.230383286035" lon="17.692140603441">
        <ele>39.2</ele>
        <time>2017-09-02T08:51:34Z</time>
      </trkpt>
      <trkpt lat="59.230343136734" lon="17.691935833624">
        <ele>39.6</ele>
        <time>2017-09-02T08:51:36Z</time>
      </trkpt>
      <trkpt lat="59.230298796483" lon="17.691727208133">
        <ele>39.6</ele>
        <time>2017-09-02T08:51:38Z</time>
      </trkpt>
      <trkpt lat="59.230249007997" lon="17.691523025049">
        <ele>39.8</ele>
        <time>2017-09-02T08:51:40Z</time>
      </trkpt>
      <trkpt lat="59.230196956398" lon="17.691324876933">
        <ele>40</ele>
        <time>2017-09-02T08:51:42Z</time>
      </trkpt>
      <trkpt lat="59.23014565917" lon="17.691132260871">
        <ele>40.2</ele>
        <time>2017-09-02T08:51:44Z</time>
      </trkpt>
      <trkpt lat="59.230088746069" lon="17.690937214058">
        <ele>40.2</ele>
        <time>2017-09-02T08:51:46Z</time>
      </trkpt>
      <trkpt lat="59.2300593256" lon="17.690840235475">
        <ele>40.6</ele>
        <time>2017-09-02T08:51:47Z</time>
      </trkpt>
      <trkpt lat="59.230027139104" lon="17.690743340711">
        <ele>40.6</ele>
        <time>2017-09-02T08:51:48Z</time>
      </trkpt>
      <trkpt lat="59.22996125737" lon="17.690552401029">
        <ele>40.6</ele>
        <time>2017-09-02T08:51:50Z</time>
      </trkpt>
      <trkpt lat="59.229894034532" lon="17.690366741944">
        <ele>41</ele>
        <time>2017-09-02T08:51:52Z</time>
      </trkpt>
      <trkpt lat="59.229826895513" lon="17.690189213302">
        <ele>41.2</ele>
        <time>2017-09-02T08:51:54Z</time>
      </trkpt>
      <trkpt lat="59.229756822829" lon="17.690009924461">
        <ele>41.4</ele>
        <time>2017-09-02T08:51:56Z</time>
      </trkpt>
      <trkpt lat="59.229689516172" lon="17.68984404666">
        <ele>41.2</ele>
        <time>2017-09-02T08:51:58Z</time>
      </trkpt>
      <trkpt lat="59.229612235054" lon="17.689685209655">
        <ele>41.4</ele>
        <time>2017-09-02T08:52:00Z</time>
      </trkpt>
      <trkpt lat="59.2295396478" lon="17.689526875564">
        <ele>41.6</ele>
        <time>2017-09-02T08:52:02Z</time>
      </trkpt>
      <trkpt lat="59.22947594536" lon="17.689371056043">
        <ele>42</ele>
        <time>2017-09-02T08:52:04Z</time>
      </trkpt>
      <trkpt lat="59.229408303427" lon="17.689210458839">
        <ele>42.2</ele>
        <time>2017-09-02T08:52:06Z</time>
      </trkpt>
      <trkpt lat="59.229341583503" lon="17.689059165544">
        <ele>42.4</ele>
        <time>2017-09-02T08:52:08Z</time>
      </trkpt>
      <trkpt lat="59.229311241025" lon="17.6889857401">
        <ele>42.6</ele>
        <time>2017-09-02T08:52:09Z</time>
      </trkpt>
      <trkpt lat="59.229280563271" lon="17.688911560285">
        <ele>42.8</ele>
        <time>2017-09-02T08:52:10Z</time>
      </trkpt>
      <trkpt lat="59.229220800324" lon="17.688769235623">
        <ele>43</ele>
        <time>2017-09-02T08:52:12Z</time>
      </trkpt>
      <trkpt lat="59.229188781466" lon="17.688698911482">
        <ele>43.2</ele>
        <time>2017-09-02T08:52:13Z</time>
      </trkpt>
      <trkpt lat="59.229157349341" lon="17.688628084427">
        <ele>44</ele>
        <time>2017-09-02T08:52:14Z</time>
      </trkpt>
      <trkpt lat="59.229091802883" lon="17.688482993738">
        <ele>44.6</ele>
        <time>2017-09-02T08:52:16Z</time>
      </trkpt>
      <trkpt lat="59.22902751371" lon="17.688331281348">
        <ele>45.2</ele>
        <time>2017-09-02T08:52:18Z</time>
      </trkpt>
      <trkpt lat="59.228965571469" lon="17.688180910062">
        <ele>45.8</ele>
        <time>2017-09-02T08:52:20Z</time>
      </trkpt>
      <trkpt lat="59.228900192649" lon="17.688032801889">
        <ele>46.4</ele>
        <time>2017-09-02T08:52:22Z</time>
      </trkpt>
      <trkpt lat="59.228831796345" lon="17.687882765879">
        <ele>47</ele>
        <time>2017-09-02T08:52:24Z</time>
      </trkpt>
      <trkpt lat="59.228763064765" lon="17.687718648277">
        <ele>47.4</ele>
        <time>2017-09-02T08:52:26Z</time>
      </trkpt>
      <trkpt lat="59.228723753654" lon="17.687630470689">
        <ele>47.6</ele>
        <time>2017-09-02T08:52:27Z</time>
      </trkpt>
      <trkpt lat="59.228685448371" lon="17.687539191798">
        <ele>47.8</ele>
        <time>2017-09-02T08:52:28Z</time>
      </trkpt>
      <trkpt lat="59.228600958819" lon="17.687343558252">
        <ele>47.8</ele>
        <time>2017-09-02T08:52:30Z</time>
      </trkpt>
      <trkpt lat="59.228507081539" lon="17.687131244725">
        <ele>47.8</ele>
        <time>2017-09-02T08:52:32Z</time>
      </trkpt>
      <trkpt lat="59.228410354413" lon="17.686906861262">
        <ele>47.8</ele>
        <time>2017-09-02T08:52:34Z</time>
      </trkpt>
      <trkpt lat="59.228305496844" lon="17.686668815302">
        <ele>47.8</ele>
        <time>2017-09-02T08:52:36Z</time>
      </trkpt>
      <trkpt lat="59.228195442497" lon="17.686421968347">
        <ele>47.4</ele>
        <time>2017-09-02T08:52:38Z</time>
      </trkpt>
      <trkpt lat="59.228081029562" lon="17.686160285429">
        <ele>46.8</ele>
        <time>2017-09-02T08:52:40Z</time>
      </trkpt>
      <trkpt lat="59.228023697366" lon="17.686027097038">
        <ele>46</ele>
        <time>2017-09-02T08:52:41Z</time>
      </trkpt>
      <trkpt lat="59.227967538636" lon="17.685891729353">
        <ele>45.6</ele>
        <time>2017-09-02T08:52:42Z</time>
      </trkpt>
      <trkpt lat="59.227850275855" lon="17.685622251268">
        <ele>45</ele>
        <time>2017-09-02T08:52:44Z</time>
      </trkpt>
      <trkpt lat="59.227729325038" lon="17.685350845346">
        <ele>44.2</ele>
        <time>2017-09-02T08:52:46Z</time>
      </trkpt>
      <trkpt lat="59.227669142996" lon="17.685214052738">
        <ele>43.8</ele>
        <time>2017-09-02T08:52:47Z</time>
      </trkpt>
      <trkpt lat="59.22760678166" lon="17.685075667569">
        <ele>43.4</ele>
        <time>2017-09-02T08:52:48Z</time>
      </trkpt>
      <trkpt lat="59.227476946029" lon="17.684786994933">
        <ele>42.6</ele>
        <time>2017-09-02T08:52:50Z</time>
      </trkpt>
      <trkpt lat="59.227408298268" lon="17.684637126561">
        <ele>42.4</ele>
        <time>2017-09-02T08:52:51Z</time>
      </trkpt>
      <trkpt lat="59.227336968299" lon="17.684481809954">
        <ele>42.2</ele>
        <time>2017-09-02T08:52:52Z</time>
      </trkpt>
      <trkpt lat="59.227189195402" lon="17.684162711021">
        <ele>41.8</ele>
        <time>2017-09-02T08:52:54Z</time>
      </trkpt>
      <trkpt lat="59.227032118596" lon="17.683838247672">
        <ele>41</ele>
        <time>2017-09-02T08:52:56Z</time>
      </trkpt>
      <trkpt lat="59.226875209428" lon="17.683511605029">
        <ele>40</ele>
        <time>2017-09-02T08:52:58Z</time>
      </trkpt>
      <trkpt lat="59.22679541374" lon="17.683352348929">
        <ele>39.4</ele>
        <time>2017-09-02T08:52:59Z</time>
      </trkpt>
      <trkpt lat="59.226716540061" lon="17.683191584087">
        <ele>38.6</ele>
        <time>2017-09-02T08:53:00Z</time>
      </trkpt>
      <trkpt lat="59.226637414925" lon="17.683032579444">
        <ele>37.6</ele>
        <time>2017-09-02T08:53:01Z</time>
      </trkpt>
      <trkpt lat="59.226560636721" lon="17.682879693588">
        <ele>36.6</ele>
        <time>2017-09-02T08:53:02Z</time>
      </trkpt>
      <trkpt lat="59.226480841033" lon="17.682730914863">
        <ele>35.8</ele>
        <time>2017-09-02T08:53:03Z</time>
      </trkpt>
      <trkpt lat="59.226402637906" lon="17.682584818346">
        <ele>35</ele>
        <time>2017-09-02T08:53:04Z</time>
      </trkpt>
      <trkpt lat="59.226322339304" lon="17.682440817304">
        <ele>34.2</ele>
        <time>2017-09-02T08:53:05Z</time>
      </trkpt>
      <trkpt lat="59.22624137015" lon="17.68230033666">
        <ele>33.6</ele>
        <time>2017-09-02T08:53:06Z</time>
      </trkpt>
      <trkpt lat="59.226158640797" lon="17.68216371169">
        <ele>33</ele>
        <time>2017-09-02T08:53:07Z</time>
      </trkpt>
      <trkpt lat="59.226075743806" lon="17.682028427824">
        <ele>32.6</ele>
        <time>2017-09-02T08:53:08Z</time>
      </trkpt>
      <trkpt lat="59.225909111634" lon="17.681756267531">
        <ele>32</ele>
        <time>2017-09-02T08:53:10Z</time>
      </trkpt>
      <trkpt lat="59.225741138358" lon="17.68149148331">
        <ele>31.4</ele>
        <time>2017-09-02T08:53:12Z</time>
      </trkpt>
      <trkpt lat="59.225571321064" lon="17.681231560591">
        <ele>31.2</ele>
        <time>2017-09-02T08:53:14Z</time>
      </trkpt>
      <trkpt lat="59.225399575933" lon="17.68099862759">
        <ele>31.2</ele>
        <time>2017-09-02T08:53:16Z</time>
      </trkpt>
      <trkpt lat="59.225229171906" lon="17.680761755096">
        <ele>30.6</ele>
        <time>2017-09-02T08:53:18Z</time>
      </trkpt>
      <trkpt lat="59.225066143951" lon="17.680511806838">
        <ele>30.4</ele>
        <time>2017-09-02T08:53:20Z</time>
      </trkpt>
      <trkpt lat="59.224906384937" lon="17.680258170544">
        <ele>30.2</ele>
        <time>2017-09-02T08:53:22Z</time>
      </trkpt>
      <trkpt lat="59.224746458285" lon="17.680007803191">
        <ele>29.8</ele>
        <time>2017-09-02T08:53:24Z</time>
      </trkpt>
      <trkpt lat="59.22457923938" lon="17.679757184381">
        <ele>29.4</ele>
        <time>2017-09-02T08:53:26Z</time>
      </trkpt>
      <trkpt lat="59.224501120072" lon="17.679636317383">
        <ele>29.6</ele>
        <time>2017-09-02T08:53:27Z</time>
      </trkpt>
      <trkpt lat="59.224420486194" lon="17.679512851996">
        <ele>29.4</ele>
        <time>2017-09-02T08:53:28Z</time>
      </trkpt>
      <trkpt lat="59.224259721352" lon="17.679270195991">
        <ele>29.2</ele>
        <time>2017-09-02T08:53:30Z</time>
      </trkpt>
      <trkpt lat="59.22410063289" lon="17.679034077868">
        <ele>28.6</ele>
        <time>2017-09-02T08:53:32Z</time>
      </trkpt>
      <trkpt lat="59.223944310455" lon="17.67879837884">
        <ele>28.4</ele>
        <time>2017-09-02T08:53:34Z</time>
      </trkpt>
      <trkpt lat="59.22379301716" lon="17.678563937097">
        <ele>28.4</ele>
        <time>2017-09-02T08:53:36Z</time>
      </trkpt>
      <trkpt lat="59.223718753526" lon="17.678450781447">
        <ele>28.4</ele>
        <time>2017-09-02T08:53:37Z</time>
      </trkpt>
      <trkpt lat="59.223644825168" lon="17.67833821253">
        <ele>28.4</ele>
        <time>2017-09-02T08:53:38Z</time>
      </trkpt>
      <trkpt lat="59.223500237393" lon="17.678114080524">
        <ele>28.2</ele>
        <time>2017-09-02T08:53:40Z</time>
      </trkpt>
      <trkpt lat="59.223360092025" lon="17.677896067305">
        <ele>28.2</ele>
        <time>2017-09-02T08:53:42Z</time>
      </trkpt>
      <trkpt lat="59.223219946657" lon="17.677683250864">
        <ele>28.2</ele>
        <time>2017-09-02T08:53:44Z</time>
      </trkpt>
      <trkpt lat="59.223079968927" lon="17.677473787183">
        <ele>28.2</ele>
        <time>2017-09-02T08:53:46Z</time>
      </trkpt>
      <trkpt lat="59.222942002853" lon="17.677262647122">
        <ele>28.4</ele>
        <time>2017-09-02T08:53:48Z</time>
      </trkpt>
      <trkpt lat="59.222803450046" lon="17.677056452382">
        <ele>28.6</ele>
        <time>2017-09-02T08:53:50Z</time>
      </trkpt>
      <trkpt lat="59.222666908895" lon="17.676853526583">
        <ele>28.6</ele>
        <time>2017-09-02T08:53:52Z</time>
      </trkpt>
      <trkpt lat="59.222533301409" lon="17.676635261907">
        <ele>28.8</ele>
        <time>2017-09-02T08:53:54Z</time>
      </trkpt>
      <trkpt lat="59.222408914013" lon="17.676407190408">
        <ele>28.8</ele>
        <time>2017-09-02T08:53:56Z</time>
      </trkpt>
      <trkpt lat="59.222298692028" lon="17.676163528575">
        <ele>29</ele>
        <time>2017-09-02T08:53:58Z</time>
      </trkpt>
      <trkpt lat="59.222201713445" lon="17.675918944733">
        <ele>29.2</ele>
        <time>2017-09-02T08:54:00Z</time>
      </trkpt>
      <trkpt lat="59.222115463694" lon="17.675674277072">
        <ele>29.4</ele>
        <time>2017-09-02T08:54:02Z</time>
      </trkpt>
      <trkpt lat="59.222039775137" lon="17.675439164777">
        <ele>29.4</ele>
        <time>2017-09-02T08:54:04Z</time>
      </trkpt>
      <trkpt lat="59.221969786272" lon="17.675194580935">
        <ele>29.8</ele>
        <time>2017-09-02T08:54:06Z</time>
      </trkpt>
      <trkpt lat="59.221898959217" lon="17.674945889962">
        <ele>30.6</ele>
        <time>2017-09-02T08:54:08Z</time>
      </trkpt>
      <trkpt lat="59.221824779402" lon="17.674692756582">
        <ele>31.6</ele>
        <time>2017-09-02T08:54:10Z</time>
      </trkpt>
      <trkpt lat="59.221786893214" lon="17.674565770797">
        <ele>32</ele>
        <time>2017-09-02T08:54:11Z</time>
      </trkpt>
      <trkpt lat="59.221748001198" lon="17.67443811446">
        <ele>32.4</ele>
        <time>2017-09-02T08:54:12Z</time>
      </trkpt>
      <trkpt lat="59.221672647917" lon="17.674179532845">
        <ele>33</ele>
        <time>2017-09-02T08:54:14Z</time>
      </trkpt>
      <trkpt lat="59.221596707903" lon="17.673923130524">
        <ele>33.4</ele>
        <time>2017-09-02T08:54:16Z</time>
      </trkpt>
      <trkpt lat="59.221520935527" lon="17.673669578049">
        <ele>33.6</ele>
        <time>2017-09-02T08:54:18Z</time>
      </trkpt>
      <trkpt lat="59.221447258626" lon="17.673417869592">
        <ele>34</ele>
        <time>2017-09-02T08:54:20Z</time>
      </trkpt>
      <trkpt lat="59.221374503734" lon="17.673162054004">
        <ele>35</ele>
        <time>2017-09-02T08:54:22Z</time>
      </trkpt>
      <trkpt lat="59.221337204279" lon="17.673035319676">
        <ele>35</ele>
        <time>2017-09-02T08:54:23Z</time>
      </trkpt>
      <trkpt lat="59.22129940191" lon="17.672907076606">
        <ele>35.4</ele>
        <time>2017-09-02T08:54:24Z</time>
      </trkpt>
      <trkpt lat="59.221225305914" lon="17.672650171371">
        <ele>35.8</ele>
        <time>2017-09-02T08:54:26Z</time>
      </trkpt>
      <trkpt lat="59.221152048108" lon="17.672393098498">
        <ele>36</ele>
        <time>2017-09-02T08:54:28Z</time>
      </trkpt>
      <trkpt lat="59.221078790302" lon="17.672136612358">
        <ele>36.2</ele>
        <time>2017-09-02T08:54:30Z</time>
      </trkpt>
      <trkpt lat="59.221002431193" lon="17.671879874761">
        <ele>36.4</ele>
        <time>2017-09-02T08:54:32Z</time>
      </trkpt>
      <trkpt lat="59.220926072084" lon="17.671627495752">
        <ele>36.6</ele>
        <time>2017-09-02T08:54:34Z</time>
      </trkpt>
      <trkpt lat="59.22085013207" lon="17.671373272725">
        <ele>36.6</ele>
        <time>2017-09-02T08:54:36Z</time>
      </trkpt>
      <trkpt lat="59.220776538988" lon="17.671121145173">
        <ele>36.6</ele>
        <time>2017-09-02T08:54:38Z</time>
      </trkpt>
      <trkpt lat="59.220706466304" lon="17.670874465856">
        <ele>36.6</ele>
        <time>2017-09-02T08:54:40Z</time>
      </trkpt>
      <trkpt lat="59.22063974638" lon="17.670632899498">
        <ele>36.8</ele>
        <time>2017-09-02T08:54:42Z</time>
      </trkpt>
      <trkpt lat="59.220571601533" lon="17.670393093339">
        <ele>36.8</ele>
        <time>2017-09-02T08:54:44Z</time>
      </trkpt>
      <trkpt lat="59.220500020107" lon="17.670170218618">
        <ele>36.8</ele>
        <time>2017-09-02T08:54:46Z</time>
      </trkpt>
      <trkpt lat="59.220466157231" lon="17.670058404072">
        <ele>37</ele>
        <time>2017-09-02T08:54:47Z</time>
      </trkpt>
      <trkpt lat="59.22043438983" lon="17.669945080784">
        <ele>37</ele>
        <time>2017-09-02T08:54:48Z</time>
      </trkpt>
      <trkpt lat="59.220372782865" lon="17.669719440036">
        <ele>37.4</ele>
        <time>2017-09-02T08:54:50Z</time>
      </trkpt>
      <trkpt lat="59.220304302742" lon="17.669501091541">
        <ele>37.6</ele>
        <time>2017-09-02T08:54:52Z</time>
      </trkpt>
      <trkpt lat="59.220241103216" lon="17.669282994503">
        <ele>37.8</ele>
        <time>2017-09-02T08:54:54Z</time>
      </trkpt>
      <trkpt lat="59.220209838729" lon="17.669172437242">
        <ele>38</ele>
        <time>2017-09-02T08:54:55Z</time>
      </trkpt>
      <trkpt lat="59.220177149319" lon="17.669065651836">
        <ele>38</ele>
        <time>2017-09-02T08:54:56Z</time>
      </trkpt>
      <trkpt lat="59.220112441051" lon="17.668863145132">
        <ele>38.6</ele>
        <time>2017-09-02T08:54:58Z</time>
      </trkpt>
      <trkpt lat="59.220053432475" lon="17.668671618717">
        <ele>39</ele>
        <time>2017-09-02T08:55:00Z</time>
      </trkpt>
      <trkpt lat="59.219988137474" lon="17.668497945749">
        <ele>39.8</ele>
        <time>2017-09-02T08:55:02Z</time>
      </trkpt>
      <trkpt lat="59.219952011485" lon="17.668412701826">
        <ele>40.2</ele>
        <time>2017-09-02T08:55:03Z</time>
      </trkpt>
      <trkpt lat="59.219918986799" lon="17.668327541722">
        <ele>40.6</ele>
        <time>2017-09-02T08:55:04Z</time>
      </trkpt>
      <trkpt lat="59.21984262769" lon="17.668158478799">
        <ele>41</ele>
        <time>2017-09-02T08:55:06Z</time>
      </trkpt>
      <trkpt lat="59.219802059294" lon="17.668078012559">
        <ele>41.6</ele>
        <time>2017-09-02T08:55:07Z</time>
      </trkpt>
      <trkpt lat="59.219760065975" lon="17.668000647622">
        <ele>42</ele>
        <time>2017-09-02T08:55:08Z</time>
      </trkpt>
      <trkpt lat="59.219673816224" lon="17.667838625495">
        <ele>42.2</ele>
        <time>2017-09-02T08:55:10Z</time>
      </trkpt>
      <trkpt lat="59.219626123213" lon="17.667763188395">
        <ele>42.6</ele>
        <time>2017-09-02T08:55:11Z</time>
      </trkpt>
      <trkpt lat="59.219579603668" lon="17.667683225069">
        <ele>42.8</ele>
        <time>2017-09-02T08:55:12Z</time>
      </trkpt>
      <trkpt lat="59.219532078295" lon="17.667606782141">
        <ele>43</ele>
        <time>2017-09-02T08:55:13Z</time>
      </trkpt>
      <trkpt lat="59.219479523782" lon="17.66755070723">
        <ele>43.2</ele>
        <time>2017-09-02T08:55:14Z</time>
      </trkpt>
      <trkpt lat="59.219422443043" lon="17.667496643975">
        <ele>43.6</ele>
        <time>2017-09-02T08:55:15Z</time>
      </trkpt>
      <trkpt lat="59.219368295969" lon="17.667433444449">
        <ele>44</ele>
        <time>2017-09-02T08:55:16Z</time>
      </trkpt>
      <trkpt lat="59.219245752591" lon="17.667304949922">
        <ele>44.2</ele>
        <time>2017-09-02T08:55:18Z</time>
      </trkpt>
      <trkpt lat="59.219117760978" lon="17.667182574182">
        <ele>44.4</ele>
        <time>2017-09-02T08:55:20Z</time>
      </trkpt>
      <trkpt lat="59.218983818216" lon="17.667079057717">
        <ele>44.4</ele>
        <time>2017-09-02T08:55:22Z</time>
      </trkpt>
      <trkpt lat="59.218846271237" lon="17.666987024455">
        <ele>44.4</ele>
        <time>2017-09-02T08:55:24Z</time>
      </trkpt>
      <trkpt lat="59.218699923263" lon="17.666900020333">
        <ele>44.4</ele>
        <time>2017-09-02T08:55:26Z</time>
      </trkpt>
      <trkpt lat="59.218550473986" lon="17.666819721731">
        <ele>44.4</ele>
        <time>2017-09-02T08:55:28Z</time>
      </trkpt>
      <trkpt lat="59.218392726628" lon="17.666737327654">
        <ele>44.4</ele>
        <time>2017-09-02T08:55:30Z</time>
      </trkpt>
      <trkpt lat="59.218224334257" lon="17.666652921921">
        <ele>44.4</ele>
        <time>2017-09-02T08:55:32Z</time>
      </trkpt>
      <trkpt lat="59.218046889434" lon="17.666563235591">
        <ele>44</ele>
        <time>2017-09-02T08:55:34Z</time>
      </trkpt>
      <trkpt lat="59.217865672756" lon="17.66647028032">
        <ele>43.2</ele>
        <time>2017-09-02T08:55:36Z</time>
      </trkpt>
      <trkpt lat="59.217685713363" lon="17.666378582334">
        <ele>42.6</ele>
        <time>2017-09-02T08:55:38Z</time>
      </trkpt>
      <trkpt lat="59.217501646839" lon="17.666276993706">
        <ele>42.2</ele>
        <time>2017-09-02T08:55:40Z</time>
      </trkpt>
      <trkpt lat="59.217316825944" lon="17.666161658762">
        <ele>41.6</ele>
        <time>2017-09-02T08:55:42Z</time>
      </trkpt>
      <trkpt lat="59.217129071384" lon="17.666039618298">
        <ele>41.2</ele>
        <time>2017-09-02T08:55:44Z</time>
      </trkpt>
      <trkpt lat="59.21694751943" lon="17.665905591717">
        <ele>40.6</ele>
        <time>2017-09-02T08:55:46Z</time>
      </trkpt>
      <trkpt lat="59.216859760937" lon="17.665833758834">
        <ele>40</ele>
        <time>2017-09-02T08:55:47Z</time>
      </trkpt>
      <trkpt lat="59.216770745159" lon="17.665757232087">
        <ele>39.4</ele>
        <time>2017-09-02T08:55:48Z</time>
      </trkpt>
      <trkpt lat="59.216682735209" lon="17.665670227965">
        <ele>38.8</ele>
        <time>2017-09-02T08:55:49Z</time>
      </trkpt>
      <trkpt lat="59.216596653096" lon="17.665570483355">
        <ele>38.6</ele>
        <time>2017-09-02T08:55:50Z</time>
      </trkpt>
      <trkpt lat="59.216431613485" lon="17.665339478191">
        <ele>37.8</ele>
        <time>2017-09-02T08:55:52Z</time>
      </trkpt>
      <trkpt lat="59.216286019882" lon="17.665066731165">
        <ele>37.2</ele>
        <time>2017-09-02T08:55:54Z</time>
      </trkpt>
      <trkpt lat="59.216158447364" lon="17.664774286674">
        <ele>36.8</ele>
        <time>2017-09-02T08:55:56Z</time>
      </trkpt>
      <trkpt lat="59.216054511804" lon="17.664472119179">
        <ele>36.2</ele>
        <time>2017-09-02T08:55:58Z</time>
      </trkpt>
      <trkpt lat="59.215977230686" lon="17.664168442942">
        <ele>35.8</ele>
        <time>2017-09-02T08:56:00Z</time>
      </trkpt>
      <trkpt lat="59.215921071956" lon="17.663876417546">
        <ele>35.8</ele>
        <time>2017-09-02T08:56:02Z</time>
      </trkpt>
      <trkpt lat="59.215872037841" lon="17.663603083787">
        <ele>35.8</ele>
        <time>2017-09-02T08:56:04Z</time>
      </trkpt>
      <trkpt lat="59.215852927109" lon="17.663460591487">
        <ele>35.8</ele>
        <time>2017-09-02T08:56:05Z</time>
      </trkpt>
      <trkpt lat="59.215839935164" lon="17.663321703404">
        <ele>35.8</ele>
        <time>2017-09-02T08:56:06Z</time>
      </trkpt>
      <trkpt lat="59.21581428655" lon="17.663058763201">
        <ele>35.6</ele>
        <time>2017-09-02T08:56:08Z</time>
      </trkpt>
      <trkpt lat="59.215798193302" lon="17.662799259577">
        <ele>36.2</ele>
        <time>2017-09-02T08:56:10Z</time>
      </trkpt>
      <trkpt lat="59.215792325972" lon="17.662535481184">
        <ele>36.8</ele>
        <time>2017-09-02T08:56:12Z</time>
      </trkpt>
      <trkpt lat="59.215789308488" lon="17.662292322265">
        <ele>37.8</ele>
        <time>2017-09-02T08:56:14Z</time>
      </trkpt>
      <trkpt lat="59.215798277121" lon="17.662029633519">
        <ele>38.6</ele>
        <time>2017-09-02T08:56:16Z</time>
      </trkpt>
      <trkpt lat="59.215808000125" lon="17.661902228639">
        <ele>39.2</ele>
        <time>2017-09-02T08:56:17Z</time>
      </trkpt>
      <trkpt lat="59.215818058405" lon="17.66177473994">
        <ele>39.6</ele>
        <time>2017-09-02T08:56:18Z</time>
      </trkpt>
      <trkpt lat="59.215842701191" lon="17.661517164153">
        <ele>40</ele>
        <time>2017-09-02T08:56:20Z</time>
      </trkpt>
      <trkpt lat="59.215864829407" lon="17.661260594194">
        <ele>40.6</ele>
        <time>2017-09-02T08:56:22Z</time>
      </trkpt>
      <trkpt lat="59.215886706166" lon="17.661013160506">
        <ele>41.2</ele>
        <time>2017-09-02T08:56:24Z</time>
      </trkpt>
      <trkpt lat="59.215909337296" lon="17.660763296067">
        <ele>41.4</ele>
        <time>2017-09-02T08:56:26Z</time>
      </trkpt>
      <trkpt lat="59.215926184915" lon="17.66053002779">
        <ele>41.4</ele>
        <time>2017-09-02T08:56:28Z</time>
      </trkpt>
      <trkpt lat="59.215938422489" lon="17.660292484744">
        <ele>41.4</ele>
        <time>2017-09-02T08:56:30Z</time>
      </trkpt>
      <trkpt lat="59.215951414434" lon="17.660058629734">
        <ele>41.8</ele>
        <time>2017-09-02T08:56:32Z</time>
      </trkpt>
      <trkpt lat="59.215956946488" lon="17.65994078022">
        <ele>42.4</ele>
        <time>2017-09-02T08:56:33Z</time>
      </trkpt>
      <trkpt lat="59.215960634524" lon="17.659821002869">
        <ele>42.6</ele>
        <time>2017-09-02T08:56:34Z</time>
      </trkpt>
      <trkpt lat="59.215966250397" lon="17.659577927769">
        <ele>43</ele>
        <time>2017-09-02T08:56:36Z</time>
      </trkpt>
      <trkpt lat="59.215964993112" lon="17.659324291475">
        <ele>43.6</ele>
        <time>2017-09-02T08:56:38Z</time>
      </trkpt>
      <trkpt lat="59.215950827701" lon="17.659058249969">
        <ele>44</ele>
        <time>2017-09-02T08:56:40Z</time>
      </trkpt>
      <trkpt lat="59.215924843811" lon="17.658780892898">
        <ele>44.2</ele>
        <time>2017-09-02T08:56:42Z</time>
      </trkpt>
      <trkpt lat="59.215897015903" lon="17.658502613818">
        <ele>44.2</ele>
        <time>2017-09-02T08:56:44Z</time>
      </trkpt>
      <trkpt lat="59.215849825806" lon="17.658221736349">
        <ele>44.2</ele>
        <time>2017-09-02T08:56:46Z</time>
      </trkpt>
      <trkpt lat="59.215786961556" lon="17.65794840259">
        <ele>44.2</ele>
        <time>2017-09-02T08:56:48Z</time>
      </trkpt>
      <trkpt lat="59.21572292384" lon="17.657674901193">
        <ele>44.2</ele>
        <time>2017-09-02T08:56:50Z</time>
      </trkpt>
      <trkpt lat="59.215655701002" lon="17.657410200791">
        <ele>43.8</ele>
        <time>2017-09-02T08:56:52Z</time>
      </trkpt>
      <trkpt lat="59.2155837843" lon="17.657147176769">
        <ele>43.4</ele>
        <time>2017-09-02T08:56:54Z</time>
      </trkpt>
      <trkpt lat="59.215511783779" lon="17.656877279589">
        <ele>43.2</ele>
        <time>2017-09-02T08:56:56Z</time>
      </trkpt>
      <trkpt lat="59.215434083566" lon="17.656608639694">
        <ele>43.2</ele>
        <time>2017-09-02T08:56:58Z</time>
      </trkpt>
      <trkpt lat="59.215349677833" lon="17.656339748342">
        <ele>43</ele>
        <time>2017-09-02T08:57:00Z</time>
      </trkpt>
      <trkpt lat="59.215255130001" lon="17.656083094564">
        <ele>42.8</ele>
        <time>2017-09-02T08:57:02Z</time>
      </trkpt>
      <trkpt lat="59.215146584396" lon="17.655850664477">
        <ele>42.8</ele>
        <time>2017-09-02T08:57:04Z</time>
      </trkpt>
      <trkpt lat="59.215025298303" lon="17.65562829267">
        <ele>42.6</ele>
        <time>2017-09-02T08:57:06Z</time>
      </trkpt>
      <trkpt lat="59.214896552319" lon="17.655427294708">
        <ele>42.4</ele>
        <time>2017-09-02T08:57:08Z</time>
      </trkpt>
      <trkpt lat="59.214764453575" lon="17.655241216528">
        <ele>42.4</ele>
        <time>2017-09-02T08:57:10Z</time>
      </trkpt>
      <trkpt lat="59.214621458361" lon="17.655080703143">
        <ele>42.2</ele>
        <time>2017-09-02T08:57:12Z</time>
      </trkpt>
      <trkpt lat="59.214475361844" lon="17.654938881395">
        <ele>42.2</ele>
        <time>2017-09-02T08:57:14Z</time>
      </trkpt>
      <trkpt lat="59.214325325834" lon="17.654827318306">
        <ele>42.2</ele>
        <time>2017-09-02T08:57:16Z</time>
      </trkpt>
      <trkpt lat="59.214248044716" lon="17.654781050218">
        <ele>42.2</ele>
        <time>2017-09-02T08:57:17Z</time>
      </trkpt>
      <trkpt lat="59.214172691435" lon="17.654734698311">
        <ele>41.8</ele>
        <time>2017-09-02T08:57:18Z</time>
      </trkpt>
      <trkpt lat="59.214022655425" lon="17.654639312289">
        <ele>41.8</ele>
        <time>2017-09-02T08:57:20Z</time>
      </trkpt>
      <trkpt lat="59.213878151469" lon="17.654544345362">
        <ele>41.6</ele>
        <time>2017-09-02T08:57:22Z</time>
      </trkpt>
      <trkpt lat="59.213732306409" lon="17.654457425059">
        <ele>41.6</ele>
        <time>2017-09-02T08:57:24Z</time>
      </trkpt>
      <trkpt lat="59.213581767485" lon="17.654384921624">
        <ele>41.6</ele>
        <time>2017-09-02T08:57:26Z</time>
      </trkpt>
      <trkpt lat="59.213429468362" lon="17.654322225012">
        <ele>41.6</ele>
        <time>2017-09-02T08:57:28Z</time>
      </trkpt>
      <trkpt lat="59.213353695986" lon="17.654284171186">
        <ele>41.6</ele>
        <time>2017-09-02T08:57:29Z</time>
      </trkpt>
      <trkpt lat="59.213284545311" lon="17.654219462918">
        <ele>41.6</ele>
        <time>2017-09-02T08:57:30Z</time>
      </trkpt>
      <trkpt lat="59.213180525932" lon="17.654004886278">
        <ele>41.6</ele>
        <time>2017-09-02T08:57:32Z</time>
      </trkpt>
      <trkpt lat="59.213054797432" lon="17.653862645435">
        <ele>41.6</ele>
        <time>2017-09-02T08:57:34Z</time>
      </trkpt>
      <trkpt lat="59.212896128065" lon="17.653829034016">
        <ele>41.6</ele>
        <time>2017-09-02T08:57:36Z</time>
      </trkpt>
      <trkpt lat="59.21272639459" lon="17.653792321294">
        <ele>41.8</ele>
        <time>2017-09-02T08:57:38Z</time>
      </trkpt>
      <trkpt lat="59.212558253676" lon="17.65372560137">
        <ele>41.6</ele>
        <time>2017-09-02T08:57:40Z</time>
      </trkpt>
      <trkpt lat="59.21239698592" lon="17.653632059366">
        <ele>41.6</ele>
        <time>2017-09-02T08:57:42Z</time>
      </trkpt>
      <trkpt lat="59.212236221078" lon="17.653522005019">
        <ele>41.4</ele>
        <time>2017-09-02T08:57:44Z</time>
      </trkpt>
      <trkpt lat="59.212077551711" lon="17.653402311487">
        <ele>41.4</ele>
        <time>2017-09-02T08:57:46Z</time>
      </trkpt>
      <trkpt lat="59.211928521529" lon="17.653268620182">
        <ele>41.6</ele>
        <time>2017-09-02T08:57:48Z</time>
      </trkpt>
      <trkpt lat="59.211776976777" lon="17.653129564461">
        <ele>41.6</ele>
        <time>2017-09-02T08:57:50Z</time>
      </trkpt>
      <trkpt lat="59.211629622975" lon="17.652975924234">
        <ele>41.6</ele>
        <time>2017-09-02T08:57:52Z</time>
      </trkpt>
      <trkpt lat="59.211478832594" lon="17.652810968442">
        <ele>41.6</ele>
        <time>2017-09-02T08:57:54Z</time>
      </trkpt>
      <trkpt lat="59.211326114376" lon="17.652659339871">
        <ele>41.8</ele>
        <time>2017-09-02T08:57:56Z</time>
      </trkpt>
      <trkpt lat="59.211168618475" lon="17.652514249182">
        <ele>41.8</ele>
        <time>2017-09-02T08:57:58Z</time>
      </trkpt>
      <trkpt lat="59.211004584692" lon="17.652391454347">
        <ele>41.8</ele>
        <time>2017-09-02T08:58:00Z</time>
      </trkpt>
      <trkpt lat="59.210838036339" lon="17.652302019474">
        <ele>41.8</ele>
        <time>2017-09-02T08:58:02Z</time>
      </trkpt>
      <trkpt lat="59.210670398339" lon="17.652220044492">
        <ele>41.8</ele>
        <time>2017-09-02T08:58:04Z</time>
      </trkpt>
      <trkpt lat="59.210501251597" lon="17.652148295428">
        <ele>41.4</ele>
        <time>2017-09-02T08:58:06Z</time>
      </trkpt>
      <trkpt lat="59.210332272493" lon="17.652086269368">
        <ele>61</ele>
        <time>2017-09-02T08:58:08Z</time>
      </trkpt>
      <trkpt lat="59.210161868466" lon="17.652008066241">
        <ele>41.4</ele>
        <time>2017-09-02T08:58:10Z</time>
      </trkpt>
      <trkpt lat="59.209984926557" lon="17.651935059892">
        <ele>41.2</ele>
        <time>2017-09-02T08:58:12Z</time>
      </trkpt>
      <trkpt lat="59.209810499218" lon="17.651863646104">
        <ele>41.2</ele>
        <time>2017-09-02T08:58:14Z</time>
      </trkpt>
      <trkpt lat="59.209635485146" lon="17.651782341674">
        <ele>41.2</ele>
        <time>2017-09-02T08:58:16Z</time>
      </trkpt>
      <trkpt lat="59.20946332092" lon="17.651699947597">
        <ele>41.2</ele>
        <time>2017-09-02T08:58:18Z</time>
      </trkpt>
      <trkpt lat="59.209300795879" lon="17.651597269322">
        <ele>41.2</ele>
        <time>2017-09-02T08:58:20Z</time>
      </trkpt>
      <trkpt lat="59.209144221987" lon="17.651487298794">
        <ele>41.2</ele>
        <time>2017-09-02T08:58:22Z</time>
      </trkpt>
      <trkpt lat="59.208991755226" lon="17.651359642457">
        <ele>41.2</ele>
        <time>2017-09-02T08:58:24Z</time>
      </trkpt>
      <trkpt lat="59.208846664537" lon="17.651227962808">
        <ele>41.2</ele>
        <time>2017-09-02T08:58:26Z</time>
      </trkpt>
      <trkpt lat="59.208701070934" lon="17.651093852408">
        <ele>41.6</ele>
        <time>2017-09-02T08:58:28Z</time>
      </trkpt>
      <trkpt lat="59.20856310486" lon="17.650950857194">
        <ele>42</ele>
        <time>2017-09-02T08:58:30Z</time>
      </trkpt>
      <trkpt lat="59.208433772143" lon="17.650803838668">
        <ele>42.4</ele>
        <time>2017-09-02T08:58:32Z</time>
      </trkpt>
      <trkpt lat="59.208317179914" lon="17.650652377735">
        <ele>42.8</ele>
        <time>2017-09-02T08:58:34Z</time>
      </trkpt>
      <trkpt lat="59.208200420047" lon="17.650501252078">
        <ele>43.2</ele>
        <time>2017-09-02T08:58:36Z</time>
      </trkpt>
      <trkpt lat="59.20808366018" lon="17.650345097281">
        <ele>43.4</ele>
        <time>2017-09-02T08:58:38Z</time>
      </trkpt>
      <trkpt lat="59.207969331064" lon="17.650189026303">
        <ele>44</ele>
        <time>2017-09-02T08:58:40Z</time>
      </trkpt>
      <trkpt lat="59.207862294201" lon="17.650038738836">
        <ele>44</ele>
        <time>2017-09-02T08:58:42Z</time>
      </trkpt>
      <trkpt lat="59.20775928065" lon="17.649883422229">
        <ele>44.2</ele>
        <time>2017-09-02T08:58:44Z</time>
      </trkpt>
      <trkpt lat="59.207710833268" lon="17.649798345944">
        <ele>44.4</ele>
        <time>2017-09-02T08:58:45Z</time>
      </trkpt>
      <trkpt lat="59.207665571008" lon="17.649706312682">
        <ele>44.8</ele>
        <time>2017-09-02T08:58:46Z</time>
      </trkpt>
      <trkpt lat="59.207585440044" lon="17.64950531472">
        <ele>45.2</ele>
        <time>2017-09-02T08:58:48Z</time>
      </trkpt>
      <trkpt lat="59.207549230236" lon="17.649396517658">
        <ele>45.6</ele>
        <time>2017-09-02T08:58:49Z</time>
      </trkpt>
      <trkpt lat="59.207515786455" lon="17.649279757791">
        <ele>45.8</ele>
        <time>2017-09-02T08:58:50Z</time>
      </trkpt>
      <trkpt lat="59.207447138694" lon="17.649028803705">
        <ele>46</ele>
        <time>2017-09-02T08:58:52Z</time>
      </trkpt>
      <trkpt lat="59.207374886716" lon="17.64877608942">
        <ele>46.2</ele>
        <time>2017-09-02T08:58:54Z</time>
      </trkpt>
      <trkpt lat="59.207302048005" lon="17.648519351823">
        <ele>46.2</ele>
        <time>2017-09-02T08:58:56Z</time>
      </trkpt>
      <trkpt lat="59.207228790199" lon="17.64826144076">
        <ele>46.2</ele>
        <time>2017-09-02T08:58:58Z</time>
      </trkpt>
      <trkpt lat="59.20714488738" lon="17.648033788356">
        <ele>46.2</ele>
        <time>2017-09-02T08:59:00Z</time>
      </trkpt>
      <trkpt lat="59.207059978733" lon="17.647808482884">
        <ele>46</ele>
        <time>2017-09-02T08:59:02Z</time>
      </trkpt>
      <trkpt lat="59.207022679278" lon="17.647688621714">
        <ele>45.8</ele>
        <time>2017-09-02T08:59:03Z</time>
      </trkpt>
      <trkpt lat="59.206996779207" lon="17.647559959549">
        <ele>45.8</ele>
        <time>2017-09-02T08:59:04Z</time>
      </trkpt>
      <trkpt lat="59.20695713282" lon="17.647295594423">
        <ele>45.6</ele>
        <time>2017-09-02T08:59:06Z</time>
      </trkpt>
      <trkpt lat="59.206859399866" lon="17.647106666397">
        <ele>45</ele>
        <time>2017-09-02T08:59:08Z</time>
      </trkpt>
      <trkpt lat="59.206714225358" lon="17.647005999778">
        <ele>44.4</ele>
        <time>2017-09-02T08:59:10Z</time>
      </trkpt>
      <trkpt lat="59.206564524624" lon="17.646863758935">
        <ele>44.2</ele>
        <time>2017-09-02T08:59:12Z</time>
      </trkpt>
      <trkpt lat="59.206410800578" lon="17.646713639106">
        <ele>43.8</ele>
        <time>2017-09-02T08:59:14Z</time>
      </trkpt>
      <trkpt lat="59.206249868098" lon="17.646575505394">
        <ele>43.6</ele>
        <time>2017-09-02T08:59:16Z</time>
      </trkpt>
      <trkpt lat="59.206164037442" lon="17.646520603949">
        <ele>43.4</ele>
        <time>2017-09-02T08:59:17Z</time>
      </trkpt>
      <trkpt lat="59.206077787691" lon="17.646470899282">
        <ele>43.2</ele>
        <time>2017-09-02T08:59:18Z</time>
      </trkpt>
      <trkpt lat="59.205905288189" lon="17.646384062798">
        <ele>43</ele>
        <time>2017-09-02T08:59:20Z</time>
      </trkpt>
      <trkpt lat="59.205736895818" lon="17.646304770024">
        <ele>42.8</ele>
        <time>2017-09-02T08:59:22Z</time>
      </trkpt>
      <trkpt lat="59.205573700225" lon="17.646220699567">
        <ele>42.4</ele>
        <time>2017-09-02T08:59:24Z</time>
      </trkpt>
      <trkpt lat="59.205493904537" lon="17.646180969361">
        <ele>42.2</ele>
        <time>2017-09-02T08:59:25Z</time>
      </trkpt>
      <trkpt lat="59.205413605935" lon="17.646137299662">
        <ele>42</ele>
        <time>2017-09-02T08:59:26Z</time>
      </trkpt>
      <trkpt lat="59.205259881889" lon="17.646048032427">
        <ele>41.8</ele>
        <time>2017-09-02T08:59:28Z</time>
      </trkpt>
      <trkpt lat="59.205108588594" lon="17.64595725645">
        <ele>41.6</ele>
        <time>2017-09-02T08:59:30Z</time>
      </trkpt>
      <trkpt lat="59.20495637329" lon="17.645867067206">
        <ele>41.6</ele>
        <time>2017-09-02T08:59:32Z</time>
      </trkpt>
      <trkpt lat="59.204804241805" lon="17.645761203809">
        <ele>41.4</ele>
        <time>2017-09-02T08:59:34Z</time>
      </trkpt>
      <trkpt lat="59.204656804184" lon="17.645627093409">
        <ele>41.2</ele>
        <time>2017-09-02T08:59:36Z</time>
      </trkpt>
      <trkpt lat="59.204520346852" lon="17.645454677726">
        <ele>41.2</ele>
        <time>2017-09-02T08:59:38Z</time>
      </trkpt>
      <trkpt lat="59.204397468198" lon="17.645258708904">
        <ele>41</ele>
        <time>2017-09-02T08:59:40Z</time>
      </trkpt>
      <trkpt lat="59.20429755595" lon="17.645060560788">
        <ele>41</ele>
        <time>2017-09-02T08:59:42Z</time>
      </trkpt>
      <trkpt lat="59.204258412477" lon="17.644954613572">
        <ele>41</ele>
        <time>2017-09-02T08:59:43Z</time>
      </trkpt>
      <trkpt lat="59.204235362252" lon="17.644837266972">
        <ele>41</ele>
        <time>2017-09-02T08:59:44Z</time>
      </trkpt>
      <trkpt lat="59.204250533491" lon="17.644606764722">
        <ele>41</ele>
        <time>2017-09-02T08:59:46Z</time>
      </trkpt>
      <trkpt lat="59.204306524583" lon="17.644412304642">
        <ele>40.8</ele>
        <time>2017-09-02T08:59:48Z</time>
      </trkpt>
      <trkpt lat="59.204322114917" lon="17.644317589172">
        <ele>40.8</ele>
        <time>2017-09-02T08:59:49Z</time>
      </trkpt>
      <trkpt lat="59.204320773813" lon="17.644218431295">
        <ele>40.8</ele>
        <time>2017-09-02T08:59:50Z</time>
      </trkpt>
      <trkpt lat="59.204281378883" lon="17.644032017839">
        <ele>40.8</ele>
        <time>2017-09-02T08:59:52Z</time>
      </trkpt>
      <trkpt lat="59.204195548227" lon="17.643917521085">
        <ele>40.8</ele>
        <time>2017-09-02T08:59:54Z</time>
      </trkpt>
      <trkpt lat="59.20408297931" lon="17.643844514736">
        <ele>40.8</ele>
        <time>2017-09-02T08:59:56Z</time>
      </trkpt>
      <trkpt lat="59.203963704873" lon="17.643764635229">
        <ele>40.8</ele>
        <time>2017-09-02T08:59:58Z</time>
      </trkpt>
      <trkpt lat="59.203836383812" lon="17.643686432102">
        <ele>40.8</ele>
        <time>2017-09-02T09:00:00Z</time>
      </trkpt>
      <trkpt lat="59.203702860145" lon="17.64364217567">
        <ele>41</ele>
        <time>2017-09-02T09:00:02Z</time>
      </trkpt>
      <trkpt lat="59.203576125817" lon="17.643589034424">
        <ele>41</ele>
        <time>2017-09-02T09:00:04Z</time>
      </trkpt>
      <trkpt lat="59.20345349862" lon="17.643519045559">
        <ele>41.4</ele>
        <time>2017-09-02T09:00:06Z</time>
      </trkpt>
      <trkpt lat="59.203331374337" lon="17.64345945025">
        <ele>42</ele>
        <time>2017-09-02T09:00:08Z</time>
      </trkpt>
      <trkpt lat="59.203270857019" lon="17.643430867971">
        <ele>42.2</ele>
        <time>2017-09-02T09:00:09Z</time>
      </trkpt>
      <trkpt lat="59.203210842615" lon="17.643399016751">
        <ele>42.4</ele>
        <time>2017-09-02T09:00:10Z</time>
      </trkpt>
      <trkpt lat="59.203089975617" lon="17.643323914927">
        <ele>43</ele>
        <time>2017-09-02T09:00:12Z</time>
      </trkpt>
      <trkpt lat="59.202966342592" lon="17.643249986569">
        <ele>43</ele>
        <time>2017-09-02T09:00:14Z</time>
      </trkpt>
      <trkpt lat="59.202837345151" lon="17.643179997704">
        <ele>43.6</ele>
        <time>2017-09-02T09:00:16Z</time>
      </trkpt>
      <trkpt lat="59.202712035746" lon="17.643101626939">
        <ele>44</ele>
        <time>2017-09-02T09:00:18Z</time>
      </trkpt>
      <trkpt lat="59.202654955007" lon="17.643050664987">
        <ele>44.4</ele>
        <time>2017-09-02T09:00:19Z</time>
      </trkpt>
      <trkpt lat="59.202605417978" lon="17.642980676122">
        <ele>44.6</ele>
        <time>2017-09-02T09:00:20Z</time>
      </trkpt>
      <trkpt lat="59.202535512932" lon="17.642794849399">
        <ele>44.8</ele>
        <time>2017-09-02T09:00:22Z</time>
      </trkpt>
      <trkpt lat="59.202505254273" lon="17.64260114369">
        <ele>45.2</ele>
        <time>2017-09-02T09:00:24Z</time>
      </trkpt>
      <trkpt lat="59.202499135486" lon="17.642510200075">
        <ele>45.4</ele>
        <time>2017-09-02T09:00:25Z</time>
      </trkpt>
      <trkpt lat="59.202493184337" lon="17.642422860677">
        <ele>45.6</ele>
        <time>2017-09-02T09:00:26Z</time>
      </trkpt>
      <trkpt lat="59.202483377514" lon="17.642255893229">
        <ele>46</ele>
        <time>2017-09-02T09:00:28Z</time>
      </trkpt>
      <trkpt lat="59.202469212103" lon="17.642079202777">
        <ele>46.4</ele>
        <time>2017-09-02T09:00:30Z</time>
      </trkpt>
      <trkpt lat="59.202465021153" lon="17.641897818461">
        <ele>47.2</ele>
        <time>2017-09-02T09:00:32Z</time>
      </trkpt>
      <trkpt lat="59.202459321461" lon="17.641803354448">
        <ele>47.6</ele>
        <time>2017-09-02T09:00:33Z</time>
      </trkpt>
      <trkpt lat="59.202451107199" lon="17.641709560987">
        <ele>48</ele>
        <time>2017-09-02T09:00:34Z</time>
      </trkpt>
      <trkpt lat="59.20243006863" lon="17.641518286029">
        <ele>49</ele>
        <time>2017-09-02T09:00:36Z</time>
      </trkpt>
      <trkpt lat="59.202413891563" lon="17.641312175108">
        <ele>49.6</ele>
        <time>2017-09-02T09:00:38Z</time>
      </trkpt>
      <trkpt lat="59.202397295401" lon="17.641094161889">
        <ele>49.8</ele>
        <time>2017-09-02T09:00:40Z</time>
      </trkpt>
      <trkpt lat="59.202389667872" lon="17.640865922752">
        <ele>49.8</ele>
        <time>2017-09-02T09:00:42Z</time>
      </trkpt>
      <trkpt lat="59.202398552686" lon="17.640610861535">
        <ele>49.8</ele>
        <time>2017-09-02T09:00:44Z</time>
      </trkpt>
      <trkpt lat="59.202408862423" lon="17.64036150001">
        <ele>49.8</ele>
        <time>2017-09-02T09:00:46Z</time>
      </trkpt>
      <trkpt lat="59.202407353681" lon="17.64026426997">
        <ele>49.8</ele>
        <time>2017-09-02T09:00:47Z</time>
      </trkpt>
      <trkpt lat="59.202394361736" lon="17.640183636092">
        <ele>49.8</ele>
        <time>2017-09-02T09:00:48Z</time>
      </trkpt>
      <trkpt lat="59.202343064508" lon="17.640101074377">
        <ele>49.8</ele>
        <time>2017-09-02T09:00:50Z</time>
      </trkpt>
      <trkpt lat="59.20231607479" lon="17.640070815718">
        <ele>49.6</ele>
        <time>2017-09-02T09:00:51Z</time>
      </trkpt>
      <trkpt lat="59.202293108384" lon="17.640038629222">
        <ele>49.4</ele>
        <time>2017-09-02T09:00:52Z</time>
      </trkpt>
      <trkpt lat="59.202252037074" lon="17.639978698637">
        <ele>48.2</ele>
        <time>2017-09-02T09:00:54Z</time>
      </trkpt>
      <trkpt lat="59.202218341836" lon="17.63993150854">
        <ele>47.6</ele>
        <time>2017-09-02T09:00:56Z</time>
      </trkpt>
      <trkpt lat="59.202185233331" lon="17.639895550189">
        <ele>47.2</ele>
        <time>2017-09-02T09:00:58Z</time>
      </trkpt>
      <trkpt lat="59.202159417079" lon="17.639866716453">
        <ele>47</ele>
        <time>2017-09-02T09:01:00Z</time>
      </trkpt>
      <trkpt lat="59.202150280808" lon="17.639853892146">
        <ele>46.6</ele>
        <time>2017-09-02T09:01:02Z</time>
      </trkpt>
      <trkpt lat="59.202137288863" lon="17.639741155591">
        <ele>45.4</ele>
        <time>2017-09-02T09:14:11Z</time>
      </trkpt>
      <trkpt lat="59.202127649678" lon="17.639716680443">
        <ele>45.4</ele>
        <time>2017-09-02T09:14:12Z</time>
      </trkpt>
      <trkpt lat="59.202102503978" lon="17.639635711289">
        <ele>45.4</ele>
        <time>2017-09-02T09:14:14Z</time>
      </trkpt>
      <trkpt lat="59.20206880874" lon="17.639486262012">
        <ele>45.4</ele>
        <time>2017-09-02T09:14:16Z</time>
      </trkpt>
      <trkpt lat="59.202054810967" lon="17.639382661728">
        <ele>45.4</ele>
        <time>2017-09-02T09:14:17Z</time>
      </trkpt>
      <trkpt lat="59.202045255601" lon="17.639260034531">
        <ele>45.2</ele>
        <time>2017-09-02T09:14:18Z</time>
      </trkpt>
      <trkpt lat="59.202027569792" lon="17.638983431831">
        <ele>45</ele>
        <time>2017-09-02T09:14:20Z</time>
      </trkpt>
      <trkpt lat="59.202016924779" lon="17.638698363412">
        <ele>44.6</ele>
        <time>2017-09-02T09:14:22Z</time>
      </trkpt>
      <trkpt lat="59.202014074933" lon="17.638470124275">
        <ele>44</ele>
        <time>2017-09-02T09:14:24Z</time>
      </trkpt>
      <trkpt lat="59.202004351929" lon="17.638397369383">
        <ele>43.4</ele>
        <time>2017-09-02T09:14:25Z</time>
      </trkpt>
      <trkpt lat="59.201987169034" lon="17.638349676372">
        <ele>42.8</ele>
        <time>2017-09-02T09:14:26Z</time>
      </trkpt>
      <trkpt lat="59.201954311986" lon="17.638317573695">
        <ele>42</ele>
        <time>2017-09-02T09:14:27Z</time>
      </trkpt>
      <trkpt lat="59.201912234848" lon="17.638296032212">
        <ele>41.4</ele>
        <time>2017-09-02T09:14:28Z</time>
      </trkpt>
      <trkpt lat="59.201863033095" lon="17.638280106602">
        <ele>40.8</ele>
        <time>2017-09-02T09:14:29Z</time>
      </trkpt>
      <trkpt lat="59.20180142613" lon="17.638273401082">
        <ele>40.6</ele>
        <time>2017-09-02T09:14:30Z</time>
      </trkpt>
      <trkpt lat="59.201733951835" lon="17.638267366114">
        <ele>40.4</ele>
        <time>2017-09-02T09:14:31Z</time>
      </trkpt>
      <trkpt lat="59.201662202771" lon="17.638270132141">
        <ele>40.2</ele>
        <time>2017-09-02T09:14:32Z</time>
      </trkpt>
      <trkpt lat="59.201513424046" lon="17.638214224868">
        <ele>40</ele>
        <time>2017-09-02T09:14:34Z</time>
      </trkpt>
      <trkpt lat="59.201455002203" lon="17.638147756401">
        <ele>39.6</ele>
        <time>2017-09-02T09:14:35Z</time>
      </trkpt>
      <trkpt lat="59.201401944776" lon="17.638101320675">
        <ele>39.6</ele>
        <time>2017-09-02T09:14:36Z</time>
      </trkpt>
      <trkpt lat="59.201321646174" lon="17.638014148915">
        <ele>39.2</ele>
        <time>2017-09-02T09:14:38Z</time>
      </trkpt>
      <trkpt lat="59.201208071429" lon="17.638017753132">
        <ele>39</ele>
        <time>2017-09-02T09:14:40Z</time>
      </trkpt>
      <trkpt lat="59.201136909098" lon="17.638034181656">
        <ele>38.8</ele>
        <time>2017-09-02T09:14:41Z</time>
      </trkpt>
      <trkpt lat="59.20106549531" lon="17.638049604352">
        <ele>38.6</ele>
        <time>2017-09-02T09:14:42Z</time>
      </trkpt>
      <trkpt lat="59.200919063517" lon="17.638093441689">
        <ele>38.2</ele>
        <time>2017-09-02T09:14:44Z</time>
      </trkpt>
      <trkpt lat="59.200760645607" lon="17.63813610556">
        <ele>37.6</ele>
        <time>2017-09-02T09:14:46Z</time>
      </trkpt>
      <trkpt lat="59.200619662049" lon="17.638183547114">
        <ele>37.2</ele>
        <time>2017-09-02T09:14:48Z</time>
      </trkpt>
      <trkpt lat="59.200503237458" lon="17.638220930388">
        <ele>36.8</ele>
        <time>2017-09-02T09:14:50Z</time>
      </trkpt>
      <trkpt lat="59.20045613118" lon="17.638247333373">
        <ele>36.6</ele>
        <time>2017-09-02T09:14:51Z</time>
      </trkpt>
      <trkpt lat="59.200413467309" lon="17.638300139343">
        <ele>36.4</ele>
        <time>2017-09-02T09:14:52Z</time>
      </trkpt>
      <trkpt lat="59.200375916397" lon="17.638465346592">
        <ele>35.8</ele>
        <time>2017-09-02T09:14:54Z</time>
      </trkpt>
      <trkpt lat="59.200368205049" lon="17.638573054007">
        <ele>35.4</ele>
        <time>2017-09-02T09:14:55Z</time>
      </trkpt>
      <trkpt lat="59.200357140941" lon="17.638685371467">
        <ele>34.8</ele>
        <time>2017-09-02T09:14:56Z</time>
      </trkpt>
      <trkpt lat="59.200336605286" lon="17.638807663388">
        <ele>34.6</ele>
        <time>2017-09-02T09:14:57Z</time>
      </trkpt>
      <trkpt lat="59.200315063803" lon="17.638929284757">
        <ele>34.4</ele>
        <time>2017-09-02T09:14:58Z</time>
      </trkpt>
      <trkpt lat="59.200286313886" lon="17.639051744316">
        <ele>34.2</ele>
        <time>2017-09-02T09:14:59Z</time>
      </trkpt>
      <trkpt lat="59.200257061055" lon="17.639170599658">
        <ele>34</ele>
        <time>2017-09-02T09:15:00Z</time>
      </trkpt>
      <trkpt lat="59.200199561221" lon="17.639396240406">
        <ele>34</ele>
        <time>2017-09-02T09:15:02Z</time>
      </trkpt>
      <trkpt lat="59.200144240681" lon="17.639613666892">
        <ele>33.8</ele>
        <time>2017-09-02T09:15:04Z</time>
      </trkpt>
      <trkpt lat="59.200089590693" lon="17.639818436709">
        <ele>33.8</ele>
        <time>2017-09-02T09:15:06Z</time>
      </trkpt>
      <trkpt lat="59.200036114171" lon="17.640018931757">
        <ele>33.8</ele>
        <time>2017-09-02T09:15:08Z</time>
      </trkpt>
      <trkpt lat="59.19998171564" lon="17.640212050733">
        <ele>33.8</ele>
        <time>2017-09-02T09:15:10Z</time>
      </trkpt>
      <trkpt lat="59.199922874702" lon="17.640395614343">
        <ele>34</ele>
        <time>2017-09-02T09:15:12Z</time>
      </trkpt>
      <trkpt lat="59.199857495882" lon="17.640578758858">
        <ele>34.2</ele>
        <time>2017-09-02T09:15:14Z</time>
      </trkpt>
      <trkpt lat="59.199787842293" lon="17.640761400459">
        <ele>34.8</ele>
        <time>2017-09-02T09:15:16Z</time>
      </trkpt>
      <trkpt lat="59.199709890623" lon="17.640937001264">
        <ele>35</ele>
        <time>2017-09-02T09:15:18Z</time>
      </trkpt>
      <trkpt lat="59.199628753831" lon="17.64110665092">
        <ele>35.2</ele>
        <time>2017-09-02T09:15:20Z</time>
      </trkpt>
      <trkpt lat="59.199544264279" lon="17.641277390223">
        <ele>35.2</ele>
        <time>2017-09-02T09:15:22Z</time>
      </trkpt>
      <trkpt lat="59.199459774727" lon="17.641446536965">
        <ele>35.4</ele>
        <time>2017-09-02T09:15:24Z</time>
      </trkpt>
      <trkpt lat="59.199367741465" lon="17.641614929336">
        <ele>35.4</ele>
        <time>2017-09-02T09:15:26Z</time>
      </trkpt>
      <trkpt lat="59.199272523081" lon="17.641786842105">
        <ele>35.6</ele>
        <time>2017-09-02T09:15:28Z</time>
      </trkpt>
      <trkpt lat="59.199165486218" lon="17.641953977191">
        <ele>36</ele>
        <time>2017-09-02T09:15:30Z</time>
      </trkpt>
      <trkpt lat="59.199049145446" lon="17.64212086082">
        <ele>35.8</ele>
        <time>2017-09-02T09:15:32Z</time>
      </trkpt>
      <trkpt lat="59.198929451914" lon="17.6422817933">
        <ele>35.8</ele>
        <time>2017-09-02T09:15:34Z</time>
      </trkpt>
      <trkpt lat="59.198809842201" lon="17.642425375247">
        <ele>35.8</ele>
        <time>2017-09-02T09:15:36Z</time>
      </trkpt>
      <trkpt lat="59.198693585248" lon="17.642577758189">
        <ele>36</ele>
        <time>2017-09-02T09:15:38Z</time>
      </trkpt>
      <trkpt lat="59.198576825381" lon="17.642726536914">
        <ele>36</ele>
        <time>2017-09-02T09:15:40Z</time>
      </trkpt>
      <trkpt lat="59.198458221496" lon="17.642866514644">
        <ele>36</ele>
        <time>2017-09-02T09:15:42Z</time>
      </trkpt>
      <trkpt lat="59.19834389238" lon="17.643005318908">
        <ele>36.2</ele>
        <time>2017-09-02T09:15:44Z</time>
      </trkpt>
      <trkpt lat="59.198235262956" lon="17.643139345489">
        <ele>36.2</ele>
        <time>2017-09-02T09:15:46Z</time>
      </trkpt>
      <trkpt lat="59.198130908301" lon="17.643268929663">
        <ele>36.4</ele>
        <time>2017-09-02T09:15:48Z</time>
      </trkpt>
      <trkpt lat="59.198027224198" lon="17.643379486924">
        <ele>36.6</ele>
        <time>2017-09-02T09:15:50Z</time>
      </trkpt>
      <trkpt lat="59.197919852059" lon="17.643381330942">
        <ele>36.6</ele>
        <time>2017-09-02T09:15:52Z</time>
      </trkpt>
      <trkpt lat="59.197812731377" lon="17.643275132269">
        <ele>36.6</ele>
        <time>2017-09-02T09:15:54Z</time>
      </trkpt>
      <trkpt lat="59.197697731709" lon="17.643147727389">
        <ele>36.6</ele>
        <time>2017-09-02T09:15:56Z</time>
      </trkpt>
      <trkpt lat="59.197573847227" lon="17.643023256174">
        <ele>36.6</ele>
        <time>2017-09-02T09:15:58Z</time>
      </trkpt>
      <trkpt lat="59.197440994112" lon="17.642931558188">
        <ele>36.6</ele>
        <time>2017-09-02T09:16:00Z</time>
      </trkpt>
      <trkpt lat="59.197300010554" lon="17.642848745016">
        <ele>36.4</ele>
        <time>2017-09-02T09:16:02Z</time>
      </trkpt>
      <trkpt lat="59.197152405295" lon="17.642780013436">
        <ele>36</ele>
        <time>2017-09-02T09:16:04Z</time>
      </trkpt>
      <trkpt lat="59.196998932706" lon="17.642730308769">
        <ele>35.2</ele>
        <time>2017-09-02T09:16:06Z</time>
      </trkpt>
      <trkpt lat="59.196922070683" lon="17.642715388987">
        <ele>34.8</ele>
        <time>2017-09-02T09:16:07Z</time>
      </trkpt>
      <trkpt lat="59.19684520866" lon="17.642704576336">
        <ele>34.2</ele>
        <time>2017-09-02T09:16:08Z</time>
      </trkpt>
      <trkpt lat="59.196692322804" lon="17.642699128101">
        <ele>33.8</ele>
        <time>2017-09-02T09:16:10Z</time>
      </trkpt>
      <trkpt lat="59.196542370613" lon="17.642709940752">
        <ele>33.2</ele>
        <time>2017-09-02T09:16:12Z</time>
      </trkpt>
      <trkpt lat="59.196394849173" lon="17.642726704552">
        <ele>32.8</ele>
        <time>2017-09-02T09:16:14Z</time>
      </trkpt>
      <trkpt lat="59.196321591367" lon="17.64273525409">
        <ele>32.4</ele>
        <time>2017-09-02T09:16:15Z</time>
      </trkpt>
      <trkpt lat="59.196249171751" lon="17.642742965438">
        <ele>32.4</ele>
        <time>2017-09-02T09:16:16Z</time>
      </trkpt>
      <trkpt lat="59.196107433822" lon="17.642758555772">
        <ele>32</ele>
        <time>2017-09-02T09:16:18Z</time>
      </trkpt>
      <trkpt lat="59.195966282626" lon="17.642774313744">
        <ele>32</ele>
        <time>2017-09-02T09:16:20Z</time>
      </trkpt>
      <trkpt lat="59.195826556353" lon="17.64278303092">
        <ele>32</ele>
        <time>2017-09-02T09:16:22Z</time>
      </trkpt>
      <trkpt lat="59.195690685754" lon="17.642802979842">
        <ele>32</ele>
        <time>2017-09-02T09:16:24Z</time>
      </trkpt>
      <trkpt lat="59.195558335553" lon="17.64282410223">
        <ele>31.8</ele>
        <time>2017-09-02T09:16:26Z</time>
      </trkpt>
      <trkpt lat="59.195425733895" lon="17.642831143026">
        <ele>31.8</ele>
        <time>2017-09-02T09:16:28Z</time>
      </trkpt>
      <trkpt lat="59.195292713142" lon="17.642840782211">
        <ele>31.8</ele>
        <time>2017-09-02T09:16:30Z</time>
      </trkpt>
      <trkpt lat="59.195160279122" lon="17.642860563495">
        <ele>31.8</ele>
        <time>2017-09-02T09:16:32Z</time>
      </trkpt>
      <trkpt lat="59.195032958061" lon="17.642867436653">
        <ele>31.8</ele>
        <time>2017-09-02T09:16:34Z</time>
      </trkpt>
      <trkpt lat="59.1949140189" lon="17.642876572924">
        <ele>32</ele>
        <time>2017-09-02T09:16:36Z</time>
      </trkpt>
      <trkpt lat="59.194860877654" lon="17.642868107205">
        <ele>32</ele>
        <time>2017-09-02T09:16:37Z</time>
      </trkpt>
      <trkpt lat="59.194812765548" lon="17.642827287352">
        <ele>32</ele>
        <time>2017-09-02T09:16:38Z</time>
      </trkpt>
      <trkpt lat="59.194743698692" lon="17.642653195289">
        <ele>32</ele>
        <time>2017-09-02T09:16:40Z</time>
      </trkpt>
      <trkpt lat="59.194721402838" lon="17.64255420505">
        <ele>32</ele>
        <time>2017-09-02T09:16:41Z</time>
      </trkpt>
      <trkpt lat="59.194699861355" lon="17.642465524548">
        <ele>31.8</ele>
        <time>2017-09-02T09:16:42Z</time>
      </trkpt>
      <trkpt lat="59.194658287131" lon="17.642312135778">
        <ele>31.8</ele>
        <time>2017-09-02T09:16:44Z</time>
      </trkpt>
      <trkpt lat="59.194619646572" lon="17.642172409505">
        <ele>31.8</ele>
        <time>2017-09-02T09:16:46Z</time>
      </trkpt>
      <trkpt lat="59.194590142284" lon="17.64204793829">
        <ele>31.6</ele>
        <time>2017-09-02T09:16:48Z</time>
      </trkpt>
      <trkpt lat="59.194571618285" lon="17.64199345594">
        <ele>31.6</ele>
        <time>2017-09-02T09:16:49Z</time>
      </trkpt>
      <trkpt lat="59.194546724042" lon="17.64193897359">
        <ele>31.2</ele>
        <time>2017-09-02T09:16:50Z</time>
      </trkpt>
      <trkpt lat="59.194464581422" lon="17.641892118769">
        <ele>31</ele>
        <time>2017-09-02T09:16:52Z</time>
      </trkpt>
      <trkpt lat="59.194358969482" lon="17.641962359091">
        <ele>30.8</ele>
        <time>2017-09-02T09:16:54Z</time>
      </trkpt>
      <trkpt lat="59.194302894571" lon="17.642023882237">
        <ele>30.8</ele>
        <time>2017-09-02T09:16:55Z</time>
      </trkpt>
      <trkpt lat="59.194242963986" lon="17.642090183066">
        <ele>30.6</ele>
        <time>2017-09-02T09:16:56Z</time>
      </trkpt>
      <trkpt lat="59.194117989857" lon="17.64222060543">
        <ele>30.4</ele>
        <time>2017-09-02T09:16:58Z</time>
      </trkpt>
      <trkpt lat="59.193990920253" lon="17.642330156863">
        <ele>30</ele>
        <time>2017-09-02T09:17:00Z</time>
      </trkpt>
      <trkpt lat="59.193855049654" lon="17.642408192352">
        <ele>29.8</ele>
        <time>2017-09-02T09:17:02Z</time>
      </trkpt>
      <trkpt lat="59.193709372232" lon="17.642475666647">
        <ele>29.6</ele>
        <time>2017-09-02T09:17:04Z</time>
      </trkpt>
      <trkpt lat="59.19355866567" lon="17.64254414677">
        <ele>29.6</ele>
        <time>2017-09-02T09:17:06Z</time>
      </trkpt>
      <trkpt lat="59.193404354891" lon="17.642611537246">
        <ele>29.6</ele>
        <time>2017-09-02T09:17:08Z</time>
      </trkpt>
      <trkpt lat="59.193248954465" lon="17.642678843903">
        <ele>29.6</ele>
        <time>2017-09-02T09:17:10Z</time>
      </trkpt>
      <trkpt lat="59.193096655342" lon="17.642745899103">
        <ele>29.4</ele>
        <time>2017-09-02T09:17:12Z</time>
      </trkpt>
      <trkpt lat="59.192947122246" lon="17.642811613199">
        <ele>29</ele>
        <time>2017-09-02T09:17:14Z</time>
      </trkpt>
      <trkpt lat="59.192873445345" lon="17.642843129143">
        <ele>28.8</ele>
        <time>2017-09-02T09:17:15Z</time>
      </trkpt>
      <trkpt lat="59.192800187539" lon="17.642875399458">
        <ele>28.6</ele>
        <time>2017-09-02T09:17:16Z</time>
      </trkpt>
      <trkpt lat="59.192653252832" lon="17.642948321988">
        <ele>28.6</ele>
        <time>2017-09-02T09:17:18Z</time>
      </trkpt>
      <trkpt lat="59.192506569582" lon="17.643038343594">
        <ele>28.8</ele>
        <time>2017-09-02T09:17:20Z</time>
      </trkpt>
      <trkpt lat="59.192364580196" lon="17.643159294411">
        <ele>28.8</ele>
        <time>2017-09-02T09:17:22Z</time>
      </trkpt>
      <trkpt lat="59.192226111208" lon="17.643295751743">
        <ele>28.6</ele>
        <time>2017-09-02T09:17:24Z</time>
      </trkpt>
      <trkpt lat="59.192090408247" lon="17.643449559608">
        <ele>28.8</ele>
        <time>2017-09-02T09:17:26Z</time>
      </trkpt>
      <trkpt lat="59.191962500453" lon="17.643621640015">
        <ele>28.8</ele>
        <time>2017-09-02T09:17:28Z</time>
      </trkpt>
      <trkpt lat="59.191840292351" lon="17.643803527245">
        <ele>29</ele>
        <time>2017-09-02T09:17:30Z</time>
      </trkpt>
      <trkpt lat="59.191719509172" lon="17.644002345913">
        <ele>29</ele>
        <time>2017-09-02T09:17:32Z</time>
      </trkpt>
      <trkpt lat="59.191597049613" lon="17.644213737431">
        <ele>29</ele>
        <time>2017-09-02T09:17:34Z</time>
      </trkpt>
      <trkpt lat="59.191474506235" lon="17.644427643519">
        <ele>29</ele>
        <time>2017-09-02T09:17:36Z</time>
      </trkpt>
      <trkpt lat="59.191355818531" lon="17.644642806892">
        <ele>28.8</ele>
        <time>2017-09-02T09:17:38Z</time>
      </trkpt>
      <trkpt lat="59.191239561578" lon="17.644858724636">
        <ele>28.8</ele>
        <time>2017-09-02T09:17:40Z</time>
      </trkpt>
      <trkpt lat="59.191124478091" lon="17.645070702887">
        <ele>28.6</ele>
        <time>2017-09-02T09:17:42Z</time>
      </trkpt>
      <trkpt lat="59.191014675201" lon="17.645290727762">
        <ele>28.4</ele>
        <time>2017-09-02T09:17:44Z</time>
      </trkpt>
      <trkpt lat="59.190908811804" lon="17.645509998266">
        <ele>28.4</ele>
        <time>2017-09-02T09:17:46Z</time>
      </trkpt>
      <trkpt lat="59.190801607303" lon="17.64572843058">
        <ele>28.4</ele>
        <time>2017-09-02T09:17:48Z</time>
      </trkpt>
      <trkpt lat="59.190683254875" lon="17.6459446836">
        <ele>28.4</ele>
        <time>2017-09-02T09:17:50Z</time>
      </trkpt>
      <trkpt lat="59.190564064257" lon="17.646170072891">
        <ele>28.4</ele>
        <time>2017-09-02T09:17:52Z</time>
      </trkpt>
      <trkpt lat="59.19044981896" lon="17.646405352824">
        <ele>28.4</ele>
        <time>2017-09-02T09:17:54Z</time>
      </trkpt>
      <trkpt lat="59.190338758785" lon="17.646643985517">
        <ele>28.2</ele>
        <time>2017-09-02T09:17:56Z</time>
      </trkpt>
      <trkpt lat="59.190232476293" lon="17.646877086156">
        <ele>28.2</ele>
        <time>2017-09-02T09:17:58Z</time>
      </trkpt>
      <trkpt lat="59.190135330072" lon="17.647108007501">
        <ele>28.2</ele>
        <time>2017-09-02T09:18:00Z</time>
      </trkpt>
      <trkpt lat="59.190045057009" lon="17.647335073172">
        <ele>28.2</ele>
        <time>2017-09-02T09:18:02Z</time>
      </trkpt>
      <trkpt lat="59.189955538317" lon="17.647548057251">
        <ele>28.2</ele>
        <time>2017-09-02T09:18:04Z</time>
      </trkpt>
      <trkpt lat="59.18983374931" lon="17.647686107144">
        <ele>28</ele>
        <time>2017-09-02T09:18:06Z</time>
      </trkpt>
      <trkpt lat="59.189695364141" lon="17.647629194043">
        <ele>27.8</ele>
        <time>2017-09-02T09:18:08Z</time>
      </trkpt>
      <trkpt lat="59.189572988401" lon="17.647441020388">
        <ele>27.8</ele>
        <time>2017-09-02T09:18:10Z</time>
      </trkpt>
      <trkpt lat="59.189504675916" lon="17.647347226927">
        <ele>27.8</ele>
        <time>2017-09-02T09:18:11Z</time>
      </trkpt>
      <trkpt lat="59.189435106146" lon="17.647252092362">
        <ele>27.8</ele>
        <time>2017-09-02T09:18:12Z</time>
      </trkpt>
      <trkpt lat="59.189293200579" lon="17.647047238726">
        <ele>27.4</ele>
        <time>2017-09-02T09:18:14Z</time>
      </trkpt>
      <trkpt lat="59.189157497618" lon="17.646813132259">
        <ele>26.6</ele>
        <time>2017-09-02T09:18:16Z</time>
      </trkpt>
      <trkpt lat="59.189022297571" lon="17.64657416429">
        <ele>25.8</ele>
        <time>2017-09-02T09:18:18Z</time>
      </trkpt>
      <trkpt lat="59.188892545759" lon="17.646338046167">
        <ele>25.4</ele>
        <time>2017-09-02T09:18:20Z</time>
      </trkpt>
      <trkpt lat="59.188774863883" lon="17.646091618307">
        <ele>24.8</ele>
        <time>2017-09-02T09:18:22Z</time>
      </trkpt>
      <trkpt lat="59.188651733772" lon="17.645849716673">
        <ele>24.6</ele>
        <time>2017-09-02T09:18:24Z</time>
      </trkpt>
      <trkpt lat="59.188514354431" lon="17.645609575238">
        <ele>24.2</ele>
        <time>2017-09-02T09:18:26Z</time>
      </trkpt>
      <trkpt lat="59.188371694493" lon="17.645361051903">
        <ele>23.8</ele>
        <time>2017-09-02T09:18:28Z</time>
      </trkpt>
      <trkpt lat="59.188224843605" lon="17.645108589075">
        <ele>23.4</ele>
        <time>2017-09-02T09:18:30Z</time>
      </trkpt>
      <trkpt lat="59.188149490324" lon="17.644979759272">
        <ele>23.2</ele>
        <time>2017-09-02T09:18:31Z</time>
      </trkpt>
      <trkpt lat="59.188071706292" lon="17.644851851478">
        <ele>22.8</ele>
        <time>2017-09-02T09:18:32Z</time>
      </trkpt>
      <trkpt lat="59.187912534011" lon="17.644602070858">
        <ele>22.4</ele>
        <time>2017-09-02T09:18:34Z</time>
      </trkpt>
      <trkpt lat="59.187750511884" lon="17.644369892228">
        <ele>22.2</ele>
        <time>2017-09-02T09:18:36Z</time>
      </trkpt>
      <trkpt lat="59.187590920508" lon="17.64415850071">
        <ele>22</ele>
        <time>2017-09-02T09:18:38Z</time>
      </trkpt>
      <trkpt lat="59.187441471231" lon="17.643966471381">
        <ele>22</ele>
        <time>2017-09-02T09:18:40Z</time>
      </trkpt>
      <trkpt lat="59.187297973103" lon="17.643802102322">
        <ele>22</ele>
        <time>2017-09-02T09:18:42Z</time>
      </trkpt>
      <trkpt lat="59.187157073364" lon="17.643651731036">
        <ele>22</ele>
        <time>2017-09-02T09:18:44Z</time>
      </trkpt>
      <trkpt lat="59.187017598548" lon="17.643512507677">
        <ele>22.2</ele>
        <time>2017-09-02T09:18:46Z</time>
      </trkpt>
      <trkpt lat="59.186877117904" lon="17.64337898401">
        <ele>23</ele>
        <time>2017-09-02T09:18:48Z</time>
      </trkpt>
      <trkpt lat="59.186805955573" lon="17.643313437552">
        <ele>23.4</ele>
        <time>2017-09-02T09:18:49Z</time>
      </trkpt>
      <trkpt lat="59.18673412269" lon="17.643248896922">
        <ele>23.8</ele>
        <time>2017-09-02T09:18:50Z</time>
      </trkpt>
      <trkpt lat="59.186589283458" lon="17.643124509526">
        <ele>24.6</ele>
        <time>2017-09-02T09:18:52Z</time>
      </trkpt>
      <trkpt lat="59.186442181113" lon="17.643009174582">
        <ele>25.2</ele>
        <time>2017-09-02T09:18:54Z</time>
      </trkpt>
      <trkpt lat="59.186297341881" lon="17.642903478823">
        <ele>25.6</ele>
        <time>2017-09-02T09:18:56Z</time>
      </trkpt>
      <trkpt lat="59.186225676636" lon="17.642854528527">
        <ele>26</ele>
        <time>2017-09-02T09:18:57Z</time>
      </trkpt>
      <trkpt lat="59.186155101038" lon="17.642808679534">
        <ele>26.2</ele>
        <time>2017-09-02T09:18:58Z</time>
      </trkpt>
      <trkpt lat="59.186018476068" lon="17.642719915213">
        <ele>26.6</ele>
        <time>2017-09-02T09:19:00Z</time>
      </trkpt>
      <trkpt lat="59.185878917433" lon="17.642642969371">
        <ele>27</ele>
        <time>2017-09-02T09:19:02Z</time>
      </trkpt>
      <trkpt lat="59.1857358384" lon="17.642568957194">
        <ele>27.4</ele>
        <time>2017-09-02T09:19:04Z</time>
      </trkpt>
      <trkpt lat="59.185590160978" lon="17.642503997469">
        <ele>27.8</ele>
        <time>2017-09-02T09:19:06Z</time>
      </trkpt>
      <trkpt lat="59.18544079552" lon="17.642445827083">
        <ele>28.2</ele>
        <time>2017-09-02T09:19:08Z</time>
      </trkpt>
      <trkpt lat="59.185364436411" lon="17.642418334451">
        <ele>28.4</ele>
        <time>2017-09-02T09:19:09Z</time>
      </trkpt>
      <trkpt lat="59.185287071474" lon="17.64239159619">
        <ele>28.6</ele>
        <time>2017-09-02T09:19:10Z</time>
      </trkpt>
      <trkpt lat="59.185133347428" lon="17.642335353641">
        <ele>28.8</ele>
        <time>2017-09-02T09:19:12Z</time>
      </trkpt>
      <trkpt lat="59.184981635038" lon="17.642281960938">
        <ele>29</ele>
        <time>2017-09-02T09:19:14Z</time>
      </trkpt>
      <trkpt lat="59.184832772494" lon="17.642230328434">
        <ele>29.4</ele>
        <time>2017-09-02T09:19:16Z</time>
      </trkpt>
      <trkpt lat="59.18467720443" lon="17.642174169704">
        <ele>29.4</ele>
        <time>2017-09-02T09:19:18Z</time>
      </trkpt>
      <trkpt lat="59.184522726013" lon="17.642116502232">
        <ele>29.4</ele>
        <time>2017-09-02T09:19:20Z</time>
      </trkpt>
      <trkpt lat="59.184358859868" lon="17.642060175864">
        <ele>29.4</ele>
        <time>2017-09-02T09:19:22Z</time>
      </trkpt>
      <trkpt lat="59.184189880764" lon="17.642002424573">
        <ele>29.4</ele>
        <time>2017-09-02T09:19:24Z</time>
      </trkpt>
      <trkpt lat="59.184014866692" lon="17.641937800124">
        <ele>29.6</ele>
        <time>2017-09-02T09:19:26Z</time>
      </trkpt>
      <trkpt lat="59.183830883987" lon="17.641872337485">
        <ele>29.4</ele>
        <time>2017-09-02T09:19:28Z</time>
      </trkpt>
      <trkpt lat="59.183641033952" lon="17.64180486319">
        <ele>29.2</ele>
        <time>2017-09-02T09:19:30Z</time>
      </trkpt>
      <trkpt lat="59.183446070958" lon="17.64173026428">
        <ele>29</ele>
        <time>2017-09-02T09:19:32Z</time>
      </trkpt>
      <trkpt lat="59.183254376905" lon="17.641648876031">
        <ele>28.4</ele>
        <time>2017-09-02T09:19:34Z</time>
      </trkpt>
      <trkpt lat="59.18305698316" lon="17.641565895221">
        <ele>28</ele>
        <time>2017-09-02T09:19:36Z</time>
      </trkpt>
      <trkpt lat="59.182848692945" lon="17.641481824764">
        <ele>27.4</ele>
        <time>2017-09-02T09:19:38Z</time>
      </trkpt>
      <trkpt lat="59.182739895883" lon="17.641439579988">
        <ele>27</ele>
        <time>2017-09-02T09:19:39Z</time>
      </trkpt>
      <trkpt lat="59.18262782988" lon="17.64139917923">
        <ele>26.4</ele>
        <time>2017-09-02T09:19:40Z</time>
      </trkpt>
      <trkpt lat="59.182513584583" lon="17.641357688825">
        <ele>26</ele>
        <time>2017-09-02T09:19:41Z</time>
      </trkpt>
      <trkpt lat="59.182397746725" lon="17.641313600031">
        <ele>25.4</ele>
        <time>2017-09-02T09:19:42Z</time>
      </trkpt>
      <trkpt lat="59.182161963878" lon="17.641223578425">
        <ele>24.6</ele>
        <time>2017-09-02T09:19:44Z</time>
      </trkpt>
      <trkpt lat="59.181925007565" lon="17.641122744168">
        <ele>23.4</ele>
        <time>2017-09-02T09:19:46Z</time>
      </trkpt>
      <trkpt lat="59.18168821889" lon="17.641020736445">
        <ele>22</ele>
        <time>2017-09-02T09:19:48Z</time>
      </trkpt>
      <trkpt lat="59.181453609509" lon="17.640920656559">
        <ele>20.6</ele>
        <time>2017-09-02T09:19:50Z</time>
      </trkpt>
      <trkpt lat="59.181222855802" lon="17.640818816474">
        <ele>19.2</ele>
        <time>2017-09-02T09:19:52Z</time>
      </trkpt>
      <trkpt lat="59.180996795959" lon="17.640718233674">
        <ele>18.2</ele>
        <time>2017-09-02T09:19:54Z</time>
      </trkpt>
      <trkpt lat="59.180885484327" lon="17.640667606998">
        <ele>17.2</ele>
        <time>2017-09-02T09:19:55Z</time>
      </trkpt>
      <trkpt lat="59.180776100532" lon="17.640617315598">
        <ele>16.8</ele>
        <time>2017-09-02T09:19:56Z</time>
      </trkpt>
      <trkpt lat="59.180562613539" lon="17.640513799133">
        <ele>16.2</ele>
        <time>2017-09-02T09:19:58Z</time>
      </trkpt>
      <trkpt lat="59.180353652772" lon="17.640413132514">
        <ele>16</ele>
        <time>2017-09-02T09:20:00Z</time>
      </trkpt>
      <trkpt lat="59.180145278738" lon="17.640313555542">
        <ele>16</ele>
        <time>2017-09-02T09:20:02Z</time>
      </trkpt>
      <trkpt lat="59.179935395962" lon="17.640218001882">
        <ele>15.8</ele>
        <time>2017-09-02T09:20:04Z</time>
      </trkpt>
      <trkpt lat="59.179726770471" lon="17.640125717163">
        <ele>15.8</ele>
        <time>2017-09-02T09:20:06Z</time>
      </trkpt>
      <trkpt lat="59.179523677034" lon="17.640034773548">
        <ele>15.8</ele>
        <time>2017-09-02T09:20:08Z</time>
      </trkpt>
      <trkpt lat="59.179325193642" lon="17.639946009227">
        <ele>15.6</ele>
        <time>2017-09-02T09:20:10Z</time>
      </trkpt>
      <trkpt lat="59.179127883716" lon="17.639861184399">
        <ele>15.4</ele>
        <time>2017-09-02T09:20:12Z</time>
      </trkpt>
      <trkpt lat="59.17893225017" lon="17.639775940476">
        <ele>15.4</ele>
        <time>2017-09-02T09:20:14Z</time>
      </trkpt>
      <trkpt lat="59.178739047375" lon="17.639684074852">
        <ele>15</ele>
        <time>2017-09-02T09:20:16Z</time>
      </trkpt>
      <trkpt lat="59.178542072725" lon="17.639595310531">
        <ele>14.8</ele>
        <time>2017-09-02T09:20:18Z</time>
      </trkpt>
      <trkpt lat="59.178334453062" lon="17.639512664997">
        <ele>14.4</ele>
        <time>2017-09-02T09:20:20Z</time>
      </trkpt>
      <trkpt lat="59.178119876422" lon="17.639416189328">
        <ele>14.2</ele>
        <time>2017-09-02T09:20:22Z</time>
      </trkpt>
      <trkpt lat="59.178010827903" lon="17.63936740667">
        <ele>14</ele>
        <time>2017-09-02T09:20:23Z</time>
      </trkpt>
      <trkpt lat="59.177899348633" lon="17.639320803306">
        <ele>13.4</ele>
        <time>2017-09-02T09:20:24Z</time>
      </trkpt>
      <trkpt lat="59.177667589098" lon="17.639255424486">
        <ele>12.8</ele>
        <time>2017-09-02T09:20:26Z</time>
      </trkpt>
      <trkpt lat="59.177432895898" lon="17.639238493048">
        <ele>11.8</ele>
        <time>2017-09-02T09:20:28Z</time>
      </trkpt>
      <trkpt lat="59.177314375832" lon="17.639249473337">
        <ele>11.6</ele>
        <time>2017-09-02T09:20:29Z</time>
      </trkpt>
      <trkpt lat="59.177196526318" lon="17.63927185301">
        <ele>11</ele>
        <time>2017-09-02T09:20:30Z</time>
      </trkpt>
      <trkpt lat="59.176965688792" lon="17.639349553223">
        <ele>10.2</ele>
        <time>2017-09-02T09:20:32Z</time>
      </trkpt>
      <trkpt lat="59.176745580098" lon="17.639477880112">
        <ele>9</ele>
        <time>2017-09-02T09:20:34Z</time>
      </trkpt>
      <trkpt lat="59.17653418858" lon="17.63964317118">
        <ele>8</ele>
        <time>2017-09-02T09:20:36Z</time>
      </trkpt>
      <trkpt lat="59.176341991613" lon="17.639845929341">
        <ele>6.8</ele>
        <time>2017-09-02T09:20:38Z</time>
      </trkpt>
      <trkpt lat="59.176169911206" lon="17.64007819179">
        <ele>6.4</ele>
        <time>2017-09-02T09:20:40Z</time>
      </trkpt>
      <trkpt lat="59.1760212163" lon="17.640317243578">
        <ele>6.4</ele>
        <time>2017-09-02T09:20:42Z</time>
      </trkpt>
      <trkpt lat="59.175891883583" lon="17.640562162696">
        <ele>6.4</ele>
        <time>2017-09-02T09:20:44Z</time>
      </trkpt>
      <trkpt lat="59.175775710449" lon="17.640813452058">
        <ele>6.4</ele>
        <time>2017-09-02T09:20:46Z</time>
      </trkpt>
      <trkpt lat="59.17565911822" lon="17.641072033673">
        <ele>6.4</ele>
        <time>2017-09-02T09:20:48Z</time>
      </trkpt>
      <trkpt lat="59.175540681973" lon="17.641323658311">
        <ele>7</ele>
        <time>2017-09-02T09:20:50Z</time>
      </trkpt>
      <trkpt lat="59.175422078088" lon="17.641580647365">
        <ele>7.2</ele>
        <time>2017-09-02T09:20:52Z</time>
      </trkpt>
      <trkpt lat="59.175302803651" lon="17.641843252292">
        <ele>7.8</ele>
        <time>2017-09-02T09:20:54Z</time>
      </trkpt>
      <trkpt lat="59.175241783419" lon="17.641973087923">
        <ele>7.8</ele>
        <time>2017-09-02T09:20:55Z</time>
      </trkpt>
      <trkpt lat="59.175179505902" lon="17.642103091192">
        <ele>8</ele>
        <time>2017-09-02T09:20:56Z</time>
      </trkpt>
      <trkpt lat="59.175051179013" lon="17.642355973115">
        <ele>8</ele>
        <time>2017-09-02T09:20:58Z</time>
      </trkpt>
      <trkpt lat="59.174917655346" lon="17.642601395147">
        <ele>8</ele>
        <time>2017-09-02T09:21:00Z</time>
      </trkpt>
      <trkpt lat="59.174778599625" lon="17.642846230446">
        <ele>8</ele>
        <time>2017-09-02T09:21:02Z</time>
      </trkpt>
      <trkpt lat="59.174627641606" lon="17.643075978325">
        <ele>8</ele>
        <time>2017-09-02T09:21:04Z</time>
      </trkpt>
      <trkpt lat="59.174464110737" lon="17.643292063707">
        <ele>7.8</ele>
        <time>2017-09-02T09:21:06Z</time>
      </trkpt>
      <trkpt lat="59.174293371434" lon="17.64349633061">
        <ele>7.8</ele>
        <time>2017-09-02T09:21:08Z</time>
      </trkpt>
      <trkpt lat="59.174111148928" lon="17.643676206184">
        <ele>7.4</ele>
        <time>2017-09-02T09:21:10Z</time>
      </trkpt>
      <trkpt lat="59.173924567834" lon="17.643829175859">
        <ele>6.8</ele>
        <time>2017-09-02T09:21:12Z</time>
      </trkpt>
      <trkpt lat="59.173735891265" lon="17.643960101137">
        <ele>5.8</ele>
        <time>2017-09-02T09:21:14Z</time>
      </trkpt>
      <trkpt lat="59.173644277098" lon="17.644023049206">
        <ele>5.2</ele>
        <time>2017-09-02T09:21:15Z</time>
      </trkpt>
      <trkpt lat="59.173554674587" lon="17.644085242904">
        <ele>5</ele>
        <time>2017-09-02T09:21:16Z</time>
      </trkpt>
      <trkpt lat="59.173380582524" lon="17.64420711573">
        <ele>4.6</ele>
        <time>2017-09-02T09:21:18Z</time>
      </trkpt>
      <trkpt lat="59.173205400814" lon="17.644326473986">
        <ele>4.4</ele>
        <time>2017-09-02T09:21:20Z</time>
      </trkpt>
      <trkpt lat="59.173027536896" lon="17.64444767626">
        <ele>4.2</ele>
        <time>2017-09-02T09:21:22Z</time>
      </trkpt>
      <trkpt lat="59.172847326046" lon="17.644571979837">
        <ele>4.2</ele>
        <time>2017-09-02T09:21:24Z</time>
      </trkpt>
      <trkpt lat="59.172664600626" lon="17.644702150744">
        <ele>4</ele>
        <time>2017-09-02T09:21:26Z</time>
      </trkpt>
      <trkpt lat="59.172482964853" lon="17.644855455695">
        <ele>4</ele>
        <time>2017-09-02T09:21:28Z</time>
      </trkpt>
      <trkpt lat="59.172307866962" lon="17.645032229966">
        <ele>4</ele>
        <time>2017-09-02T09:21:30Z</time>
      </trkpt>
      <trkpt lat="59.17213620565" lon="17.645219733069">
        <ele>4</ele>
        <time>2017-09-02T09:21:32Z</time>
      </trkpt>
      <trkpt lat="59.171967394184" lon="17.645413187321">
        <ele>4</ele>
        <time>2017-09-02T09:21:34Z</time>
      </trkpt>
      <trkpt lat="59.171804869143" lon="17.645625584667">
        <ele>3.8</ele>
        <time>2017-09-02T09:21:36Z</time>
      </trkpt>
      <trkpt lat="59.171643098473" lon="17.645833288149">
        <ele>3.8</ele>
        <time>2017-09-02T09:21:38Z</time>
      </trkpt>
      <trkpt lat="59.171478980871" lon="17.646041494545">
        <ele>3.6</ele>
        <time>2017-09-02T09:21:40Z</time>
      </trkpt>
      <trkpt lat="59.171311510509" lon="17.646245677629">
        <ele>3.6</ele>
        <time>2017-09-02T09:21:42Z</time>
      </trkpt>
      <trkpt lat="59.171140184473" lon="17.646434857112">
        <ele>3.4</ele>
        <time>2017-09-02T09:21:44Z</time>
      </trkpt>
      <trkpt lat="59.170963745478" lon="17.646608697718">
        <ele>3.4</ele>
        <time>2017-09-02T09:21:46Z</time>
      </trkpt>
      <trkpt lat="59.170781942067" lon="17.646769630198">
        <ele>3.2</ele>
        <time>2017-09-02T09:21:48Z</time>
      </trkpt>
      <trkpt lat="59.170689238253" lon="17.646841463081">
        <ele>3</ele>
        <time>2017-09-02T09:21:49Z</time>
      </trkpt>
      <trkpt lat="59.170596869715" lon="17.646908937376">
        <ele>2.8</ele>
        <time>2017-09-02T09:21:50Z</time>
      </trkpt>
      <trkpt lat="59.170411294449" lon="17.647030055831">
        <ele>2.6</ele>
        <time>2017-09-02T09:21:52Z</time>
      </trkpt>
      <trkpt lat="59.170225300088" lon="17.647131979735">
        <ele>2.4</ele>
        <time>2017-09-02T09:21:54Z</time>
      </trkpt>
      <trkpt lat="59.170035869148" lon="17.647219151495">
        <ele>2.4</ele>
        <time>2017-09-02T09:21:56Z</time>
      </trkpt>
      <trkpt lat="59.16984627057" lon="17.647292157844">
        <ele>2.4</ele>
        <time>2017-09-02T09:21:58Z</time>
      </trkpt>
      <trkpt lat="59.169658767467" lon="17.647364409822">
        <ele>2.4</ele>
        <time>2017-09-02T09:22:00Z</time>
      </trkpt>
      <trkpt lat="59.169473359839" lon="17.647432638488">
        <ele>2.4</ele>
        <time>2017-09-02T09:22:02Z</time>
      </trkpt>
      <trkpt lat="59.169290131505" lon="17.647500783335">
        <ele>2.6</ele>
        <time>2017-09-02T09:22:04Z</time>
      </trkpt>
      <trkpt lat="59.169108495732" lon="17.647569850191">
        <ele>2.6</ele>
        <time>2017-09-02T09:22:06Z</time>
      </trkpt>
      <trkpt lat="59.168928117244" lon="17.647640761065">
        <ele>2.8</ele>
        <time>2017-09-02T09:22:08Z</time>
      </trkpt>
      <trkpt lat="59.168748912222" lon="17.647708905912">
        <ele>3</ele>
        <time>2017-09-02T09:22:10Z</time>
      </trkpt>
      <trkpt lat="59.168572557046" lon="17.647776380207">
        <ele>3.2</ele>
        <time>2017-09-02T09:22:12Z</time>
      </trkpt>
      <trkpt lat="59.168397123879" lon="17.647842681036">
        <ele>3.4</ele>
        <time>2017-09-02T09:22:14Z</time>
      </trkpt>
      <trkpt lat="59.168222109807" lon="17.647904707096">
        <ele>3.4</ele>
        <time>2017-09-02T09:22:16Z</time>
      </trkpt>
      <trkpt lat="59.168051621961" lon="17.647974193047">
        <ele>3.6</ele>
        <time>2017-09-02T09:22:18Z</time>
      </trkpt>
      <trkpt lat="59.167883313409" lon="17.648073434743">
        <ele>3.8</ele>
        <time>2017-09-02T09:22:20Z</time>
      </trkpt>
      <trkpt lat="59.167711987373" lon="17.648170413326">
        <ele>3.8</ele>
        <time>2017-09-02T09:22:22Z</time>
      </trkpt>
      <trkpt lat="59.16753286617" lon="17.648223554572">
        <ele>3.8</ele>
        <time>2017-09-02T09:22:24Z</time>
      </trkpt>
      <trkpt lat="59.1673543317" lon="17.64826479352">
        <ele>3.8</ele>
        <time>2017-09-02T09:22:26Z</time>
      </trkpt>
      <trkpt lat="59.167177389791" lon="17.648324891743">
        <ele>3.8</ele>
        <time>2017-09-02T09:22:28Z</time>
      </trkpt>
      <trkpt lat="59.167006399031" lon="17.64839303659">
        <ele>3.8</ele>
        <time>2017-09-02T09:22:30Z</time>
      </trkpt>
      <trkpt lat="59.166831971692" lon="17.64845170989">
        <ele>3.6</ele>
        <time>2017-09-02T09:22:32Z</time>
      </trkpt>
      <trkpt lat="59.166655616516" lon="17.648471658812">
        <ele>3.4</ele>
        <time>2017-09-02T09:22:34Z</time>
      </trkpt>
      <trkpt lat="59.166480770082" lon="17.648429581674">
        <ele>3.2</ele>
        <time>2017-09-02T09:22:36Z</time>
      </trkpt>
      <trkpt lat="59.166311707159" lon="17.648325227019">
        <ele>3.2</ele>
        <time>2017-09-02T09:22:38Z</time>
      </trkpt>
      <trkpt lat="59.166154546534" lon="17.648167144385">
        <ele>3.2</ele>
        <time>2017-09-02T09:22:40Z</time>
      </trkpt>
      <trkpt lat="59.166011383682" lon="17.647961787835">
        <ele>3.2</ele>
        <time>2017-09-02T09:22:42Z</time>
      </trkpt>
      <trkpt lat="59.165887080105" lon="17.64771494088">
        <ele>3</ele>
        <time>2017-09-02T09:22:44Z</time>
      </trkpt>
      <trkpt lat="59.165830921375" lon="17.647583596507">
        <ele>3</ele>
        <time>2017-09-02T09:22:45Z</time>
      </trkpt>
      <trkpt lat="59.165777025758" lon="17.647449905202">
        <ele>3</ele>
        <time>2017-09-02T09:22:46Z</time>
      </trkpt>
      <trkpt lat="59.165671916732" lon="17.647174475968">
        <ele>3</ele>
        <time>2017-09-02T09:22:48Z</time>
      </trkpt>
      <trkpt lat="59.165568819362" lon="17.64689016192">
        <ele>3.2</ele>
        <time>2017-09-02T09:22:50Z</time>
      </trkpt>
      <trkpt lat="59.165468823295" lon="17.646599477628">
        <ele>3.2</ele>
        <time>2017-09-02T09:22:52Z</time>
      </trkpt>
      <trkpt lat="59.165381483897" lon="17.64629923797">
        <ele>3</ele>
        <time>2017-09-02T09:22:54Z</time>
      </trkpt>
      <trkpt lat="59.165303699865" lon="17.645987850385">
        <ele>3.2</ele>
        <time>2017-09-02T09:22:56Z</time>
      </trkpt>
      <trkpt lat="59.165235722656" lon="17.645667829443">
        <ele>3.2</ele>
        <time>2017-09-02T09:22:58Z</time>
      </trkpt>
      <trkpt lat="59.165186269446" lon="17.645343282275">
        <ele>3.2</ele>
        <time>2017-09-02T09:23:00Z</time>
      </trkpt>
      <trkpt lat="59.165155172597" lon="17.645013203053">
        <ele>3.2</ele>
        <time>2017-09-02T09:23:02Z</time>
      </trkpt>
      <trkpt lat="59.165150478733" lon="17.644848163442">
        <ele>3.2</ele>
        <time>2017-09-02T09:23:03Z</time>
      </trkpt>
      <trkpt lat="59.165151903656" lon="17.644682453279">
        <ele>3.2</ele>
        <time>2017-09-02T09:23:04Z</time>
      </trkpt>
      <trkpt lat="59.165177468451" lon="17.644354301894">
        <ele>3.4</ele>
        <time>2017-09-02T09:23:06Z</time>
      </trkpt>
      <trkpt lat="59.165226670204" lon="17.644042495214">
        <ele>3.4</ele>
        <time>2017-09-02T09:23:08Z</time>
      </trkpt>
      <trkpt lat="59.165297916354" lon="17.643750805094">
        <ele>3.4</ele>
        <time>2017-09-02T09:23:10Z</time>
      </trkpt>
      <trkpt lat="59.165370168332" lon="17.643485517959">
        <ele>3.6</ele>
        <time>2017-09-02T09:23:12Z</time>
      </trkpt>
      <trkpt lat="59.16543571479" lon="17.643242191402">
        <ele>3.6</ele>
        <time>2017-09-02T09:23:14Z</time>
      </trkpt>
      <trkpt lat="59.165491454425" lon="17.643030799884">
        <ele>3.8</ele>
        <time>2017-09-02T09:23:16Z</time>
      </trkpt>
      <trkpt lat="59.165514169374" lon="17.642929546532">
        <ele>4</ele>
        <time>2017-09-02T09:23:17Z</time>
      </trkpt>
      <trkpt lat="59.16553881216" lon="17.64282829318">
        <ele>4.4</ele>
        <time>2017-09-02T09:23:18Z</time>
      </trkpt>
      <trkpt lat="59.165582565678" lon="17.642623188087">
        <ele>4.8</ele>
        <time>2017-09-02T09:23:20Z</time>
      </trkpt>
      <trkpt lat="59.165614500717" lon="17.642409449637">
        <ele>5.2</ele>
        <time>2017-09-02T09:23:22Z</time>
      </trkpt>
      <trkpt lat="59.165628833766" lon="17.642184311803">
        <ele>6</ele>
        <time>2017-09-02T09:23:24Z</time>
      </trkpt>
      <trkpt lat="59.165631599793" lon="17.642074425094">
        <ele>6.4</ele>
        <time>2017-09-02T09:23:25Z</time>
      </trkpt>
      <trkpt lat="59.165630091051" lon="17.641963616376">
        <ele>7</ele>
        <time>2017-09-02T09:23:26Z</time>
      </trkpt>
      <trkpt lat="59.165626151558" lon="17.641854651676">
        <ele>7.4</ele>
        <time>2017-09-02T09:23:27Z</time>
      </trkpt>
      <trkpt lat="59.165621290056" lon="17.641751889582">
        <ele>7.8</ele>
        <time>2017-09-02T09:23:28Z</time>
      </trkpt>
      <trkpt lat="59.165599664754" lon="17.641550975439">
        <ele>8.6</ele>
        <time>2017-09-02T09:23:30Z</time>
      </trkpt>
      <trkpt lat="59.165573597045" lon="17.641354671341">
        <ele>9.2</ele>
        <time>2017-09-02T09:23:32Z</time>
      </trkpt>
      <trkpt lat="59.165538141608" lon="17.641160043623">
        <ele>10</ele>
        <time>2017-09-02T09:23:34Z</time>
      </trkpt>
      <trkpt lat="59.165504111094" lon="17.640978240212">
        <ele>10.6</ele>
        <time>2017-09-02T09:23:36Z</time>
      </trkpt>
      <trkpt lat="59.165497824669" lon="17.640889727348">
        <ele>11</ele>
        <time>2017-09-02T09:23:37Z</time>
      </trkpt>
      <trkpt lat="59.165502853809" lon="17.640799370466">
        <ele>11.2</ele>
        <time>2017-09-02T09:23:38Z</time>
      </trkpt>
      <trkpt lat="59.165543673662" lon="17.640610945354">
        <ele>11.8</ele>
        <time>2017-09-02T09:23:40Z</time>
      </trkpt>
      <trkpt lat="59.165564041679" lon="17.640391004298">
        <ele>12.2</ele>
        <time>2017-09-02T09:23:42Z</time>
      </trkpt>
      <trkpt lat="59.165552390838" lon="17.64028271015">
        <ele>12.4</ele>
        <time>2017-09-02T09:23:43Z</time>
      </trkpt>
      <trkpt lat="59.165524060016" lon="17.640188497594">
        <ele>12.6</ele>
        <time>2017-09-02T09:23:44Z</time>
      </trkpt>
      <trkpt lat="59.165428422537" lon="17.640085064948">
        <ele>13.8</ele>
        <time>2017-09-02T09:23:46Z</time>
      </trkpt>
      <trkpt lat="59.165312919955" lon="17.640124627516">
        <ele>14</ele>
        <time>2017-09-02T09:23:48Z</time>
      </trkpt>
      <trkpt lat="59.165201105409" lon="17.640250607473">
        <ele>14.4</ele>
        <time>2017-09-02T09:23:50Z</time>
      </trkpt>
      <trkpt lat="59.165087782121" lon="17.640375665421">
        <ele>14.6</ele>
        <time>2017-09-02T09:23:52Z</time>
      </trkpt>
      <trkpt lat="59.16503338359" lon="17.640433332893">
        <ele>14.8</ele>
        <time>2017-09-02T09:23:53Z</time>
      </trkpt>
      <trkpt lat="59.16498057762" lon="17.640483624293">
        <ele>14.8</ele>
        <time>2017-09-02T09:23:54Z</time>
      </trkpt>
      <trkpt lat="59.16487245111" lon="17.640573394442">
        <ele>14.8</ele>
        <time>2017-09-02T09:23:56Z</time>
      </trkpt>
      <trkpt lat="59.164761642392" lon="17.640660650021">
        <ele>15</ele>
        <time>2017-09-02T09:23:58Z</time>
      </trkpt>
      <trkpt lat="59.164649827846" lon="17.640737679682">
        <ele>15.2</ele>
        <time>2017-09-02T09:24:00Z</time>
      </trkpt>
      <trkpt lat="59.164542455707" lon="17.640802471769">
        <ele>15.2</ele>
        <time>2017-09-02T09:24:02Z</time>
      </trkpt>
      <trkpt lat="59.164436424672" lon="17.640850080961">
        <ele>15.6</ele>
        <time>2017-09-02T09:24:04Z</time>
      </trkpt>
      <trkpt lat="59.164383451064" lon="17.640874639928">
        <ele>15.8</ele>
        <time>2017-09-02T09:24:05Z</time>
      </trkpt>
      <trkpt lat="59.164330812732" lon="17.640900288542">
        <ele>16</ele>
        <time>2017-09-02T09:24:06Z</time>
      </trkpt>
      <trkpt lat="59.164224865516" lon="17.640954770892">
        <ele>16.6</ele>
        <time>2017-09-02T09:24:08Z</time>
      </trkpt>
      <trkpt lat="59.164170634623" lon="17.640981006239">
        <ele>17</ele>
        <time>2017-09-02T09:24:09Z</time>
      </trkpt>
      <trkpt lat="59.16411640373" lon="17.641008834147">
        <ele>17.2</ele>
        <time>2017-09-02T09:24:10Z</time>
      </trkpt>
      <trkpt lat="59.164009450686" lon="17.641062394488">
        <ele>17.6</ele>
        <time>2017-09-02T09:24:12Z</time>
      </trkpt>
      <trkpt lat="59.163903671108" lon="17.641118804675">
        <ele>18</ele>
        <time>2017-09-02T09:24:14Z</time>
      </trkpt>
      <trkpt lat="59.163799316453" lon="17.641173622301">
        <ele>19</ele>
        <time>2017-09-02T09:24:16Z</time>
      </trkpt>
      <trkpt lat="59.163699404205" lon="17.641220393303">
        <ele>19.4</ele>
        <time>2017-09-02T09:24:18Z</time>
      </trkpt>
      <trkpt lat="59.163604185821" lon="17.641264482097">
        <ele>20</ele>
        <time>2017-09-02T09:24:20Z</time>
      </trkpt>
      <trkpt lat="59.163509973265" lon="17.641310750185">
        <ele>20.6</ele>
        <time>2017-09-02T09:24:22Z</time>
      </trkpt>
      <trkpt lat="59.163417017994" lon="17.641355760988">
        <ele>21.2</ele>
        <time>2017-09-02T09:24:24Z</time>
      </trkpt>
      <trkpt lat="59.163325236189" lon="17.641398257221">
        <ele>21.8</ele>
        <time>2017-09-02T09:24:26Z</time>
      </trkpt>
      <trkpt lat="59.16323127509" lon="17.641442429834">
        <ele>22.2</ele>
        <time>2017-09-02T09:24:28Z</time>
      </trkpt>
      <trkpt lat="59.163133123041" lon="17.641477549995">
        <ele>22.8</ele>
        <time>2017-09-02T09:24:30Z</time>
      </trkpt>
      <trkpt lat="59.163089369523" lon="17.641497666555">
        <ele>23</ele>
        <time>2017-09-02T09:24:31Z</time>
      </trkpt>
      <trkpt lat="59.163048046756" lon="17.64151149669">
        <ele>23.2</ele>
        <time>2017-09-02T09:24:32Z</time>
      </trkpt>
      <trkpt lat="59.162954923847" lon="17.641541922987">
        <ele>23.8</ele>
        <time>2017-09-02T09:24:34Z</time>
      </trkpt>
      <trkpt lat="59.162907147017" lon="17.64156346447">
        <ele>24.2</ele>
        <time>2017-09-02T09:24:35Z</time>
      </trkpt>
      <trkpt lat="59.162859034911" lon="17.641582659021">
        <ele>24.6</ele>
        <time>2017-09-02T09:24:36Z</time>
      </trkpt>
      <trkpt lat="59.162756524274" lon="17.641610570748">
        <ele>25</ele>
        <time>2017-09-02T09:24:38Z</time>
      </trkpt>
      <trkpt lat="59.162702963933" lon="17.641626999272">
        <ele>25.4</ele>
        <time>2017-09-02T09:24:39Z</time>
      </trkpt>
      <trkpt lat="59.16264789485" lon="17.641645104176">
        <ele>25.8</ele>
        <time>2017-09-02T09:24:40Z</time>
      </trkpt>
      <trkpt lat="59.162537505227" lon="17.641680140518">
        <ele>26.6</ele>
        <time>2017-09-02T09:24:42Z</time>
      </trkpt>
      <trkpt lat="59.162427031785" lon="17.641711321186">
        <ele>27</ele>
        <time>2017-09-02T09:24:44Z</time>
      </trkpt>
      <trkpt lat="59.162310691013" lon="17.641740574017">
        <ele>27.4</ele>
        <time>2017-09-02T09:24:46Z</time>
      </trkpt>
      <trkpt lat="59.162186219798" lon="17.641766390269">
        <ele>27.6</ele>
        <time>2017-09-02T09:24:48Z</time>
      </trkpt>
      <trkpt lat="59.162055965072" lon="17.641790949236">
        <ele>27.6</ele>
        <time>2017-09-02T09:24:50Z</time>
      </trkpt>
      <trkpt lat="59.161916574075" lon="17.64181156871">
        <ele>27.6</ele>
        <time>2017-09-02T09:24:52Z</time>
      </trkpt>
      <trkpt lat="59.161764526409" lon="17.641834283659">
        <ele>27.6</ele>
        <time>2017-09-02T09:24:54Z</time>
      </trkpt>
      <trkpt lat="59.161604180662" lon="17.641858088255">
        <ele>27.6</ele>
        <time>2017-09-02T09:24:56Z</time>
      </trkpt>
      <trkpt lat="59.161441404164" lon="17.641884155964">
        <ele>27.6</ele>
        <time>2017-09-02T09:24:58Z</time>
      </trkpt>
      <trkpt lat="59.161272341241" lon="17.641907709103">
        <ele>27.4</ele>
        <time>2017-09-02T09:25:00Z</time>
      </trkpt>
      <trkpt lat="59.161094058228" lon="17.641935872287">
        <ele>27.4</ele>
        <time>2017-09-02T09:25:02Z</time>
      </trkpt>
      <trkpt lat="59.160905130202" lon="17.641967639688">
        <ele>26.8</ele>
        <time>2017-09-02T09:25:04Z</time>
      </trkpt>
      <trkpt lat="59.160707065905" lon="17.641995635234">
        <ele>26.6</ele>
        <time>2017-09-02T09:25:06Z</time>
      </trkpt>
      <trkpt lat="59.160508247237" lon="17.642027402635">
        <ele>26</ele>
        <time>2017-09-02T09:25:08Z</time>
      </trkpt>
      <trkpt lat="59.160407999713" lon="17.642047435376">
        <ele>25.2</ele>
        <time>2017-09-02T09:25:09Z</time>
      </trkpt>
      <trkpt lat="59.160306662542" lon="17.642065624099">
        <ele>24.8</ele>
        <time>2017-09-02T09:25:10Z</time>
      </trkpt>
      <trkpt lat="59.160100300164" lon="17.642100576622">
        <ele>24</ele>
        <time>2017-09-02T09:25:12Z</time>
      </trkpt>
      <trkpt lat="59.159890920302" lon="17.642141061199">
        <ele>22.8</ele>
        <time>2017-09-02T09:25:14Z</time>
      </trkpt>
      <trkpt lat="59.159681205164" lon="17.642178947387">
        <ele>21.8</ele>
        <time>2017-09-02T09:25:16Z</time>
      </trkpt>
      <trkpt lat="59.159576599052" lon="17.642199483042">
        <ele>21.2</ele>
        <time>2017-09-02T09:25:17Z</time>
      </trkpt>
      <trkpt lat="59.159471573845" lon="17.642218593774">
        <ele>21</ele>
        <time>2017-09-02T09:25:18Z</time>
      </trkpt>
      <trkpt lat="59.159261439612" lon="17.642250696451">
        <ele>20.4</ele>
        <time>2017-09-02T09:25:20Z</time>
      </trkpt>
      <trkpt lat="59.159158342242" lon="17.642263185482">
        <ele>20</ele>
        <time>2017-09-02T09:25:21Z</time>
      </trkpt>
      <trkpt lat="59.159055999243" lon="17.642276009789">
        <ele>19.6</ele>
        <time>2017-09-02T09:25:22Z</time>
      </trkpt>
      <trkpt lat="59.158857012937" lon="17.642305514077">
        <ele>19.4</ele>
        <time>2017-09-02T09:25:24Z</time>
      </trkpt>
      <trkpt lat="59.158666576169" lon="17.642340047505">
        <ele>18.8</ele>
        <time>2017-09-02T09:25:26Z</time>
      </trkpt>
      <trkpt lat="59.15849047245" lon="17.642374916209">
        <ele>18.4</ele>
        <time>2017-09-02T09:25:28Z</time>
      </trkpt>
      <trkpt lat="59.158322080079" lon="17.642418166813">
        <ele>18.2</ele>
        <time>2017-09-02T09:25:30Z</time>
      </trkpt>
      <trkpt lat="59.158240105097" lon="17.642431745491">
        <ele>18.2</ele>
        <time>2017-09-02T09:25:31Z</time>
      </trkpt>
      <trkpt lat="59.158160141771" lon="17.642421435754">
        <ele>18.2</ele>
        <time>2017-09-02T09:25:32Z</time>
      </trkpt>
      <trkpt lat="59.158004154612" lon="17.642337868211">
        <ele>18</ele>
        <time>2017-09-02T09:25:34Z</time>
      </trkpt>
      <trkpt lat="59.157836181336" lon="17.642380532082">
        <ele>17.8</ele>
        <time>2017-09-02T09:25:36Z</time>
      </trkpt>
      <trkpt lat="59.15775035068" lon="17.642443144875">
        <ele>17.8</ele>
        <time>2017-09-02T09:25:37Z</time>
      </trkpt>
      <trkpt lat="59.157662843644" lon="17.642504919478">
        <ele>17.8</ele>
        <time>2017-09-02T09:25:38Z</time>
      </trkpt>
      <trkpt lat="59.157483722441" lon="17.642601562785">
        <ele>17.8</ele>
        <time>2017-09-02T09:25:40Z</time>
      </trkpt>
      <trkpt lat="59.157299655917" lon="17.642672725116">
        <ele>17.6</ele>
        <time>2017-09-02T09:25:42Z</time>
      </trkpt>
      <trkpt lat="59.157120450895" lon="17.642739277402">
        <ele>17.6</ele>
        <time>2017-09-02T09:25:44Z</time>
      </trkpt>
      <trkpt lat="59.156947532298" lon="17.642812954303">
        <ele>17.6</ele>
        <time>2017-09-02T09:25:46Z</time>
      </trkpt>
      <trkpt lat="59.1567847558" lon="17.642902221538">
        <ele>17.6</ele>
        <time>2017-09-02T09:25:48Z</time>
      </trkpt>
      <trkpt lat="59.156633965419" lon="17.643008084935">
        <ele>17.6</ele>
        <time>2017-09-02T09:25:50Z</time>
      </trkpt>
      <trkpt lat="59.156491640757" lon="17.643133897254">
        <ele>17.6</ele>
        <time>2017-09-02T09:25:52Z</time>
      </trkpt>
      <trkpt lat="59.156358368547" lon="17.643284939092">
        <ele>17.8</ele>
        <time>2017-09-02T09:25:54Z</time>
      </trkpt>
      <trkpt lat="59.156233813513" lon="17.643463808838">
        <ele>18.2</ele>
        <time>2017-09-02T09:25:56Z</time>
      </trkpt>
      <trkpt lat="59.156123507709" lon="17.6436564249">
        <ele>18.4</ele>
        <time>2017-09-02T09:25:58Z</time>
      </trkpt>
      <trkpt lat="59.156071539929" lon="17.643757175338">
        <ele>18.8</ele>
        <time>2017-09-02T09:25:59Z</time>
      </trkpt>
      <trkpt lat="59.156023260185" lon="17.643861865269">
        <ele>18.8</ele>
        <time>2017-09-02T09:26:00Z</time>
      </trkpt>
      <trkpt lat="59.155936842796" lon="17.644090691139">
        <ele>19.4</ele>
        <time>2017-09-02T09:26:02Z</time>
      </trkpt>
      <trkpt lat="59.155857466203" lon="17.644318175905">
        <ele>20</ele>
        <time>2017-09-02T09:26:04Z</time>
      </trkpt>
      <trkpt lat="59.155775826497" lon="17.644540380074">
        <ele>20.6</ele>
        <time>2017-09-02T09:26:06Z</time>
      </trkpt>
      <trkpt lat="59.155686475443" lon="17.644763003338">
        <ele>21</ele>
        <time>2017-09-02T09:26:08Z</time>
      </trkpt>
      <trkpt lat="59.155630232894" lon="17.644999792013">
        <ele>21.4</ele>
        <time>2017-09-02T09:26:10Z</time>
      </trkpt>
      <trkpt lat="59.155569715576" lon="17.645260469103">
        <ele>22</ele>
        <time>2017-09-02T09:26:12Z</time>
      </trkpt>
      <trkpt lat="59.155541217116" lon="17.645391645838">
        <ele>22.2</ele>
        <time>2017-09-02T09:26:13Z</time>
      </trkpt>
      <trkpt lat="59.15551238338" lon="17.645511590827">
        <ele>22.6</ele>
        <time>2017-09-02T09:26:14Z</time>
      </trkpt>
      <trkpt lat="59.155451027872" lon="17.645744272371">
        <ele>23</ele>
        <time>2017-09-02T09:26:16Z</time>
      </trkpt>
      <trkpt lat="59.15537408203" lon="17.64596899111">
        <ele>23.4</ele>
        <time>2017-09-02T09:26:18Z</time>
      </trkpt>
      <trkpt lat="59.15528355751" lon="17.646178287153">
        <ele>23.6</ele>
        <time>2017-09-02T09:26:20Z</time>
      </trkpt>
      <trkpt lat="59.155183309986" lon="17.646361515487">
        <ele>24</ele>
        <time>2017-09-02T09:26:22Z</time>
      </trkpt>
      <trkpt lat="59.1550748482" lon="17.646531081324">
        <ele>24</ele>
        <time>2017-09-02T09:26:24Z</time>
      </trkpt>
      <trkpt lat="59.154962614559" lon="17.646715902219">
        <ele>24.6</ele>
        <time>2017-09-02T09:26:26Z</time>
      </trkpt>
      <trkpt lat="59.154844848864" lon="17.646885887151">
        <ele>25.4</ele>
        <time>2017-09-02T09:26:28Z</time>
      </trkpt>
      <trkpt lat="59.154725574427" lon="17.647065846544">
        <ele>25.6</ele>
        <time>2017-09-02T09:26:30Z</time>
      </trkpt>
      <trkpt lat="59.154607305818" lon="17.647250332163">
        <ele>25.8</ele>
        <time>2017-09-02T09:26:32Z</time>
      </trkpt>
      <trkpt lat="59.154486103544" lon="17.64742744171">
        <ele>25.8</ele>
        <time>2017-09-02T09:26:34Z</time>
      </trkpt>
      <trkpt lat="59.154360207406" lon="17.647611675872">
        <ele>25.8</ele>
        <time>2017-09-02T09:26:36Z</time>
      </trkpt>
      <trkpt lat="59.154233053983" lon="17.647804962486">
        <ele>26</ele>
        <time>2017-09-02T09:26:38Z</time>
      </trkpt>
      <trkpt lat="59.154102380162" lon="17.648005708991">
        <ele>26</ele>
        <time>2017-09-02T09:26:40Z</time>
      </trkpt>
      <trkpt lat="59.153968772676" lon="17.648214837396">
        <ele>26</ele>
        <time>2017-09-02T09:26:42Z</time>
      </trkpt>
      <trkpt lat="59.15383348881" lon="17.648424971629">
        <ele>26</ele>
        <time>2017-09-02T09:26:44Z</time>
      </trkpt>
      <trkpt lat="59.153699126953" lon="17.648642062839">
        <ele>26</ele>
        <time>2017-09-02T09:26:46Z</time>
      </trkpt>
      <trkpt lat="59.15356359163" lon="17.648854376366">
        <ele>25.6</ele>
        <time>2017-09-02T09:26:48Z</time>
      </trkpt>
      <trkpt lat="59.153425122642" lon="17.649055625785">
        <ele>25</ele>
        <time>2017-09-02T09:26:50Z</time>
      </trkpt>
      <trkpt lat="59.153284893455" lon="17.649256707566">
        <ele>24.8</ele>
        <time>2017-09-02T09:26:52Z</time>
      </trkpt>
      <trkpt lat="59.153143909897" lon="17.649454017492">
        <ele>24.4</ele>
        <time>2017-09-02T09:26:54Z</time>
      </trkpt>
      <trkpt lat="59.152999908855" lon="17.649639257482">
        <ele>24.2</ele>
        <time>2017-09-02T09:26:56Z</time>
      </trkpt>
      <trkpt lat="59.152846520085" lon="17.649798178306">
        <ele>24</ele>
        <time>2017-09-02T09:26:58Z</time>
      </trkpt>
      <trkpt lat="59.152684665596" lon="17.649937401665">
        <ele>23.6</ele>
        <time>2017-09-02T09:27:00Z</time>
      </trkpt>
      <trkpt lat="59.152527253514" lon="17.650063465441">
        <ele>23.4</ele>
        <time>2017-09-02T09:27:02Z</time>
      </trkpt>
      <trkpt lat="59.15236246536" lon="17.650177124005">
        <ele>23.4</ele>
        <time>2017-09-02T09:27:04Z</time>
      </trkpt>
      <trkpt lat="59.152192731885" lon="17.650277958262">
        <ele>23.4</ele>
        <time>2017-09-02T09:27:06Z</time>
      </trkpt>
      <trkpt lat="59.152013191587" lon="17.650364878565">
        <ele>23.2</ele>
        <time>2017-09-02T09:27:08Z</time>
      </trkpt>
      <trkpt lat="59.151802386802" lon="17.650479794414">
        <ele>23</ele>
        <time>2017-09-02T09:27:10Z</time>
      </trkpt>
      <trkpt lat="59.151594850958" lon="17.650625723293">
        <ele>23</ele>
        <time>2017-09-02T09:27:12Z</time>
      </trkpt>
      <trkpt lat="59.151393433901" lon="17.650772993276">
        <ele>22.4</ele>
        <time>2017-09-02T09:27:14Z</time>
      </trkpt>
      <trkpt lat="59.151287654323" lon="17.650854716801">
        <ele>22</ele>
        <time>2017-09-02T09:27:15Z</time>
      </trkpt>
      <trkpt lat="59.151193693224" lon="17.650927387874">
        <ele>21.4</ele>
        <time>2017-09-02T09:27:16Z</time>
      </trkpt>
      <trkpt lat="59.151103336342" lon="17.650989078658">
        <ele>21</ele>
        <time>2017-09-02T09:27:17Z</time>
      </trkpt>
      <trkpt lat="59.151010548709" lon="17.651051188537">
        <ele>20.4</ele>
        <time>2017-09-02T09:27:18Z</time>
      </trkpt>
      <trkpt lat="59.150834864085" lon="17.651156884296">
        <ele>19.8</ele>
        <time>2017-09-02T09:27:20Z</time>
      </trkpt>
      <trkpt lat="59.150752218551" lon="17.651199548167">
        <ele>19.8</ele>
        <time>2017-09-02T09:27:21Z</time>
      </trkpt>
      <trkpt lat="59.150673261053" lon="17.651240451839">
        <ele>19.6</ele>
        <time>2017-09-02T09:27:22Z</time>
      </trkpt>
      <trkpt lat="59.15053269659" lon="17.651305327745">
        <ele>19.6</ele>
        <time>2017-09-02T09:27:24Z</time>
      </trkpt>
      <trkpt lat="59.150396155439" lon="17.651342711019">
        <ele>19.6</ele>
        <time>2017-09-02T09:27:26Z</time>
      </trkpt>
      <trkpt lat="59.150329351696" lon="17.651353020756">
        <ele>19.6</ele>
        <time>2017-09-02T09:27:27Z</time>
      </trkpt>
      <trkpt lat="59.150261374487" lon="17.651357630801">
        <ele>19.6</ele>
        <time>2017-09-02T09:27:28Z</time>
      </trkpt>
      <trkpt lat="59.150119804196" lon="17.651372131488">
        <ele>20</ele>
        <time>2017-09-02T09:27:30Z</time>
      </trkpt>
      <trkpt lat="59.149995584438" lon="17.651393840609">
        <ele>20.8</ele>
        <time>2017-09-02T09:27:32Z</time>
      </trkpt>
      <trkpt lat="59.149864826798" lon="17.651393421514">
        <ele>22</ele>
        <time>2017-09-02T09:27:34Z</time>
      </trkpt>
      <trkpt lat="59.149757203202" lon="17.651373891687">
        <ele>22.8</ele>
        <time>2017-09-02T09:27:36Z</time>
      </trkpt>
      <trkpt lat="59.149693500762" lon="17.651370790384">
        <ele>23</ele>
        <time>2017-09-02T09:27:37Z</time>
      </trkpt>
      <trkpt lat="59.149627619028" lon="17.651374729877">
        <ele>23.4</ele>
        <time>2017-09-02T09:27:38Z</time>
      </trkpt>
      <trkpt lat="59.149531310997" lon="17.651390990763">
        <ele>24.6</ele>
        <time>2017-09-02T09:27:40Z</time>
      </trkpt>
      <trkpt lat="59.149404995764" lon="17.651376741533">
        <ele>25.4</ele>
        <time>2017-09-02T09:27:42Z</time>
      </trkpt>
      <trkpt lat="59.149345400455" lon="17.651367856719">
        <ele>25.8</ele>
        <time>2017-09-02T09:27:43Z</time>
      </trkpt>
      <trkpt lat="59.149285218413" lon="17.651356624973">
        <ele>26</ele>
        <time>2017-09-02T09:27:44Z</time>
      </trkpt>
      <trkpt lat="59.1491656087" lon="17.651332736558">
        <ele>27</ele>
        <time>2017-09-02T09:27:46Z</time>
      </trkpt>
      <trkpt lat="59.149041891856" lon="17.651304405736">
        <ele>27.8</ele>
        <time>2017-09-02T09:27:48Z</time>
      </trkpt>
      <trkpt lat="59.14897953052" lon="17.651287893393">
        <ele>28.2</ele>
        <time>2017-09-02T09:27:49Z</time>
      </trkpt>
      <trkpt lat="59.148915073709" lon="17.651277835113">
        <ele>28.4</ele>
        <time>2017-09-02T09:27:50Z</time>
      </trkpt>
      <trkpt lat="59.148775934169" lon="17.651262496236">
        <ele>29</ele>
        <time>2017-09-02T09:27:52Z</time>
      </trkpt>
      <trkpt lat="59.148703682191" lon="17.651255706897">
        <ele>29.4</ele>
        <time>2017-09-02T09:27:53Z</time>
      </trkpt>
      <trkpt lat="59.148630172928" lon="17.651246738264">
        <ele>29.4</ele>
        <time>2017-09-02T09:27:54Z</time>
      </trkpt>
      <trkpt lat="59.148474604864" lon="17.651226286428">
        <ele>29.6</ele>
        <time>2017-09-02T09:27:56Z</time>
      </trkpt>
      <trkpt lat="59.148310151986" lon="17.651209019714">
        <ele>29.6</ele>
        <time>2017-09-02T09:27:58Z</time>
      </trkpt>
      <trkpt lat="59.148130863145" lon="17.6512001349">
        <ele>29.6</ele>
        <time>2017-09-02T09:28:00Z</time>
      </trkpt>
      <trkpt lat="59.14793849854" lon="17.651176330304">
        <ele>29.6</ele>
        <time>2017-09-02T09:28:02Z</time>
      </trkpt>
      <trkpt lat="59.147734566913" lon="17.651137186831">
        <ele>28.8</ele>
        <time>2017-09-02T09:28:04Z</time>
      </trkpt>
      <trkpt lat="59.147521331377" lon="17.651087901259">
        <ele>28.2</ele>
        <time>2017-09-02T09:28:06Z</time>
      </trkpt>
      <trkpt lat="59.147410857935" lon="17.65105931898">
        <ele>27.8</ele>
        <time>2017-09-02T09:28:07Z</time>
      </trkpt>
      <trkpt lat="59.147298037561" lon="17.65103333509">
        <ele>27.4</ele>
        <time>2017-09-02T09:28:08Z</time>
      </trkpt>
      <trkpt lat="59.147184295178" lon="17.651015984557">
        <ele>26.2</ele>
        <time>2017-09-02T09:28:09Z</time>
      </trkpt>
      <trkpt lat="59.147076252487" lon="17.651001819146">
        <ele>25.4</ele>
        <time>2017-09-02T09:28:10Z</time>
      </trkpt>
      <trkpt lat="59.146961504276" lon="17.650985222984">
        <ele>24.8</ele>
        <time>2017-09-02T09:28:11Z</time>
      </trkpt>
      <trkpt lat="59.146845247323" lon="17.650967788632">
        <ele>24.2</ele>
        <time>2017-09-02T09:28:12Z</time>
      </trkpt>
      <trkpt lat="59.146722787764" lon="17.650959155275">
        <ele>23.6</ele>
        <time>2017-09-02T09:28:13Z</time>
      </trkpt>
      <trkpt lat="59.146602842775" lon="17.650949683728">
        <ele>23</ele>
        <time>2017-09-02T09:28:14Z</time>
      </trkpt>
      <trkpt lat="59.146484657985" lon="17.650940631276">
        <ele>22.2</ele>
        <time>2017-09-02T09:28:15Z</time>
      </trkpt>
      <trkpt lat="59.146364712996" lon="17.650932417014">
        <ele>21.6</ele>
        <time>2017-09-02T09:28:16Z</time>
      </trkpt>
      <trkpt lat="59.146243594541" lon="17.650918335422">
        <ele>20.8</ele>
        <time>2017-09-02T09:28:17Z</time>
      </trkpt>
      <trkpt lat="59.146121889353" lon="17.650901990717">
        <ele>20</ele>
        <time>2017-09-02T09:28:18Z</time>
      </trkpt>
      <trkpt lat="59.145999597432" lon="17.650881874157">
        <ele>19.2</ele>
        <time>2017-09-02T09:28:19Z</time>
      </trkpt>
      <trkpt lat="59.145878898072" lon="17.650858404837">
        <ele>18.8</ele>
        <time>2017-09-02T09:28:20Z</time>
      </trkpt>
      <trkpt lat="59.145641438845" lon="17.650809957455">
        <ele>17.8</ele>
        <time>2017-09-02T09:28:22Z</time>
      </trkpt>
      <trkpt lat="59.145418396486" lon="17.650773663828">
        <ele>16.6</ele>
        <time>2017-09-02T09:28:24Z</time>
      </trkpt>
      <trkpt lat="59.145222260026" lon="17.650734352717">
        <ele>15.8</ele>
        <time>2017-09-02T09:28:26Z</time>
      </trkpt>
      <trkpt lat="59.145127712194" lon="17.650718762383">
        <ele>15.6</ele>
        <time>2017-09-02T09:28:27Z</time>
      </trkpt>
      <trkpt lat="59.14503165562" lon="17.650708871741">
        <ele>15.4</ele>
        <time>2017-09-02T09:28:28Z</time>
      </trkpt>
      <trkpt lat="59.144840296843" lon="17.650689761009">
        <ele>15.4</ele>
        <time>2017-09-02T09:28:30Z</time>
      </trkpt>
      <trkpt lat="59.144649608618" lon="17.65066536968">
        <ele>15.4</ele>
        <time>2017-09-02T09:28:32Z</time>
      </trkpt>
      <trkpt lat="59.144463027524" lon="17.65064609131">
        <ele>15.4</ele>
        <time>2017-09-02T09:28:34Z</time>
      </trkpt>
      <trkpt lat="59.144278206629" lon="17.650627818768">
        <ele>16</ele>
        <time>2017-09-02T09:28:36Z</time>
      </trkpt>
      <trkpt lat="59.14409791196" lon="17.650609378588">
        <ele>17</ele>
        <time>2017-09-02T09:28:38Z</time>
      </trkpt>
      <trkpt lat="59.143927088838" lon="17.650587837105">
        <ele>17.2</ele>
        <time>2017-09-02T09:28:40Z</time>
      </trkpt>
      <trkpt lat="59.14376095958" lon="17.6505714924">
        <ele>17.8</ele>
        <time>2017-09-02T09:28:42Z</time>
      </trkpt>
      <trkpt lat="59.143678146408" lon="17.650560093016">
        <ele>18.4</ele>
        <time>2017-09-02T09:28:43Z</time>
      </trkpt>
      <trkpt lat="59.143594830322" lon="17.650545759967">
        <ele>18.8</ele>
        <time>2017-09-02T09:28:44Z</time>
      </trkpt>
      <trkpt lat="59.143425096847" lon="17.650522625923">
        <ele>19.6</ele>
        <time>2017-09-02T09:28:46Z</time>
      </trkpt>
      <trkpt lat="59.143247316748" lon="17.650503515191">
        <ele>20</ele>
        <time>2017-09-02T09:28:48Z</time>
      </trkpt>
      <trkpt lat="59.14315997735" lon="17.650487505762">
        <ele>20.2</ele>
        <time>2017-09-02T09:28:49Z</time>
      </trkpt>
      <trkpt lat="59.143073979056" lon="17.650476860749">
        <ele>20.2</ele>
        <time>2017-09-02T09:28:50Z</time>
      </trkpt>
      <trkpt lat="59.142909861454" lon="17.650453056153">
        <ele>20.2</ele>
        <time>2017-09-02T09:28:52Z</time>
      </trkpt>
      <trkpt lat="59.14274088235" lon="17.650426988444">
        <ele>20.2</ele>
        <time>2017-09-02T09:28:54Z</time>
      </trkpt>
      <trkpt lat="59.142560336224" lon="17.650407039522">
        <ele>20.2</ele>
        <time>2017-09-02T09:28:56Z</time>
      </trkpt>
      <trkpt lat="59.142381215021" lon="17.650362866909">
        <ele>19.8</ele>
        <time>2017-09-02T09:28:58Z</time>
      </trkpt>
      <trkpt lat="59.142205111302" lon="17.650309306568">
        <ele>19</ele>
        <time>2017-09-02T09:29:00Z</time>
      </trkpt>
      <trkpt lat="59.142118777732" lon="17.650277539167">
        <ele>18.2</ele>
        <time>2017-09-02T09:29:01Z</time>
      </trkpt>
      <trkpt lat="59.142033785266" lon="17.650243592472">
        <ele>17.6</ele>
        <time>2017-09-02T09:29:02Z</time>
      </trkpt>
      <trkpt lat="59.141949798628" lon="17.650206795931">
        <ele>17.2</ele>
        <time>2017-09-02T09:29:03Z</time>
      </trkpt>
      <trkpt lat="59.141866314904" lon="17.650166478992">
        <ele>16.8</ele>
        <time>2017-09-02T09:29:04Z</time>
      </trkpt>
      <trkpt lat="59.141703454587" lon="17.6500769603">
        <ele>15.8</ele>
        <time>2017-09-02T09:29:06Z</time>
      </trkpt>
      <trkpt lat="59.141547215971" lon="17.649977550966">
        <ele>15.2</ele>
        <time>2017-09-02T09:29:08Z</time>
      </trkpt>
      <trkpt lat="59.141396257952" lon="17.649871100836">
        <ele>14.8</ele>
        <time>2017-09-02T09:29:10Z</time>
      </trkpt>
      <trkpt lat="59.141254603842" lon="17.649760292118">
        <ele>14.8</ele>
        <time>2017-09-02T09:29:12Z</time>
      </trkpt>
      <trkpt lat="59.141120744899" lon="17.649642107328">
        <ele>14.6</ele>
        <time>2017-09-02T09:29:14Z</time>
      </trkpt>
      <trkpt lat="59.140981940635" lon="17.649518977217">
        <ele>14.6</ele>
        <time>2017-09-02T09:29:16Z</time>
      </trkpt>
      <trkpt lat="59.140845315665" lon="17.649394506002">
        <ele>14.6</ele>
        <time>2017-09-02T09:29:18Z</time>
      </trkpt>
      <trkpt lat="59.140709780342" lon="17.649280931257">
        <ele>14.6</ele>
        <time>2017-09-02T09:29:20Z</time>
      </trkpt>
      <trkpt lat="59.140579944711" lon="17.64917590605">
        <ele>14.6</ele>
        <time>2017-09-02T09:29:22Z</time>
      </trkpt>
      <trkpt lat="59.140439464067" lon="17.649076748173">
        <ele>14.8</ele>
        <time>2017-09-02T09:29:24Z</time>
      </trkpt>
      <trkpt lat="59.140284818012" lon="17.648981194513">
        <ele>14.8</ele>
        <time>2017-09-02T09:29:26Z</time>
      </trkpt>
      <trkpt lat="59.14012572955" lon="17.648889328889">
        <ele>15</ele>
        <time>2017-09-02T09:29:28Z</time>
      </trkpt>
      <trkpt lat="59.139964964708" lon="17.648810622848">
        <ele>15.2</ele>
        <time>2017-09-02T09:29:30Z</time>
      </trkpt>
      <trkpt lat="59.13980554097" lon="17.64873920906">
        <ele>15.4</ele>
        <time>2017-09-02T09:29:32Z</time>
      </trkpt>
      <trkpt lat="59.139642848291" lon="17.648665867435">
        <ele>15.6</ele>
        <time>2017-09-02T09:29:34Z</time>
      </trkpt>
      <trkpt lat="59.139479149784" lon="17.648581042607">
        <ele>15.6</ele>
        <time>2017-09-02T09:29:36Z</time>
      </trkpt>
      <trkpt lat="59.139397677716" lon="17.648536283261">
        <ele>15.8</ele>
        <time>2017-09-02T09:29:37Z</time>
      </trkpt>
      <trkpt lat="59.139315870372" lon="17.64849361939">
        <ele>16</ele>
        <time>2017-09-02T09:29:38Z</time>
      </trkpt>
      <trkpt lat="59.139152758598" lon="17.648411225313">
        <ele>16.2</ele>
        <time>2017-09-02T09:29:40Z</time>
      </trkpt>
      <trkpt lat="59.13899501124" lon="17.648332938367">
        <ele>16.4</ele>
        <time>2017-09-02T09:29:42Z</time>
      </trkpt>
      <trkpt lat="59.13884413704" lon="17.648261189303">
        <ele>16.6</ele>
        <time>2017-09-02T09:29:44Z</time>
      </trkpt>
      <trkpt lat="59.138707176794" lon="17.648196397216">
        <ele>16.6</ele>
        <time>2017-09-02T09:29:46Z</time>
      </trkpt>
      <trkpt lat="59.138582537941" lon="17.648133449147">
        <ele>16.6</ele>
        <time>2017-09-02T09:29:48Z</time>
      </trkpt>
      <trkpt lat="59.138464772246" lon="17.648077709512">
        <ele>17</ele>
        <time>2017-09-02T09:29:50Z</time>
      </trkpt>
      <trkpt lat="59.138350107854" lon="17.648024316809">
        <ele>17.8</ele>
        <time>2017-09-02T09:29:52Z</time>
      </trkpt>
      <trkpt lat="59.138294535857" lon="17.647995231616">
        <ele>18.2</ele>
        <time>2017-09-02T09:29:53Z</time>
      </trkpt>
      <trkpt lat="59.138240975516" lon="17.647966146423">
        <ele>18.4</ele>
        <time>2017-09-02T09:29:54Z</time>
      </trkpt>
      <trkpt lat="59.1381266464" lon="17.647913424272">
        <ele>19.6</ele>
        <time>2017-09-02T09:29:56Z</time>
      </trkpt>
      <trkpt lat="59.138013826026" lon="17.647849638013">
        <ele>20.6</ele>
        <time>2017-09-02T09:29:58Z</time>
      </trkpt>
      <trkpt lat="59.137906872982" lon="17.647786689944">
        <ele>21.6</ele>
        <time>2017-09-02T09:30:00Z</time>
      </trkpt>
      <trkpt lat="59.137802853603" lon="17.64773170468">
        <ele>22.6</ele>
        <time>2017-09-02T09:30:02Z</time>
      </trkpt>
      <trkpt lat="59.137698750405" lon="17.647681161823">
        <ele>23.2</ele>
        <time>2017-09-02T09:30:04Z</time>
      </trkpt>
      <trkpt lat="59.13764803991" lon="17.647651657535">
        <ele>23.6</ele>
        <time>2017-09-02T09:30:05Z</time>
      </trkpt>
      <trkpt lat="59.137595066302" lon="17.647622488523">
        <ele>24.6</ele>
        <time>2017-09-02T09:30:06Z</time>
      </trkpt>
      <trkpt lat="59.137542092694" lon="17.647591643131">
        <ele>24.8</ele>
        <time>2017-09-02T09:30:07Z</time>
      </trkpt>
      <trkpt lat="59.137490544009" lon="17.647559540454">
        <ele>25.2</ele>
        <time>2017-09-02T09:30:08Z</time>
      </trkpt>
      <trkpt lat="59.137382585137" lon="17.647505141923">
        <ele>26</ele>
        <time>2017-09-02T09:30:10Z</time>
      </trkpt>
      <trkpt lat="59.137271608781" lon="17.647452755048">
        <ele>27</ele>
        <time>2017-09-02T09:30:12Z</time>
      </trkpt>
      <trkpt lat="59.137216455879" lon="17.647429537185">
        <ele>27.4</ele>
        <time>2017-09-02T09:30:13Z</time>
      </trkpt>
      <trkpt lat="59.137162811719" lon="17.647410007358">
        <ele>27.8</ele>
        <time>2017-09-02T09:30:14Z</time>
      </trkpt>
      <trkpt lat="59.137049907526" lon="17.647353513352">
        <ele>28.4</ele>
        <time>2017-09-02T09:30:16Z</time>
      </trkpt>
      <trkpt lat="59.136937506247" lon="17.647292828396">
        <ele>29.2</ele>
        <time>2017-09-02T09:30:18Z</time>
      </trkpt>
      <trkpt lat="59.136881347517" lon="17.647263324108">
        <ele>29.6</ele>
        <time>2017-09-02T09:30:19Z</time>
      </trkpt>
      <trkpt lat="59.136825691701" lon="17.647234238915">
        <ele>30.2</ele>
        <time>2017-09-02T09:30:20Z</time>
      </trkpt>
      <trkpt lat="59.136711446404" lon="17.647175397977">
        <ele>31</ele>
        <time>2017-09-02T09:30:22Z</time>
      </trkpt>
      <trkpt lat="59.136597117288" lon="17.647117395229">
        <ele>31.6</ele>
        <time>2017-09-02T09:30:24Z</time>
      </trkpt>
      <trkpt lat="59.136539449816" lon="17.647090573149">
        <ele>32</ele>
        <time>2017-09-02T09:30:25Z</time>
      </trkpt>
      <trkpt lat="59.136478429584" lon="17.64706282906">
        <ele>32.4</ele>
        <time>2017-09-02T09:30:26Z</time>
      </trkpt>
      <trkpt lat="59.136360412432" lon="17.64701421404">
        <ele>32.8</ele>
        <time>2017-09-02T09:30:28Z</time>
      </trkpt>
      <trkpt lat="59.136304588978" lon="17.646987978693">
        <ele>33.2</ele>
        <time>2017-09-02T09:30:29Z</time>
      </trkpt>
      <trkpt lat="59.136248849343" lon="17.646961827165">
        <ele>33.4</ele>
        <time>2017-09-02T09:30:30Z</time>
      </trkpt>
      <trkpt lat="59.136132173295" lon="17.646908853557">
        <ele>33.8</ele>
        <time>2017-09-02T09:30:32Z</time>
      </trkpt>
      <trkpt lat="59.136010300469" lon="17.646857723967">
        <ele>34.4</ele>
        <time>2017-09-02T09:30:34Z</time>
      </trkpt>
      <trkpt lat="59.135880464838" lon="17.646813970449">
        <ele>35.2</ele>
        <time>2017-09-02T09:30:36Z</time>
      </trkpt>
      <trkpt lat="59.13574451042" lon="17.646778347374">
        <ele>35.6</ele>
        <time>2017-09-02T09:30:38Z</time>
      </trkpt>
      <trkpt lat="59.135608556002" lon="17.646751525294">
        <ele>35.8</ele>
        <time>2017-09-02T09:30:40Z</time>
      </trkpt>
      <trkpt lat="59.135475199973" lon="17.646743897765">
        <ele>36.2</ele>
        <time>2017-09-02T09:30:42Z</time>
      </trkpt>
      <trkpt lat="59.135341760125" lon="17.64674599324">
        <ele>36.4</ele>
        <time>2017-09-02T09:30:44Z</time>
      </trkpt>
      <trkpt lat="59.135200860386" lon="17.6467577279">
        <ele>36.6</ele>
        <time>2017-09-02T09:30:46Z</time>
      </trkpt>
      <trkpt lat="59.135055266783" lon="17.646784298523">
        <ele>36.8</ele>
        <time>2017-09-02T09:30:48Z</time>
      </trkpt>
      <trkpt lat="59.134905314592" lon="17.646821346521">
        <ele>37</ele>
        <time>2017-09-02T09:30:50Z</time>
      </trkpt>
      <trkpt lat="59.134759050437" lon="17.646867027876">
        <ele>37.2</ele>
        <time>2017-09-02T09:30:52Z</time>
      </trkpt>
      <trkpt lat="59.134616558137" lon="17.646927629013">
        <ele>37.4</ele>
        <time>2017-09-02T09:30:54Z</time>
      </trkpt>
      <trkpt lat="59.134472808552" lon="17.647002144104">
        <ele>37.6</ele>
        <time>2017-09-02T09:30:56Z</time>
      </trkpt>
      <trkpt lat="59.134332914641" lon="17.647084957276">
        <ele>37.8</ele>
        <time>2017-09-02T09:30:58Z</time>
      </trkpt>
      <trkpt lat="59.134194613291" lon="17.647176906719">
        <ele>37.8</ele>
        <time>2017-09-02T09:31:00Z</time>
      </trkpt>
      <trkpt lat="59.134057820683" lon="17.64727824389">
        <ele>38.2</ele>
        <time>2017-09-02T09:31:02Z</time>
      </trkpt>
      <trkpt lat="59.13392228536" lon="17.647375557749">
        <ele>38.4</ele>
        <time>2017-09-02T09:31:04Z</time>
      </trkpt>
      <trkpt lat="59.133785241295" lon="17.647479996223">
        <ele>38.4</ele>
        <time>2017-09-02T09:31:06Z</time>
      </trkpt>
      <trkpt lat="59.133642748995" lon="17.647584099421">
        <ele>38.6</ele>
        <time>2017-09-02T09:31:08Z</time>
      </trkpt>
      <trkpt lat="59.133497490668" lon="17.647680155995">
        <ele>38.6</ele>
        <time>2017-09-02T09:31:10Z</time>
      </trkpt>
      <trkpt lat="59.13334812521" lon="17.64777277599">
        <ele>38.6</ele>
        <time>2017-09-02T09:31:12Z</time>
      </trkpt>
      <trkpt lat="59.133199849399" lon="17.64785659499">
        <ele>38.4</ele>
        <time>2017-09-02T09:31:14Z</time>
      </trkpt>
      <trkpt lat="59.133056686547" lon="17.647924069285">
        <ele>38.4</ele>
        <time>2017-09-02T09:31:16Z</time>
      </trkpt>
      <trkpt lat="59.132910338573" lon="17.64797142702">
        <ele>38.4</ele>
        <time>2017-09-02T09:31:18Z</time>
      </trkpt>
      <trkpt lat="59.132838086595" lon="17.64799154358">
        <ele>38.6</ele>
        <time>2017-09-02T09:31:19Z</time>
      </trkpt>
      <trkpt lat="59.132765247884" lon="17.648006631">
        <ele>38.6</ele>
        <time>2017-09-02T09:31:20Z</time>
      </trkpt>
      <trkpt lat="59.132621246842" lon="17.648031944338">
        <ele>38.6</ele>
        <time>2017-09-02T09:31:22Z</time>
      </trkpt>
      <trkpt lat="59.132478000171" lon="17.648042840808">
        <ele>38.8</ele>
        <time>2017-09-02T09:31:24Z</time>
      </trkpt>
      <trkpt lat="59.132325198134" lon="17.648044517188">
        <ele>39.2</ele>
        <time>2017-09-02T09:31:26Z</time>
      </trkpt>
      <trkpt lat="59.132155883754" lon="17.648053653459">
        <ele>39.4</ele>
        <time>2017-09-02T09:31:28Z</time>
      </trkpt>
      <trkpt lat="59.131973242153" lon="17.648066226309">
        <ele>39.6</ele>
        <time>2017-09-02T09:31:30Z</time>
      </trkpt>
      <trkpt lat="59.131775429313" lon="17.648074021476">
        <ele>39.6</ele>
        <time>2017-09-02T09:31:32Z</time>
      </trkpt>
      <trkpt lat="59.131561858501" lon="17.648076871322">
        <ele>39.6</ele>
        <time>2017-09-02T09:31:34Z</time>
      </trkpt>
      <trkpt lat="59.131333367907" lon="17.648078631521">
        <ele>39.6</ele>
        <time>2017-09-02T09:31:36Z</time>
      </trkpt>
      <trkpt lat="59.131090125169" lon="17.648084079756">
        <ele>38.8</ele>
        <time>2017-09-02T09:31:38Z</time>
      </trkpt>
      <trkpt lat="59.130966240687" lon="17.648086510507">
        <ele>38.2</ele>
        <time>2017-09-02T09:31:39Z</time>
      </trkpt>
      <trkpt lat="59.13084361349" lon="17.64808625905">
        <ele>37.6</ele>
        <time>2017-09-02T09:31:40Z</time>
      </trkpt>
      <trkpt lat="59.130720231922" lon="17.64808793543">
        <ele>37</ele>
        <time>2017-09-02T09:31:41Z</time>
      </trkpt>
      <trkpt lat="59.130596431259" lon="17.64809212638">
        <ele>36.2</ele>
        <time>2017-09-02T09:31:42Z</time>
      </trkpt>
      <trkpt lat="59.130473384967" lon="17.648105956515">
        <ele>35.6</ele>
        <time>2017-09-02T09:31:43Z</time>
      </trkpt>
      <trkpt lat="59.130353356159" lon="17.648130264025">
        <ele>34.8</ele>
        <time>2017-09-02T09:31:44Z</time>
      </trkpt>
      <trkpt lat="59.130233075894" lon="17.648165468005">
        <ele>34</ele>
        <time>2017-09-02T09:31:45Z</time>
      </trkpt>
      <trkpt lat="59.130115896932" lon="17.648212239007">
        <ele>33.2</ele>
        <time>2017-09-02T09:31:46Z</time>
      </trkpt>
      <trkpt lat="59.130003160377" lon="17.648279378026">
        <ele>32.4</ele>
        <time>2017-09-02T09:31:47Z</time>
      </trkpt>
      <trkpt lat="59.129895033867" lon="17.648363113207">
        <ele>31.6</ele>
        <time>2017-09-02T09:31:48Z</time>
      </trkpt>
      <trkpt lat="59.129787829366" lon="17.648464450378">
        <ele>30.8</ele>
        <time>2017-09-02T09:31:49Z</time>
      </trkpt>
      <trkpt lat="59.129684145263" lon="17.648575929648">
        <ele>30.4</ele>
        <time>2017-09-02T09:31:50Z</time>
      </trkpt>
      <trkpt lat="59.129487841165" lon="17.648821184042">
        <ele>29.6</ele>
        <time>2017-09-02T09:31:52Z</time>
      </trkpt>
      <trkpt lat="59.129308803781" lon="17.649090662127">
        <ele>29</ele>
        <time>2017-09-02T09:31:54Z</time>
      </trkpt>
      <trkpt lat="59.129152816622" lon="17.649376401098">
        <ele>28.4</ele>
        <time>2017-09-02T09:31:56Z</time>
      </trkpt>
      <trkpt lat="59.129019963507" lon="17.649656691834">
        <ele>28</ele>
        <time>2017-09-02T09:31:58Z</time>
      </trkpt>
      <trkpt lat="59.1288897926" lon="17.64992943886">
        <ele>28</ele>
        <time>2017-09-02T09:32:00Z</time>
      </trkpt>
      <trkpt lat="59.128764399376" lon="17.650203694628">
        <ele>28</ele>
        <time>2017-09-02T09:32:02Z</time>
      </trkpt>
      <trkpt lat="59.128642023636" lon="17.65046755684">
        <ele>28</ele>
        <time>2017-09-02T09:32:04Z</time>
      </trkpt>
      <trkpt lat="59.128522162466" lon="17.650714571433">
        <ele>28.2</ele>
        <time>2017-09-02T09:32:06Z</time>
      </trkpt>
      <trkpt lat="59.128401714563" lon="17.650952617393">
        <ele>28.6</ele>
        <time>2017-09-02T09:32:08Z</time>
      </trkpt>
      <trkpt lat="59.128287553085" lon="17.651189406068">
        <ele>29.4</ele>
        <time>2017-09-02T09:32:10Z</time>
      </trkpt>
      <trkpt lat="59.12817565472" lon="17.651419992137">
        <ele>30.2</ele>
        <time>2017-09-02T09:32:12Z</time>
      </trkpt>
      <trkpt lat="59.128121507646" lon="17.651532644873">
        <ele>30.6</ele>
        <time>2017-09-02T09:32:13Z</time>
      </trkpt>
      <trkpt lat="59.128069288409" lon="17.651647476903">
        <ele>30.8</ele>
        <time>2017-09-02T09:32:14Z</time>
      </trkpt>
      <trkpt lat="59.127968789428" lon="17.651866076855">
        <ele>31.4</ele>
        <time>2017-09-02T09:32:16Z</time>
      </trkpt>
      <trkpt lat="59.127917156924" lon="17.651975963564">
        <ele>31.8</ele>
        <time>2017-09-02T09:32:17Z</time>
      </trkpt>
      <trkpt lat="59.127864183316" lon="17.652085850273">
        <ele>32.2</ele>
        <time>2017-09-02T09:32:18Z</time>
      </trkpt>
      <trkpt lat="59.127757565548" lon="17.652310066098">
        <ele>32.6</ele>
        <time>2017-09-02T09:32:20Z</time>
      </trkpt>
      <trkpt lat="59.127703418474" lon="17.652425317223">
        <ele>32.8</ele>
        <time>2017-09-02T09:32:21Z</time>
      </trkpt>
      <trkpt lat="59.12764843321" lon="17.652546770954">
        <ele>33.2</ele>
        <time>2017-09-02T09:32:22Z</time>
      </trkpt>
      <trkpt lat="59.127532427714" lon="17.652788840226">
        <ele>33.4</ele>
        <time>2017-09-02T09:32:24Z</time>
      </trkpt>
      <trkpt lat="59.127412734182" lon="17.653041303054">
        <ele>33.8</ele>
        <time>2017-09-02T09:32:26Z</time>
      </trkpt>
      <trkpt lat="59.127293459745" lon="17.653282534136">
        <ele>34</ele>
        <time>2017-09-02T09:32:28Z</time>
      </trkpt>
      <trkpt lat="59.127173682394" lon="17.653526866521">
        <ele>34</ele>
        <time>2017-09-02T09:32:30Z</time>
      </trkpt>
      <trkpt lat="59.127048708265" lon="17.653778155883">
        <ele>34</ele>
        <time>2017-09-02T09:32:32Z</time>
      </trkpt>
      <trkpt lat="59.126912167114" lon="17.653995750007">
        <ele>34</ele>
        <time>2017-09-02T09:32:34Z</time>
      </trkpt>
      <trkpt lat="59.126762131104" lon="17.654167830414">
        <ele>34</ele>
        <time>2017-09-02T09:32:36Z</time>
      </trkpt>
      <trkpt lat="59.12659818114" lon="17.654305964126">
        <ele>34</ele>
        <time>2017-09-02T09:32:38Z</time>
      </trkpt>
      <trkpt lat="59.126418305566" lon="17.654411911342">
        <ele>34</ele>
        <time>2017-09-02T09:32:40Z</time>
      </trkpt>
      <trkpt lat="59.126227198246" lon="17.654499586016">
        <ele>34</ele>
        <time>2017-09-02T09:32:42Z</time>
      </trkpt>
      <trkpt lat="59.126032067614" lon="17.654569742519">
        <ele>34</ele>
        <time>2017-09-02T09:32:44Z</time>
      </trkpt>
      <trkpt lat="59.125838278086" lon="17.654637216814">
        <ele>34</ele>
        <time>2017-09-02T09:32:46Z</time>
      </trkpt>
      <trkpt lat="59.125650774983" lon="17.654701422168">
        <ele>33.6</ele>
        <time>2017-09-02T09:32:48Z</time>
      </trkpt>
      <trkpt lat="59.12546913921" lon="17.654768058273">
        <ele>32.8</ele>
        <time>2017-09-02T09:32:50Z</time>
      </trkpt>
      <trkpt lat="59.125380877803" lon="17.654801250597">
        <ele>32.6</ele>
        <time>2017-09-02T09:32:51Z</time>
      </trkpt>
      <trkpt lat="59.125294125138" lon="17.654831760713">
        <ele>32.2</ele>
        <time>2017-09-02T09:32:52Z</time>
      </trkpt>
      <trkpt lat="59.125121625636" lon="17.654882890303">
        <ele>32.2</ele>
        <time>2017-09-02T09:32:54Z</time>
      </trkpt>
      <trkpt lat="59.12495113779" lon="17.654916753179">
        <ele>32.2</ele>
        <time>2017-09-02T09:32:56Z</time>
      </trkpt>
      <trkpt lat="59.124780063211" lon="17.654926308545">
        <ele>32.2</ele>
        <time>2017-09-02T09:32:58Z</time>
      </trkpt>
      <trkpt lat="59.124618124903" lon="17.65490325832">
        <ele>32.2</ele>
        <time>2017-09-02T09:33:00Z</time>
      </trkpt>
      <trkpt lat="59.124462305382" lon="17.654839807337">
        <ele>33.4</ele>
        <time>2017-09-02T09:33:02Z</time>
      </trkpt>
      <trkpt lat="59.124388209386" lon="17.654796053819">
        <ele>33.6</ele>
        <time>2017-09-02T09:33:03Z</time>
      </trkpt>
      <trkpt lat="59.124318220521" lon="17.654748863722">
        <ele>33.8</ele>
        <time>2017-09-02T09:33:04Z</time>
      </trkpt>
      <trkpt lat="59.124190564184" lon="17.654639060832">
        <ele>34.2</ele>
        <time>2017-09-02T09:33:06Z</time>
      </trkpt>
      <trkpt lat="59.124072798489" lon="17.654509057563">
        <ele>34.8</ele>
        <time>2017-09-02T09:33:08Z</time>
      </trkpt>
      <trkpt lat="59.123967186549" lon="17.654363212503">
        <ele>35.4</ele>
        <time>2017-09-02T09:33:10Z</time>
      </trkpt>
      <trkpt lat="59.12386735812" lon="17.654198005254">
        <ele>36.2</ele>
        <time>2017-09-02T09:33:12Z</time>
      </trkpt>
      <trkpt lat="59.123758225782" lon="17.654014357825">
        <ele>37.2</ele>
        <time>2017-09-02T09:33:14Z</time>
      </trkpt>
      <trkpt lat="59.123647081788" lon="17.653810174741">
        <ele>37.8</ele>
        <time>2017-09-02T09:33:16Z</time>
      </trkpt>
      <trkpt lat="59.123589498135" lon="17.653703389335">
        <ele>38.2</ele>
        <time>2017-09-02T09:33:17Z</time>
      </trkpt>
      <trkpt lat="59.123533423224" lon="17.653589730771">
        <ele>38.6</ele>
        <time>2017-09-02T09:33:18Z</time>
      </trkpt>
      <trkpt lat="59.123415741348" lon="17.653352858277">
        <ele>39.2</ele>
        <time>2017-09-02T09:33:20Z</time>
      </trkpt>
      <trkpt lat="59.12335522403" lon="17.653233500021">
        <ele>39.4</ele>
        <time>2017-09-02T09:33:21Z</time>
      </trkpt>
      <trkpt lat="59.123294622893" lon="17.653113135937">
        <ele>39.4</ele>
        <time>2017-09-02T09:33:22Z</time>
      </trkpt>
      <trkpt lat="59.123171744239" lon="17.652860840747">
        <ele>39.4</ele>
        <time>2017-09-02T09:33:24Z</time>
      </trkpt>
      <trkpt lat="59.123045345187" lon="17.652600918028">
        <ele>39.6</ele>
        <time>2017-09-02T09:33:26Z</time>
      </trkpt>
      <trkpt lat="59.122911486244" lon="17.65232498588">
        <ele>39.6</ele>
        <time>2017-09-02T09:33:28Z</time>
      </trkpt>
      <trkpt lat="59.122772011428" lon="17.652033463398">
        <ele>39.4</ele>
        <time>2017-09-02T09:33:30Z</time>
      </trkpt>
      <trkpt lat="59.122633039526" lon="17.65173154736">
        <ele>39</ele>
        <time>2017-09-02T09:33:32Z</time>
      </trkpt>
      <trkpt lat="59.122491636873" lon="17.651431642978">
        <ele>38.4</ele>
        <time>2017-09-02T09:33:34Z</time>
      </trkpt>
      <trkpt lat="59.122357861749" lon="17.651142970342">
        <ele>37.6</ele>
        <time>2017-09-02T09:33:36Z</time>
      </trkpt>
      <trkpt lat="59.122291728558" lon="17.651006429191">
        <ele>37.2</ele>
        <time>2017-09-02T09:33:37Z</time>
      </trkpt>
      <trkpt lat="59.122225176272" lon="17.650874581904">
        <ele>36.8</ele>
        <time>2017-09-02T09:33:38Z</time>
      </trkpt>
      <trkpt lat="59.122095759736" lon="17.650614491547">
        <ele>36</ele>
        <time>2017-09-02T09:33:40Z</time>
      </trkpt>
      <trkpt lat="59.121969444503" lon="17.650365213841">
        <ele>35.4</ele>
        <time>2017-09-02T09:33:42Z</time>
      </trkpt>
      <trkpt lat="59.121840027967" lon="17.650123563664">
        <ele>35.2</ele>
        <time>2017-09-02T09:33:44Z</time>
      </trkpt>
      <trkpt lat="59.121715975847" lon="17.649902700599">
        <ele>35.2</ele>
        <time>2017-09-02T09:33:46Z</time>
      </trkpt>
      <trkpt lat="59.121590750261" lon="17.649717041514">
        <ele>35</ele>
        <time>2017-09-02T09:33:48Z</time>
      </trkpt>
      <trkpt lat="59.121452784187" lon="17.649570274445">
        <ele>35</ele>
        <time>2017-09-02T09:33:50Z</time>
      </trkpt>
      <trkpt lat="59.121306771489" lon="17.649446054687">
        <ele>35</ele>
        <time>2017-09-02T09:33:52Z</time>
      </trkpt>
      <trkpt lat="59.121154640004" lon="17.64933264758">
        <ele>35.4</ele>
        <time>2017-09-02T09:33:54Z</time>
      </trkpt>
      <trkpt lat="59.120998317569" lon="17.649226784183">
        <ele>36</ele>
        <time>2017-09-02T09:33:56Z</time>
      </trkpt>
      <trkpt lat="59.120832691225" lon="17.649128045401">
        <ele>37</ele>
        <time>2017-09-02T09:33:58Z</time>
      </trkpt>
      <trkpt lat="59.12065457585" lon="17.649019918891">
        <ele>37.8</ele>
        <time>2017-09-02T09:34:00Z</time>
      </trkpt>
      <trkpt lat="59.120562961683" lon="17.648961497048">
        <ele>38</ele>
        <time>2017-09-02T09:34:01Z</time>
      </trkpt>
      <trkpt lat="59.120472437163" lon="17.648898381341">
        <ele>38</ele>
        <time>2017-09-02T09:34:02Z</time>
      </trkpt>
      <trkpt lat="59.120291974856" lon="17.648758152154">
        <ele>38.2</ele>
        <time>2017-09-02T09:34:04Z</time>
      </trkpt>
      <trkpt lat="59.120120732639" lon="17.648586239385">
        <ele>38.2</ele>
        <time>2017-09-02T09:34:06Z</time>
      </trkpt>
      <trkpt lat="59.119963655833" lon="17.648380044645">
        <ele>38.2</ele>
        <time>2017-09-02T09:34:08Z</time>
      </trkpt>
      <trkpt lat="59.11981806223" lon="17.648134957889">
        <ele>38.2</ele>
        <time>2017-09-02T09:34:10Z</time>
      </trkpt>
      <trkpt lat="59.119699625983" lon="17.647837484258">
        <ele>37.8</ele>
        <time>2017-09-02T09:34:12Z</time>
      </trkpt>
      <trkpt lat="59.119584961591" lon="17.647524168836">
        <ele>37.6</ele>
        <time>2017-09-02T09:34:14Z</time>
      </trkpt>
      <trkpt lat="59.119479768746" lon="17.647190150121">
        <ele>37.2</ele>
        <time>2017-09-02T09:34:16Z</time>
      </trkpt>
      <trkpt lat="59.119379018308" lon="17.646844229108">
        <ele>37</ele>
        <time>2017-09-02T09:34:18Z</time>
      </trkpt>
      <trkpt lat="59.119280698621" lon="17.646492105489">
        <ele>36.6</ele>
        <time>2017-09-02T09:34:20Z</time>
      </trkpt>
      <trkpt lat="59.119184642047" lon="17.646123050432">
        <ele>35.8</ele>
        <time>2017-09-02T09:34:22Z</time>
      </trkpt>
      <trkpt lat="59.119081963772" lon="17.645740919611">
        <ele>35.4</ele>
        <time>2017-09-02T09:34:24Z</time>
      </trkpt>
      <trkpt lat="59.118966209733" lon="17.645345713026">
        <ele>34.6</ele>
        <time>2017-09-02T09:34:26Z</time>
      </trkpt>
      <trkpt lat="59.118836374102" lon="17.644945225844">
        <ele>33</ele>
        <time>2017-09-02T09:34:28Z</time>
      </trkpt>
      <trkpt lat="59.118769318902" lon="17.644749843755">
        <ele>32</ele>
        <time>2017-09-02T09:34:29Z</time>
      </trkpt>
      <trkpt lat="59.118700587322" lon="17.644559071711">
        <ele>31.2</ele>
        <time>2017-09-02T09:34:30Z</time>
      </trkpt>
      <trkpt lat="59.118636884882" lon="17.644366623287">
        <ele>30.8</ele>
        <time>2017-09-02T09:34:31Z</time>
      </trkpt>
      <trkpt lat="59.118573433899" lon="17.644175348329">
        <ele>30</ele>
        <time>2017-09-02T09:34:32Z</time>
      </trkpt>
      <trkpt lat="59.11850713307" lon="17.643986252665">
        <ele>28.6</ele>
        <time>2017-09-02T09:34:33Z</time>
      </trkpt>
      <trkpt lat="59.118439994051" lon="17.643804700711">
        <ele>28</ele>
        <time>2017-09-02T09:34:34Z</time>
      </trkpt>
      <trkpt lat="59.118313008266" lon="17.643463473562">
        <ele>27.4</ele>
        <time>2017-09-02T09:34:36Z</time>
      </trkpt>
      <trkpt lat="59.118179568418" lon="17.6431367471">
        <ele>27.4</ele>
        <time>2017-09-02T09:34:38Z</time>
      </trkpt>
      <trkpt lat="59.118036573204" lon="17.642805410593">
        <ele>27.4</ele>
        <time>2017-09-02T09:34:40Z</time>
      </trkpt>
      <trkpt lat="59.117887962117" lon="17.642460663046">
        <ele>26.8</ele>
        <time>2017-09-02T09:34:42Z</time>
      </trkpt>
      <trkpt lat="59.117730382397" lon="17.642112395101">
        <ele>26.6</ele>
        <time>2017-09-02T09:34:44Z</time>
      </trkpt>
      <trkpt lat="59.117651089623" lon="17.641935956106">
        <ele>26.4</ele>
        <time>2017-09-02T09:34:45Z</time>
      </trkpt>
      <trkpt lat="59.117570958659" lon="17.641761361129">
        <ele>26.4</ele>
        <time>2017-09-02T09:34:46Z</time>
      </trkpt>
      <trkpt lat="59.117413546577" lon="17.641414434288">
        <ele>26.4</ele>
        <time>2017-09-02T09:34:48Z</time>
      </trkpt>
      <trkpt lat="59.117256888866" lon="17.641064406144">
        <ele>26.4</ele>
        <time>2017-09-02T09:34:50Z</time>
      </trkpt>
      <trkpt lat="59.117095453472" lon="17.640695267268">
        <ele>25.4</ele>
        <time>2017-09-02T09:34:52Z</time>
      </trkpt>
      <trkpt lat="59.116930413861" lon="17.640323613822">
        <ele>23.6</ele>
        <time>2017-09-02T09:34:54Z</time>
      </trkpt>
      <trkpt lat="59.116760512748" lon="17.639963611217">
        <ele>22.8</ele>
        <time>2017-09-02T09:34:56Z</time>
      </trkpt>
      <trkpt lat="59.116575691853" lon="17.639659515885">
        <ele>21.8</ele>
        <time>2017-09-02T09:34:58Z</time>
      </trkpt>
      <trkpt lat="59.116377795194" lon="17.63943613825">
        <ele>20.6</ele>
        <time>2017-09-02T09:35:00Z</time>
      </trkpt>
      <trkpt lat="59.116162883278" lon="17.639315522709">
        <ele>18.8</ele>
        <time>2017-09-02T09:35:02Z</time>
      </trkpt>
      <trkpt lat="59.115946043525" lon="17.639288113896">
        <ele>18</ele>
        <time>2017-09-02T09:35:04Z</time>
      </trkpt>
      <trkpt lat="59.115736496025" lon="17.639347625386">
        <ele>17.4</ele>
        <time>2017-09-02T09:35:06Z</time>
      </trkpt>
      <trkpt lat="59.115528876362" lon="17.639496152654">
        <ele>17.2</ele>
        <time>2017-09-02T09:35:08Z</time>
      </trkpt>
      <trkpt lat="59.115428209743" lon="17.639601177861">
        <ele>17.2</ele>
        <time>2017-09-02T09:35:09Z</time>
      </trkpt>
      <trkpt lat="59.115327207848" lon="17.639715674615">
        <ele>17.2</ele>
        <time>2017-09-02T09:35:10Z</time>
      </trkpt>
      <trkpt lat="59.115130484655" lon="17.639944249028">
        <ele>16.8</ele>
        <time>2017-09-02T09:35:12Z</time>
      </trkpt>
      <trkpt lat="59.11492303263" lon="17.640182462626">
        <ele>16.4</ele>
        <time>2017-09-02T09:35:14Z</time>
      </trkpt>
      <trkpt lat="59.114709629456" lon="17.640428219934">
        <ele>16</ele>
        <time>2017-09-02T09:35:16Z</time>
      </trkpt>
      <trkpt lat="59.114601922041" lon="17.640551433864">
        <ele>15.4</ele>
        <time>2017-09-02T09:35:17Z</time>
      </trkpt>
      <trkpt lat="59.114494801359" lon="17.640670624482">
        <ele>14.4</ele>
        <time>2017-09-02T09:35:18Z</time>
      </trkpt>
      <trkpt lat="59.114387848315" lon="17.640790485652">
        <ele>13.4</ele>
        <time>2017-09-02T09:35:19Z</time>
      </trkpt>
      <trkpt lat="59.114282739289" lon="17.640906658786">
        <ele>12.8</ele>
        <time>2017-09-02T09:35:20Z</time>
      </trkpt>
      <trkpt lat="59.114179641919" lon="17.641019143884">
        <ele>12.2</ele>
        <time>2017-09-02T09:35:21Z</time>
      </trkpt>
      <trkpt lat="59.11407729892" lon="17.641131293706">
        <ele>11.6</ele>
        <time>2017-09-02T09:35:22Z</time>
      </trkpt>
      <trkpt lat="59.113875546587" lon="17.641346457079">
        <ele>11</ele>
        <time>2017-09-02T09:35:24Z</time>
      </trkpt>
      <trkpt lat="59.113682259973" lon="17.641555417846">
        <ele>10.4</ele>
        <time>2017-09-02T09:35:26Z</time>
      </trkpt>
      <trkpt lat="59.113495175965" lon="17.64176882102">
        <ele>10.2</ele>
        <time>2017-09-02T09:35:28Z</time>
      </trkpt>
      <trkpt lat="59.113314629839" lon="17.641966298584">
        <ele>10</ele>
        <time>2017-09-02T09:35:30Z</time>
      </trkpt>
      <trkpt lat="59.113136765921" lon="17.642155980981">
        <ele>10</ele>
        <time>2017-09-02T09:35:32Z</time>
      </trkpt>
      <trkpt lat="59.112958482908" lon="17.642345831016">
        <ele>10</ele>
        <time>2017-09-02T09:35:34Z</time>
      </trkpt>
      <trkpt lat="59.112774164927" lon="17.642512379369">
        <ele>10.2</ele>
        <time>2017-09-02T09:35:36Z</time>
      </trkpt>
      <trkpt lat="59.112584314892" lon="17.642663756483">
        <ele>10.6</ele>
        <time>2017-09-02T09:35:38Z</time>
      </trkpt>
      <trkpt lat="59.112386334414" lon="17.642793675933">
        <ele>11</ele>
        <time>2017-09-02T09:35:40Z</time>
      </trkpt>
      <trkpt lat="59.112176870733" lon="17.642893923457">
        <ele>11</ele>
        <time>2017-09-02T09:35:42Z</time>
      </trkpt>
      <trkpt lat="59.111956175306" lon="17.64295653625">
        <ele>11</ele>
        <time>2017-09-02T09:35:44Z</time>
      </trkpt>
      <trkpt lat="59.111723409943" lon="17.642979083561">
        <ele>11</ele>
        <time>2017-09-02T09:35:46Z</time>
      </trkpt>
      <trkpt lat="59.111486537449" lon="17.642946813246">
        <ele>10.8</ele>
        <time>2017-09-02T09:35:48Z</time>
      </trkpt>
      <trkpt lat="59.111254191181" lon="17.642863832436">
        <ele>10</ele>
        <time>2017-09-02T09:35:50Z</time>
      </trkpt>
      <trkpt lat="59.111140951712" lon="17.642815552692">
        <ele>9.4</ele>
        <time>2017-09-02T09:35:51Z</time>
      </trkpt>
      <trkpt lat="59.111028047519" lon="17.642761657075">
        <ele>8.8</ele>
        <time>2017-09-02T09:35:52Z</time>
      </trkpt>
      <trkpt lat="59.110918496086" lon="17.642702899956">
        <ele>8</ele>
        <time>2017-09-02T09:35:53Z</time>
      </trkpt>
      <trkpt lat="59.110806513902" lon="17.642639281335">
        <ele>7.2</ele>
        <time>2017-09-02T09:35:54Z</time>
      </trkpt>
      <trkpt lat="59.110690592225" lon="17.642567196995">
        <ele>6.4</ele>
        <time>2017-09-02T09:35:55Z</time>
      </trkpt>
      <trkpt lat="59.110575760195" lon="17.642481450158">
        <ele>5.2</ele>
        <time>2017-09-02T09:35:56Z</time>
      </trkpt>
      <trkpt lat="59.110351292913" lon="17.642264526586">
        <ele>4.8</ele>
        <time>2017-09-02T09:35:58Z</time>
      </trkpt>
      <trkpt lat="59.110151552236" lon="17.64197585395">
        <ele>4.6</ele>
        <time>2017-09-02T09:36:00Z</time>
      </trkpt>
      <trkpt lat="59.109975867612" lon="17.641650971506">
        <ele>4.2</ele>
        <time>2017-09-02T09:36:02Z</time>
      </trkpt>
      <trkpt lat="59.109812336743" lon="17.641314102945">
        <ele>2.8</ele>
        <time>2017-09-02T09:36:04Z</time>
      </trkpt>
      <trkpt lat="59.109652326272" lon="17.640979413678">
        <ele>1.2</ele>
        <time>2017-09-02T09:36:06Z</time>
      </trkpt>
      <trkpt lat="59.109494159819" lon="17.640648831542">
        <ele>0.4</ele>
        <time>2017-09-02T09:36:08Z</time>
      </trkpt>
      <trkpt lat="59.109336831556" lon="17.640320093424">
        <ele>0.2</ele>
        <time>2017-09-02T09:36:10Z</time>
      </trkpt>
      <trkpt lat="59.109181850225" lon="17.639993702238">
        <ele>0</ele>
        <time>2017-09-02T09:36:12Z</time>
      </trkpt>
      <trkpt lat="59.109030221654" lon="17.639671250545">
        <ele>0</ele>
        <time>2017-09-02T09:36:14Z</time>
      </trkpt>
      <trkpt lat="59.108884544232" lon="17.639357599847">
        <ele>0</ele>
        <time>2017-09-02T09:36:16Z</time>
      </trkpt>
      <trkpt lat="59.108744063588" lon="17.63906230551">
        <ele>0</ele>
        <time>2017-09-02T09:36:18Z</time>
      </trkpt>
      <trkpt lat="59.108614898509" lon="17.638786960095">
        <ele>0</ele>
        <time>2017-09-02T09:36:20Z</time>
      </trkpt>
      <trkpt lat="59.108493360959" lon="17.638527037376">
        <ele>0</ele>
        <time>2017-09-02T09:36:22Z</time>
      </trkpt>
      <trkpt lat="59.10838012149" lon="17.638275580376">
        <ele>0</ele>
        <time>2017-09-02T09:36:24Z</time>
      </trkpt>
      <trkpt lat="59.108276269749" lon="17.63801456801">
        <ele>0.2</ele>
        <time>2017-09-02T09:36:26Z</time>
      </trkpt>
      <trkpt lat="59.108174513483" lon="17.637749616151">
        <ele>1.4</ele>
        <time>2017-09-02T09:36:28Z</time>
      </trkpt>
      <trkpt lat="59.108078959823" lon="17.637476366211">
        <ele>2.6</ele>
        <time>2017-09-02T09:36:30Z</time>
      </trkpt>
      <trkpt lat="59.107986758923" lon="17.637201356072">
        <ele>3.6</ele>
        <time>2017-09-02T09:36:32Z</time>
      </trkpt>
      <trkpt lat="59.107893719833" lon="17.636929447236">
        <ele>4</ele>
        <time>2017-09-02T09:36:34Z</time>
      </trkpt>
      <trkpt lat="59.107805206969" lon="17.636667345223">
        <ele>4.4</ele>
        <time>2017-09-02T09:36:36Z</time>
      </trkpt>
      <trkpt lat="59.107721639426" lon="17.636426281779">
        <ele>4.6</ele>
        <time>2017-09-02T09:36:38Z</time>
      </trkpt>
      <trkpt lat="59.107643939213" lon="17.63620826856">
        <ele>4.8</ele>
        <time>2017-09-02T09:36:40Z</time>
      </trkpt>
      <trkpt lat="59.107562299507" lon="17.6360121321">
        <ele>4.8</ele>
        <time>2017-09-02T09:36:42Z</time>
      </trkpt>
      <trkpt lat="59.107475546842" lon="17.635840889883">
        <ele>5.2</ele>
        <time>2017-09-02T09:36:44Z</time>
      </trkpt>
      <trkpt lat="59.107429194935" lon="17.635763608765">
        <ele>5.8</ele>
        <time>2017-09-02T09:36:45Z</time>
      </trkpt>
      <trkpt lat="59.107381501924" lon="17.635690853873">
        <ele>6.2</ele>
        <time>2017-09-02T09:36:46Z</time>
      </trkpt>
      <trkpt lat="59.1073315458" lon="17.635623714854">
        <ele>6.8</ele>
        <time>2017-09-02T09:36:47Z</time>
      </trkpt>
      <trkpt lat="59.10728041621" lon="17.635559425681">
        <ele>7.6</ele>
        <time>2017-09-02T09:36:48Z</time>
      </trkpt>
      <trkpt lat="59.107228532249" lon="17.63549832163">
        <ele>8.2</ele>
        <time>2017-09-02T09:36:49Z</time>
      </trkpt>
      <trkpt lat="59.107176732107" lon="17.635440318882">
        <ele>8.6</ele>
        <time>2017-09-02T09:36:50Z</time>
      </trkpt>
      <trkpt lat="59.107070449615" lon="17.63533571277">
        <ele>9.4</ele>
        <time>2017-09-02T09:36:52Z</time>
      </trkpt>
      <trkpt lat="59.106957210146" lon="17.635261616774">
        <ele>10.4</ele>
        <time>2017-09-02T09:36:54Z</time>
      </trkpt>
      <trkpt lat="59.106841456107" lon="17.6352074697">
        <ele>11</ele>
        <time>2017-09-02T09:36:56Z</time>
      </trkpt>
      <trkpt lat="59.106727294629" lon="17.635174947928">
        <ele>11.6</ele>
        <time>2017-09-02T09:36:58Z</time>
      </trkpt>
      <trkpt lat="59.106615312445" lon="17.635152903531">
        <ele>12.2</ele>
        <time>2017-09-02T09:37:00Z</time>
      </trkpt>
      <trkpt lat="59.106506012469" lon="17.635139911586">
        <ele>12.8</ele>
        <time>2017-09-02T09:37:02Z</time>
      </trkpt>
      <trkpt lat="59.106396544855" lon="17.635134044256">
        <ele>13.2</ele>
        <time>2017-09-02T09:37:04Z</time>
      </trkpt>
      <trkpt lat="59.106289424173" lon="17.635140163043">
        <ele>14</ele>
        <time>2017-09-02T09:37:06Z</time>
      </trkpt>
      <trkpt lat="59.106189176649" lon="17.635153238807">
        <ele>14.6</ele>
        <time>2017-09-02T09:37:08Z</time>
      </trkpt>
      <trkpt lat="59.106090773143" lon="17.635167990951">
        <ele>15</ele>
        <time>2017-09-02T09:37:10Z</time>
      </trkpt>
      <trkpt lat="59.10599127999" lon="17.635182910733">
        <ele>15.6</ele>
        <time>2017-09-02T09:37:12Z</time>
      </trkpt>
      <trkpt lat="59.105894133769" lon="17.635200093628">
        <ele>16.2</ele>
        <time>2017-09-02T09:37:14Z</time>
      </trkpt>
      <trkpt lat="59.105797406643" lon="17.63521920436">
        <ele>17</ele>
        <time>2017-09-02T09:37:16Z</time>
      </trkpt>
      <trkpt lat="59.105748372528" lon="17.635228592088">
        <ele>17.2</ele>
        <time>2017-09-02T09:37:17Z</time>
      </trkpt>
      <trkpt lat="59.105697829671" lon="17.635242589861">
        <ele>17.6</ele>
        <time>2017-09-02T09:37:18Z</time>
      </trkpt>
      <trkpt lat="59.105601773097" lon="17.635259269842">
        <ele>18.4</ele>
        <time>2017-09-02T09:37:20Z</time>
      </trkpt>
      <trkpt lat="59.105505045971" lon="17.635266478276">
        <ele>19</ele>
        <time>2017-09-02T09:37:22Z</time>
      </trkpt>
      <trkpt lat="59.105454586933" lon="17.635264634258">
        <ele>19.6</ele>
        <time>2017-09-02T09:37:23Z</time>
      </trkpt>
      <trkpt lat="59.1054037088" lon="17.635257258186">
        <ele>19.8</ele>
        <time>2017-09-02T09:37:24Z</time>
      </trkpt>
      <trkpt lat="59.105353501219" lon="17.635245607345">
        <ele>20.2</ele>
        <time>2017-09-02T09:37:25Z</time>
      </trkpt>
      <trkpt lat="59.105303880371" lon="17.635224652595">
        <ele>20.4</ele>
        <time>2017-09-02T09:37:26Z</time>
      </trkpt>
      <trkpt lat="59.10525451098" lon="17.635202356741">
        <ele>20.6</ele>
        <time>2017-09-02T09:37:27Z</time>
      </trkpt>
      <trkpt lat="59.105206398874" lon="17.635169248236">
        <ele>21</ele>
        <time>2017-09-02T09:37:28Z</time>
      </trkpt>
      <trkpt lat="59.105105564617" lon="17.63507922663">
        <ele>21.4</ele>
        <time>2017-09-02T09:37:30Z</time>
      </trkpt>
      <trkpt lat="59.104992492786" lon="17.634967328265">
        <ele>21.8</ele>
        <time>2017-09-02T09:37:32Z</time>
      </trkpt>
      <trkpt lat="59.104870955236" lon="17.634845203982">
        <ele>22.2</ele>
        <time>2017-09-02T09:37:34Z</time>
      </trkpt>
      <trkpt lat="59.104728211479" lon="17.634730288133">
        <ele>22.2</ele>
        <time>2017-09-02T09:37:36Z</time>
      </trkpt>
      <trkpt lat="59.104589239577" lon="17.634604391995">
        <ele>22.2</ele>
        <time>2017-09-02T09:37:38Z</time>
      </trkpt>
      <trkpt lat="59.104446412001" lon="17.634470784509">
        <ele>22.2</ele>
        <time>2017-09-02T09:37:40Z</time>
      </trkpt>
      <trkpt lat="59.104298639104" lon="17.634322843974">
        <ele>22.2</ele>
        <time>2017-09-02T09:37:42Z</time>
      </trkpt>
      <trkpt lat="59.104141897574" lon="17.634164426064">
        <ele>21.8</ele>
        <time>2017-09-02T09:37:44Z</time>
      </trkpt>
      <trkpt lat="59.103975768316" lon="17.633997626254">
        <ele>21.4</ele>
        <time>2017-09-02T09:37:46Z</time>
      </trkpt>
      <trkpt lat="59.103799832235" lon="17.633816493395">
        <ele>21</ele>
        <time>2017-09-02T09:37:48Z</time>
      </trkpt>
      <trkpt lat="59.103706709326" lon="17.633723538124">
        <ele>20.6</ele>
        <time>2017-09-02T09:37:49Z</time>
      </trkpt>
      <trkpt lat="59.103612999684" lon="17.63362999612">
        <ele>20.2</ele>
        <time>2017-09-02T09:37:50Z</time>
      </trkpt>
      <trkpt lat="59.103419461613" lon="17.633434614031">
        <ele>18.6</ele>
        <time>2017-09-02T09:37:52Z</time>
      </trkpt>
      <trkpt lat="59.103221564954" lon="17.63322431216">
        <ele>17.4</ele>
        <time>2017-09-02T09:37:54Z</time>
      </trkpt>
      <trkpt lat="59.103025009399" lon="17.632973609531">
        <ele>16</ele>
        <time>2017-09-02T09:37:56Z</time>
      </trkpt>
      <trkpt lat="59.102931970309" lon="17.632826339548">
        <ele>15.4</ele>
        <time>2017-09-02T09:37:57Z</time>
      </trkpt>
      <trkpt lat="59.102846055834" lon="17.632662054308">
        <ele>14.8</ele>
        <time>2017-09-02T09:37:58Z</time>
      </trkpt>
      <trkpt lat="59.10270054605" lon="17.632287551016">
        <ele>13</ele>
        <time>2017-09-02T09:38:00Z</time>
      </trkpt>
      <trkpt lat="59.102636592153" lon="17.632087223606">
        <ele>12</ele>
        <time>2017-09-02T09:38:01Z</time>
      </trkpt>
      <trkpt lat="59.102574566093" lon="17.631882705246">
        <ele>11</ele>
        <time>2017-09-02T09:38:02Z</time>
      </trkpt>
      <trkpt lat="59.102512456214" lon="17.631679863266">
        <ele>10.2</ele>
        <time>2017-09-02T09:38:03Z</time>
      </trkpt>
      <trkpt lat="59.102452693267" lon="17.63147668601">
        <ele>9.6</ele>
        <time>2017-09-02T09:38:04Z</time>
      </trkpt>
      <trkpt lat="59.10239544489" lon="17.631277532066">
        <ele>8.8</ele>
        <time>2017-09-02T09:38:05Z</time>
      </trkpt>
      <trkpt lat="59.102339034703" lon="17.631076534104">
        <ele>8.2</ele>
        <time>2017-09-02T09:38:06Z</time>
      </trkpt>
      <trkpt lat="59.102283211249" lon="17.63087654197">
        <ele>7.6</ele>
        <time>2017-09-02T09:38:07Z</time>
      </trkpt>
      <trkpt lat="59.102228812718" lon="17.630678477673">
        <ele>7</ele>
        <time>2017-09-02T09:38:08Z</time>
      </trkpt>
      <trkpt lat="59.102172234893" lon="17.630481335385">
        <ele>6.4</ele>
        <time>2017-09-02T09:38:09Z</time>
      </trkpt>
      <trkpt lat="59.102116076163" lon="17.630286204753">
        <ele>5.8</ele>
        <time>2017-09-02T09:38:10Z</time>
      </trkpt>
      <trkpt lat="59.10206100708" lon="17.630089397741">
        <ele>5.2</ele>
        <time>2017-09-02T09:38:11Z</time>
      </trkpt>
      <trkpt lat="59.102006189454" lon="17.629891920177">
        <ele>4.8</ele>
        <time>2017-09-02T09:38:12Z</time>
      </trkpt>
      <trkpt lat="59.101895967469" lon="17.629498222334">
        <ele>4.4</ele>
        <time>2017-09-02T09:38:14Z</time>
      </trkpt>
      <trkpt lat="59.101786499855" lon="17.629107793432">
        <ele>4.2</ele>
        <time>2017-09-02T09:38:16Z</time>
      </trkpt>
      <trkpt lat="59.101681809924" lon="17.628724656783">
        <ele>4</ele>
        <time>2017-09-02T09:38:18Z</time>
      </trkpt>
      <trkpt lat="59.101580137477" lon="17.628354847355">
        <ele>3.6</ele>
        <time>2017-09-02T09:38:20Z</time>
      </trkpt>
      <trkpt lat="59.101477291564" lon="17.628007249962">
        <ele>3.4</ele>
        <time>2017-09-02T09:38:22Z</time>
      </trkpt>
      <trkpt lat="59.101376792583" lon="17.627680607319">
        <ele>3.4</ele>
        <time>2017-09-02T09:38:24Z</time>
      </trkpt>
      <trkpt lat="59.101276042145" lon="17.627378607462">
        <ele>3.4</ele>
        <time>2017-09-02T09:38:26Z</time>
      </trkpt>
      <trkpt lat="59.101175543164" lon="17.627113236508">
        <ele>3.4</ele>
        <time>2017-09-02T09:38:28Z</time>
      </trkpt>
      <trkpt lat="59.101077307296" lon="17.626883991543">
        <ele>3.8</ele>
        <time>2017-09-02T09:38:30Z</time>
      </trkpt>
      <trkpt lat="59.100976137763" lon="17.626686178703">
        <ele>4.8</ele>
        <time>2017-09-02T09:38:32Z</time>
      </trkpt>
      <trkpt lat="59.100925846363" lon="17.626593139613">
        <ele>5.2</ele>
        <time>2017-09-02T09:38:33Z</time>
      </trkpt>
      <trkpt lat="59.100875303506" lon="17.626506135491">
        <ele>5.8</ele>
        <time>2017-09-02T09:38:34Z</time>
      </trkpt>
      <trkpt lat="59.100824928287" lon="17.626422148853">
        <ele>6.4</ele>
        <time>2017-09-02T09:38:35Z</time>
      </trkpt>
      <trkpt lat="59.100774217792" lon="17.626342353165">
        <ele>7.2</ele>
        <time>2017-09-02T09:38:36Z</time>
      </trkpt>
      <trkpt lat="59.100723339659" lon="17.62626649697">
        <ele>7.8</ele>
        <time>2017-09-02T09:38:37Z</time>
      </trkpt>
      <trkpt lat="59.100672796802" lon="17.626193155345">
        <ele>8.6</ele>
        <time>2017-09-02T09:38:38Z</time>
      </trkpt>
      <trkpt lat="59.10062183485" lon="17.626123669394">
        <ele>9.2</ele>
        <time>2017-09-02T09:38:39Z</time>
      </trkpt>
      <trkpt lat="59.100570621441" lon="17.626056781832">
        <ele>9.8</ele>
        <time>2017-09-02T09:38:40Z</time>
      </trkpt>
      <trkpt lat="59.100519156575" lon="17.625992325021">
        <ele>10.4</ele>
        <time>2017-09-02T09:38:41Z</time>
      </trkpt>
      <trkpt lat="59.100467943166" lon="17.62593038278">
        <ele>10.8</ele>
        <time>2017-09-02T09:38:42Z</time>
      </trkpt>
      <trkpt lat="59.100366103081" lon="17.625810689248">
        <ele>11.8</ele>
        <time>2017-09-02T09:38:44Z</time>
      </trkpt>
      <trkpt lat="59.100265352643" lon="17.625691163354">
        <ele>12.8</ele>
        <time>2017-09-02T09:38:46Z</time>
      </trkpt>
      <trkpt lat="59.100214223053" lon="17.625632490054">
        <ele>13.2</ele>
        <time>2017-09-02T09:38:47Z</time>
      </trkpt>
      <trkpt lat="59.10016334492" lon="17.625574487306">
        <ele>13.6</ele>
        <time>2017-09-02T09:38:48Z</time>
      </trkpt>
      <trkpt lat="59.100112885882" lon="17.625515227273">
        <ele>14.2</ele>
        <time>2017-09-02T09:38:49Z</time>
      </trkpt>
      <trkpt lat="59.100063013577" lon="17.625454626136">
        <ele>14.6</ele>
        <time>2017-09-02T09:38:50Z</time>
      </trkpt>
      <trkpt lat="59.09996050294" lon="17.625334345871">
        <ele>15.2</ele>
        <time>2017-09-02T09:38:52Z</time>
      </trkpt>
      <trkpt lat="59.099857573208" lon="17.625214484701">
        <ele>15.8</ele>
        <time>2017-09-02T09:38:54Z</time>
      </trkpt>
      <trkpt lat="59.099748943784" lon="17.625098479205">
        <ele>16.4</ele>
        <time>2017-09-02T09:38:56Z</time>
      </trkpt>
      <trkpt lat="59.099642409835" lon="17.62498406627">
        <ele>16.8</ele>
        <time>2017-09-02T09:38:58Z</time>
      </trkpt>
      <trkpt lat="59.09953721699" lon="17.624865127109">
        <ele>17.4</ele>
        <time>2017-09-02T09:39:00Z</time>
      </trkpt>
      <trkpt lat="59.09948441102" lon="17.624804777429">
        <ele>17.4</ele>
        <time>2017-09-02T09:39:01Z</time>
      </trkpt>
      <trkpt lat="59.099431521231" lon="17.624747445233">
        <ele>17.6</ele>
        <time>2017-09-02T09:39:02Z</time>
      </trkpt>
      <trkpt lat="59.099324232911" lon="17.624633367574">
        <ele>17.8</ele>
        <time>2017-09-02T09:39:04Z</time>
      </trkpt>
      <trkpt lat="59.099218956247" lon="17.624511746205">
        <ele>18.2</ele>
        <time>2017-09-02T09:39:06Z</time>
      </trkpt>
      <trkpt lat="59.099111332651" lon="17.624396159804">
        <ele>18.4</ele>
        <time>2017-09-02T09:39:08Z</time>
      </trkpt>
      <trkpt lat="59.099057269396" lon="17.624339162884">
        <ele>18.6</ele>
        <time>2017-09-02T09:39:09Z</time>
      </trkpt>
      <trkpt lat="59.099003373779" lon="17.624281830688">
        <ele>18.8</ele>
        <time>2017-09-02T09:39:10Z</time>
      </trkpt>
      <trkpt lat="59.098899438219" lon="17.624164148812">
        <ele>19</ele>
        <time>2017-09-02T09:39:12Z</time>
      </trkpt>
      <trkpt lat="59.098793910098" lon="17.624044371461">
        <ele>19.4</ele>
        <time>2017-09-02T09:39:14Z</time>
      </trkpt>
      <trkpt lat="59.098740349757" lon="17.623986452532">
        <ele>19.4</ele>
        <time>2017-09-02T09:39:15Z</time>
      </trkpt>
      <trkpt lat="59.098686621778" lon="17.623929036517">
        <ele>19.8</ele>
        <time>2017-09-02T09:39:16Z</time>
      </trkpt>
      <trkpt lat="59.098577992354" lon="17.623811773736">
        <ele>20</ele>
        <time>2017-09-02T09:39:18Z</time>
      </trkpt>
      <trkpt lat="59.098469782025" lon="17.62368906272">
        <ele>20.8</ele>
        <time>2017-09-02T09:39:20Z</time>
      </trkpt>
      <trkpt lat="59.09835956004" lon="17.623564340048">
        <ele>21.4</ele>
        <time>2017-09-02T09:39:22Z</time>
      </trkpt>
      <trkpt lat="59.098303485129" lon="17.623501894893">
        <ele>21.6</ele>
        <time>2017-09-02T09:39:23Z</time>
      </trkpt>
      <trkpt lat="59.09824724258" lon="17.623438527729">
        <ele>21.8</ele>
        <time>2017-09-02T09:39:24Z</time>
      </trkpt>
      <trkpt lat="59.098130315075" lon="17.623313721238">
        <ele>22</ele>
        <time>2017-09-02T09:39:26Z</time>
      </trkpt>
      <trkpt lat="59.09801171119" lon="17.623183885607">
        <ele>22.2</ele>
        <time>2017-09-02T09:39:28Z</time>
      </trkpt>
      <trkpt lat="59.097890089821" lon="17.623049356112">
        <ele>22.4</ele>
        <time>2017-09-02T09:39:30Z</time>
      </trkpt>
      <trkpt lat="59.097765870063" lon="17.622910551848">
        <ele>22.6</ele>
        <time>2017-09-02T09:39:32Z</time>
      </trkpt>
      <trkpt lat="59.097639135735" lon="17.622765209702">
        <ele>22.8</ele>
        <time>2017-09-02T09:39:34Z</time>
      </trkpt>
      <trkpt lat="59.097505109154" lon="17.622614586959">
        <ele>22.6</ele>
        <time>2017-09-02T09:39:36Z</time>
      </trkpt>
      <trkpt lat="59.097368065089" lon="17.622457677791">
        <ele>22.6</ele>
        <time>2017-09-02T09:39:38Z</time>
      </trkpt>
      <trkpt lat="59.097227668264" lon="17.622296158578">
        <ele>22.6</ele>
        <time>2017-09-02T09:39:40Z</time>
      </trkpt>
      <trkpt lat="59.09707712934" lon="17.622133717356">
        <ele>22.8</ele>
        <time>2017-09-02T09:39:42Z</time>
      </trkpt>
      <trkpt lat="59.096924159665" lon="17.621959122379">
        <ele>22.4</ele>
        <time>2017-09-02T09:39:44Z</time>
      </trkpt>
      <trkpt lat="59.096766244669" lon="17.621788550714">
        <ele>22.2</ele>
        <time>2017-09-02T09:39:46Z</time>
      </trkpt>
      <trkpt lat="59.096605312189" lon="17.621611022072">
        <ele>21.6</ele>
        <time>2017-09-02T09:39:48Z</time>
      </trkpt>
      <trkpt lat="59.09652392394" lon="17.621519491724">
        <ele>21.4</ele>
        <time>2017-09-02T09:39:49Z</time>
      </trkpt>
      <trkpt lat="59.096441529863" lon="17.621426201177">
        <ele>20.8</ele>
        <time>2017-09-02T09:39:50Z</time>
      </trkpt>
      <trkpt lat="59.096358884329" lon="17.621333329725">
        <ele>20.2</ele>
        <time>2017-09-02T09:39:51Z</time>
      </trkpt>
      <trkpt lat="59.096276406433" lon="17.621240039178">
        <ele>19.6</ele>
        <time>2017-09-02T09:39:52Z</time>
      </trkpt>
      <trkpt lat="59.096193760899" lon="17.621146078079">
        <ele>19.2</ele>
        <time>2017-09-02T09:39:53Z</time>
      </trkpt>
      <trkpt lat="59.096111450641" lon="17.621053038989">
        <ele>18.8</ele>
        <time>2017-09-02T09:39:54Z</time>
      </trkpt>
      <trkpt lat="59.095945405202" lon="17.620870313569">
        <ele>18.2</ele>
        <time>2017-09-02T09:39:56Z</time>
      </trkpt>
      <trkpt lat="59.095863681677" lon="17.62077719066">
        <ele>17.8</ele>
        <time>2017-09-02T09:39:57Z</time>
      </trkpt>
      <trkpt lat="59.095781706695" lon="17.620685744131">
        <ele>17.6</ele>
        <time>2017-09-02T09:39:58Z</time>
      </trkpt>
      <trkpt lat="59.095618930197" lon="17.620505784738">
        <ele>17.4</ele>
        <time>2017-09-02T09:40:00Z</time>
      </trkpt>
      <trkpt lat="59.095456321337" lon="17.620326160621">
        <ele>17.2</ele>
        <time>2017-09-02T09:40:02Z</time>
      </trkpt>
      <trkpt lat="59.095290694993" lon="17.62014687178">
        <ele>17.2</ele>
        <time>2017-09-02T09:40:04Z</time>
      </trkpt>
      <trkpt lat="59.095123979002" lon="17.619963643446">
        <ele>17</ele>
        <time>2017-09-02T09:40:06Z</time>
      </trkpt>
      <trkpt lat="59.094954999898" lon="17.619778654913">
        <ele>17</ele>
        <time>2017-09-02T09:40:08Z</time>
      </trkpt>
      <trkpt lat="59.094786607527" lon="17.619594001656">
        <ele>17</ele>
        <time>2017-09-02T09:40:10Z</time>
      </trkpt>
      <trkpt lat="59.09461787988" lon="17.619409935132">
        <ele>17</ele>
        <time>2017-09-02T09:40:12Z</time>
      </trkpt>
      <trkpt lat="59.0944485655" lon="17.619224359866">
        <ele>17</ele>
        <time>2017-09-02T09:40:14Z</time>
      </trkpt>
      <trkpt lat="59.094278748206" lon="17.619033839279">
        <ele>17</ele>
        <time>2017-09-02T09:40:16Z</time>
      </trkpt>
      <trkpt lat="59.094105913428" lon="17.618843402511">
        <ele>16.4</ele>
        <time>2017-09-02T09:40:18Z</time>
      </trkpt>
      <trkpt lat="59.093931737546" lon="17.618646846956">
        <ele>16</ele>
        <time>2017-09-02T09:40:20Z</time>
      </trkpt>
      <trkpt lat="59.093751861972" lon="17.618449620849">
        <ele>15.8</ele>
        <time>2017-09-02T09:40:22Z</time>
      </trkpt>
      <trkpt lat="59.093568885095" lon="17.618246611231">
        <ele>15.8</ele>
        <time>2017-09-02T09:40:24Z</time>
      </trkpt>
      <trkpt lat="59.093381968725" lon="17.618039326844">
        <ele>15.6</ele>
        <time>2017-09-02T09:40:26Z</time>
      </trkpt>
      <trkpt lat="59.093193040699" lon="17.617828857335">
        <ele>15.6</ele>
        <time>2017-09-02T09:40:28Z</time>
      </trkpt>
      <trkpt lat="59.093001262827" lon="17.617617968731">
        <ele>15.2</ele>
        <time>2017-09-02T09:40:30Z</time>
      </trkpt>
      <trkpt lat="59.092808898222" lon="17.617402889177">
        <ele>14.6</ele>
        <time>2017-09-02T09:40:32Z</time>
      </trkpt>
      <trkpt lat="59.092612761762" lon="17.6171863847">
        <ele>14.2</ele>
        <time>2017-09-02T09:40:34Z</time>
      </trkpt>
      <trkpt lat="59.092414865103" lon="17.616968539119">
        <ele>13.8</ele>
        <time>2017-09-02T09:40:36Z</time>
      </trkpt>
      <trkpt lat="59.092217974272" lon="17.616750274443">
        <ele>13</ele>
        <time>2017-09-02T09:40:38Z</time>
      </trkpt>
      <trkpt lat="59.092021753993" lon="17.616532847957">
        <ele>12.6</ele>
        <time>2017-09-02T09:40:40Z</time>
      </trkpt>
      <trkpt lat="59.091826288085" lon="17.616317852222">
        <ele>12.4</ele>
        <time>2017-09-02T09:40:42Z</time>
      </trkpt>
      <trkpt lat="59.091632330919" lon="17.616102688849">
        <ele>11.8</ele>
        <time>2017-09-02T09:40:44Z</time>
      </trkpt>
      <trkpt lat="59.091439211943" lon="17.615886435829">
        <ele>11.6</ele>
        <time>2017-09-02T09:40:46Z</time>
      </trkpt>
      <trkpt lat="59.091245338596" lon="17.615670266628">
        <ele>11.4</ele>
        <time>2017-09-02T09:40:48Z</time>
      </trkpt>
      <trkpt lat="59.091055740018" lon="17.615453594513">
        <ele>11.4</ele>
        <time>2017-09-02T09:40:50Z</time>
      </trkpt>
      <trkpt lat="59.090865973802" lon="17.615244717565">
        <ele>11.4</ele>
        <time>2017-09-02T09:40:52Z</time>
      </trkpt>
      <trkpt lat="59.090679895622" lon="17.615037768454">
        <ele>11.8</ele>
        <time>2017-09-02T09:40:54Z</time>
      </trkpt>
      <trkpt lat="59.090495829098" lon="17.614831489895">
        <ele>12.4</ele>
        <time>2017-09-02T09:40:56Z</time>
      </trkpt>
      <trkpt lat="59.090312349307" lon="17.61462571425">
        <ele>13</ele>
        <time>2017-09-02T09:40:58Z</time>
      </trkpt>
      <trkpt lat="59.09013021062" lon="17.614422788451">
        <ele>13.2</ele>
        <time>2017-09-02T09:41:00Z</time>
      </trkpt>
      <trkpt lat="59.089948574847" lon="17.614220197928">
        <ele>13.6</ele>
        <time>2017-09-02T09:41:02Z</time>
      </trkpt>
      <trkpt lat="59.089764256866" lon="17.61402221745">
        <ele>13.8</ele>
        <time>2017-09-02T09:41:04Z</time>
      </trkpt>
      <trkpt lat="59.089580525618" lon="17.613821806221">
        <ele>13.8</ele>
        <time>2017-09-02T09:41:06Z</time>
      </trkpt>
      <trkpt lat="59.089394866533" lon="17.613616282033">
        <ele>13.8</ele>
        <time>2017-09-02T09:41:08Z</time>
      </trkpt>
      <trkpt lat="59.089206441421" lon="17.61340866237">
        <ele>13.8</ele>
        <time>2017-09-02T09:41:10Z</time>
      </trkpt>
      <trkpt lat="59.08901457973" lon="17.613197857585">
        <ele>13.8</ele>
        <time>2017-09-02T09:41:12Z</time>
      </trkpt>
      <trkpt lat="59.088821209297" lon="17.612980431099">
        <ele>13.6</ele>
        <time>2017-09-02T09:41:14Z</time>
      </trkpt>
      <trkpt lat="59.088625491932" lon="17.61276325607">
        <ele>13.6</ele>
        <time>2017-09-02T09:41:16Z</time>
      </trkpt>
      <trkpt lat="59.088427511454" lon="17.612542560643">
        <ele>13.4</ele>
        <time>2017-09-02T09:41:18Z</time>
      </trkpt>
      <trkpt lat="59.088224334198" lon="17.612318093361">
        <ele>13</ele>
        <time>2017-09-02T09:41:20Z</time>
      </trkpt>
      <trkpt lat="59.088016546897" lon="17.612089602767">
        <ele>12.6</ele>
        <time>2017-09-02T09:41:22Z</time>
      </trkpt>
      <trkpt lat="59.087796186746" lon="17.611852562635">
        <ele>12.2</ele>
        <time>2017-09-02T09:41:24Z</time>
      </trkpt>
      <trkpt lat="59.087571887102" lon="17.611598758703">
        <ele>11.4</ele>
        <time>2017-09-02T09:41:26Z</time>
      </trkpt>
      <trkpt lat="59.087346833087" lon="17.611347217884">
        <ele>10.6</ele>
        <time>2017-09-02T09:41:28Z</time>
      </trkpt>
      <trkpt lat="59.087234850903" lon="17.611222830488">
        <ele>10</ele>
        <time>2017-09-02T09:41:29Z</time>
      </trkpt>
      <trkpt lat="59.087124042185" lon="17.61109944892">
        <ele>9.4</ele>
        <time>2017-09-02T09:41:30Z</time>
      </trkpt>
      <trkpt lat="59.087015328942" lon="17.610978079008">
        <ele>8.8</ele>
        <time>2017-09-02T09:41:31Z</time>
      </trkpt>
      <trkpt lat="59.086908124441" lon="17.610858636933">
        <ele>8</ele>
        <time>2017-09-02T09:41:32Z</time>
      </trkpt>
      <trkpt lat="59.086802177225" lon="17.610740787419">
        <ele>6.6</ele>
        <time>2017-09-02T09:41:33Z</time>
      </trkpt>
      <trkpt lat="59.086698409303" lon="17.610623943733">
        <ele>5.6</ele>
        <time>2017-09-02T09:41:34Z</time>
      </trkpt>
      <trkpt lat="59.086595228114" lon="17.610510452807">
        <ele>5.2</ele>
        <time>2017-09-02T09:41:35Z</time>
      </trkpt>
      <trkpt lat="59.086493052753" lon="17.610398135347">
        <ele>5</ele>
        <time>2017-09-02T09:41:36Z</time>
      </trkpt>
      <trkpt lat="59.086292054791" lon="17.610177020825">
        <ele>4.4</ele>
        <time>2017-09-02T09:41:38Z</time>
      </trkpt>
      <trkpt lat="59.086192896914" lon="17.610066715021">
        <ele>4</ele>
        <time>2017-09-02T09:41:39Z</time>
      </trkpt>
      <trkpt lat="59.086093822856" lon="17.609957582683">
        <ele>3.8</ele>
        <time>2017-09-02T09:41:40Z</time>
      </trkpt>
      <trkpt lat="59.085898105491" lon="17.609739820921">
        <ele>3.2</ele>
        <time>2017-09-02T09:41:42Z</time>
      </trkpt>
      <trkpt lat="59.085801210727" lon="17.609632700239">
        <ele>3</ele>
        <time>2017-09-02T09:41:43Z</time>
      </trkpt>
      <trkpt lat="59.085704651239" lon="17.609526669204">
        <ele>2.8</ele>
        <time>2017-09-02T09:41:44Z</time>
      </trkpt>
      <trkpt lat="59.085515052661" lon="17.609320139188">
        <ele>2.8</ele>
        <time>2017-09-02T09:41:46Z</time>
      </trkpt>
      <trkpt lat="59.085334506535" lon="17.609123164538">
        <ele>2.8</ele>
        <time>2017-09-02T09:41:48Z</time>
      </trkpt>
      <trkpt lat="59.085166197983" lon="17.608939098014">
        <ele>2.8</ele>
        <time>2017-09-02T09:41:50Z</time>
      </trkpt>
      <trkpt lat="59.085011719566" lon="17.608768358711">
        <ele>2.8</ele>
        <time>2017-09-02T09:41:52Z</time>
      </trkpt>
      <trkpt lat="59.08486721561" lon="17.608613461199">
        <ele>3</ele>
        <time>2017-09-02T09:41:54Z</time>
      </trkpt>
      <trkpt lat="59.084730339183" lon="17.608464347198">
        <ele>3.6</ele>
        <time>2017-09-02T09:41:56Z</time>
      </trkpt>
      <trkpt lat="59.084601425561" lon="17.608319675604">
        <ele>4.2</ele>
        <time>2017-09-02T09:41:58Z</time>
      </trkpt>
      <trkpt lat="59.08448919192" lon="17.608186319575">
        <ele>5.4</ele>
        <time>2017-09-02T09:42:00Z</time>
      </trkpt>
      <trkpt lat="59.084437727054" lon="17.608113983778">
        <ele>6</ele>
        <time>2017-09-02T09:42:01Z</time>
      </trkpt>
      <trkpt lat="59.084394141174" lon="17.608031422063">
        <ele>6.2</ele>
        <time>2017-09-02T09:42:02Z</time>
      </trkpt>
      <trkpt lat="59.084325074318" lon="17.607853222869">
        <ele>6.6</ele>
        <time>2017-09-02T09:42:04Z</time>
      </trkpt>
      <trkpt lat="59.0842226475" lon="17.607708383637">
        <ele>7.6</ele>
        <time>2017-09-02T09:42:06Z</time>
      </trkpt>
      <trkpt lat="59.084152071902" lon="17.607676113322">
        <ele>8.2</ele>
        <time>2017-09-02T09:42:07Z</time>
      </trkpt>
      <trkpt lat="59.084071354205" lon="17.607678544073">
        <ele>8.4</ele>
        <time>2017-09-02T09:42:08Z</time>
      </trkpt>
      <trkpt lat="59.083984098626" lon="17.607704192687">
        <ele>8.8</ele>
        <time>2017-09-02T09:42:09Z</time>
      </trkpt>
      <trkpt lat="59.083895669581" lon="17.607718525736">
        <ele>9</ele>
        <time>2017-09-02T09:42:10Z</time>
      </trkpt>
      <trkpt lat="59.083721828975" lon="17.607701510479">
        <ele>9</ele>
        <time>2017-09-02T09:42:12Z</time>
      </trkpt>
      <trkpt lat="59.083634908672" lon="17.607681645376">
        <ele>9.2</ele>
        <time>2017-09-02T09:42:13Z</time>
      </trkpt>
      <trkpt lat="59.083546563446" lon="17.607656080581">
        <ele>9.2</ele>
        <time>2017-09-02T09:42:14Z</time>
      </trkpt>
      <trkpt lat="59.083365933501" lon="17.607600508584">
        <ele>9.2</ele>
        <time>2017-09-02T09:42:16Z</time>
      </trkpt>
      <trkpt lat="59.083180693511" lon="17.607546277691">
        <ele>9.2</ele>
        <time>2017-09-02T09:42:18Z</time>
      </trkpt>
      <trkpt lat="59.082989083277" lon="17.60750193744">
        <ele>9.2</ele>
        <time>2017-09-02T09:42:20Z</time>
      </trkpt>
      <trkpt lat="59.082786408935" lon="17.607483245803">
        <ele>9</ele>
        <time>2017-09-02T09:42:22Z</time>
      </trkpt>
      <trkpt lat="59.082571664657" lon="17.607486514744">
        <ele>8.8</ele>
        <time>2017-09-02T09:42:24Z</time>
      </trkpt>
      <trkpt lat="59.082345269538" lon="17.607514258833">
        <ele>8.6</ele>
        <time>2017-09-02T09:42:26Z</time>
      </trkpt>
      <trkpt lat="59.082232700621" lon="17.60753965599">
        <ele>8</ele>
        <time>2017-09-02T09:42:27Z</time>
      </trkpt>
      <trkpt lat="59.08212298155" lon="17.607568238269">
        <ele>7.6</ele>
        <time>2017-09-02T09:42:28Z</time>
      </trkpt>
      <trkpt lat="59.081907985815" lon="17.607627749759">
        <ele>6.6</ele>
        <time>2017-09-02T09:42:30Z</time>
      </trkpt>
      <trkpt lat="59.081699611781" lon="17.607696816615">
        <ele>5.2</ele>
        <time>2017-09-02T09:42:32Z</time>
      </trkpt>
      <trkpt lat="59.081498027086" lon="17.607765045281">
        <ele>4.2</ele>
        <time>2017-09-02T09:42:34Z</time>
      </trkpt>
      <trkpt lat="59.08140213815" lon="17.607799913985">
        <ele>4</ele>
        <time>2017-09-02T09:42:35Z</time>
      </trkpt>
      <trkpt lat="59.081305830119" lon="17.607834279775">
        <ele>3.8</ele>
        <time>2017-09-02T09:42:36Z</time>
      </trkpt>
      <trkpt lat="59.081121009224" lon="17.607901921708">
        <ele>3.8</ele>
        <time>2017-09-02T09:42:38Z</time>
      </trkpt>
      <trkpt lat="59.080944737867" lon="17.607962606664">
        <ele>3.8</ele>
        <time>2017-09-02T09:42:40Z</time>
      </trkpt>
      <trkpt lat="59.080770561985" lon="17.608024213629">
        <ele>3.8</ele>
        <time>2017-09-02T09:42:42Z</time>
      </trkpt>
      <trkpt lat="59.080598230121" lon="17.608085233861">
        <ele>4</ele>
        <time>2017-09-02T09:42:44Z</time>
      </trkpt>
      <trkpt lat="59.080429502474" lon="17.608138039831">
        <ele>4.6</ele>
        <time>2017-09-02T09:42:46Z</time>
      </trkpt>
      <trkpt lat="59.080264211406" lon="17.608181206616">
        <ele>4.8</ele>
        <time>2017-09-02T09:42:48Z</time>
      </trkpt>
      <trkpt lat="59.080182823157" lon="17.608199060063">
        <ele>5</ele>
        <time>2017-09-02T09:42:49Z</time>
      </trkpt>
      <trkpt lat="59.080100764356" lon="17.608215740044">
        <ele>5.2</ele>
        <time>2017-09-02T09:42:50Z</time>
      </trkpt>
      <trkpt lat="59.079935892383" lon="17.608240466649">
        <ele>5.8</ele>
        <time>2017-09-02T09:42:52Z</time>
      </trkpt>
      <trkpt lat="59.07976934403" lon="17.608255637888">
        <ele>6.2</ele>
        <time>2017-09-02T09:42:54Z</time>
      </trkpt>
      <trkpt lat="59.07960086784" lon="17.608258739191">
        <ele>6.6</ele>
        <time>2017-09-02T09:42:56Z</time>
      </trkpt>
      <trkpt lat="59.079432224012" lon="17.608253374775">
        <ele>6.8</ele>
        <time>2017-09-02T09:42:58Z</time>
      </trkpt>
      <trkpt lat="59.079262406718" lon="17.608238371174">
        <ele>6.8</ele>
        <time>2017-09-02T09:43:00Z</time>
      </trkpt>
      <trkpt lat="59.079093679071" lon="17.608216997329">
        <ele>7</ele>
        <time>2017-09-02T09:43:02Z</time>
      </trkpt>
      <trkpt lat="59.078926627804" lon="17.608193779466">
        <ele>7</ele>
        <time>2017-09-02T09:43:04Z</time>
      </trkpt>
      <trkpt lat="59.078759995632" lon="17.608166286834">
        <ele>7.2</ele>
        <time>2017-09-02T09:43:06Z</time>
      </trkpt>
      <trkpt lat="59.078677266279" lon="17.608150445043">
        <ele>7.2</ele>
        <time>2017-09-02T09:43:07Z</time>
      </trkpt>
      <trkpt lat="59.078594285469" lon="17.608129993207">
        <ele>7.2</ele>
        <time>2017-09-02T09:43:08Z</time>
      </trkpt>
      <trkpt lat="59.078423713804" lon="17.608074085934">
        <ele>7.2</ele>
        <time>2017-09-02T09:43:10Z</time>
      </trkpt>
      <trkpt lat="59.078250040836" lon="17.607997223911">
        <ele>7.4</ele>
        <time>2017-09-02T09:43:12Z</time>
      </trkpt>
      <trkpt lat="59.078077960429" lon="17.607904436278">
        <ele>7.4</ele>
        <time>2017-09-02T09:43:14Z</time>
      </trkpt>
      <trkpt lat="59.077906131479" lon="17.607813408844">
        <ele>7.4</ele>
        <time>2017-09-02T09:43:16Z</time>
      </trkpt>
      <trkpt lat="59.077736900918" lon="17.60771819046">
        <ele>7.4</ele>
        <time>2017-09-02T09:43:18Z</time>
      </trkpt>
      <trkpt lat="59.077571274574" lon="17.607623307352">
        <ele>7.4</ele>
        <time>2017-09-02T09:43:20Z</time>
      </trkpt>
      <trkpt lat="59.077407073153" lon="17.60753127409">
        <ele>7.6</ele>
        <time>2017-09-02T09:43:22Z</time>
      </trkpt>
      <trkpt lat="59.077242955551" lon="17.607440665751">
        <ele>7.6</ele>
        <time>2017-09-02T09:43:24Z</time>
      </trkpt>
      <trkpt lat="59.07707875413" lon="17.607345279729">
        <ele>8</ele>
        <time>2017-09-02T09:43:26Z</time>
      </trkpt>
      <trkpt lat="59.076913127786" lon="17.607249223155">
        <ele>8.2</ele>
        <time>2017-09-02T09:43:28Z</time>
      </trkpt>
      <trkpt lat="59.076745489786" lon="17.607152076934">
        <ele>8.2</ele>
        <time>2017-09-02T09:43:30Z</time>
      </trkpt>
      <trkpt lat="59.076577181234" lon="17.607055936541">
        <ele>8.2</ele>
        <time>2017-09-02T09:43:32Z</time>
      </trkpt>
      <trkpt lat="59.076407950673" lon="17.606961137252">
        <ele>8.2</ele>
        <time>2017-09-02T09:43:34Z</time>
      </trkpt>
      <trkpt lat="59.076238217198" lon="17.606864326307">
        <ele>8.2</ele>
        <time>2017-09-02T09:43:36Z</time>
      </trkpt>
      <trkpt lat="59.076068232266" lon="17.606769778475">
        <ele>8</ele>
        <time>2017-09-02T09:43:38Z</time>
      </trkpt>
      <trkpt lat="59.075900678085" lon="17.606674224815">
        <ele>8</ele>
        <time>2017-09-02T09:43:40Z</time>
      </trkpt>
      <trkpt lat="59.075735470836" lon="17.606580850449">
        <ele>8</ele>
        <time>2017-09-02T09:43:42Z</time>
      </trkpt>
      <trkpt lat="59.075575292727" lon="17.606483117495">
        <ele>8</ele>
        <time>2017-09-02T09:43:44Z</time>
      </trkpt>
      <trkpt lat="59.07541410879" lon="17.606390162224">
        <ele>8</ele>
        <time>2017-09-02T09:43:46Z</time>
      </trkpt>
      <trkpt lat="59.075252757215" lon="17.606298631876">
        <ele>8</ele>
        <time>2017-09-02T09:43:48Z</time>
      </trkpt>
      <trkpt lat="59.075089813079" lon="17.60620693389">
        <ele>8.2</ele>
        <time>2017-09-02T09:43:50Z</time>
      </trkpt>
      <trkpt lat="59.07492628221" lon="17.606111212592">
        <ele>8.4</ele>
        <time>2017-09-02T09:43:52Z</time>
      </trkpt>
      <trkpt lat="59.074759398581" lon="17.606014401647">
        <ele>8.4</ele>
        <time>2017-09-02T09:43:54Z</time>
      </trkpt>
      <trkpt lat="59.074589665106" lon="17.605915579046">
        <ele>8.4</ele>
        <time>2017-09-02T09:43:56Z</time>
      </trkpt>
      <trkpt lat="59.074413645206" lon="17.60581466097">
        <ele>8.4</ele>
        <time>2017-09-02T09:43:58Z</time>
      </trkpt>
      <trkpt lat="59.074239385505" lon="17.605716425102">
        <ele>8.4</ele>
        <time>2017-09-02T09:44:00Z</time>
      </trkpt>
      <trkpt lat="59.074067305098" lon="17.605615255569">
        <ele>8.4</ele>
        <time>2017-09-02T09:44:02Z</time>
      </trkpt>
      <trkpt lat="59.073896062881" lon="17.605513666941">
        <ele>8</ele>
        <time>2017-09-02T09:44:04Z</time>
      </trkpt>
      <trkpt lat="59.073724569207" lon="17.605416436901">
        <ele>7.8</ele>
        <time>2017-09-02T09:44:06Z</time>
      </trkpt>
      <trkpt lat="59.073557601759" lon="17.605322224345">
        <ele>7.8</ele>
        <time>2017-09-02T09:44:08Z</time>
      </trkpt>
      <trkpt lat="59.073394992899" lon="17.605229436712">
        <ele>7.8</ele>
        <time>2017-09-02T09:44:10Z</time>
      </trkpt>
      <trkpt lat="59.073228025451" lon="17.605141510581">
        <ele>7.8</ele>
        <time>2017-09-02T09:44:12Z</time>
      </trkpt>
      <trkpt lat="59.073057537605" lon="17.605058278314">
        <ele>7.8</ele>
        <time>2017-09-02T09:44:14Z</time>
      </trkpt>
      <trkpt lat="59.072889145234" lon="17.604985858698">
        <ele>7.8</ele>
        <time>2017-09-02T09:44:16Z</time>
      </trkpt>
      <trkpt lat="59.072722177786" lon="17.604923413543">
        <ele>8</ele>
        <time>2017-09-02T09:44:18Z</time>
      </trkpt>
      <trkpt lat="59.072558730736" lon="17.604861890397">
        <ele>8.2</ele>
        <time>2017-09-02T09:44:20Z</time>
      </trkpt>
      <trkpt lat="59.072395870419" lon="17.60481218573">
        <ele>8.4</ele>
        <time>2017-09-02T09:44:22Z</time>
      </trkpt>
      <trkpt lat="59.072228902971" lon="17.60476692347">
        <ele>8.4</ele>
        <time>2017-09-02T09:44:24Z</time>
      </trkpt>
      <trkpt lat="59.072059420953" lon="17.604729540196">
        <ele>8.8</ele>
        <time>2017-09-02T09:44:26Z</time>
      </trkpt>
      <trkpt lat="59.071891280039" lon="17.604697605157">
        <ele>9</ele>
        <time>2017-09-02T09:44:28Z</time>
      </trkpt>
      <trkpt lat="59.071722887668" lon="17.604671118353">
        <ele>9.2</ele>
        <time>2017-09-02T09:44:30Z</time>
      </trkpt>
      <trkpt lat="59.071551813089" lon="17.604655695657">
        <ele>9.6</ele>
        <time>2017-09-02T09:44:32Z</time>
      </trkpt>
      <trkpt lat="59.071380319415" lon="17.604646559386">
        <ele>9.8</ele>
        <time>2017-09-02T09:44:34Z</time>
      </trkpt>
      <trkpt lat="59.071207819913" lon="17.604641530246">
        <ele>10</ele>
        <time>2017-09-02T09:44:36Z</time>
      </trkpt>
      <trkpt lat="59.071035990963" lon="17.604643541902">
        <ele>10.2</ele>
        <time>2017-09-02T09:44:38Z</time>
      </trkpt>
      <trkpt lat="59.070864162013" lon="17.60465712058">
        <ele>10.2</ele>
        <time>2017-09-02T09:44:40Z</time>
      </trkpt>
      <trkpt lat="59.070778415176" lon="17.604667514136">
        <ele>10.2</ele>
        <time>2017-09-02T09:44:41Z</time>
      </trkpt>
      <trkpt lat="59.070693171253" lon="17.604680170805">
        <ele>10.2</ele>
        <time>2017-09-02T09:44:42Z</time>
      </trkpt>
      <trkpt lat="59.070522599588" lon="17.604710429464">
        <ele>10.2</ele>
        <time>2017-09-02T09:44:44Z</time>
      </trkpt>
      <trkpt lat="59.070351944104" lon="17.604745381987">
        <ele>10.4</ele>
        <time>2017-09-02T09:44:46Z</time>
      </trkpt>
      <trkpt lat="59.07018045043" lon="17.604786872392">
        <ele>10.4</ele>
        <time>2017-09-02T09:44:48Z</time>
      </trkpt>
      <trkpt lat="59.070008789118" lon="17.604837079973">
        <ele>10.6</ele>
        <time>2017-09-02T09:44:50Z</time>
      </trkpt>
      <trkpt lat="59.069837211625" lon="17.604891310866">
        <ele>10.6</ele>
        <time>2017-09-02T09:44:52Z</time>
      </trkpt>
      <trkpt lat="59.06966412539" lon="17.604944787388">
        <ele>10.6</ele>
        <time>2017-09-02T09:44:54Z</time>
      </trkpt>
      <trkpt lat="59.069490033327" lon="17.605000610842">
        <ele>10.6</ele>
        <time>2017-09-02T09:44:56Z</time>
      </trkpt>
      <trkpt lat="59.069316108902" lon="17.605055847563">
        <ele>10.6</ele>
        <time>2017-09-02T09:44:58Z</time>
      </trkpt>
      <trkpt lat="59.069143106486" lon="17.605109994637">
        <ele>10.8</ele>
        <time>2017-09-02T09:45:00Z</time>
      </trkpt>
      <trkpt lat="59.068972115726" lon="17.605164644625">
        <ele>10.8</ele>
        <time>2017-09-02T09:45:02Z</time>
      </trkpt>
      <trkpt lat="59.06879659874" lon="17.605221557726">
        <ele>11</ele>
        <time>2017-09-02T09:45:04Z</time>
      </trkpt>
      <trkpt lat="59.068620662659" lon="17.605277129723">
        <ele>11.2</ele>
        <time>2017-09-02T09:45:06Z</time>
      </trkpt>
      <trkpt lat="59.068446319139" lon="17.605331444435">
        <ele>11.2</ele>
        <time>2017-09-02T09:45:08Z</time>
      </trkpt>
      <trkpt lat="59.068272310895" lon="17.605383412215">
        <ele>11.4</ele>
        <time>2017-09-02T09:45:10Z</time>
      </trkpt>
      <trkpt lat="59.068099308479" lon="17.60543579909">
        <ele>11.6</ele>
        <time>2017-09-02T09:45:12Z</time>
      </trkpt>
      <trkpt lat="59.06792488114" lon="17.605491874001">
        <ele>11.6</ele>
        <time>2017-09-02T09:45:14Z</time>
      </trkpt>
      <trkpt lat="59.067750034706" lon="17.605546859265">
        <ele>11.8</ele>
        <time>2017-09-02T09:45:16Z</time>
      </trkpt>
      <trkpt lat="59.067574852996" lon="17.60560176071">
        <ele>12</ele>
        <time>2017-09-02T09:45:18Z</time>
      </trkpt>
      <trkpt lat="59.067401515304" lon="17.605653896128">
        <ele>12</ele>
        <time>2017-09-02T09:45:20Z</time>
      </trkpt>
      <trkpt lat="59.067229602535" lon="17.605700918587">
        <ele>12.2</ele>
        <time>2017-09-02T09:45:22Z</time>
      </trkpt>
      <trkpt lat="59.067057605947" lon="17.605749617426">
        <ele>12.2</ele>
        <time>2017-09-02T09:45:24Z</time>
      </trkpt>
      <trkpt lat="59.066971775291" lon="17.605775098402">
        <ele>12.2</ele>
        <time>2017-09-02T09:45:25Z</time>
      </trkpt>
      <trkpt lat="59.06688636373" lon="17.605800160283">
        <ele>12.2</ele>
        <time>2017-09-02T09:45:26Z</time>
      </trkpt>
      <trkpt lat="59.066715289151" lon="17.605849110579">
        <ele>12.4</ele>
        <time>2017-09-02T09:45:28Z</time>
      </trkpt>
      <trkpt lat="59.066542957287" lon="17.605894875753">
        <ele>12.4</ele>
        <time>2017-09-02T09:45:30Z</time>
      </trkpt>
      <trkpt lat="59.066369619595" lon="17.605942484945">
        <ele>12.4</ele>
        <time>2017-09-02T09:45:32Z</time>
      </trkpt>
      <trkpt lat="59.066197539188" lon="17.606000403874">
        <ele>12.4</ele>
        <time>2017-09-02T09:45:34Z</time>
      </trkpt>
      <trkpt lat="59.066025374962" lon="17.606058238984">
        <ele>12.4</ele>
        <time>2017-09-02T09:45:36Z</time>
      </trkpt>
      <trkpt lat="59.065852288727" lon="17.606114984447">
        <ele>12.4</ele>
        <time>2017-09-02T09:45:38Z</time>
      </trkpt>
      <trkpt lat="59.065679621587" lon="17.606172903376">
        <ele>12.6</ele>
        <time>2017-09-02T09:45:40Z</time>
      </trkpt>
      <trkpt lat="59.06550754118" lon="17.606233672151">
        <ele>12.6</ele>
        <time>2017-09-02T09:45:42Z</time>
      </trkpt>
      <trkpt lat="59.065335628411" lon="17.606290249976">
        <ele>13</ele>
        <time>2017-09-02T09:45:44Z</time>
      </trkpt>
      <trkpt lat="59.065164972927" lon="17.606349174733">
        <ele>13</ele>
        <time>2017-09-02T09:45:46Z</time>
      </trkpt>
      <trkpt lat="59.06499121614" lon="17.606413044811">
        <ele>13</ele>
        <time>2017-09-02T09:45:48Z</time>
      </trkpt>
      <trkpt lat="59.06481687262" lon="17.606487140807">
        <ele>13</ele>
        <time>2017-09-02T09:45:50Z</time>
      </trkpt>
      <trkpt lat="59.0646425291" lon="17.606575988947">
        <ele>13.2</ele>
        <time>2017-09-02T09:45:52Z</time>
      </trkpt>
      <trkpt lat="59.064465838648" lon="17.606681936163">
        <ele>13.2</ele>
        <time>2017-09-02T09:45:54Z</time>
      </trkpt>
      <trkpt lat="59.064289315834" lon="17.606801797333">
        <ele>13.4</ele>
        <time>2017-09-02T09:45:56Z</time>
      </trkpt>
      <trkpt lat="59.064114720857" lon="17.606932387335">
        <ele>13.6</ele>
        <time>2017-09-02T09:45:58Z</time>
      </trkpt>
      <trkpt lat="59.063947753409" lon="17.607070604866">
        <ele>13.6</ele>
        <time>2017-09-02T09:46:00Z</time>
      </trkpt>
      <trkpt lat="59.063790844241" lon="17.607219048315">
        <ele>13.8</ele>
        <time>2017-09-02T09:46:02Z</time>
      </trkpt>
      <trkpt lat="59.063634270349" lon="17.607383417374">
        <ele>13.8</ele>
        <time>2017-09-02T09:46:04Z</time>
      </trkpt>
      <trkpt lat="59.063477864095" lon="17.607555330143">
        <ele>14</ele>
        <time>2017-09-02T09:46:06Z</time>
      </trkpt>
      <trkpt lat="59.063322966583" lon="17.607741324504">
        <ele>14</ele>
        <time>2017-09-02T09:46:08Z</time>
      </trkpt>
      <trkpt lat="59.063169913089" lon="17.607950201452">
        <ele>14</ele>
        <time>2017-09-02T09:46:10Z</time>
      </trkpt>
      <trkpt lat="59.063018368337" lon="17.608171567431">
        <ele>14</ele>
        <time>2017-09-02T09:46:12Z</time>
      </trkpt>
      <trkpt lat="59.062862967911" lon="17.608401818224">
        <ele>14</ele>
        <time>2017-09-02T09:46:14Z</time>
      </trkpt>
      <trkpt lat="59.062698850309" lon="17.608652939948">
        <ele>13.8</ele>
        <time>2017-09-02T09:46:16Z</time>
      </trkpt>
      <trkpt lat="59.062528278644" lon="17.60891512578">
        <ele>13.4</ele>
        <time>2017-09-02T09:46:18Z</time>
      </trkpt>
      <trkpt lat="59.062354773314" lon="17.609178401259">
        <ele>12.8</ele>
        <time>2017-09-02T09:46:20Z</time>
      </trkpt>
      <trkpt lat="59.06226877502" lon="17.609309326537">
        <ele>12.4</ele>
        <time>2017-09-02T09:46:21Z</time>
      </trkpt>
      <trkpt lat="59.062184201649" lon="17.609438575435">
        <ele>12</ele>
        <time>2017-09-02T09:46:22Z</time>
      </trkpt>
      <trkpt lat="59.062015809278" lon="17.609689194245">
        <ele>11.4</ele>
        <time>2017-09-02T09:46:24Z</time>
      </trkpt>
      <trkpt lat="59.061849093287" lon="17.609943417272">
        <ele>10.6</ele>
        <time>2017-09-02T09:46:26Z</time>
      </trkpt>
      <trkpt lat="59.061766196296" lon="17.610068307582">
        <ele>10</ele>
        <time>2017-09-02T09:46:27Z</time>
      </trkpt>
      <trkpt lat="59.061683215486" lon="17.610191186236">
        <ele>9.4</ele>
        <time>2017-09-02T09:46:28Z</time>
      </trkpt>
      <trkpt lat="59.061519684617" lon="17.610436859725">
        <ele>8.8</ele>
        <time>2017-09-02T09:46:30Z</time>
      </trkpt>
      <trkpt lat="59.061359506508" lon="17.610680773015">
        <ele>8.4</ele>
        <time>2017-09-02T09:46:32Z</time>
      </trkpt>
      <trkpt lat="59.061202262064" lon="17.610919070432">
        <ele>8.2</ele>
        <time>2017-09-02T09:46:34Z</time>
      </trkpt>
      <trkpt lat="59.061044263249" lon="17.611154518003">
        <ele>8</ele>
        <time>2017-09-02T09:46:36Z</time>
      </trkpt>
      <trkpt lat="59.060886432072" lon="17.611390636126">
        <ele>7.8</ele>
        <time>2017-09-02T09:46:38Z</time>
      </trkpt>
      <trkpt lat="59.060731031646" lon="17.611623233851">
        <ele>7.8</ele>
        <time>2017-09-02T09:46:40Z</time>
      </trkpt>
      <trkpt lat="59.060579570713" lon="17.61184292345">
        <ele>7.8</ele>
        <time>2017-09-02T09:46:42Z</time>
      </trkpt>
      <trkpt lat="59.060433641834" lon="17.612039395186">
        <ele>7.8</ele>
        <time>2017-09-02T09:46:44Z</time>
      </trkpt>
      <trkpt lat="59.060286120394" lon="17.612222036787">
        <ele>7.8</ele>
        <time>2017-09-02T09:46:46Z</time>
      </trkpt>
      <trkpt lat="59.060130971425" lon="17.612403169646">
        <ele>7.8</ele>
        <time>2017-09-02T09:46:48Z</time>
      </trkpt>
      <trkpt lat="59.059964003977" lon="17.61257047237">
        <ele>8</ele>
        <time>2017-09-02T09:46:50Z</time>
      </trkpt>
      <trkpt lat="59.059788989905" lon="17.612722939131">
        <ele>8.4</ele>
        <time>2017-09-02T09:46:52Z</time>
      </trkpt>
      <trkpt lat="59.059609617245" lon="17.612857803902">
        <ele>8.6</ele>
        <time>2017-09-02T09:46:54Z</time>
      </trkpt>
      <trkpt lat="59.059430831318" lon="17.612959141073">
        <ele>8.8</ele>
        <time>2017-09-02T09:46:56Z</time>
      </trkpt>
      <trkpt lat="59.059254476142" lon="17.613038098571">
        <ele>8.8</ele>
        <time>2017-09-02T09:46:58Z</time>
      </trkpt>
      <trkpt lat="59.059077366595" lon="17.613108003617">
        <ele>9</ele>
        <time>2017-09-02T09:47:00Z</time>
      </trkpt>
      <trkpt lat="59.058894976451" lon="17.613168353297">
        <ele>9</ele>
        <time>2017-09-02T09:47:02Z</time>
      </trkpt>
      <trkpt lat="59.05870479114" lon="17.613204311648">
        <ele>9.2</ele>
        <time>2017-09-02T09:47:04Z</time>
      </trkpt>
      <trkpt lat="59.05850781649" lon="17.61321671686">
        <ele>9.6</ele>
        <time>2017-09-02T09:47:06Z</time>
      </trkpt>
      <trkpt lat="59.058306818528" lon="17.613208837874">
        <ele>9.8</ele>
        <time>2017-09-02T09:47:08Z</time>
      </trkpt>
      <trkpt lat="59.058104395643" lon="17.613185368554">
        <ele>9.8</ele>
        <time>2017-09-02T09:47:10Z</time>
      </trkpt>
      <trkpt lat="59.057903732957" lon="17.613138681371">
        <ele>9.8</ele>
        <time>2017-09-02T09:47:12Z</time>
      </trkpt>
      <trkpt lat="59.057706087755" lon="17.613067016126">
        <ele>9.8</ele>
        <time>2017-09-02T09:47:14Z</time>
      </trkpt>
      <trkpt lat="59.057510621847" lon="17.612974899045">
        <ele>9.6</ele>
        <time>2017-09-02T09:47:16Z</time>
      </trkpt>
      <trkpt lat="59.057317838147" lon="17.612872975141">
        <ele>9.6</ele>
        <time>2017-09-02T09:47:18Z</time>
      </trkpt>
      <trkpt lat="59.057128071931" lon="17.612759232758">
        <ele>9.6</ele>
        <time>2017-09-02T09:47:20Z</time>
      </trkpt>
      <trkpt lat="59.056939898276" lon="17.612630989688">
        <ele>9.6</ele>
        <time>2017-09-02T09:47:22Z</time>
      </trkpt>
      <trkpt lat="59.056750383517" lon="17.612498974763">
        <ele>9.6</ele>
        <time>2017-09-02T09:47:24Z</time>
      </trkpt>
      <trkpt lat="59.05655902474" lon="17.612368384761">
        <ele>9.4</ele>
        <time>2017-09-02T09:47:26Z</time>
      </trkpt>
      <trkpt lat="59.056368504153" lon="17.612233603809">
        <ele>9.4</ele>
        <time>2017-09-02T09:47:28Z</time>
      </trkpt>
      <trkpt lat="59.056176391005" lon="17.612102510893">
        <ele>9.4</ele>
        <time>2017-09-02T09:47:30Z</time>
      </trkpt>
      <trkpt lat="59.055983020572" lon="17.61197032833">
        <ele>9.4</ele>
        <time>2017-09-02T09:47:32Z</time>
      </trkpt>
      <trkpt lat="59.055787135569" lon="17.611837978129">
        <ele>9.4</ele>
        <time>2017-09-02T09:47:34Z</time>
      </trkpt>
      <trkpt lat="59.055590244738" lon="17.611705041195">
        <ele>9.2</ele>
        <time>2017-09-02T09:47:36Z</time>
      </trkpt>
      <trkpt lat="59.055397041943" lon="17.611574367374">
        <ele>9</ele>
        <time>2017-09-02T09:47:38Z</time>
      </trkpt>
      <trkpt lat="59.055204844976" lon="17.61143807768">
        <ele>8.8</ele>
        <time>2017-09-02T09:47:40Z</time>
      </trkpt>
      <trkpt lat="59.055010384896" lon="17.611308242049">
        <ele>8.6</ele>
        <time>2017-09-02T09:47:42Z</time>
      </trkpt>
      <trkpt lat="59.054815086626" lon="17.611173042002">
        <ele>8.4</ele>
        <time>2017-09-02T09:47:44Z</time>
      </trkpt>
      <trkpt lat="59.05461861489" lon="17.611037339041">
        <ele>8.2</ele>
        <time>2017-09-02T09:47:46Z</time>
      </trkpt>
      <trkpt lat="59.054422226973" lon="17.610901300804">
        <ele>7.8</ele>
        <time>2017-09-02T09:47:48Z</time>
      </trkpt>
      <trkpt lat="59.054225922875" lon="17.610766603671">
        <ele>7.8</ele>
        <time>2017-09-02T09:47:50Z</time>
      </trkpt>
      <trkpt lat="59.054033977365" lon="17.610636516583">
        <ele>7.6</ele>
        <time>2017-09-02T09:47:52Z</time>
      </trkpt>
      <trkpt lat="59.053843792054" lon="17.610509949893">
        <ele>7.6</ele>
        <time>2017-09-02T09:47:54Z</time>
      </trkpt>
      <trkpt lat="59.053653606743" lon="17.610383215565">
        <ele>7.6</ele>
        <time>2017-09-02T09:47:56Z</time>
      </trkpt>
      <trkpt lat="59.053459901034" lon="17.610253044658">
        <ele>7.6</ele>
        <time>2017-09-02T09:47:58Z</time>
      </trkpt>
      <trkpt lat="59.053268542257" lon="17.610123125208">
        <ele>7.4</ele>
        <time>2017-09-02T09:48:00Z</time>
      </trkpt>
      <trkpt lat="59.053076596747" lon="17.609989852998">
        <ele>7.4</ele>
        <time>2017-09-02T09:48:02Z</time>
      </trkpt>
      <trkpt lat="59.052883980685" lon="17.609852473657">
        <ele>7.4</ele>
        <time>2017-09-02T09:48:04Z</time>
      </trkpt>
      <trkpt lat="59.052690442614" lon="17.609718447076">
        <ele>7.2</ele>
        <time>2017-09-02T09:48:06Z</time>
      </trkpt>
      <trkpt lat="59.052498413285" lon="17.609587857074">
        <ele>7.2</ele>
        <time>2017-09-02T09:48:08Z</time>
      </trkpt>
      <trkpt lat="59.052311664553" lon="17.609458775814">
        <ele>7</ele>
        <time>2017-09-02T09:48:10Z</time>
      </trkpt>
      <trkpt lat="59.052127430391" lon="17.609326593251">
        <ele>6.8</ele>
        <time>2017-09-02T09:48:12Z</time>
      </trkpt>
      <trkpt lat="59.051947219541" lon="17.60919927219">
        <ele>6.8</ele>
        <time>2017-09-02T09:48:14Z</time>
      </trkpt>
      <trkpt lat="59.051769523261" lon="17.609079159563">
        <ele>6.8</ele>
        <time>2017-09-02T09:48:16Z</time>
      </trkpt>
      <trkpt lat="59.051595515017" lon="17.608959968945">
        <ele>6.8</ele>
        <time>2017-09-02T09:48:18Z</time>
      </trkpt>
      <trkpt lat="59.051425613904" lon="17.608844550182">
        <ele>6.8</ele>
        <time>2017-09-02T09:48:20Z</time>
      </trkpt>
      <trkpt lat="59.051262418311" lon="17.608731226894">
        <ele>7</ele>
        <time>2017-09-02T09:48:22Z</time>
      </trkpt>
      <trkpt lat="59.051105173867" lon="17.608627123696">
        <ele>7.2</ele>
        <time>2017-09-02T09:48:24Z</time>
      </trkpt>
      <trkpt lat="59.050948851432" lon="17.608524780697">
        <ele>7.4</ele>
        <time>2017-09-02T09:48:26Z</time>
      </trkpt>
      <trkpt lat="59.050794875929" lon="17.608417995291">
        <ele>7.6</ele>
        <time>2017-09-02T09:48:28Z</time>
      </trkpt>
      <trkpt lat="59.050641319521" lon="17.608312718627">
        <ele>7.8</ele>
        <time>2017-09-02T09:48:30Z</time>
      </trkpt>
      <trkpt lat="59.050489188036" lon="17.608210627085">
        <ele>8.2</ele>
        <time>2017-09-02T09:48:32Z</time>
      </trkpt>
      <trkpt lat="59.05033714037" lon="17.608107194439">
        <ele>8.8</ele>
        <time>2017-09-02T09:48:34Z</time>
      </trkpt>
      <trkpt lat="59.05018961893" lon="17.608005019078">
        <ele>9.4</ele>
        <time>2017-09-02T09:48:36Z</time>
      </trkpt>
      <trkpt lat="59.050044276784" lon="17.607912566721">
        <ele>9.8</ele>
        <time>2017-09-02T09:48:38Z</time>
      </trkpt>
      <trkpt lat="59.04990128157" lon="17.607822209839">
        <ele>10.4</ele>
        <time>2017-09-02T09:48:40Z</time>
      </trkpt>
      <trkpt lat="59.049762058211" lon="17.607734283708">
        <ele>11</ele>
        <time>2017-09-02T09:48:42Z</time>
      </trkpt>
      <trkpt lat="59.049622331938" lon="17.607650548527">
        <ele>11.6</ele>
        <time>2017-09-02T09:48:44Z</time>
      </trkpt>
      <trkpt lat="59.049479923457" lon="17.607569327916">
        <ele>12.2</ele>
        <time>2017-09-02T09:48:46Z</time>
      </trkpt>
      <trkpt lat="59.049333575483" lon="17.607491543884">
        <ele>12.8</ele>
        <time>2017-09-02T09:48:48Z</time>
      </trkpt>
      <trkpt lat="59.04918798188" lon="17.607414849499">
        <ele>13.4</ele>
        <time>2017-09-02T09:48:50Z</time>
      </trkpt>
      <trkpt lat="59.049041717725" lon="17.607337819838">
        <ele>14</ele>
        <time>2017-09-02T09:48:52Z</time>
      </trkpt>
      <trkpt lat="59.048891011163" lon="17.607260454901">
        <ele>14.2</ele>
        <time>2017-09-02T09:48:54Z</time>
      </trkpt>
      <trkpt lat="59.048739634049" lon="17.607183257602">
        <ele>14.6</ele>
        <time>2017-09-02T09:48:56Z</time>
      </trkpt>
      <trkpt lat="59.048589262763" lon="17.607106814674">
        <ele>15.4</ele>
        <time>2017-09-02T09:48:58Z</time>
      </trkpt>
      <trkpt lat="59.048438807658" lon="17.607032718678">
        <ele>15.8</ele>
        <time>2017-09-02T09:49:00Z</time>
      </trkpt>
      <trkpt lat="59.048285167431" lon="17.606953006809">
        <ele>16</ele>
        <time>2017-09-02T09:49:02Z</time>
      </trkpt>
      <trkpt lat="59.048126078969" lon="17.606872875845">
        <ele>16</ele>
        <time>2017-09-02T09:49:04Z</time>
      </trkpt>
      <trkpt lat="59.047965565584" lon="17.60679199051">
        <ele>16.2</ele>
        <time>2017-09-02T09:49:06Z</time>
      </trkpt>
      <trkpt lat="59.047809494606" lon="17.606708590605">
        <ele>16.4</ele>
        <time>2017-09-02T09:49:08Z</time>
      </trkpt>
      <trkpt lat="59.047655435284" lon="17.606626615623">
        <ele>16.4</ele>
        <time>2017-09-02T09:49:10Z</time>
      </trkpt>
      <trkpt lat="59.047498777573" lon="17.606548244858">
        <ele>16.6</ele>
        <time>2017-09-02T09:49:12Z</time>
      </trkpt>
      <trkpt lat="59.04734480207" lon="17.606471047559">
        <ele>16.6</ele>
        <time>2017-09-02T09:49:14Z</time>
      </trkpt>
      <trkpt lat="59.047191664757" lon="17.606391922423">
        <ele>16.8</ele>
        <time>2017-09-02T09:49:16Z</time>
      </trkpt>
      <trkpt lat="59.047038108349" lon="17.606311288545">
        <ele>16.8</ele>
        <time>2017-09-02T09:49:18Z</time>
      </trkpt>
      <trkpt lat="59.046883043199" lon="17.60623459416">
        <ele>17</ele>
        <time>2017-09-02T09:49:20Z</time>
      </trkpt>
      <trkpt lat="59.046726134031" lon="17.606156558671">
        <ele>17.4</ele>
        <time>2017-09-02T09:49:22Z</time>
      </trkpt>
      <trkpt lat="59.046571487976" lon="17.606075421879">
        <ele>17.8</ele>
        <time>2017-09-02T09:49:24Z</time>
      </trkpt>
      <trkpt lat="59.046418685939" lon="17.605994285087">
        <ele>18</ele>
        <time>2017-09-02T09:49:26Z</time>
      </trkpt>
      <trkpt lat="59.046264123703" lon="17.605914237942">
        <ele>18.4</ele>
        <time>2017-09-02T09:49:28Z</time>
      </trkpt>
      <trkpt lat="59.046108052725" lon="17.605832179141">
        <ele>18.6</ele>
        <time>2017-09-02T09:49:30Z</time>
      </trkpt>
      <trkpt lat="59.045946198236" lon="17.605751293806">
        <ele>19.2</ele>
        <time>2017-09-02T09:49:32Z</time>
      </trkpt>
      <trkpt lat="59.045780068978" lon="17.605661942752">
        <ele>19.4</ele>
        <time>2017-09-02T09:49:34Z</time>
      </trkpt>
      <trkpt lat="59.045610167865" lon="17.605574687173">
        <ele>19.6</ele>
        <time>2017-09-02T09:49:36Z</time>
      </trkpt>
      <trkpt lat="59.045439260924" lon="17.605487180137">
        <ele>20</ele>
        <time>2017-09-02T09:49:38Z</time>
      </trkpt>
      <trkpt lat="59.045273047847" lon="17.605402103852">
        <ele>20</ele>
        <time>2017-09-02T09:49:40Z</time>
      </trkpt>
      <trkpt lat="59.045106750951" lon="17.60531258516">
        <ele>20</ele>
        <time>2017-09-02T09:49:42Z</time>
      </trkpt>
      <trkpt lat="59.044940621693" lon="17.605222731192">
        <ele>20.2</ele>
        <time>2017-09-02T09:49:44Z</time>
      </trkpt>
      <trkpt lat="59.044776755548" lon="17.605137906364">
        <ele>20.2</ele>
        <time>2017-09-02T09:49:46Z</time>
      </trkpt>
      <trkpt lat="59.044614649602" lon="17.605056518115">
        <ele>20.2</ele>
        <time>2017-09-02T09:49:48Z</time>
      </trkpt>
      <trkpt lat="59.044454890588" lon="17.604977728255">
        <ele>20.2</ele>
        <time>2017-09-02T09:49:50Z</time>
      </trkpt>
      <trkpt lat="59.044298651972" lon="17.604898686938">
        <ele>20.2</ele>
        <time>2017-09-02T09:49:52Z</time>
      </trkpt>
      <trkpt lat="59.044143419184" lon="17.604819813259">
        <ele>20.2</ele>
        <time>2017-09-02T09:49:54Z</time>
      </trkpt>
      <trkpt lat="59.043988354034" lon="17.604743118874">
        <ele>20.4</ele>
        <time>2017-09-02T09:49:56Z</time>
      </trkpt>
      <trkpt lat="59.043910318545" lon="17.604703556306">
        <ele>20.6</ele>
        <time>2017-09-02T09:49:57Z</time>
      </trkpt>
      <trkpt lat="59.043832702151" lon="17.604663071729">
        <ele>20.8</ele>
        <time>2017-09-02T09:49:58Z</time>
      </trkpt>
      <trkpt lat="59.043677469363" lon="17.604581012928">
        <ele>21.2</ele>
        <time>2017-09-02T09:50:00Z</time>
      </trkpt>
      <trkpt lat="59.043600355883" lon="17.604541198903">
        <ele>21.6</ele>
        <time>2017-09-02T09:50:01Z</time>
      </trkpt>
      <trkpt lat="59.043523745317" lon="17.604502139249">
        <ele>21.6</ele>
        <time>2017-09-02T09:50:02Z</time>
      </trkpt>
      <trkpt lat="59.043373122574" lon="17.604423852303">
        <ele>22</ele>
        <time>2017-09-02T09:50:04Z</time>
      </trkpt>
      <trkpt lat="59.04323180374" lon="17.604354617809">
        <ele>22.2</ele>
        <time>2017-09-02T09:50:06Z</time>
      </trkpt>
      <trkpt lat="59.043100710824" lon="17.604282701107">
        <ele>22.4</ele>
        <time>2017-09-02T09:50:08Z</time>
      </trkpt>
      <trkpt lat="59.043037427479" lon="17.604245485471">
        <ele>22.4</ele>
        <time>2017-09-02T09:50:09Z</time>
      </trkpt>
      <trkpt lat="59.042970204641" lon="17.604207347826">
        <ele>22.6</ele>
        <time>2017-09-02T09:50:10Z</time>
      </trkpt>
      <trkpt lat="59.042828215255" lon="17.604131491631">
        <ele>23.4</ele>
        <time>2017-09-02T09:50:12Z</time>
      </trkpt>
      <trkpt lat="59.042754370716" lon="17.604089079217">
        <ele>23.6</ele>
        <time>2017-09-02T09:50:13Z</time>
      </trkpt>
      <trkpt lat="59.042676670503" lon="17.604054881065">
        <ele>24</ele>
        <time>2017-09-02T09:50:14Z</time>
      </trkpt>
      <trkpt lat="59.042529568158" lon="17.603989250788">
        <ele>24.6</ele>
        <time>2017-09-02T09:50:16Z</time>
      </trkpt>
      <trkpt lat="59.042457567637" lon="17.603950442591">
        <ele>25</ele>
        <time>2017-09-02T09:50:17Z</time>
      </trkpt>
      <trkpt lat="59.042380621795" lon="17.603916579715">
        <ele>25.2</ele>
        <time>2017-09-02T09:50:18Z</time>
      </trkpt>
      <trkpt lat="59.042227987396" lon="17.603837789855">
        <ele>25.6</ele>
        <time>2017-09-02T09:50:20Z</time>
      </trkpt>
      <trkpt lat="59.042070994409" lon="17.603748690258">
        <ele>26.2</ele>
        <time>2017-09-02T09:50:22Z</time>
      </trkpt>
      <trkpt lat="59.041905954798" lon="17.603667134371">
        <ele>26.6</ele>
        <time>2017-09-02T09:50:24Z</time>
      </trkpt>
      <trkpt lat="59.041740160816" lon="17.603578034774">
        <ele>26.6</ele>
        <time>2017-09-02T09:50:26Z</time>
      </trkpt>
      <trkpt lat="59.041573612463" lon="17.603484911865">
        <ele>26.6</ele>
        <time>2017-09-02T09:50:28Z</time>
      </trkpt>
      <trkpt lat="59.041401699694" lon="17.603372678224">
        <ele>26.6</ele>
        <time>2017-09-02T09:50:30Z</time>
      </trkpt>
      <trkpt lat="59.041218303722" lon="17.60326237242">
        <ele>26.6</ele>
        <time>2017-09-02T09:50:32Z</time>
      </trkpt>
      <trkpt lat="59.041020826158" lon="17.603140248137">
        <ele>26.4</ele>
        <time>2017-09-02T09:50:34Z</time>
      </trkpt>
      <trkpt lat="59.040820247291" lon="17.603008568488">
        <ele>26</ele>
        <time>2017-09-02T09:50:36Z</time>
      </trkpt>
      <trkpt lat="59.040625368116" lon="17.602875883011">
        <ele>25.4</ele>
        <time>2017-09-02T09:50:38Z</time>
      </trkpt>
      <trkpt lat="59.040529395361" lon="17.602810504191">
        <ele>25</ele>
        <time>2017-09-02T09:50:39Z</time>
      </trkpt>
      <trkpt lat="59.040436272452" lon="17.602745293009">
        <ele>24.8</ele>
        <time>2017-09-02T09:50:40Z</time>
      </trkpt>
      <trkpt lat="59.040255055774" lon="17.602625767115">
        <ele>24</ele>
        <time>2017-09-02T09:50:42Z</time>
      </trkpt>
      <trkpt lat="59.04008104753" lon="17.602507414687">
        <ele>23.4</ele>
        <time>2017-09-02T09:50:44Z</time>
      </trkpt>
      <trkpt lat="59.03990838039" lon="17.602393001752">
        <ele>23.4</ele>
        <time>2017-09-02T09:50:46Z</time>
      </trkpt>
      <trkpt lat="59.039734958879" lon="17.602276828618">
        <ele>23.4</ele>
        <time>2017-09-02T09:50:48Z</time>
      </trkpt>
      <trkpt lat="59.039561788825" lon="17.602161577493">
        <ele>23.4</ele>
        <time>2017-09-02T09:50:50Z</time>
      </trkpt>
      <trkpt lat="59.039385852744" lon="17.602045571997">
        <ele>23.4</ele>
        <time>2017-09-02T09:50:52Z</time>
      </trkpt>
      <trkpt lat="59.039208910835" lon="17.60192126842">
        <ele>23.4</ele>
        <time>2017-09-02T09:50:54Z</time>
      </trkpt>
      <trkpt lat="59.039026939786" lon="17.601798138309">
        <ele>23.8</ele>
        <time>2017-09-02T09:50:56Z</time>
      </trkpt>
      <trkpt lat="59.038842789443" lon="17.601668051221">
        <ele>23.8</ele>
        <time>2017-09-02T09:50:58Z</time>
      </trkpt>
      <trkpt lat="59.038655956892" lon="17.601542993273">
        <ele>23.8</ele>
        <time>2017-09-02T09:51:00Z</time>
      </trkpt>
      <trkpt lat="59.03846669359" lon="17.601413995832">
        <ele>23.8</ele>
        <time>2017-09-02T09:51:02Z</time>
      </trkpt>
      <trkpt lat="59.038274999537" lon="17.601276281215">
        <ele>23.8</ele>
        <time>2017-09-02T09:51:04Z</time>
      </trkpt>
      <trkpt lat="59.038080371819" lon="17.601140662073">
        <ele>23.6</ele>
        <time>2017-09-02T09:51:06Z</time>
      </trkpt>
      <trkpt lat="59.037882642798" lon="17.601006216397">
        <ele>23.4</ele>
        <time>2017-09-02T09:51:08Z</time>
      </trkpt>
      <trkpt lat="59.03768298594" lon="17.600863807916">
        <ele>23.2</ele>
        <time>2017-09-02T09:51:10Z</time>
      </trkpt>
      <trkpt lat="59.03748182034" lon="17.60072181853">
        <ele>23</ele>
        <time>2017-09-02T09:51:12Z</time>
      </trkpt>
      <trkpt lat="59.03738123754" lon="17.60065392514">
        <ele>22.6</ele>
        <time>2017-09-02T09:51:13Z</time>
      </trkpt>
      <trkpt lat="59.037281995844" lon="17.600586199388">
        <ele>22.4</ele>
        <time>2017-09-02T09:51:14Z</time>
      </trkpt>
      <trkpt lat="59.037088206316" lon="17.600449239142">
        <ele>21.8</ele>
        <time>2017-09-02T09:51:16Z</time>
      </trkpt>
      <trkpt lat="59.036993742303" lon="17.600381178114">
        <ele>21.4</ele>
        <time>2017-09-02T09:51:17Z</time>
      </trkpt>
      <trkpt lat="59.036900787032" lon="17.60031613457">
        <ele>21</ele>
        <time>2017-09-02T09:51:18Z</time>
      </trkpt>
      <trkpt lat="59.036721162915" lon="17.600191579536">
        <ele>20.8</ele>
        <time>2017-09-02T09:51:20Z</time>
      </trkpt>
      <trkpt lat="59.036549920698" lon="17.600064342294">
        <ele>20.8</ele>
        <time>2017-09-02T09:51:22Z</time>
      </trkpt>
      <trkpt lat="59.036386641286" lon="17.599942804744">
        <ele>20.8</ele>
        <time>2017-09-02T09:51:24Z</time>
      </trkpt>
      <trkpt lat="59.036230737946" lon="17.599830571103">
        <ele>20.8</ele>
        <time>2017-09-02T09:51:26Z</time>
      </trkpt>
      <trkpt lat="59.036078271185" lon="17.599716577263">
        <ele>21.2</ele>
        <time>2017-09-02T09:51:28Z</time>
      </trkpt>
      <trkpt lat="59.035921697293" lon="17.599587998917">
        <ele>22</ele>
        <time>2017-09-02T09:51:30Z</time>
      </trkpt>
      <trkpt lat="59.035840895777" lon="17.59952320683">
        <ele>22.4</ele>
        <time>2017-09-02T09:51:31Z</time>
      </trkpt>
      <trkpt lat="59.035758585519" lon="17.599461935141">
        <ele>22.6</ele>
        <time>2017-09-02T09:51:32Z</time>
      </trkpt>
      <trkpt lat="59.035595976659" lon="17.599336877193">
        <ele>23.4</ele>
        <time>2017-09-02T09:51:34Z</time>
      </trkpt>
      <trkpt lat="59.035515007505" lon="17.599272420382">
        <ele>23.6</ele>
        <time>2017-09-02T09:51:35Z</time>
      </trkpt>
      <trkpt lat="59.035432864885" lon="17.599207544476">
        <ele>23.6</ele>
        <time>2017-09-02T09:51:36Z</time>
      </trkpt>
      <trkpt lat="59.035267657636" lon="17.599077205931">
        <ele>23.8</ele>
        <time>2017-09-02T09:51:38Z</time>
      </trkpt>
      <trkpt lat="59.035099935817" lon="17.598946113015">
        <ele>24</ele>
        <time>2017-09-02T09:51:40Z</time>
      </trkpt>
      <trkpt lat="59.03493120817" lon="17.598817367031">
        <ele>24</ele>
        <time>2017-09-02T09:51:42Z</time>
      </trkpt>
      <trkpt lat="59.034758038116" lon="17.598680742061">
        <ele>24</ele>
        <time>2017-09-02T09:51:44Z</time>
      </trkpt>
      <trkpt lat="59.034579671284" lon="17.598541853978">
        <ele>24</ele>
        <time>2017-09-02T09:51:46Z</time>
      </trkpt>
      <trkpt lat="59.034397867873" lon="17.598399864592">
        <ele>24</ele>
        <time>2017-09-02T09:51:48Z</time>
      </trkpt>
      <trkpt lat="59.034213633711" lon="17.598255444455">
        <ele>24</ele>
        <time>2017-09-02T09:51:50Z</time>
      </trkpt>
      <trkpt lat="59.034026298246" lon="17.598106246635">
        <ele>24</ele>
        <time>2017-09-02T09:51:52Z</time>
      </trkpt>
      <trkpt lat="59.033834604193" lon="17.597961575041">
        <ele>23.6</ele>
        <time>2017-09-02T09:51:54Z</time>
      </trkpt>
      <trkpt lat="59.03363871919" lon="17.597813969782">
        <ele>23.2</ele>
        <time>2017-09-02T09:51:56Z</time>
      </trkpt>
      <trkpt lat="59.033442079816" lon="17.597665442514">
        <ele>22.2</ele>
        <time>2017-09-02T09:51:58Z</time>
      </trkpt>
      <trkpt lat="59.033244518433" lon="17.597525632422">
        <ele>21.6</ele>
        <time>2017-09-02T09:52:00Z</time>
      </trkpt>
      <trkpt lat="59.033052489104" lon="17.597395796791">
        <ele>21</ele>
        <time>2017-09-02T09:52:02Z</time>
      </trkpt>
      <trkpt lat="59.032867919666" lon="17.597281216218">
        <ele>20.6</ele>
        <time>2017-09-02T09:52:04Z</time>
      </trkpt>
      <trkpt lat="59.032690139567" lon="17.597182561255">
        <ele>20.6</ele>
        <time>2017-09-02T09:52:06Z</time>
      </trkpt>
      <trkpt lat="59.032513784391" lon="17.597086504681">
        <ele>20.6</ele>
        <time>2017-09-02T09:52:08Z</time>
      </trkpt>
      <trkpt lat="59.032335249921" lon="17.597001679853">
        <ele>20.6</ele>
        <time>2017-09-02T09:52:10Z</time>
      </trkpt>
      <trkpt lat="59.032153697967" lon="17.596915933016">
        <ele>20.6</ele>
        <time>2017-09-02T09:52:12Z</time>
      </trkpt>
      <trkpt lat="59.03196904471" lon="17.596835299138">
        <ele>21</ele>
        <time>2017-09-02T09:52:14Z</time>
      </trkpt>
      <trkpt lat="59.031783385625" lon="17.596762125151">
        <ele>21.4</ele>
        <time>2017-09-02T09:52:16Z</time>
      </trkpt>
      <trkpt lat="59.0316010793" lon="17.596686352775">
        <ele>22</ele>
        <time>2017-09-02T09:52:18Z</time>
      </trkpt>
      <trkpt lat="59.031511560608" lon="17.596648634225">
        <ele>22.2</ele>
        <time>2017-09-02T09:52:19Z</time>
      </trkpt>
      <trkpt lat="59.031420952269" lon="17.596614184616">
        <ele>22.4</ele>
        <time>2017-09-02T09:52:20Z</time>
      </trkpt>
      <trkpt lat="59.031238897401" lon="17.596543357561">
        <ele>22.8</ele>
        <time>2017-09-02T09:52:22Z</time>
      </trkpt>
      <trkpt lat="59.031058938008" lon="17.596470937945">
        <ele>23</ele>
        <time>2017-09-02T09:52:24Z</time>
      </trkpt>
      <trkpt lat="59.03096908404" lon="17.596436823612">
        <ele>23.2</ele>
        <time>2017-09-02T09:52:25Z</time>
      </trkpt>
      <trkpt lat="59.030880487357" lon="17.596401871089">
        <ele>23.4</ele>
        <time>2017-09-02T09:52:26Z</time>
      </trkpt>
      <trkpt lat="59.030704551276" lon="17.596330960215">
        <ele>23.8</ele>
        <time>2017-09-02T09:52:28Z</time>
      </trkpt>
      <trkpt lat="59.030528363738" lon="17.596263569739">
        <ele>24</ele>
        <time>2017-09-02T09:52:30Z</time>
      </trkpt>
      <trkpt lat="59.030351170372" lon="17.596195424892">
        <ele>24</ele>
        <time>2017-09-02T09:52:32Z</time>
      </trkpt>
      <trkpt lat="59.030174144644" lon="17.596126441855">
        <ele>24.2</ele>
        <time>2017-09-02T09:52:34Z</time>
      </trkpt>
      <trkpt lat="59.029998292382" lon="17.596055782438">
        <ele>24.4</ele>
        <time>2017-09-02T09:52:36Z</time>
      </trkpt>
      <trkpt lat="59.029822356301" lon="17.59598772141">
        <ele>24.4</ele>
        <time>2017-09-02T09:52:38Z</time>
      </trkpt>
      <trkpt lat="59.029644157107" lon="17.59591647526">
        <ele>24.6</ele>
        <time>2017-09-02T09:52:40Z</time>
      </trkpt>
      <trkpt lat="59.029464030076" lon="17.59584439092">
        <ele>24.6</ele>
        <time>2017-09-02T09:52:42Z</time>
      </trkpt>
      <trkpt lat="59.029280885561" lon="17.59577817391">
        <ele>24.6</ele>
        <time>2017-09-02T09:52:44Z</time>
      </trkpt>
      <trkpt lat="59.029096148485" lon="17.595713549461">
        <ele>24.8</ele>
        <time>2017-09-02T09:52:46Z</time>
      </trkpt>
      <trkpt lat="59.028909315934" lon="17.595655127618">
        <ele>24.8</ele>
        <time>2017-09-02T09:52:48Z</time>
      </trkpt>
      <trkpt lat="59.028719465899" lon="17.59560047763">
        <ele>24.8</ele>
        <time>2017-09-02T09:52:50Z</time>
      </trkpt>
      <trkpt lat="59.028528023303" lon="17.595546414375">
        <ele>24.8</ele>
        <time>2017-09-02T09:52:52Z</time>
      </trkpt>
      <trkpt lat="59.028333898499" lon="17.595490255645">
        <ele>24.8</ele>
        <time>2017-09-02T09:52:54Z</time>
      </trkpt>
      <trkpt lat="59.028138600229" lon="17.595435102743">
        <ele>24.8</ele>
        <time>2017-09-02T09:52:56Z</time>
      </trkpt>
      <trkpt lat="59.027942799045" lon="17.595384643705">
        <ele>24.6</ele>
        <time>2017-09-02T09:52:58Z</time>
      </trkpt>
      <trkpt lat="59.027749512431" lon="17.595332843563">
        <ele>24.4</ele>
        <time>2017-09-02T09:53:00Z</time>
      </trkpt>
      <trkpt lat="59.027562009328" lon="17.595276517195">
        <ele>23.6</ele>
        <time>2017-09-02T09:53:02Z</time>
      </trkpt>
      <trkpt lat="59.027372326931" lon="17.595221531931">
        <ele>23.4</ele>
        <time>2017-09-02T09:53:04Z</time>
      </trkpt>
      <trkpt lat="59.027177447756" lon="17.595165205563">
        <ele>23.2</ele>
        <time>2017-09-02T09:53:06Z</time>
      </trkpt>
      <trkpt lat="59.02698181421" lon="17.595108543919">
        <ele>23</ele>
        <time>2017-09-02T09:53:08Z</time>
      </trkpt>
      <trkpt lat="59.026791796537" lon="17.595057749605">
        <ele>23</ele>
        <time>2017-09-02T09:53:10Z</time>
      </trkpt>
      <trkpt lat="59.02660798147" lon="17.595006452377">
        <ele>23</ele>
        <time>2017-09-02T09:53:12Z</time>
      </trkpt>
      <trkpt lat="59.026428692629" lon="17.594958591728">
        <ele>22.8</ele>
        <time>2017-09-02T09:53:14Z</time>
      </trkpt>
      <trkpt lat="59.026250996349" lon="17.594913078011">
        <ele>22.8</ele>
        <time>2017-09-02T09:53:16Z</time>
      </trkpt>
      <trkpt lat="59.026075563182" lon="17.594864043896">
        <ele>22.8</ele>
        <time>2017-09-02T09:53:18Z</time>
      </trkpt>
      <trkpt lat="59.025901554938" lon="17.594818111084">
        <ele>23</ele>
        <time>2017-09-02T09:53:20Z</time>
      </trkpt>
      <trkpt lat="59.025728133427" lon="17.594770920987">
        <ele>23</ele>
        <time>2017-09-02T09:53:22Z</time>
      </trkpt>
      <trkpt lat="59.025553370812" lon="17.594720629587">
        <ele>23.4</ele>
        <time>2017-09-02T09:53:24Z</time>
      </trkpt>
      <trkpt lat="59.025379614025" lon="17.594666314875">
        <ele>23.4</ele>
        <time>2017-09-02T09:53:26Z</time>
      </trkpt>
      <trkpt lat="59.025203510306" lon="17.594609234136">
        <ele>23.6</ele>
        <time>2017-09-02T09:53:28Z</time>
      </trkpt>
      <trkpt lat="59.025026149302" lon="17.59455106375">
        <ele>23.6</ele>
        <time>2017-09-02T09:53:30Z</time>
      </trkpt>
      <trkpt lat="59.024847698651" lon="17.594482415989">
        <ele>23.6</ele>
        <time>2017-09-02T09:53:32Z</time>
      </trkpt>
      <trkpt lat="59.024668493629" lon="17.594398764627">
        <ele>23.6</ele>
        <time>2017-09-02T09:53:34Z</time>
      </trkpt>
      <trkpt lat="59.024489959159" lon="17.594310000306">
        <ele>23.6</ele>
        <time>2017-09-02T09:53:36Z</time>
      </trkpt>
      <trkpt lat="59.024309748309" lon="17.594217883225">
        <ele>23.4</ele>
        <time>2017-09-02T09:53:38Z</time>
      </trkpt>
      <trkpt lat="59.024130794744" lon="17.594113109475">
        <ele>23.4</ele>
        <time>2017-09-02T09:53:40Z</time>
      </trkpt>
      <trkpt lat="59.023955277758" lon="17.594003641861">
        <ele>23.4</ele>
        <time>2017-09-02T09:53:42Z</time>
      </trkpt>
      <trkpt lat="59.023780179867" lon="17.593887971641">
        <ele>23.2</ele>
        <time>2017-09-02T09:53:44Z</time>
      </trkpt>
      <trkpt lat="59.023604998157" lon="17.593767859014">
        <ele>23</ele>
        <time>2017-09-02T09:53:46Z</time>
      </trkpt>
      <trkpt lat="59.023431073732" lon="17.593635341175">
        <ele>22.8</ele>
        <time>2017-09-02T09:53:48Z</time>
      </trkpt>
      <trkpt lat="59.023255472927" lon="17.593506762829">
        <ele>22.8</ele>
        <time>2017-09-02T09:53:50Z</time>
      </trkpt>
      <trkpt lat="59.02308255433" lon="17.593369551126">
        <ele>22.8</ele>
        <time>2017-09-02T09:53:52Z</time>
      </trkpt>
      <trkpt lat="59.022911144475" lon="17.593236278916">
        <ele>22.8</ele>
        <time>2017-09-02T09:53:54Z</time>
      </trkpt>
      <trkpt lat="59.022740237534" lon="17.593100492136">
        <ele>22.8</ele>
        <time>2017-09-02T09:53:56Z</time>
      </trkpt>
      <trkpt lat="59.022568157127" lon="17.592957832198">
        <ele>22.8</ele>
        <time>2017-09-02T09:53:58Z</time>
      </trkpt>
      <trkpt lat="59.022394065064" lon="17.592816932459">
        <ele>22.8</ele>
        <time>2017-09-02T09:54:00Z</time>
      </trkpt>
      <trkpt lat="59.022220140639" lon="17.592676954729">
        <ele>22.8</ele>
        <time>2017-09-02T09:54:02Z</time>
      </trkpt>
      <trkpt lat="59.022045461843" lon="17.592539743026">
        <ele>22.8</ele>
        <time>2017-09-02T09:54:04Z</time>
      </trkpt>
      <trkpt lat="59.021871705056" lon="17.592399681477">
        <ele>22.8</ele>
        <time>2017-09-02T09:54:06Z</time>
      </trkpt>
      <trkpt lat="59.021700630477" lon="17.592259284652">
        <ele>22.8</ele>
        <time>2017-09-02T09:54:08Z</time>
      </trkpt>
      <trkpt lat="59.021532238106" lon="17.592123414053">
        <ele>22.8</ele>
        <time>2017-09-02T09:54:10Z</time>
      </trkpt>
      <trkpt lat="59.021365605934" lon="17.591986621445">
        <ele>22.8</ele>
        <time>2017-09-02T09:54:12Z</time>
      </trkpt>
      <trkpt lat="59.021201572151" lon="17.591853013959">
        <ele>22.8</ele>
        <time>2017-09-02T09:54:14Z</time>
      </trkpt>
      <trkpt lat="59.021039717662" lon="17.591727788373">
        <ele>22.8</ele>
        <time>2017-09-02T09:54:16Z</time>
      </trkpt>
      <trkpt lat="59.020882557037" lon="17.591607675746">
        <ele>23</ele>
        <time>2017-09-02T09:54:18Z</time>
      </trkpt>
      <trkpt lat="59.020730341733" lon="17.591493849544">
        <ele>23</ele>
        <time>2017-09-02T09:54:20Z</time>
      </trkpt>
      <trkpt lat="59.020575863316" lon="17.591385052482">
        <ele>23.6</ele>
        <time>2017-09-02T09:54:22Z</time>
      </trkpt>
      <trkpt lat="59.020414511741" lon="17.591286732795">
        <ele>24.2</ele>
        <time>2017-09-02T09:54:24Z</time>
      </trkpt>
      <trkpt lat="59.020331111836" lon="17.59124272782">
        <ele>24.2</ele>
        <time>2017-09-02T09:54:25Z</time>
      </trkpt>
      <trkpt lat="59.02024611937" lon="17.591200063949">
        <ele>24.4</ele>
        <time>2017-09-02T09:54:26Z</time>
      </trkpt>
      <trkpt lat="59.020073787506" lon="17.591126889962">
        <ele>25</ele>
        <time>2017-09-02T09:54:28Z</time>
      </trkpt>
      <trkpt lat="59.019899527805" lon="17.591064780083">
        <ele>25</ele>
        <time>2017-09-02T09:54:30Z</time>
      </trkpt>
      <trkpt lat="59.01972308881" lon="17.591012309389">
        <ele>25</ele>
        <time>2017-09-02T09:54:32Z</time>
      </trkpt>
      <trkpt lat="59.019540950123" lon="17.590975009934">
        <ele>25</ele>
        <time>2017-09-02T09:54:34Z</time>
      </trkpt>
      <trkpt lat="59.019351435364" lon="17.59094852313">
        <ele>25</ele>
        <time>2017-09-02T09:54:36Z</time>
      </trkpt>
      <trkpt lat="59.019151946144" lon="17.590939386859">
        <ele>25</ele>
        <time>2017-09-02T09:54:38Z</time>
      </trkpt>
      <trkpt lat="59.018946338137" lon="17.590944415999">
        <ele>24.6</ele>
        <time>2017-09-02T09:54:40Z</time>
      </trkpt>
      <trkpt lat="59.018730085117" lon="17.590974758477">
        <ele>24.4</ele>
        <time>2017-09-02T09:54:42Z</time>
      </trkpt>
      <trkpt lat="59.018504444369" lon="17.591029157008">
        <ele>23.8</ele>
        <time>2017-09-02T09:54:44Z</time>
      </trkpt>
      <trkpt lat="59.018273942119" lon="17.591109371791">
        <ele>23</ele>
        <time>2017-09-02T09:54:46Z</time>
      </trkpt>
      <trkpt lat="59.01804000329" lon="17.591213307351">
        <ele>22.2</ele>
        <time>2017-09-02T09:54:48Z</time>
      </trkpt>
      <trkpt lat="59.017922069957" lon="17.591273489393">
        <ele>21.4</ele>
        <time>2017-09-02T09:54:49Z</time>
      </trkpt>
      <trkpt lat="59.017805813004" lon="17.59133744329">
        <ele>20.8</ele>
        <time>2017-09-02T09:54:50Z</time>
      </trkpt>
      <trkpt lat="59.01769299263" lon="17.591406426327">
        <ele>19.2</ele>
        <time>2017-09-02T09:54:51Z</time>
      </trkpt>
      <trkpt lat="59.017583441197" lon="17.591479013581">
        <ele>18.4</ele>
        <time>2017-09-02T09:54:52Z</time>
      </trkpt>
      <trkpt lat="59.017477158705" lon="17.591556629975">
        <ele>17.8</ele>
        <time>2017-09-02T09:54:53Z</time>
      </trkpt>
      <trkpt lat="59.017375402439" lon="17.591637012396">
        <ele>17.2</ele>
        <time>2017-09-02T09:54:54Z</time>
      </trkpt>
      <trkpt lat="59.017277669485" lon="17.591720579939">
        <ele>16.6</ele>
        <time>2017-09-02T09:54:55Z</time>
      </trkpt>
      <trkpt lat="59.017183792205" lon="17.591805823862">
        <ele>16</ele>
        <time>2017-09-02T09:54:56Z</time>
      </trkpt>
      <trkpt lat="59.017003916631" lon="17.59197698226">
        <ele>15.4</ele>
        <time>2017-09-02T09:54:58Z</time>
      </trkpt>
      <trkpt lat="59.016829740749" lon="17.592148559753">
        <ele>15.4</ele>
        <time>2017-09-02T09:55:00Z</time>
      </trkpt>
      <trkpt lat="59.016661516016" lon="17.59230806731">
        <ele>15.4</ele>
        <time>2017-09-02T09:55:02Z</time>
      </trkpt>
      <trkpt lat="59.016507037599" lon="17.592460534071">
        <ele>15.2</ele>
        <time>2017-09-02T09:55:04Z</time>
      </trkpt>
      <trkpt lat="59.016365634946" lon="17.592600260344">
        <ele>15.2</ele>
        <time>2017-09-02T09:55:06Z</time>
      </trkpt>
      <trkpt lat="59.01623202746" lon="17.592734622201">
        <ele>15.6</ele>
        <time>2017-09-02T09:55:08Z</time>
      </trkpt>
      <trkpt lat="59.016095821585" lon="17.592862697633">
        <ele>16</ele>
        <time>2017-09-02T09:55:10Z</time>
      </trkpt>
      <trkpt lat="59.015965315402" lon="17.592988761409">
        <ele>16.8</ele>
        <time>2017-09-02T09:55:12Z</time>
      </trkpt>
      <trkpt lat="59.015841011825" lon="17.59311021514">
        <ele>17.4</ele>
        <time>2017-09-02T09:55:14Z</time>
      </trkpt>
      <trkpt lat="59.015777393204" lon="17.593167714974">
        <ele>17.8</ele>
        <time>2017-09-02T09:55:15Z</time>
      </trkpt>
      <trkpt lat="59.015712936393" lon="17.593227897016">
        <ele>18</ele>
        <time>2017-09-02T09:55:16Z</time>
      </trkpt>
      <trkpt lat="59.015581843477" lon="17.593359492846">
        <ele>18.4</ele>
        <time>2017-09-02T09:55:18Z</time>
      </trkpt>
      <trkpt lat="59.015445721421" lon="17.593493519427">
        <ele>19.2</ele>
        <time>2017-09-02T09:55:20Z</time>
      </trkpt>
      <trkpt lat="59.015299457266" lon="17.593619331746">
        <ele>19.8</ele>
        <time>2017-09-02T09:55:22Z</time>
      </trkpt>
      <trkpt lat="59.015154282758" lon="17.593745060246">
        <ele>20.4</ele>
        <time>2017-09-02T09:55:24Z</time>
      </trkpt>
      <trkpt lat="59.015007683327" lon="17.593866513977">
        <ele>21</ele>
        <time>2017-09-02T09:55:26Z</time>
      </trkpt>
      <trkpt lat="59.014856641489" lon="17.593988973536">
        <ele>21.2</ele>
        <time>2017-09-02T09:55:28Z</time>
      </trkpt>
      <trkpt lat="59.01469897795" lon="17.594106487774">
        <ele>21.4</ele>
        <time>2017-09-02T09:55:30Z</time>
      </trkpt>
      <trkpt lat="59.014538548384" lon="17.594216290664">
        <ele>21.4</ele>
        <time>2017-09-02T09:55:32Z</time>
      </trkpt>
      <trkpt lat="59.014375101334" lon="17.594320142405">
        <ele>21.6</ele>
        <time>2017-09-02T09:55:34Z</time>
      </trkpt>
      <trkpt lat="59.014206625144" lon="17.594422401585">
        <ele>21.6</ele>
        <time>2017-09-02T09:55:36Z</time>
      </trkpt>
      <trkpt lat="59.014028845045" lon="17.594516614141">
        <ele>21.6</ele>
        <time>2017-09-02T09:55:38Z</time>
      </trkpt>
      <trkpt lat="59.013842599227" lon="17.594604372634">
        <ele>21.6</ele>
        <time>2017-09-02T09:55:40Z</time>
      </trkpt>
      <trkpt lat="59.013650821355" lon="17.594699842475">
        <ele>21.6</ele>
        <time>2017-09-02T09:55:42Z</time>
      </trkpt>
      <trkpt lat="59.013454014343" lon="17.59478575695">
        <ele>21.6</ele>
        <time>2017-09-02T09:55:44Z</time>
      </trkpt>
      <trkpt lat="59.013249663621" lon="17.59486789957">
        <ele>21.2</ele>
        <time>2017-09-02T09:55:46Z</time>
      </trkpt>
      <trkpt lat="59.01303684718" lon="17.594945599783">
        <ele>20.4</ele>
        <time>2017-09-02T09:55:48Z</time>
      </trkpt>
      <trkpt lat="59.012821935264" lon="17.59502296472">
        <ele>19.4</ele>
        <time>2017-09-02T09:55:50Z</time>
      </trkpt>
      <trkpt lat="59.012715904229" lon="17.595061605279">
        <ele>19.2</ele>
        <time>2017-09-02T09:55:51Z</time>
      </trkpt>
      <trkpt lat="59.012610376108" lon="17.59509924001">
        <ele>19</ele>
        <time>2017-09-02T09:55:52Z</time>
      </trkpt>
      <trkpt lat="59.012403259359" lon="17.595173168368">
        <ele>18.4</ele>
        <time>2017-09-02T09:55:54Z</time>
      </trkpt>
      <trkpt lat="59.01230175455" lon="17.595210551642">
        <ele>18</ele>
        <time>2017-09-02T09:55:55Z</time>
      </trkpt>
      <trkpt lat="59.012201842302" lon="17.595246426174">
        <ele>17.8</ele>
        <time>2017-09-02T09:55:56Z</time>
      </trkpt>
      <trkpt lat="59.01200754986" lon="17.595314906297">
        <ele>17.6</ele>
        <time>2017-09-02T09:55:58Z</time>
      </trkpt>
      <trkpt lat="59.011819208567" lon="17.595379530746">
        <ele>17.2</ele>
        <time>2017-09-02T09:56:00Z</time>
      </trkpt>
      <trkpt lat="59.011725666563" lon="17.595412639251">
        <ele>16.8</ele>
        <time>2017-09-02T09:56:01Z</time>
      </trkpt>
      <trkpt lat="59.011633465663" lon="17.595446166851">
        <ele>16.6</ele>
        <time>2017-09-02T09:56:02Z</time>
      </trkpt>
      <trkpt lat="59.011452332804" lon="17.595514898431">
        <ele>16.6</ele>
        <time>2017-09-02T09:56:04Z</time>
      </trkpt>
      <trkpt lat="59.011268350099" lon="17.595579187604">
        <ele>16.6</ele>
        <time>2017-09-02T09:56:06Z</time>
      </trkpt>
      <trkpt lat="59.011080008806" lon="17.595644734062">
        <ele>16.6</ele>
        <time>2017-09-02T09:56:08Z</time>
      </trkpt>
      <trkpt lat="59.010889236762" lon="17.59571447147">
        <ele>16.6</ele>
        <time>2017-09-02T09:56:10Z</time>
      </trkpt>
      <trkpt lat="59.010696955976" lon="17.595793093692">
        <ele>16.6</ele>
        <time>2017-09-02T09:56:12Z</time>
      </trkpt>
      <trkpt lat="59.010498975498" lon="17.595866267679">
        <ele>16.6</ele>
        <time>2017-09-02T09:56:14Z</time>
      </trkpt>
      <trkpt lat="59.010299989192" lon="17.595939525485">
        <ele>16.8</ele>
        <time>2017-09-02T09:56:16Z</time>
      </trkpt>
      <trkpt lat="59.010100416153" lon="17.596015046404">
        <ele>16.8</ele>
        <time>2017-09-02T09:56:18Z</time>
      </trkpt>
      <trkpt lat="59.00989950201" lon="17.596087968934">
        <ele>16.8</ele>
        <time>2017-09-02T09:56:20Z</time>
      </trkpt>
      <trkpt lat="59.009695989478" lon="17.596161059102">
        <ele>16.8</ele>
        <time>2017-09-02T09:56:22Z</time>
      </trkpt>
      <trkpt lat="59.009491554937" lon="17.59623582565">
        <ele>16.6</ele>
        <time>2017-09-02T09:56:24Z</time>
      </trkpt>
      <trkpt lat="59.009287874767" lon="17.596312520035">
        <ele>16.6</ele>
        <time>2017-09-02T09:56:26Z</time>
      </trkpt>
      <trkpt lat="59.009084529873" lon="17.59638083252">
        <ele>16.4</ele>
        <time>2017-09-02T09:56:28Z</time>
      </trkpt>
      <trkpt lat="59.008882274626" lon="17.596439086725">
        <ele>16</ele>
        <time>2017-09-02T09:56:30Z</time>
      </trkpt>
      <trkpt lat="59.008782027102" lon="17.596467417547">
        <ele>15.8</ele>
        <time>2017-09-02T09:56:31Z</time>
      </trkpt>
      <trkpt lat="59.008682198673" lon="17.59649314998">
        <ele>15.4</ele>
        <time>2017-09-02T09:56:32Z</time>
      </trkpt>
      <trkpt lat="59.008478350865" lon="17.59652919215">
        <ele>14.6</ele>
        <time>2017-09-02T09:56:34Z</time>
      </trkpt>
      <trkpt lat="59.008271317935" lon="17.596552242375">
        <ele>14.4</ele>
        <time>2017-09-02T09:56:36Z</time>
      </trkpt>
      <trkpt lat="59.008063446815" lon="17.596566743062">
        <ele>14.2</ele>
        <time>2017-09-02T09:56:38Z</time>
      </trkpt>
      <trkpt lat="59.007860269559" lon="17.596575963152">
        <ele>14</ele>
        <time>2017-09-02T09:56:40Z</time>
      </trkpt>
      <trkpt lat="59.007663630185" lon="17.596573783858">
        <ele>14</ele>
        <time>2017-09-02T09:56:42Z</time>
      </trkpt>
      <trkpt lat="59.00747461834" lon="17.596563390302">
        <ele>14</ele>
        <time>2017-09-02T09:56:44Z</time>
      </trkpt>
      <trkpt lat="59.007290467997" lon="17.596546961778">
        <ele>14</ele>
        <time>2017-09-02T09:56:46Z</time>
      </trkpt>
      <trkpt lat="59.007110592423" lon="17.596530700892">
        <ele>14</ele>
        <time>2017-09-02T09:56:48Z</time>
      </trkpt>
      <trkpt lat="59.00693733855" lon="17.59651494292">
        <ele>14.2</ele>
        <time>2017-09-02T09:56:50Z</time>
      </trkpt>
      <trkpt lat="59.006767688894" lon="17.596500609871">
        <ele>14.2</ele>
        <time>2017-09-02T09:56:52Z</time>
      </trkpt>
      <trkpt lat="59.006598206876" lon="17.596496670378">
        <ele>14.4</ele>
        <time>2017-09-02T09:56:54Z</time>
      </trkpt>
      <trkpt lat="59.006428221944" lon="17.596493820532">
        <ele>14.8</ele>
        <time>2017-09-02T09:56:56Z</time>
      </trkpt>
      <trkpt lat="59.006258656107" lon="17.596496754197">
        <ele>15.2</ele>
        <time>2017-09-02T09:56:58Z</time>
      </trkpt>
      <trkpt lat="59.006092107754" lon="17.596499352586">
        <ele>15.8</ele>
        <time>2017-09-02T09:57:00Z</time>
      </trkpt>
      <trkpt lat="59.005928744523" lon="17.596496167464">
        <ele>16</ele>
        <time>2017-09-02T09:57:02Z</time>
      </trkpt>
      <trkpt lat="59.005768566414" lon="17.596482002053">
        <ele>16</ele>
        <time>2017-09-02T09:57:04Z</time>
      </trkpt>
      <trkpt lat="59.005610735237" lon="17.596476553818">
        <ele>16</ele>
        <time>2017-09-02T09:57:06Z</time>
      </trkpt>
      <trkpt lat="59.005532951205" lon="17.596493317618">
        <ele>16</ele>
        <time>2017-09-02T09:57:07Z</time>
      </trkpt>
      <trkpt lat="59.005462207969" lon="17.596551990918">
        <ele>16</ele>
        <time>2017-09-02T09:57:08Z</time>
      </trkpt>
      <trkpt lat="59.005370845259" lon="17.596805040479">
        <ele>16</ele>
        <time>2017-09-02T09:57:10Z</time>
      </trkpt>
      <trkpt lat="59.005342682075" lon="17.596954573575">
        <ele>16</ele>
        <time>2017-09-02T09:57:11Z</time>
      </trkpt>
      <trkpt lat="59.005307142819" lon="17.597098239341">
        <ele>16</ele>
        <time>2017-09-02T09:57:12Z</time>
      </trkpt>
      <trkpt lat="59.005207649666" lon="17.597355982766">
        <ele>16</ele>
        <time>2017-09-02T09:57:14Z</time>
      </trkpt>
      <trkpt lat="59.005078065492" lon="17.59756016585">
        <ele>15.8</ele>
        <time>2017-09-02T09:57:16Z</time>
      </trkpt>
      <trkpt lat="59.005004556229" lon="17.597643062841">
        <ele>15.6</ele>
        <time>2017-09-02T09:57:17Z</time>
      </trkpt>
      <trkpt lat="59.004926436921" lon="17.597718835217">
        <ele>15.6</ele>
        <time>2017-09-02T09:57:18Z</time>
      </trkpt>
      <trkpt lat="59.004760223844" lon="17.597845318088">
        <ele>15.6</ele>
        <time>2017-09-02T09:57:20Z</time>
      </trkpt>
      <trkpt lat="59.004589735998" lon="17.597965179258">
        <ele>15.4</ele>
        <time>2017-09-02T09:57:22Z</time>
      </trkpt>
      <trkpt lat="59.004419918704" lon="17.598095601622">
        <ele>15.4</ele>
        <time>2017-09-02T09:57:24Z</time>
      </trkpt>
      <trkpt lat="59.004252364523" lon="17.598250247677">
        <ele>15.4</ele>
        <time>2017-09-02T09:57:26Z</time>
      </trkpt>
      <trkpt lat="59.004090258577" lon="17.598441271178">
        <ele>15.4</ele>
        <time>2017-09-02T09:57:28Z</time>
      </trkpt>
      <trkpt lat="59.003939719653" lon="17.598662720976">
        <ele>15.4</ele>
        <time>2017-09-02T09:57:30Z</time>
      </trkpt>
      <trkpt lat="59.003801585941" lon="17.598906969542">
        <ele>15.4</ele>
        <time>2017-09-02T09:57:32Z</time>
      </trkpt>
      <trkpt lat="59.003673091414" lon="17.599160522017">
        <ele>15.6</ele>
        <time>2017-09-02T09:57:34Z</time>
      </trkpt>
      <trkpt lat="59.003549039294" lon="17.599404267669">
        <ele>15.4</ele>
        <time>2017-09-02T09:57:36Z</time>
      </trkpt>
      <trkpt lat="59.003419371301" lon="17.599645331113">
        <ele>15.4</ele>
        <time>2017-09-02T09:57:38Z</time>
      </trkpt>
      <trkpt lat="59.003289032756" lon="17.599894860276">
        <ele>15.4</ele>
        <time>2017-09-02T09:57:40Z</time>
      </trkpt>
      <trkpt lat="59.003153916528" lon="17.60015184933">
        <ele>15.6</ele>
        <time>2017-09-02T09:57:42Z</time>
      </trkpt>
      <trkpt lat="59.003016788644" lon="17.600412191144">
        <ele>15.8</ele>
        <time>2017-09-02T09:57:44Z</time>
      </trkpt>
      <trkpt lat="59.002881672416" lon="17.600673622605">
        <ele>15.8</ele>
        <time>2017-09-02T09:57:46Z</time>
      </trkpt>
      <trkpt lat="59.002747562016" lon="17.600931282211">
        <ele>16</ele>
        <time>2017-09-02T09:57:48Z</time>
      </trkpt>
      <trkpt lat="59.002614960358" lon="17.601181314288">
        <ele>16.2</ele>
        <time>2017-09-02T09:57:50Z</time>
      </trkpt>
      <trkpt lat="59.00248654965" lon="17.601429837623">
        <ele>16.2</ele>
        <time>2017-09-02T09:57:52Z</time>
      </trkpt>
      <trkpt lat="59.002357049295" lon="17.601680372614">
        <ele>16.2</ele>
        <time>2017-09-02T09:57:54Z</time>
      </trkpt>
      <trkpt lat="59.002232661899" lon="17.601915904004">
        <ele>16.2</ele>
        <time>2017-09-02T09:57:56Z</time>
      </trkpt>
      <trkpt lat="59.002109028874" lon="17.602142131485">
        <ele>16.4</ele>
        <time>2017-09-02T09:57:58Z</time>
      </trkpt>
      <trkpt lat="59.00198195927" lon="17.60237472921">
        <ele>16.6</ele>
        <time>2017-09-02T09:58:00Z</time>
      </trkpt>
      <trkpt lat="59.00185120163" lon="17.602603052166">
        <ele>16.8</ele>
        <time>2017-09-02T09:58:02Z</time>
      </trkpt>
      <trkpt lat="59.001718935248" lon="17.602813354037">
        <ele>17</ele>
        <time>2017-09-02T09:58:04Z</time>
      </trkpt>
      <trkpt lat="59.001583735201" lon="17.603006808289">
        <ele>17.4</ele>
        <time>2017-09-02T09:58:06Z</time>
      </trkpt>
      <trkpt lat="59.001438225417" lon="17.603193808478">
        <ele>17.8</ele>
        <time>2017-09-02T09:58:08Z</time>
      </trkpt>
      <trkpt lat="59.001363961783" lon="17.603283410989">
        <ele>18</ele>
        <time>2017-09-02T09:58:09Z</time>
      </trkpt>
      <trkpt lat="59.001289111416" lon="17.603371253301">
        <ele>18.2</ele>
        <time>2017-09-02T09:58:10Z</time>
      </trkpt>
      <trkpt lat="59.001139913596" lon="17.603543668984">
        <ele>18.4</ele>
        <time>2017-09-02T09:58:12Z</time>
      </trkpt>
      <trkpt lat="59.001062381021" lon="17.603631678934">
        <ele>19.4</ele>
        <time>2017-09-02T09:58:13Z</time>
      </trkpt>
      <trkpt lat="59.000985938093" lon="17.603718012504">
        <ele>19.6</ele>
        <time>2017-09-02T09:58:14Z</time>
      </trkpt>
      <trkpt lat="59.000830034753" lon="17.603888081255">
        <ele>20</ele>
        <time>2017-09-02T09:58:16Z</time>
      </trkpt>
      <trkpt lat="59.000674299051" lon="17.604062173318">
        <ele>20.4</ele>
        <time>2017-09-02T09:58:18Z</time>
      </trkpt>
      <trkpt lat="59.000514120942" lon="17.60424054015">
        <ele>20.6</ele>
        <time>2017-09-02T09:58:20Z</time>
      </trkpt>
      <trkpt lat="59.000349919521" lon="17.604432569479">
        <ele>20.6</ele>
        <time>2017-09-02T09:58:22Z</time>
      </trkpt>
      <trkpt lat="59.000183957901" lon="17.604646727024">
        <ele>20.6</ele>
        <time>2017-09-02T09:58:24Z</time>
      </trkpt>
      <trkpt lat="59.00002394743" lon="17.604882258414">
        <ele>20.6</ele>
        <time>2017-09-02T09:58:26Z</time>
      </trkpt>
      <trkpt lat="58.999867624995" lon="17.605132039034">
        <ele>20.6</ele>
        <time>2017-09-02T09:58:28Z</time>
      </trkpt>
      <trkpt lat="58.999717756623" lon="17.605389782459">
        <ele>19.8</ele>
        <time>2017-09-02T09:58:30Z</time>
      </trkpt>
      <trkpt lat="58.999644331179" lon="17.605518696081">
        <ele>19.2</ele>
        <time>2017-09-02T09:58:31Z</time>
      </trkpt>
      <trkpt lat="58.99957132483" lon="17.605649621359">
        <ele>18.4</ele>
        <time>2017-09-02T09:58:32Z</time>
      </trkpt>
      <trkpt lat="58.999498234662" lon="17.605779792266">
        <ele>18</ele>
        <time>2017-09-02T09:58:33Z</time>
      </trkpt>
      <trkpt lat="58.999423468114" lon="17.605909795535">
        <ele>17.6</ele>
        <time>2017-09-02T09:58:34Z</time>
      </trkpt>
      <trkpt lat="58.999274437932" lon="17.606163934743">
        <ele>17.4</ele>
        <time>2017-09-02T09:58:36Z</time>
      </trkpt>
      <trkpt lat="58.999126748854" lon="17.606415978476">
        <ele>17</ele>
        <time>2017-09-02T09:58:38Z</time>
      </trkpt>
      <trkpt lat="58.998981322889" lon="17.60666458563">
        <ele>16.6</ele>
        <time>2017-09-02T09:58:40Z</time>
      </trkpt>
      <trkpt lat="58.998840926064" lon="17.6069017934">
        <ele>16.4</ele>
        <time>2017-09-02T09:58:42Z</time>
      </trkpt>
      <trkpt lat="58.99870715094" lon="17.607129278166">
        <ele>16.4</ele>
        <time>2017-09-02T09:58:44Z</time>
      </trkpt>
      <trkpt lat="58.998578572594" lon="17.60734268134">
        <ele>16.4</ele>
        <time>2017-09-02T09:58:46Z</time>
      </trkpt>
      <trkpt lat="58.998454101379" lon="17.607545104225">
        <ele>16.4</ele>
        <time>2017-09-02T09:58:48Z</time>
      </trkpt>
      <trkpt lat="58.998332228553" lon="17.607743252341">
        <ele>16.4</ele>
        <time>2017-09-02T09:58:50Z</time>
      </trkpt>
      <trkpt lat="58.998208595528" lon="17.607944082665">
        <ele>16.4</ele>
        <time>2017-09-02T09:58:52Z</time>
      </trkpt>
      <trkpt lat="58.998080017182" lon="17.608147259921">
        <ele>16.6</ele>
        <time>2017-09-02T09:58:54Z</time>
      </trkpt>
      <trkpt lat="58.99794691261" lon="17.608356304507">
        <ele>17</ele>
        <time>2017-09-02T09:58:56Z</time>
      </trkpt>
      <trkpt lat="58.997810958192" lon="17.608568366577">
        <ele>17.2</ele>
        <time>2017-09-02T09:58:58Z</time>
      </trkpt>
      <trkpt lat="58.997670226091" lon="17.608782021208">
        <ele>17.4</ele>
        <time>2017-09-02T09:59:00Z</time>
      </trkpt>
      <trkpt lat="58.997528404343" lon="17.608994250916">
        <ele>17.4</ele>
        <time>2017-09-02T09:59:02Z</time>
      </trkpt>
      <trkpt lat="58.997388929527" lon="17.609203211683">
        <ele>17.6</ele>
        <time>2017-09-02T09:59:04Z</time>
      </trkpt>
      <trkpt lat="58.997251885462" lon="17.609413513554">
        <ele>17.6</ele>
        <time>2017-09-02T09:59:06Z</time>
      </trkpt>
      <trkpt lat="58.997114338483" lon="17.609623228692">
        <ele>17.6</ele>
        <time>2017-09-02T09:59:08Z</time>
      </trkpt>
      <trkpt lat="58.996971678545" lon="17.609835709857">
        <ele>17.6</ele>
        <time>2017-09-02T09:59:10Z</time>
      </trkpt>
      <trkpt lat="58.99682709077" lon="17.610054393628">
        <ele>17.8</ele>
        <time>2017-09-02T09:59:12Z</time>
      </trkpt>
      <trkpt lat="58.996679736968" lon="17.610276178702">
        <ele>17.8</ele>
        <time>2017-09-02T09:59:14Z</time>
      </trkpt>
      <trkpt lat="58.996530958243" lon="17.61049846669">
        <ele>17.8</ele>
        <time>2017-09-02T09:59:16Z</time>
      </trkpt>
      <trkpt lat="58.996382514794" lon="17.610724358895">
        <ele>17.8</ele>
        <time>2017-09-02T09:59:18Z</time>
      </trkpt>
      <trkpt lat="58.996232311146" lon="17.610950670195">
        <ele>17.8</ele>
        <time>2017-09-02T09:59:20Z</time>
      </trkpt>
      <trkpt lat="58.996081520765" lon="17.611178071142">
        <ele>17.8</ele>
        <time>2017-09-02T09:59:22Z</time>
      </trkpt>
      <trkpt lat="58.995928886366" lon="17.611407819021">
        <ele>17.8</ele>
        <time>2017-09-02T09:59:24Z</time>
      </trkpt>
      <trkpt lat="58.99577600051" lon="17.611642679859">
        <ele>17.8</ele>
        <time>2017-09-02T09:59:26Z</time>
      </trkpt>
      <trkpt lat="58.995622444102" lon="17.611888688624">
        <ele>17.6</ele>
        <time>2017-09-02T09:59:28Z</time>
      </trkpt>
      <trkpt lat="58.995471150807" lon="17.612152718474">
        <ele>17.6</ele>
        <time>2017-09-02T09:59:30Z</time>
      </trkpt>
      <trkpt lat="58.995323797005" lon="17.612438708902">
        <ele>17.4</ele>
        <time>2017-09-02T09:59:32Z</time>
      </trkpt>
      <trkpt lat="58.995179125411" lon="17.612746743727">
        <ele>17</ele>
        <time>2017-09-02T09:59:34Z</time>
      </trkpt>
      <trkpt lat="58.995034621455" lon="17.61307338637">
        <ele>16.8</ele>
        <time>2017-09-02T09:59:36Z</time>
      </trkpt>
      <trkpt lat="58.994884333988" lon="17.613418972107">
        <ele>16.4</ele>
        <time>2017-09-02T09:59:38Z</time>
      </trkpt>
      <trkpt lat="58.994726838087" lon="17.613771347183">
        <ele>15.6</ele>
        <time>2017-09-02T09:59:40Z</time>
      </trkpt>
      <trkpt lat="58.994646874761" lon="17.613948289092">
        <ele>14.4</ele>
        <time>2017-09-02T09:59:41Z</time>
      </trkpt>
      <trkpt lat="58.994564313046" lon="17.614122967888">
        <ele>13.6</ele>
        <time>2017-09-02T09:59:42Z</time>
      </trkpt>
      <trkpt lat="58.994478398571" lon="17.614295048295">
        <ele>12.8</ele>
        <time>2017-09-02T09:59:43Z</time>
      </trkpt>
      <trkpt lat="58.994388460784" lon="17.614464362675">
        <ele>12</ele>
        <time>2017-09-02T09:59:44Z</time>
      </trkpt>
      <trkpt lat="58.99429575697" lon="17.614630408114">
        <ele>11.6</ele>
        <time>2017-09-02T09:59:45Z</time>
      </trkpt>
      <trkpt lat="58.994200538586" lon="17.614794106621">
        <ele>10.8</ele>
        <time>2017-09-02T09:59:46Z</time>
      </trkpt>
      <trkpt lat="58.994102386537" lon="17.614954871463">
        <ele>10.2</ele>
        <time>2017-09-02T09:59:47Z</time>
      </trkpt>
      <trkpt lat="58.994001468461" lon="17.615112199726">
        <ele>9.8</ele>
        <time>2017-09-02T09:59:48Z</time>
      </trkpt>
      <trkpt lat="58.993789238753" lon="17.615412020289">
        <ele>8.8</ele>
        <time>2017-09-02T09:59:50Z</time>
      </trkpt>
      <trkpt lat="58.993563514186" lon="17.615683090935">
        <ele>7.6</ele>
        <time>2017-09-02T09:59:52Z</time>
      </trkpt>
      <trkpt lat="58.993327815158" lon="17.615931278994">
        <ele>5.8</ele>
        <time>2017-09-02T09:59:54Z</time>
      </trkpt>
      <trkpt lat="58.993086081162" lon="17.616160607778">
        <ele>4.8</ele>
        <time>2017-09-02T09:59:56Z</time>
      </trkpt>
      <trkpt lat="58.992963956879" lon="17.616269572478">
        <ele>4.4</ele>
        <time>2017-09-02T09:59:57Z</time>
      </trkpt>
      <trkpt lat="58.992841664958" lon="17.616376944617">
        <ele>3.8</ele>
        <time>2017-09-02T09:59:58Z</time>
      </trkpt>
      <trkpt lat="58.992598170763" lon="17.61658959342">
        <ele>3</ele>
        <time>2017-09-02T10:00:00Z</time>
      </trkpt>
      <trkpt lat="58.992357945509" lon="17.616801571671">
        <ele>2.2</ele>
        <time>2017-09-02T10:00:02Z</time>
      </trkpt>
      <trkpt lat="58.992239509262" lon="17.616908608534">
        <ele>1.8</ele>
        <time>2017-09-02T10:00:03Z</time>
      </trkpt>
      <trkpt lat="58.992122917033" lon="17.617016818863">
        <ele>1.4</ele>
        <time>2017-09-02T10:00:04Z</time>
      </trkpt>
      <trkpt lat="58.991893755887" lon="17.617232149874">
        <ele>0.8</ele>
        <time>2017-09-02T10:00:06Z</time>
      </trkpt>
      <trkpt lat="58.991677083772" lon="17.617461143382">
        <ele>0.2</ele>
        <time>2017-09-02T10:00:08Z</time>
      </trkpt>
      <trkpt lat="58.991474744706" lon="17.61770019517">
        <ele>0</ele>
        <time>2017-09-02T10:00:10Z</time>
      </trkpt>
      <trkpt lat="58.991289756173" lon="17.617938073492">
        <ele>0</ele>
        <time>2017-09-02T10:00:12Z</time>
      </trkpt>
      <trkpt lat="58.991122788725" lon="17.618184166076">
        <ele>0</ele>
        <time>2017-09-02T10:00:14Z</time>
      </trkpt>
      <trkpt lat="58.990972836534" lon="17.618428833737">
        <ele>0</ele>
        <time>2017-09-02T10:00:16Z</time>
      </trkpt>
      <trkpt lat="58.990832020614" lon="17.61868506842">
        <ele>0</ele>
        <time>2017-09-02T10:00:18Z</time>
      </trkpt>
      <trkpt lat="58.990693132531" lon="17.618950020279">
        <ele>0.4</ele>
        <time>2017-09-02T10:00:20Z</time>
      </trkpt>
      <trkpt lat="58.990561285244" lon="17.619233328499">
        <ele>0.8</ele>
        <time>2017-09-02T10:00:22Z</time>
      </trkpt>
      <trkpt lat="58.990434550916" lon="17.619533149062">
        <ele>1.6</ele>
        <time>2017-09-02T10:00:24Z</time>
      </trkpt>
      <trkpt lat="58.990372273399" lon="17.619684107081">
        <ele>1.8</ele>
        <time>2017-09-02T10:00:25Z</time>
      </trkpt>
      <trkpt lat="58.990311336986" lon="17.619835316557">
        <ele>2</ele>
        <time>2017-09-02T10:00:26Z</time>
      </trkpt>
      <trkpt lat="58.990194828576" lon="17.620131029989">
        <ele>2.2</ele>
        <time>2017-09-02T10:00:28Z</time>
      </trkpt>
      <trkpt lat="58.990082343478" lon="17.620416685141">
        <ele>2.6</ele>
        <time>2017-09-02T10:00:30Z</time>
      </trkpt>
      <trkpt lat="58.989967930543" lon="17.620700412456">
        <ele>2.8</ele>
        <time>2017-09-02T10:00:32Z</time>
      </trkpt>
      <trkpt lat="58.989853685246" lon="17.620988582178">
        <ele>3</ele>
        <time>2017-09-02T10:00:34Z</time>
      </trkpt>
      <trkpt lat="58.989737428293" lon="17.621279182651">
        <ele>3.6</ele>
        <time>2017-09-02T10:00:36Z</time>
      </trkpt>
      <trkpt lat="58.989620416969" lon="17.621576237187">
        <ele>4</ele>
        <time>2017-09-02T10:00:38Z</time>
      </trkpt>
      <trkpt lat="58.989500220523" lon="17.621878237044">
        <ele>4.2</ele>
        <time>2017-09-02T10:00:40Z</time>
      </trkpt>
      <trkpt lat="58.989377593326" lon="17.622188115887">
        <ele>4.2</ele>
        <time>2017-09-02T10:00:42Z</time>
      </trkpt>
      <trkpt lat="58.989250439903" lon="17.622503107689">
        <ele>4.2</ele>
        <time>2017-09-02T10:00:44Z</time>
      </trkpt>
      <trkpt lat="58.9891216101" lon="17.622822625717">
        <ele>4.2</ele>
        <time>2017-09-02T10:00:46Z</time>
      </trkpt>
      <trkpt lat="58.988989092261" lon="17.623147424342">
        <ele>4.2</ele>
        <time>2017-09-02T10:00:48Z</time>
      </trkpt>
      <trkpt lat="58.988853640757" lon="17.623483957627">
        <ele>3.8</ele>
        <time>2017-09-02T10:00:50Z</time>
      </trkpt>
      <trkpt lat="58.98871424976" lon="17.623831890296">
        <ele>3.4</ele>
        <time>2017-09-02T10:00:52Z</time>
      </trkpt>
      <trkpt lat="58.988572847107" lon="17.624182253716">
        <ele>3.2</ele>
        <time>2017-09-02T10:00:54Z</time>
      </trkpt>
      <trkpt lat="58.988436054499" lon="17.624533203869">
        <ele>2.6</ele>
        <time>2017-09-02T10:00:56Z</time>
      </trkpt>
      <trkpt lat="58.988304291031" lon="17.624883651108">
        <ele>1.6</ele>
        <time>2017-09-02T10:00:58Z</time>
      </trkpt>
      <trkpt lat="58.988185519508" lon="17.625238792211">
        <ele>0.6</ele>
        <time>2017-09-02T10:01:00Z</time>
      </trkpt>
      <trkpt lat="58.988130534244" lon="17.625414560654">
        <ele>0.2</ele>
        <time>2017-09-02T10:01:01Z</time>
      </trkpt>
      <trkpt lat="58.988077895912" lon="17.62558840126">
        <ele>0</ele>
        <time>2017-09-02T10:01:02Z</time>
      </trkpt>
      <trkpt lat="58.987978402759" lon="17.625931723884">
        <ele>0</ele>
        <time>2017-09-02T10:01:04Z</time>
      </trkpt>
      <trkpt lat="58.987886620954" lon="17.626282674037">
        <ele>0</ele>
        <time>2017-09-02T10:01:06Z</time>
      </trkpt>
      <trkpt lat="58.98779643171" lon="17.626635971122">
        <ele>0</ele>
        <time>2017-09-02T10:01:08Z</time>
      </trkpt>
      <trkpt lat="58.987712193615" lon="17.626990190216">
        <ele>0</ele>
        <time>2017-09-02T10:01:10Z</time>
      </trkpt>
      <trkpt lat="58.987637427067" lon="17.627344157853">
        <ele>0</ele>
        <time>2017-09-02T10:01:12Z</time>
      </trkpt>
      <trkpt lat="58.98756341489" lon="17.627701562069">
        <ele>0</ele>
        <time>2017-09-02T10:01:14Z</time>
      </trkpt>
      <trkpt lat="58.987486385229" lon="17.62806692909">
        <ele>0</ele>
        <time>2017-09-02T10:01:16Z</time>
      </trkpt>
      <trkpt lat="58.98740751155" lon="17.628431290283">
        <ele>0</ele>
        <time>2017-09-02T10:01:18Z</time>
      </trkpt>
      <trkpt lat="58.987335343391" lon="17.628786012291">
        <ele>0</ele>
        <time>2017-09-02T10:01:20Z</time>
      </trkpt>
      <trkpt lat="58.987265522164" lon="17.629136040435">
        <ele>0</ele>
        <time>2017-09-02T10:01:22Z</time>
      </trkpt>
      <trkpt lat="58.987195365661" lon="17.629481207077">
        <ele>0</ele>
        <time>2017-09-02T10:01:24Z</time>
      </trkpt>
      <trkpt lat="58.987123616597" lon="17.629818578552">
        <ele>0</ele>
        <time>2017-09-02T10:01:26Z</time>
      </trkpt>
      <trkpt lat="58.987052705723" lon="17.630152010534">
        <ele>0</ele>
        <time>2017-09-02T10:01:28Z</time>
      </trkpt>
      <trkpt lat="58.986986572532" lon="17.630479910462">
        <ele>0.2</ele>
        <time>2017-09-02T10:01:30Z</time>
      </trkpt>
      <trkpt lat="58.986924881748" lon="17.630801356327">
        <ele>0.2</ele>
        <time>2017-09-02T10:01:32Z</time>
      </trkpt>
      <trkpt lat="58.986865454077" lon="17.631126993142">
        <ele>0.4</ele>
        <time>2017-09-02T10:01:34Z</time>
      </trkpt>
      <trkpt lat="58.986813151021" lon="17.631475344906">
        <ele>0.4</ele>
        <time>2017-09-02T10:01:36Z</time>
      </trkpt>
      <trkpt lat="58.986772666444" lon="17.631841047203">
        <ele>0.4</ele>
        <time>2017-09-02T10:01:38Z</time>
      </trkpt>
      <trkpt lat="58.986747772201" lon="17.632199121971">
        <ele>0.6</ele>
        <time>2017-09-02T10:01:40Z</time>
      </trkpt>
      <trkpt lat="58.986735115532" lon="17.632545462079">
        <ele>1</ele>
        <time>2017-09-02T10:01:42Z</time>
      </trkpt>
      <trkpt lat="58.986735199351" lon="17.632884258477">
        <ele>1.2</ele>
        <time>2017-09-02T10:01:44Z</time>
      </trkpt>
      <trkpt lat="58.986747939839" lon="17.633216516993">
        <ele>1.4</ele>
        <time>2017-09-02T10:01:46Z</time>
      </trkpt>
      <trkpt lat="58.986768391675" lon="17.633542153808">
        <ele>2.4</ele>
        <time>2017-09-02T10:01:48Z</time>
      </trkpt>
      <trkpt lat="58.986800075257" lon="17.633867036252">
        <ele>3.4</ele>
        <time>2017-09-02T10:01:50Z</time>
      </trkpt>
      <trkpt lat="58.986820694731" lon="17.634028639284">
        <ele>3.6</ele>
        <time>2017-09-02T10:01:51Z</time>
      </trkpt>
      <trkpt lat="58.986844080232" lon="17.634190661411">
        <ele>3.6</ele>
        <time>2017-09-02T10:01:52Z</time>
      </trkpt>
      <trkpt lat="58.986899149315" lon="17.634511688181">
        <ele>4.4</ele>
        <time>2017-09-02T10:01:54Z</time>
      </trkpt>
      <trkpt lat="58.98696494723" lon="17.634825171241">
        <ele>4.8</ele>
        <time>2017-09-02T10:01:56Z</time>
      </trkpt>
      <trkpt lat="58.987042395986" lon="17.635132786971">
        <ele>4.8</ele>
        <time>2017-09-02T10:01:58Z</time>
      </trkpt>
      <trkpt lat="58.98713007066" lon="17.635439983606">
        <ele>4.8</ele>
        <time>2017-09-02T10:02:00Z</time>
      </trkpt>
      <trkpt lat="58.987225289044" lon="17.635737121961">
        <ele>4.8</ele>
        <time>2017-09-02T10:02:02Z</time>
      </trkpt>
      <trkpt lat="58.987334337563" lon="17.636017915611">
        <ele>4.6</ele>
        <time>2017-09-02T10:02:04Z</time>
      </trkpt>
      <trkpt lat="58.987447074118" lon="17.636281694004">
        <ele>4.2</ele>
        <time>2017-09-02T10:02:06Z</time>
      </trkpt>
      <trkpt lat="58.98756425308" lon="17.636517812127">
        <ele>4</ele>
        <time>2017-09-02T10:02:08Z</time>
      </trkpt>
      <trkpt lat="58.987683527517" lon="17.636764742901">
        <ele>3.8</ele>
        <time>2017-09-02T10:02:10Z</time>
      </trkpt>
      <trkpt lat="58.987804981248" lon="17.637015361711">
        <ele>3.6</ele>
        <time>2017-09-02T10:02:12Z</time>
      </trkpt>
      <trkpt lat="58.987927021712" lon="17.637264639417">
        <ele>3.6</ele>
        <time>2017-09-02T10:02:14Z</time>
      </trkpt>
      <trkpt lat="58.988046715244" lon="17.637513581847">
        <ele>3.6</ele>
        <time>2017-09-02T10:02:16Z</time>
      </trkpt>
      <trkpt lat="58.988164648577" lon="17.637754561472">
        <ele>3.4</ele>
        <time>2017-09-02T10:02:18Z</time>
      </trkpt>
      <trkpt lat="58.988278139503" lon="17.637986572464">
        <ele>3.4</ele>
        <time>2017-09-02T10:02:20Z</time>
      </trkpt>
      <trkpt lat="58.988390792239" lon="17.638220511293">
        <ele>3.4</ele>
        <time>2017-09-02T10:02:22Z</time>
      </trkpt>
      <trkpt lat="58.988503780251" lon="17.638456797054">
        <ele>3.4</ele>
        <time>2017-09-02T10:02:24Z</time>
      </trkpt>
      <trkpt lat="58.9886186961" lon="17.63869182553">
        <ele>3.4</ele>
        <time>2017-09-02T10:02:26Z</time>
      </trkpt>
      <trkpt lat="58.988732438483" lon="17.63893406244">
        <ele>3.4</ele>
        <time>2017-09-02T10:02:28Z</time>
      </trkpt>
      <trkpt lat="58.988844504486" lon="17.639177305178">
        <ele>3.4</ele>
        <time>2017-09-02T10:02:30Z</time>
      </trkpt>
      <trkpt lat="58.988957576317" lon="17.639406550143">
        <ele>3.4</ele>
        <time>2017-09-02T10:02:32Z</time>
      </trkpt>
      <trkpt lat="58.989069977596" lon="17.63963395109">
        <ele>3.4</ele>
        <time>2017-09-02T10:02:34Z</time>
      </trkpt>
      <trkpt lat="58.989179109934" lon="17.639861352037">
        <ele>3.4</ele>
        <time>2017-09-02T10:02:36Z</time>
      </trkpt>
      <trkpt lat="58.989290505385" lon="17.640088585346">
        <ele>3.4</ele>
        <time>2017-09-02T10:02:38Z</time>
      </trkpt>
      <trkpt lat="58.989401397922" lon="17.640316489207">
        <ele>3.4</ele>
        <time>2017-09-02T10:02:40Z</time>
      </trkpt>
      <trkpt lat="58.989509105337" lon="17.64054087267">
        <ele>3.4</ele>
        <time>2017-09-02T10:02:42Z</time>
      </trkpt>
      <trkpt lat="58.989616896571" lon="17.640765256133">
        <ele>3.8</ele>
        <time>2017-09-02T10:02:44Z</time>
      </trkpt>
      <trkpt lat="58.989725023081" lon="17.640985281008">
        <ele>4</ele>
        <time>2017-09-02T10:02:46Z</time>
      </trkpt>
      <trkpt lat="58.98982988065" lon="17.641205222064">
        <ele>4.2</ele>
        <time>2017-09-02T10:02:48Z</time>
      </trkpt>
      <trkpt lat="58.989933061839" lon="17.641423402921">
        <ele>4.6</ele>
        <time>2017-09-02T10:02:50Z</time>
      </trkpt>
      <trkpt lat="58.990036997399" lon="17.641639991217">
        <ele>4.8</ele>
        <time>2017-09-02T10:02:52Z</time>
      </trkpt>
      <trkpt lat="58.990089887188" lon="17.641746860442">
        <ele>4.8</ele>
        <time>2017-09-02T10:02:53Z</time>
      </trkpt>
      <trkpt lat="58.990143447529" lon="17.641855070771">
        <ele>5</ele>
        <time>2017-09-02T10:02:54Z</time>
      </trkpt>
      <trkpt lat="58.990250819668" lon="17.642081298252">
        <ele>5.4</ele>
        <time>2017-09-02T10:02:56Z</time>
      </trkpt>
      <trkpt lat="58.990364142956" lon="17.642306939">
        <ele>5.4</ele>
        <time>2017-09-02T10:02:58Z</time>
      </trkpt>
      <trkpt lat="58.990474113484" lon="17.642528472617">
        <ele>5.6</ele>
        <time>2017-09-02T10:03:00Z</time>
      </trkpt>
      <trkpt lat="58.990579725424" lon="17.642761321799">
        <ele>5.6</ele>
        <time>2017-09-02T10:03:02Z</time>
      </trkpt>
      <trkpt lat="58.990688019572" lon="17.642982855416">
        <ele>5.8</ele>
        <time>2017-09-02T10:03:04Z</time>
      </trkpt>
      <trkpt lat="58.990793463874" lon="17.643182344636">
        <ele>5.8</ele>
        <time>2017-09-02T10:03:06Z</time>
      </trkpt>
      <trkpt lat="58.990842749446" lon="17.643286280196">
        <ele>5.8</ele>
        <time>2017-09-02T10:03:07Z</time>
      </trkpt>
      <trkpt lat="58.990892118837" lon="17.643393987611">
        <ele>5.8</ele>
        <time>2017-09-02T10:03:08Z</time>
      </trkpt>
      <trkpt lat="58.990993958922" lon="17.643613509572">
        <ele>5.8</ele>
        <time>2017-09-02T10:03:10Z</time>
      </trkpt>
      <trkpt lat="58.991103845631" lon="17.643837138664">
        <ele>5.8</ele>
        <time>2017-09-02T10:03:12Z</time>
      </trkpt>
      <trkpt lat="58.991217839471" lon="17.644076944823">
        <ele>5.8</ele>
        <time>2017-09-02T10:03:14Z</time>
      </trkpt>
      <trkpt lat="58.991326301257" lon="17.644327982728">
        <ele>5.8</ele>
        <time>2017-09-02T10:03:16Z</time>
      </trkpt>
      <trkpt lat="58.991423950392" lon="17.644569884362">
        <ele>6</ele>
        <time>2017-09-02T10:03:18Z</time>
      </trkpt>
      <trkpt lat="58.991518246767" lon="17.644793597273">
        <ele>6</ele>
        <time>2017-09-02T10:03:20Z</time>
      </trkpt>
      <trkpt lat="58.991613968065" lon="17.645014711795">
        <ele>6</ele>
        <time>2017-09-02T10:03:22Z</time>
      </trkpt>
      <trkpt lat="58.991707593888" lon="17.645231970643">
        <ele>6</ele>
        <time>2017-09-02T10:03:24Z</time>
      </trkpt>
      <trkpt lat="58.991800716797" lon="17.645437327193">
        <ele>6</ele>
        <time>2017-09-02T10:03:26Z</time>
      </trkpt>
      <trkpt lat="58.991889816394" lon="17.645637989879">
        <ele>6.2</ele>
        <time>2017-09-02T10:03:28Z</time>
      </trkpt>
      <trkpt lat="58.99197564705" lon="17.645834461615">
        <ele>6.6</ele>
        <time>2017-09-02T10:03:30Z</time>
      </trkpt>
      <trkpt lat="58.992063908457" lon="17.646021964718">
        <ele>6.8</ele>
        <time>2017-09-02T10:03:32Z</time>
      </trkpt>
      <trkpt lat="58.992154265339" lon="17.646202091749">
        <ele>7</ele>
        <time>2017-09-02T10:03:34Z</time>
      </trkpt>
      <trkpt lat="58.992247472067" lon="17.646369897387">
        <ele>7.6</ele>
        <time>2017-09-02T10:03:36Z</time>
      </trkpt>
      <trkpt lat="58.992345540297" lon="17.646529824039">
        <ele>8</ele>
        <time>2017-09-02T10:03:38Z</time>
      </trkpt>
      <trkpt lat="58.992450984599" lon="17.64667642347">
        <ele>8.2</ele>
        <time>2017-09-02T10:03:40Z</time>
      </trkpt>
      <trkpt lat="58.992565565172" lon="17.6468164012">
        <ele>8.6</ele>
        <time>2017-09-02T10:03:42Z</time>
      </trkpt>
      <trkpt lat="58.992681235392" lon="17.646959899328">
        <ele>9.2</ele>
        <time>2017-09-02T10:03:44Z</time>
      </trkpt>
      <trkpt lat="58.992799504001" lon="17.647082777982">
        <ele>9.8</ele>
        <time>2017-09-02T10:03:46Z</time>
      </trkpt>
      <trkpt lat="58.992861110966" lon="17.64713407521">
        <ele>10.2</ele>
        <time>2017-09-02T10:03:47Z</time>
      </trkpt>
      <trkpt lat="58.992924981044" lon="17.647181684402">
        <ele>10.4</ele>
        <time>2017-09-02T10:03:48Z</time>
      </trkpt>
      <trkpt lat="58.9930527212" lon="17.647275896958">
        <ele>11.6</ele>
        <time>2017-09-02T10:03:50Z</time>
      </trkpt>
      <trkpt lat="58.993185071401" lon="17.647366421478">
        <ele>11.8</ele>
        <time>2017-09-02T10:03:52Z</time>
      </trkpt>
      <trkpt lat="58.993320522905" lon="17.647463819156">
        <ele>12</ele>
        <time>2017-09-02T10:03:54Z</time>
      </trkpt>
      <trkpt lat="58.993461506463" lon="17.647557612617">
        <ele>12</ele>
        <time>2017-09-02T10:03:56Z</time>
      </trkpt>
      <trkpt lat="58.993610620464" lon="17.647656938132">
        <ele>12</ele>
        <time>2017-09-02T10:03:58Z</time>
      </trkpt>
      <trkpt lat="58.993764260691" lon="17.647756431285">
        <ele>12</ele>
        <time>2017-09-02T10:04:00Z</time>
      </trkpt>
      <trkpt lat="58.993923768248" lon="17.647861456492">
        <ele>12</ele>
        <time>2017-09-02T10:04:02Z</time>
      </trkpt>
      <trkpt lat="58.994090735696" lon="17.64796891245">
        <ele>11.2</ele>
        <time>2017-09-02T10:04:04Z</time>
      </trkpt>
      <trkpt lat="58.994262648465" lon="17.648078547702">
        <ele>11</ele>
        <time>2017-09-02T10:04:06Z</time>
      </trkpt>
      <trkpt lat="58.994433974501" lon="17.648188853506">
        <ele>10.4</ele>
        <time>2017-09-02T10:04:08Z</time>
      </trkpt>
      <trkpt lat="58.9946033727" lon="17.648296393283">
        <ele>10</ele>
        <time>2017-09-02T10:04:10Z</time>
      </trkpt>
      <trkpt lat="58.99477268708" lon="17.648405777078">
        <ele>9.8</ele>
        <time>2017-09-02T10:04:12Z</time>
      </trkpt>
      <trkpt lat="58.994938983976" lon="17.648522620764">
        <ele>9.6</ele>
        <time>2017-09-02T10:04:14Z</time>
      </trkpt>
      <trkpt lat="58.995106705795" lon="17.648636446966">
        <ele>9.4</ele>
        <time>2017-09-02T10:04:16Z</time>
      </trkpt>
      <trkpt lat="58.995275181985" lon="17.648748177693">
        <ele>9.2</ele>
        <time>2017-09-02T10:04:18Z</time>
      </trkpt>
      <trkpt lat="58.995443071442" lon="17.648865356655">
        <ele>8.8</ele>
        <time>2017-09-02T10:04:20Z</time>
      </trkpt>
      <trkpt lat="58.995610206528" lon="17.64897976959">
        <ele>8.8</ele>
        <time>2017-09-02T10:04:22Z</time>
      </trkpt>
      <trkpt lat="58.995777090157" lon="17.649097032371">
        <ele>8.6</ele>
        <time>2017-09-02T10:04:24Z</time>
      </trkpt>
      <trkpt lat="58.995944979614" lon="17.649210355659">
        <ele>8.6</ele>
        <time>2017-09-02T10:04:26Z</time>
      </trkpt>
      <trkpt lat="58.996113288166" lon="17.649322924576">
        <ele>8.6</ele>
        <time>2017-09-02T10:04:28Z</time>
      </trkpt>
      <trkpt lat="58.996279417424" lon="17.649434320027">
        <ele>8.6</ele>
        <time>2017-09-02T10:04:30Z</time>
      </trkpt>
      <trkpt lat="58.99644487613" lon="17.649548146229">
        <ele>8.8</ele>
        <time>2017-09-02T10:04:32Z</time>
      </trkpt>
      <trkpt lat="58.996608239361" lon="17.649660631327">
        <ele>8.8</ele>
        <time>2017-09-02T10:04:34Z</time>
      </trkpt>
      <trkpt lat="58.996769842393" lon="17.649770266579">
        <ele>8.8</ele>
        <time>2017-09-02T10:04:36Z</time>
      </trkpt>
      <trkpt lat="58.996932954167" lon="17.649882919315">
        <ele>9</ele>
        <time>2017-09-02T10:04:38Z</time>
      </trkpt>
      <trkpt lat="58.997094892475" lon="17.649994398585">
        <ele>9.2</ele>
        <time>2017-09-02T10:04:40Z</time>
      </trkpt>
      <trkpt lat="58.997260099724" lon="17.650104704389">
        <ele>9.2</ele>
        <time>2017-09-02T10:04:42Z</time>
      </trkpt>
      <trkpt lat="58.997423965869" lon="17.650213249994">
        <ele>9.4</ele>
        <time>2017-09-02T10:04:44Z</time>
      </trkpt>
      <trkpt lat="58.997589089299" lon="17.650318442839">
        <ele>9.6</ele>
        <time>2017-09-02T10:04:46Z</time>
      </trkpt>
      <trkpt lat="58.997751446702" lon="17.650422881313">
        <ele>9.6</ele>
        <time>2017-09-02T10:04:48Z</time>
      </trkpt>
      <trkpt lat="58.997910702802" lon="17.650529331443">
        <ele>9.6</ele>
        <time>2017-09-02T10:04:50Z</time>
      </trkpt>
      <trkpt lat="58.998069539807" lon="17.650631925899">
        <ele>9.6</ele>
        <time>2017-09-02T10:04:52Z</time>
      </trkpt>
      <trkpt lat="58.998229298821" lon="17.650740220047">
        <ele>9.6</ele>
        <time>2017-09-02T10:04:54Z</time>
      </trkpt>
      <trkpt lat="58.998391237129" lon="17.650848514195">
        <ele>9.6</ele>
        <time>2017-09-02T10:04:56Z</time>
      </trkpt>
      <trkpt lat="58.99855460036" lon="17.650958233266">
        <ele>9.8</ele>
        <time>2017-09-02T10:04:58Z</time>
      </trkpt>
      <trkpt lat="58.998719472333" lon="17.651072981477">
        <ele>9.8</ele>
        <time>2017-09-02T10:05:00Z</time>
      </trkpt>
      <trkpt lat="58.998885098677" lon="17.651185131299">
        <ele>10.2</ele>
        <time>2017-09-02T10:05:02Z</time>
      </trkpt>
      <trkpt lat="58.998967995668" lon="17.651240619477">
        <ele>10.4</ele>
        <time>2017-09-02T10:05:03Z</time>
      </trkpt>
      <trkpt lat="58.999050976478" lon="17.651296778207">
        <ele>10.4</ele>
        <time>2017-09-02T10:05:04Z</time>
      </trkpt>
      <trkpt lat="58.999216016089" lon="17.651406832554">
        <ele>10.4</ele>
        <time>2017-09-02T10:05:06Z</time>
      </trkpt>
      <trkpt lat="58.999382312985" lon="17.651519233833">
        <ele>10.4</ele>
        <time>2017-09-02T10:05:08Z</time>
      </trkpt>
      <trkpt lat="58.999549364252" lon="17.651628701447">
        <ele>10.4</ele>
        <time>2017-09-02T10:05:10Z</time>
      </trkpt>
      <trkpt lat="58.999715912605" lon="17.651740096898">
        <ele>10.4</ele>
        <time>2017-09-02T10:05:12Z</time>
      </trkpt>
      <trkpt lat="58.999884556433" lon="17.651851743806">
        <ele>10.4</ele>
        <time>2017-09-02T10:05:14Z</time>
      </trkpt>
      <trkpt lat="59.000054625184" lon="17.651966575836">
        <ele>10.2</ele>
        <time>2017-09-02T10:05:16Z</time>
      </trkpt>
      <trkpt lat="59.000224945392" lon="17.652079982943">
        <ele>10.2</ele>
        <time>2017-09-02T10:05:18Z</time>
      </trkpt>
      <trkpt lat="59.000394678867" lon="17.652195401706">
        <ele>10.2</ele>
        <time>2017-09-02T10:05:20Z</time>
      </trkpt>
      <trkpt lat="59.000562400686" lon="17.652305875148">
        <ele>10</ele>
        <time>2017-09-02T10:05:22Z</time>
      </trkpt>
      <trkpt lat="59.000728697582" lon="17.652416600047">
        <ele>10</ele>
        <time>2017-09-02T10:05:24Z</time>
      </trkpt>
      <trkpt lat="59.000893904831" lon="17.652531515896">
        <ele>10</ele>
        <time>2017-09-02T10:05:26Z</time>
      </trkpt>
      <trkpt lat="59.001059782632" lon="17.652645928831">
        <ele>10</ele>
        <time>2017-09-02T10:05:28Z</time>
      </trkpt>
      <trkpt lat="59.001226163347" lon="17.652757240463">
        <ele>10.2</ele>
        <time>2017-09-02T10:05:30Z</time>
      </trkpt>
      <trkpt lat="59.001392627881" lon="17.652869641742">
        <ele>10</ele>
        <time>2017-09-02T10:05:32Z</time>
      </trkpt>
      <trkpt lat="59.001559595329" lon="17.652982210659">
        <ele>10</ele>
        <time>2017-09-02T10:05:34Z</time>
      </trkpt>
      <trkpt lat="59.00172547313" lon="17.653093019377">
        <ele>10</ele>
        <time>2017-09-02T10:05:36Z</time>
      </trkpt>
      <trkpt lat="59.001888249628" lon="17.653199637145">
        <ele>10</ele>
        <time>2017-09-02T10:05:38Z</time>
      </trkpt>
      <trkpt lat="59.002047086633" lon="17.653304243257">
        <ele>10</ele>
        <time>2017-09-02T10:05:40Z</time>
      </trkpt>
      <trkpt lat="59.002196871186" lon="17.65340876555">
        <ele>10.2</ele>
        <time>2017-09-02T10:05:42Z</time>
      </trkpt>
      <trkpt lat="59.002340453133" lon="17.653509180712">
        <ele>10.2</ele>
        <time>2017-09-02T10:05:44Z</time>
      </trkpt>
      <trkpt lat="59.002478838302" lon="17.653605907838">
        <ele>10.6</ele>
        <time>2017-09-02T10:05:46Z</time>
      </trkpt>
      <trkpt lat="59.002617474928" lon="17.65370464662">
        <ele>11.4</ele>
        <time>2017-09-02T10:05:48Z</time>
      </trkpt>
      <trkpt lat="59.002755021907" lon="17.653812354035">
        <ele>12</ele>
        <time>2017-09-02T10:05:50Z</time>
      </trkpt>
      <trkpt lat="59.002824172582" lon="17.653868261308">
        <ele>12.4</ele>
        <time>2017-09-02T10:05:51Z</time>
      </trkpt>
      <trkpt lat="59.002892904162" lon="17.653925761142">
        <ele>13.2</ele>
        <time>2017-09-02T10:05:52Z</time>
      </trkpt>
      <trkpt lat="59.00296180338" lon="17.653984434442">
        <ele>13.4</ele>
        <time>2017-09-02T10:05:53Z</time>
      </trkpt>
      <trkpt lat="59.003032043702" lon="17.65404243719">
        <ele>13.8</ele>
        <time>2017-09-02T10:05:54Z</time>
      </trkpt>
      <trkpt lat="59.003174619821" lon="17.654164477654">
        <ele>13.8</ele>
        <time>2017-09-02T10:05:56Z</time>
      </trkpt>
      <trkpt lat="59.003310071325" lon="17.654296744036">
        <ele>14.6</ele>
        <time>2017-09-02T10:05:58Z</time>
      </trkpt>
      <trkpt lat="59.003450132874" lon="17.654430602979">
        <ele>15.8</ele>
        <time>2017-09-02T10:06:00Z</time>
      </trkpt>
      <trkpt lat="59.003590864975" lon="17.654577956781">
        <ele>17.4</ele>
        <time>2017-09-02T10:06:02Z</time>
      </trkpt>
      <trkpt lat="59.003737632044" lon="17.654731010275">
        <ele>18</ele>
        <time>2017-09-02T10:06:04Z</time>
      </trkpt>
      <trkpt lat="59.003887248959" lon="17.654894960239">
        <ele>18.2</ele>
        <time>2017-09-02T10:06:06Z</time>
      </trkpt>
      <trkpt lat="59.004035189494" lon="17.655069806673">
        <ele>18.4</ele>
        <time>2017-09-02T10:06:08Z</time>
      </trkpt>
      <trkpt lat="59.004109034033" lon="17.655160163555">
        <ele>18.4</ele>
        <time>2017-09-02T10:06:09Z</time>
      </trkpt>
      <trkpt lat="59.00418304621" lon="17.655252112998">
        <ele>18.6</ele>
        <time>2017-09-02T10:06:10Z</time>
      </trkpt>
      <trkpt lat="59.004337105532" lon="17.655427713803">
        <ele>18.6</ele>
        <time>2017-09-02T10:06:12Z</time>
      </trkpt>
      <trkpt lat="59.004493260329" lon="17.655605326264">
        <ele>18.8</ele>
        <time>2017-09-02T10:06:14Z</time>
      </trkpt>
      <trkpt lat="59.004648409298" lon="17.65579090153">
        <ele>18.8</ele>
        <time>2017-09-02T10:06:16Z</time>
      </trkpt>
      <trkpt lat="59.004806408113" lon="17.655978739909">
        <ele>18.8</ele>
        <time>2017-09-02T10:06:18Z</time>
      </trkpt>
      <trkpt lat="59.004965580394" lon="17.656163141709">
        <ele>18.6</ele>
        <time>2017-09-02T10:06:20Z</time>
      </trkpt>
      <trkpt lat="59.005123998304" lon="17.656342682007">
        <ele>18.6</ele>
        <time>2017-09-02T10:06:22Z</time>
      </trkpt>
      <trkpt lat="59.005280153101" lon="17.65651509769">
        <ele>18.4</ele>
        <time>2017-09-02T10:06:24Z</time>
      </trkpt>
      <trkpt lat="59.005440582667" lon="17.656688686839">
        <ele>18.2</ele>
        <time>2017-09-02T10:06:26Z</time>
      </trkpt>
      <trkpt lat="59.005607550115" lon="17.656858504133">
        <ele>18.2</ele>
        <time>2017-09-02T10:06:28Z</time>
      </trkpt>
      <trkpt lat="59.005774517563" lon="17.657023543744">
        <ele>18</ele>
        <time>2017-09-02T10:06:30Z</time>
      </trkpt>
      <trkpt lat="59.005939557174" lon="17.657186320242">
        <ele>17.4</ele>
        <time>2017-09-02T10:06:32Z</time>
      </trkpt>
      <trkpt lat="59.00610753045" lon="17.657348510007">
        <ele>17.2</ele>
        <time>2017-09-02T10:06:34Z</time>
      </trkpt>
      <trkpt lat="59.006276258097" lon="17.657517070016">
        <ele>17</ele>
        <time>2017-09-02T10:06:36Z</time>
      </trkpt>
      <trkpt lat="59.006446075391" lon="17.65768437274">
        <ele>16.6</ele>
        <time>2017-09-02T10:06:38Z</time>
      </trkpt>
      <trkpt lat="59.006614970676" lon="17.657850669636">
        <ele>16.2</ele>
        <time>2017-09-02T10:06:40Z</time>
      </trkpt>
      <trkpt lat="59.006782441038" lon="17.658018139998">
        <ele>16.2</ele>
        <time>2017-09-02T10:06:42Z</time>
      </trkpt>
      <trkpt lat="59.006948737934" lon="17.658175384442">
        <ele>16</ele>
        <time>2017-09-02T10:06:44Z</time>
      </trkpt>
      <trkpt lat="59.007105395645" lon="17.65833061723">
        <ele>16</ele>
        <time>2017-09-02T10:06:46Z</time>
      </trkpt>
      <trkpt lat="59.007254006732" lon="17.658475288824">
        <ele>16.2</ele>
        <time>2017-09-02T10:06:48Z</time>
      </trkpt>
      <trkpt lat="59.007395577023" lon="17.658618032581">
        <ele>16.2</ele>
        <time>2017-09-02T10:06:50Z</time>
      </trkpt>
      <trkpt lat="59.007525412654" lon="17.658761279252">
        <ele>16.2</ele>
        <time>2017-09-02T10:06:52Z</time>
      </trkpt>
      <trkpt lat="59.007645944376" lon="17.658914500384">
        <ele>16.2</ele>
        <time>2017-09-02T10:06:54Z</time>
      </trkpt>
      <trkpt lat="59.007758680931" lon="17.659086245515">
        <ele>17.2</ele>
        <time>2017-09-02T10:06:56Z</time>
      </trkpt>
      <trkpt lat="59.007812157453" lon="17.659180374252">
        <ele>17.4</ele>
        <time>2017-09-02T10:06:57Z</time>
      </trkpt>
      <trkpt lat="59.007863454681" lon="17.659280789414">
        <ele>17.6</ele>
        <time>2017-09-02T10:06:58Z</time>
      </trkpt>
      <trkpt lat="59.007955571762" lon="17.659492432389">
        <ele>18</ele>
        <time>2017-09-02T10:07:00Z</time>
      </trkpt>
      <trkpt lat="59.008045174273" lon="17.659706506115">
        <ele>18.2</ele>
        <time>2017-09-02T10:07:02Z</time>
      </trkpt>
      <trkpt lat="59.008085742669" lon="17.659811782779">
        <ele>18.4</ele>
        <time>2017-09-02T10:07:03Z</time>
      </trkpt>
      <trkpt lat="59.008125975789" lon="17.659917897633">
        <ele>18.4</ele>
        <time>2017-09-02T10:07:04Z</time>
      </trkpt>
      <trkpt lat="59.008207783133" lon="17.660123254183">
        <ele>19.8</ele>
        <time>2017-09-02T10:07:06Z</time>
      </trkpt>
      <trkpt lat="59.008291183038" lon="17.660323162498">
        <ele>20.6</ele>
        <time>2017-09-02T10:07:08Z</time>
      </trkpt>
      <trkpt lat="59.008335188013" lon="17.660418380882">
        <ele>20.8</ele>
        <time>2017-09-02T10:07:09Z</time>
      </trkpt>
      <trkpt lat="59.008386066146" lon="17.660502116063">
        <ele>21.2</ele>
        <time>2017-09-02T10:07:10Z</time>
      </trkpt>
      <trkpt lat="59.008491258991" lon="17.660678219782">
        <ele>21.4</ele>
        <time>2017-09-02T10:07:12Z</time>
      </trkpt>
      <trkpt lat="59.008590584506" lon="17.660855329329">
        <ele>22</ele>
        <time>2017-09-02T10:07:14Z</time>
      </trkpt>
      <trkpt lat="59.008697118455" lon="17.661015926533">
        <ele>22.4</ele>
        <time>2017-09-02T10:07:16Z</time>
      </trkpt>
      <trkpt lat="59.008752187538" lon="17.661091363633">
        <ele>23</ele>
        <time>2017-09-02T10:07:17Z</time>
      </trkpt>
      <trkpt lat="59.008806921345" lon="17.661166297819">
        <ele>23.6</ele>
        <time>2017-09-02T10:07:18Z</time>
      </trkpt>
      <trkpt lat="59.008917897701" lon="17.661307113739">
        <ele>24</ele>
        <time>2017-09-02T10:07:20Z</time>
      </trkpt>
      <trkpt lat="59.008974559345" lon="17.661371654369">
        <ele>24.4</ele>
        <time>2017-09-02T10:07:21Z</time>
      </trkpt>
      <trkpt lat="59.009031388627" lon="17.661427980737">
        <ele>24.6</ele>
        <time>2017-09-02T10:07:22Z</time>
      </trkpt>
      <trkpt lat="59.009154099643" lon="17.661528060623">
        <ele>25</ele>
        <time>2017-09-02T10:07:24Z</time>
      </trkpt>
      <trkpt lat="59.009216293341" lon="17.661576759462">
        <ele>25.4</ele>
        <time>2017-09-02T10:07:25Z</time>
      </trkpt>
      <trkpt lat="59.009278822315" lon="17.661622776093">
        <ele>25.6</ele>
        <time>2017-09-02T10:07:26Z</time>
      </trkpt>
      <trkpt lat="59.009407316842" lon="17.661704415799">
        <ele>26</ele>
        <time>2017-09-02T10:07:28Z</time>
      </trkpt>
      <trkpt lat="59.009536481921" lon="17.661775410492">
        <ele>26.6</ele>
        <time>2017-09-02T10:07:30Z</time>
      </trkpt>
      <trkpt lat="59.009664305896" lon="17.661844728805">
        <ele>27</ele>
        <time>2017-09-02T10:07:32Z</time>
      </trkpt>
      <trkpt lat="59.009795650269" lon="17.661899211155">
        <ele>27.4</ele>
        <time>2017-09-02T10:07:34Z</time>
      </trkpt>
      <trkpt lat="59.009863543659" lon="17.661926955244">
        <ele>27.6</ele>
        <time>2017-09-02T10:07:35Z</time>
      </trkpt>
      <trkpt lat="59.009932778153" lon="17.661955537523">
        <ele>27.8</ele>
        <time>2017-09-02T10:07:36Z</time>
      </trkpt>
      <trkpt lat="59.010070157494" lon="17.662019156144">
        <ele>28.4</ele>
        <time>2017-09-02T10:07:38Z</time>
      </trkpt>
      <trkpt lat="59.01020795593" lon="17.662082607127">
        <ele>28.6</ele>
        <time>2017-09-02T10:07:40Z</time>
      </trkpt>
      <trkpt lat="59.010353465714" lon="17.662143040626">
        <ele>29</ele>
        <time>2017-09-02T10:07:42Z</time>
      </trkpt>
      <trkpt lat="59.010503250267" lon="17.662207832713">
        <ele>29.4</ele>
        <time>2017-09-02T10:07:44Z</time>
      </trkpt>
      <trkpt lat="59.010660829987" lon="17.662279833234">
        <ele>29.6</ele>
        <time>2017-09-02T10:07:46Z</time>
      </trkpt>
      <trkpt lat="59.010822768295" lon="17.662361892035">
        <ele>29.8</ele>
        <time>2017-09-02T10:07:48Z</time>
      </trkpt>
      <trkpt lat="59.010991998856" lon="17.662442358275">
        <ele>29.8</ele>
        <time>2017-09-02T10:07:50Z</time>
      </trkpt>
      <trkpt lat="59.011162151426" lon="17.662542354342">
        <ele>29.8</ele>
        <time>2017-09-02T10:07:52Z</time>
      </trkpt>
      <trkpt lat="59.011332639272" lon="17.662664394806">
        <ele>29.8</ele>
        <time>2017-09-02T10:07:54Z</time>
      </trkpt>
      <trkpt lat="59.011507820982" lon="17.662819376137">
        <ele>29.8</ele>
        <time>2017-09-02T10:07:56Z</time>
      </trkpt>
      <trkpt lat="59.011682499778" lon="17.663022385755">
        <ele>29.8</ele>
        <time>2017-09-02T10:07:58Z</time>
      </trkpt>
      <trkpt lat="59.011856759479" lon="17.663256073127">
        <ele>29.6</ele>
        <time>2017-09-02T10:08:00Z</time>
      </trkpt>
      <trkpt lat="59.012030516266" lon="17.663514654742">
        <ele>29.2</ele>
        <time>2017-09-02T10:08:02Z</time>
      </trkpt>
      <trkpt lat="59.012212571134" lon="17.663779019868">
        <ele>28.2</ele>
        <time>2017-09-02T10:08:04Z</time>
      </trkpt>
      <trkpt lat="59.012405103377" lon="17.664037769121">
        <ele>27.2</ele>
        <time>2017-09-02T10:08:06Z</time>
      </trkpt>
      <trkpt lat="59.012612471583" lon="17.664283023515">
        <ele>26</ele>
        <time>2017-09-02T10:08:08Z</time>
      </trkpt>
      <trkpt lat="59.012839118159" lon="17.664479411432">
        <ele>24.8</ele>
        <time>2017-09-02T10:08:10Z</time>
      </trkpt>
      <trkpt lat="59.01306115469" lon="17.664633889849">
        <ele>22.6</ele>
        <time>2017-09-02T10:08:12Z</time>
      </trkpt>
      <trkpt lat="59.013167940096" lon="17.664711087148">
        <ele>21.2</ele>
        <time>2017-09-02T10:08:13Z</time>
      </trkpt>
      <trkpt lat="59.013271372742" lon="17.664792391578">
        <ele>19.8</ele>
        <time>2017-09-02T10:08:14Z</time>
      </trkpt>
      <trkpt lat="59.013375559759" lon="17.664870510886">
        <ele>18.6</ele>
        <time>2017-09-02T10:08:15Z</time>
      </trkpt>
      <trkpt lat="59.013478321853" lon="17.664946618538">
        <ele>17.8</ele>
        <time>2017-09-02T10:08:16Z</time>
      </trkpt>
      <trkpt lat="59.013580413395" lon="17.665021720362">
        <ele>17.2</ele>
        <time>2017-09-02T10:08:17Z</time>
      </trkpt>
      <trkpt lat="59.013681080014" lon="17.665092966512">
        <ele>17</ele>
        <time>2017-09-02T10:08:18Z</time>
      </trkpt>
      <trkpt lat="59.013880653053" lon="17.6652314355">
        <ele>16.8</ele>
        <time>2017-09-02T10:08:20Z</time>
      </trkpt>
      <trkpt lat="59.014075867504" lon="17.665382225881">
        <ele>16.4</ele>
        <time>2017-09-02T10:08:22Z</time>
      </trkpt>
      <trkpt lat="59.01417175644" lon="17.665461686293">
        <ele>16.2</ele>
        <time>2017-09-02T10:08:23Z</time>
      </trkpt>
      <trkpt lat="59.014268232109" lon="17.665540392334">
        <ele>16.2</ele>
        <time>2017-09-02T10:08:24Z</time>
      </trkpt>
      <trkpt lat="59.014461434904" lon="17.665704593755">
        <ele>16</ele>
        <time>2017-09-02T10:08:26Z</time>
      </trkpt>
      <trkpt lat="59.01465874483" lon="17.665877847628">
        <ele>15.6</ele>
        <time>2017-09-02T10:08:28Z</time>
      </trkpt>
      <trkpt lat="59.014860832439" lon="17.666066524197">
        <ele>15</ele>
        <time>2017-09-02T10:08:30Z</time>
      </trkpt>
      <trkpt lat="59.015064847885" lon="17.666254111119">
        <ele>14.4</ele>
        <time>2017-09-02T10:08:32Z</time>
      </trkpt>
      <trkpt lat="59.0151641734" lon="17.666345725286">
        <ele>13.8</ele>
        <time>2017-09-02T10:08:33Z</time>
      </trkpt>
      <trkpt lat="59.015266851675" lon="17.666438345281">
        <ele>13.6</ele>
        <time>2017-09-02T10:08:34Z</time>
      </trkpt>
      <trkpt lat="59.015466089438" lon="17.666621489796">
        <ele>13.2</ele>
        <time>2017-09-02T10:08:36Z</time>
      </trkpt>
      <trkpt lat="59.015563068021" lon="17.666710086479">
        <ele>12.8</ele>
        <time>2017-09-02T10:08:37Z</time>
      </trkpt>
      <trkpt lat="59.015658621681" lon="17.666798347886">
        <ele>12.4</ele>
        <time>2017-09-02T10:08:38Z</time>
      </trkpt>
      <trkpt lat="59.015845538051" lon="17.666968081361">
        <ele>11.6</ele>
        <time>2017-09-02T10:08:40Z</time>
      </trkpt>
      <trkpt lat="59.016019713933" lon="17.667124236158">
        <ele>11</ele>
        <time>2017-09-02T10:08:42Z</time>
      </trkpt>
      <trkpt lat="59.016182993345" lon="17.667266477001">
        <ele>11</ele>
        <time>2017-09-02T10:08:44Z</time>
      </trkpt>
      <trkpt lat="59.016338729047" lon="17.667402515238">
        <ele>11</ele>
        <time>2017-09-02T10:08:46Z</time>
      </trkpt>
      <trkpt lat="59.0164885136" lon="17.667538050561">
        <ele>11</ele>
        <time>2017-09-02T10:08:48Z</time>
      </trkpt>
      <trkpt lat="59.016637962877" lon="17.667671993323">
        <ele>11</ele>
        <time>2017-09-02T10:08:50Z</time>
      </trkpt>
      <trkpt lat="59.016787076878" lon="17.667801074583">
        <ele>11</ele>
        <time>2017-09-02T10:08:52Z</time>
      </trkpt>
      <trkpt lat="59.016937448164" lon="17.667925545798">
        <ele>11.2</ele>
        <time>2017-09-02T10:08:54Z</time>
      </trkpt>
      <trkpt lat="59.017089160554" lon="17.668051525755">
        <ele>12.6</ele>
        <time>2017-09-02T10:08:56Z</time>
      </trkpt>
      <trkpt lat="59.017166106396" lon="17.668114725281">
        <ele>13</ele>
        <time>2017-09-02T10:08:57Z</time>
      </trkpt>
      <trkpt lat="59.017243806609" lon="17.668177086617">
        <ele>13.2</ele>
        <time>2017-09-02T10:08:58Z</time>
      </trkpt>
      <trkpt lat="59.017399207035" lon="17.66829501995">
        <ele>13.4</ele>
        <time>2017-09-02T10:09:00Z</time>
      </trkpt>
      <trkpt lat="59.017557373488" lon="17.668401134804">
        <ele>13.6</ele>
        <time>2017-09-02T10:09:02Z</time>
      </trkpt>
      <trkpt lat="59.0177206529" lon="17.668506076192">
        <ele>13.8</ele>
        <time>2017-09-02T10:09:04Z</time>
      </trkpt>
      <trkpt lat="59.017882675027" lon="17.668623841887">
        <ele>13.8</ele>
        <time>2017-09-02T10:09:06Z</time>
      </trkpt>
      <trkpt lat="59.018047966095" lon="17.668740685573">
        <ele>13.8</ele>
        <time>2017-09-02T10:09:08Z</time>
      </trkpt>
      <trkpt lat="59.018216693742" lon="17.668861217295">
        <ele>13.8</ele>
        <time>2017-09-02T10:09:10Z</time>
      </trkpt>
      <trkpt lat="59.018387600683" lon="17.668979569723">
        <ele>13.6</ele>
        <time>2017-09-02T10:09:12Z</time>
      </trkpt>
      <trkpt lat="59.018561692746" lon="17.669099011798">
        <ele>13.6</ele>
        <time>2017-09-02T10:09:14Z</time>
      </trkpt>
      <trkpt lat="59.018735198076" lon="17.66922038171">
        <ele>13.6</ele>
        <time>2017-09-02T10:09:16Z</time>
      </trkpt>
      <trkpt lat="59.01890417718" lon="17.669337309215">
        <ele>13.4</ele>
        <time>2017-09-02T10:09:18Z</time>
      </trkpt>
      <trkpt lat="59.019072904827" lon="17.669448620847">
        <ele>13.4</ele>
        <time>2017-09-02T10:09:20Z</time>
      </trkpt>
      <trkpt lat="59.019242135388" lon="17.669560100117">
        <ele>13.2</ele>
        <time>2017-09-02T10:09:22Z</time>
      </trkpt>
      <trkpt lat="59.019410024845" lon="17.669672333758">
        <ele>12.8</ele>
        <time>2017-09-02T10:09:24Z</time>
      </trkpt>
      <trkpt lat="59.019576908474" lon="17.66978867453">
        <ele>12.6</ele>
        <time>2017-09-02T10:09:26Z</time>
      </trkpt>
      <trkpt lat="59.019739098239" lon="17.66989847742">
        <ele>12.4</ele>
        <time>2017-09-02T10:09:28Z</time>
      </trkpt>
      <trkpt lat="59.01989743233" lon="17.670003837903">
        <ele>12.4</ele>
        <time>2017-09-02T10:09:30Z</time>
      </trkpt>
      <trkpt lat="59.020052581299" lon="17.670116071544">
        <ele>12.4</ele>
        <time>2017-09-02T10:09:32Z</time>
      </trkpt>
      <trkpt lat="59.020206389164" lon="17.670223024588">
        <ele>13</ele>
        <time>2017-09-02T10:09:34Z</time>
      </trkpt>
      <trkpt lat="59.020357011907" lon="17.670325367587">
        <ele>13.2</ele>
        <time>2017-09-02T10:09:36Z</time>
      </trkpt>
      <trkpt lat="59.020499336569" lon="17.670427459129">
        <ele>13.4</ele>
        <time>2017-09-02T10:09:38Z</time>
      </trkpt>
      <trkpt lat="59.020640152489" lon="17.670530556499">
        <ele>13.8</ele>
        <time>2017-09-02T10:09:40Z</time>
      </trkpt>
      <trkpt lat="59.020709889897" lon="17.670578752424">
        <ele>14</ele>
        <time>2017-09-02T10:09:41Z</time>
      </trkpt>
      <trkpt lat="59.02077837002" lon="17.670625858702">
        <ele>14.2</ele>
        <time>2017-09-02T10:09:42Z</time>
      </trkpt>
      <trkpt lat="59.020913653886" lon="17.670721915276">
        <ele>15</ele>
        <time>2017-09-02T10:09:44Z</time>
      </trkpt>
      <trkpt lat="59.020980960543" lon="17.6707718714">
        <ele>15.6</ele>
        <time>2017-09-02T10:09:45Z</time>
      </trkpt>
      <trkpt lat="59.021048183381" lon="17.670821156972">
        <ele>16.4</ele>
        <time>2017-09-02T10:09:46Z</time>
      </trkpt>
      <trkpt lat="59.02111699878" lon="17.670868849983">
        <ele>17</ele>
        <time>2017-09-02T10:09:47Z</time>
      </trkpt>
      <trkpt lat="59.021186987645" lon="17.670916626813">
        <ele>17.6</ele>
        <time>2017-09-02T10:09:48Z</time>
      </trkpt>
      <trkpt lat="59.021256892691" lon="17.670965241833">
        <ele>18.2</ele>
        <time>2017-09-02T10:09:49Z</time>
      </trkpt>
      <trkpt lat="59.021326713918" lon="17.671016287604">
        <ele>18.6</ele>
        <time>2017-09-02T10:09:50Z</time>
      </trkpt>
      <trkpt lat="59.021468368028" lon="17.671120726078">
        <ele>19.2</ele>
        <time>2017-09-02T10:09:52Z</time>
      </trkpt>
      <trkpt lat="59.021612620527" lon="17.67121443572">
        <ele>19.6</ele>
        <time>2017-09-02T10:09:54Z</time>
      </trkpt>
      <trkpt lat="59.021761147795" lon="17.671309235009">
        <ele>20.2</ele>
        <time>2017-09-02T10:09:56Z</time>
      </trkpt>
      <trkpt lat="59.021913530737" lon="17.671405626859">
        <ele>20.2</ele>
        <time>2017-09-02T10:09:58Z</time>
      </trkpt>
      <trkpt lat="59.022080330547" lon="17.671503359813">
        <ele>20.2</ele>
        <time>2017-09-02T10:10:00Z</time>
      </trkpt>
      <trkpt lat="59.022253165325" lon="17.671605283717">
        <ele>20.2</ele>
        <time>2017-09-02T10:10:02Z</time>
      </trkpt>
      <trkpt lat="59.022447457767" lon="17.671721205394">
        <ele>20</ele>
        <time>2017-09-02T10:10:04Z</time>
      </trkpt>
      <trkpt lat="59.022648791005" lon="17.671846933894">
        <ele>19.8</ele>
        <time>2017-09-02T10:10:06Z</time>
      </trkpt>
      <trkpt lat="59.022858925238" lon="17.671973081489">
        <ele>19.6</ele>
        <time>2017-09-02T10:10:08Z</time>
      </trkpt>
      <trkpt lat="59.02307333424" lon="17.67208196237">
        <ele>19</ele>
        <time>2017-09-02T10:10:10Z</time>
      </trkpt>
      <trkpt lat="59.023292856201" lon="17.672179108591">
        <ele>18.4</ele>
        <time>2017-09-02T10:10:12Z</time>
      </trkpt>
      <trkpt lat="59.023404251652" lon="17.672231663104">
        <ele>18.2</ele>
        <time>2017-09-02T10:10:13Z</time>
      </trkpt>
      <trkpt lat="59.023516988207" lon="17.672284888169">
        <ele>17.8</ele>
        <time>2017-09-02T10:10:14Z</time>
      </trkpt>
      <trkpt lat="59.023748244828" lon="17.672381950571">
        <ele>16.6</ele>
        <time>2017-09-02T10:10:16Z</time>
      </trkpt>
      <trkpt lat="59.023983273304" lon="17.672482030457">
        <ele>15.4</ele>
        <time>2017-09-02T10:10:18Z</time>
      </trkpt>
      <trkpt lat="59.024224001472" lon="17.672573476986">
        <ele>14.8</ele>
        <time>2017-09-02T10:10:20Z</time>
      </trkpt>
      <trkpt lat="59.024465651649" lon="17.672660816384">
        <ele>14.4</ele>
        <time>2017-09-02T10:10:22Z</time>
      </trkpt>
      <trkpt lat="59.024586183371" lon="17.672701552418">
        <ele>14.2</ele>
        <time>2017-09-02T10:10:23Z</time>
      </trkpt>
      <trkpt lat="59.024706715093" lon="17.672732313991">
        <ele>13.8</ele>
        <time>2017-09-02T10:10:24Z</time>
      </trkpt>
      <trkpt lat="59.02495004165" lon="17.672795178241">
        <ele>13</ele>
        <time>2017-09-02T10:10:26Z</time>
      </trkpt>
      <trkpt lat="59.025193368207" lon="17.672872207902">
        <ele>12.2</ele>
        <time>2017-09-02T10:10:28Z</time>
      </trkpt>
      <trkpt lat="59.025314067567" lon="17.672910680823">
        <ele>11.8</ele>
        <time>2017-09-02T10:10:29Z</time>
      </trkpt>
      <trkpt lat="59.025435018384" lon="17.672949405201">
        <ele>11.6</ele>
        <time>2017-09-02T10:10:30Z</time>
      </trkpt>
      <trkpt lat="59.025675662733" lon="17.673023668835">
        <ele>10.8</ele>
        <time>2017-09-02T10:10:32Z</time>
      </trkpt>
      <trkpt lat="59.025795188627" lon="17.673062057937">
        <ele>10.6</ele>
        <time>2017-09-02T10:10:33Z</time>
      </trkpt>
      <trkpt lat="59.025914882159" lon="17.673102710152">
        <ele>10</ele>
        <time>2017-09-02T10:10:34Z</time>
      </trkpt>
      <trkpt lat="59.026150748825" lon="17.673178566347">
        <ele>9.4</ele>
        <time>2017-09-02T10:10:36Z</time>
      </trkpt>
      <trkpt lat="59.026385106749" lon="17.673257775302">
        <ele>8.6</ele>
        <time>2017-09-02T10:10:38Z</time>
      </trkpt>
      <trkpt lat="59.026500022598" lon="17.673297589327">
        <ele>8.4</ele>
        <time>2017-09-02T10:10:39Z</time>
      </trkpt>
      <trkpt lat="59.0266138488" lon="17.673336062248">
        <ele>7.8</ele>
        <time>2017-09-02T10:10:40Z</time>
      </trkpt>
      <trkpt lat="59.026840243919" lon="17.673406721665">
        <ele>7.2</ele>
        <time>2017-09-02T10:10:42Z</time>
      </trkpt>
      <trkpt lat="59.027067561047" lon="17.67348173967">
        <ele>7</ele>
        <time>2017-09-02T10:10:44Z</time>
      </trkpt>
      <trkpt lat="59.027296889831" lon="17.673564385204">
        <ele>6.8</ele>
        <time>2017-09-02T10:10:46Z</time>
      </trkpt>
      <trkpt lat="59.027531834488" lon="17.673650551136">
        <ele>6.6</ele>
        <time>2017-09-02T10:10:48Z</time>
      </trkpt>
      <trkpt lat="59.027776585968" lon="17.67372732934">
        <ele>6.6</ele>
        <time>2017-09-02T10:10:50Z</time>
      </trkpt>
      <trkpt lat="59.028026031312" lon="17.673806789752">
        <ele>6.6</ele>
        <time>2017-09-02T10:10:52Z</time>
      </trkpt>
      <trkpt lat="59.028275644294" lon="17.6738899382">
        <ele>6.8</ele>
        <time>2017-09-02T10:10:54Z</time>
      </trkpt>
      <trkpt lat="59.028526514561" lon="17.673966129671">
        <ele>7</ele>
        <time>2017-09-02T10:10:56Z</time>
      </trkpt>
      <trkpt lat="59.028777971561" lon="17.674046176816">
        <ele>7.4</ele>
        <time>2017-09-02T10:10:58Z</time>
      </trkpt>
      <trkpt lat="59.02902867419" lon="17.674127565065">
        <ele>7.4</ele>
        <time>2017-09-02T10:11:00Z</time>
      </trkpt>
      <trkpt lat="59.029280885561" lon="17.67420761221">
        <ele>7.6</ele>
        <time>2017-09-02T10:11:02Z</time>
      </trkpt>
      <trkpt lat="59.029533935122" lon="17.674289419554">
        <ele>7.8</ele>
        <time>2017-09-02T10:11:04Z</time>
      </trkpt>
      <trkpt lat="59.029785643579" lon="17.67437441202">
        <ele>7.8</ele>
        <time>2017-09-02T10:11:06Z</time>
      </trkpt>
      <trkpt lat="59.030034418371" lon="17.674449681482">
        <ele>7.8</ele>
        <time>2017-09-02T10:11:08Z</time>
      </trkpt>
      <trkpt lat="59.030273553978" lon="17.674519502709">
        <ele>7.8</ele>
        <time>2017-09-02T10:11:10Z</time>
      </trkpt>
      <trkpt lat="59.03050221221" lon="17.674588234289">
        <ele>7.8</ele>
        <time>2017-09-02T10:11:12Z</time>
      </trkpt>
      <trkpt lat="59.0307293617" lon="17.674639028603">
        <ele>7.8</ele>
        <time>2017-09-02T10:11:14Z</time>
      </trkpt>
      <trkpt lat="59.030959109579" lon="17.674682949759">
        <ele>7.8</ele>
        <time>2017-09-02T10:11:16Z</time>
      </trkpt>
      <trkpt lat="59.031193299865" lon="17.674711783495">
        <ele>6</ele>
        <time>2017-09-02T10:11:18Z</time>
      </trkpt>
      <trkpt lat="59.031429669445" lon="17.67472561363">
        <ele>5.2</ele>
        <time>2017-09-02T10:11:20Z</time>
      </trkpt>
      <trkpt lat="59.031548776244" lon="17.674725278354">
        <ele>4.8</ele>
        <time>2017-09-02T10:11:21Z</time>
      </trkpt>
      <trkpt lat="59.031668302138" lon="17.67472393725">
        <ele>4.6</ele>
        <time>2017-09-02T10:11:22Z</time>
      </trkpt>
      <trkpt lat="59.031907605383" lon="17.674719997757">
        <ele>4</ele>
        <time>2017-09-02T10:11:24Z</time>
      </trkpt>
      <trkpt lat="59.032026712182" lon="17.674716477359">
        <ele>3.8</ele>
        <time>2017-09-02T10:11:25Z</time>
      </trkpt>
      <trkpt lat="59.032145232248" lon="17.674712034952">
        <ele>3.6</ele>
        <time>2017-09-02T10:11:26Z</time>
      </trkpt>
      <trkpt lat="59.032381266552" lon="17.674699545921">
        <ele>3.2</ele>
        <time>2017-09-02T10:11:28Z</time>
      </trkpt>
      <trkpt lat="59.032616211209" lon="17.67469124784">
        <ele>2.8</ele>
        <time>2017-09-02T10:11:30Z</time>
      </trkpt>
      <trkpt lat="59.032733725447" lon="17.6746862187">
        <ele>2.2</ele>
        <time>2017-09-02T10:11:31Z</time>
      </trkpt>
      <trkpt lat="59.032851072047" lon="17.674680435189">
        <ele>1.8</ele>
        <time>2017-09-02T10:11:32Z</time>
      </trkpt>
      <trkpt lat="59.033083753591" lon="17.674667191787">
        <ele>1.2</ele>
        <time>2017-09-02T10:11:34Z</time>
      </trkpt>
      <trkpt lat="59.033314004384" lon="17.674647159046">
        <ele>1</ele>
        <time>2017-09-02T10:11:36Z</time>
      </trkpt>
      <trkpt lat="59.033540148046" lon="17.674627713038">
        <ele>1</ele>
        <time>2017-09-02T10:11:38Z</time>
      </trkpt>
      <trkpt lat="59.033761849301" lon="17.67461497255">
        <ele>0.8</ele>
        <time>2017-09-02T10:11:40Z</time>
      </trkpt>
      <trkpt lat="59.033980365434" lon="17.67460659065">
        <ele>0.6</ele>
        <time>2017-09-02T10:11:42Z</time>
      </trkpt>
      <trkpt lat="59.034197205187" lon="17.674594688352">
        <ele>0.6</ele>
        <time>2017-09-02T10:11:44Z</time>
      </trkpt>
      <trkpt lat="59.034414380216" lon="17.674588904841">
        <ele>0.6</ele>
        <time>2017-09-02T10:11:46Z</time>
      </trkpt>
      <trkpt lat="59.034641026792" lon="17.674590245945">
        <ele>0.2</ele>
        <time>2017-09-02T10:11:48Z</time>
      </trkpt>
      <trkpt lat="59.034878821295" lon="17.674569626471">
        <ele>0.2</ele>
        <time>2017-09-02T10:11:50Z</time>
      </trkpt>
      <trkpt lat="59.035116196703" lon="17.674567028082">
        <ele>0.8</ele>
        <time>2017-09-02T10:11:52Z</time>
      </trkpt>
      <trkpt lat="59.035357343966" lon="17.674548671721">
        <ele>1</ele>
        <time>2017-09-02T10:11:54Z</time>
      </trkpt>
      <trkpt lat="59.035604358559" lon="17.674542720572">
        <ele>2</ele>
        <time>2017-09-02T10:11:56Z</time>
      </trkpt>
      <trkpt lat="59.035730757611" lon="17.67453618269">
        <ele>2.2</ele>
        <time>2017-09-02T10:11:57Z</time>
      </trkpt>
      <trkpt lat="59.035859168319" lon="17.674527046419">
        <ele>2.4</ele>
        <time>2017-09-02T10:11:58Z</time>
      </trkpt>
      <trkpt lat="59.036111798785" lon="17.674514473569">
        <ele>2.6</ele>
        <time>2017-09-02T10:12:00Z</time>
      </trkpt>
      <trkpt lat="59.036350515297" lon="17.674507600411">
        <ele>2.6</ele>
        <time>2017-09-02T10:12:02Z</time>
      </trkpt>
      <trkpt lat="59.036575988407" lon="17.674502152176">
        <ele>2.6</ele>
        <time>2017-09-02T10:12:04Z</time>
      </trkpt>
      <trkpt lat="59.036789810676" lon="17.674490668973">
        <ele>2.6</ele>
        <time>2017-09-02T10:12:06Z</time>
      </trkpt>
      <trkpt lat="59.036999441995" lon="17.674485136919">
        <ele>2</ele>
        <time>2017-09-02T10:12:08Z</time>
      </trkpt>
      <trkpt lat="59.037103042279" lon="17.674484634005">
        <ele>0.4</ele>
        <time>2017-09-02T10:12:09Z</time>
      </trkpt>
      <trkpt lat="59.037205888192" lon="17.674484047272">
        <ele>0</ele>
        <time>2017-09-02T10:12:10Z</time>
      </trkpt>
      <trkpt lat="59.037307560639" lon="17.674485304557">
        <ele>0</ele>
        <time>2017-09-02T10:12:11Z</time>
      </trkpt>
      <trkpt lat="59.037407975801" lon="17.674484466367">
        <ele>0</ele>
        <time>2017-09-02T10:12:12Z</time>
      </trkpt>
      <trkpt lat="59.037605369546" lon="17.674471725879">
        <ele>0</ele>
        <time>2017-09-02T10:12:14Z</time>
      </trkpt>
      <trkpt lat="59.037799326712" lon="17.674458817753">
        <ele>0</ele>
        <time>2017-09-02T10:12:16Z</time>
      </trkpt>
      <trkpt lat="59.037990853127" lon="17.674456638459">
        <ele>0</ele>
        <time>2017-09-02T10:12:18Z</time>
      </trkpt>
      <trkpt lat="59.038181541352" lon="17.674447669826">
        <ele>0</ele>
        <time>2017-09-02T10:12:20Z</time>
      </trkpt>
      <trkpt lat="59.038369966464" lon="17.674434258786">
        <ele>0</ele>
        <time>2017-09-02T10:12:22Z</time>
      </trkpt>
      <trkpt lat="59.038553781531" lon="17.674419506642">
        <ele>0</ele>
        <time>2017-09-02T10:12:24Z</time>
      </trkpt>
      <trkpt lat="59.038736842227" lon="17.674394360942">
        <ele>0</ele>
        <time>2017-09-02T10:12:26Z</time>
      </trkpt>
      <trkpt lat="59.038921746941" lon="17.674386901051">
        <ele>0</ele>
        <time>2017-09-02T10:12:28Z</time>
      </trkpt>
      <trkpt lat="59.039104807637" lon="17.674376591314">
        <ele>0</ele>
        <time>2017-09-02T10:12:30Z</time>
      </trkpt>
      <trkpt lat="59.039283174469" lon="17.674368377052">
        <ele>0</ele>
        <time>2017-09-02T10:12:32Z</time>
      </trkpt>
      <trkpt lat="59.039370849143" lon="17.674360078971">
        <ele>0</ele>
        <time>2017-09-02T10:12:33Z</time>
      </trkpt>
      <trkpt lat="59.039457182713" lon="17.674349433958">
        <ele>0</ele>
        <time>2017-09-02T10:12:34Z</time>
      </trkpt>
      <trkpt lat="59.039627167645" lon="17.674345745922">
        <ele>0</ele>
        <time>2017-09-02T10:12:36Z</time>
      </trkpt>
      <trkpt lat="59.039795476197" lon="17.674339124221">
        <ele>0.4</ele>
        <time>2017-09-02T10:12:38Z</time>
      </trkpt>
      <trkpt lat="59.039961018722" lon="17.67432495881">
        <ele>0.2</ele>
        <time>2017-09-02T10:12:40Z</time>
      </trkpt>
      <trkpt lat="59.040123879039" lon="17.674312469779">
        <ele>0.6</ele>
        <time>2017-09-02T10:12:42Z</time>
      </trkpt>
      <trkpt lat="59.040289253926" lon="17.674301238033">
        <ele>0.4</ele>
        <time>2017-09-02T10:12:44Z</time>
      </trkpt>
      <trkpt lat="59.040459574134" lon="17.674293191409">
        <ele>0.8</ele>
        <time>2017-09-02T10:12:46Z</time>
      </trkpt>
      <trkpt lat="59.04054708117" lon="17.674287156441">
        <ele>1</ele>
        <time>2017-09-02T10:12:47Z</time>
      </trkpt>
      <trkpt lat="59.040634336749" lon="17.674279109817">
        <ele>1.4</ele>
        <time>2017-09-02T10:12:48Z</time>
      </trkpt>
      <trkpt lat="59.04080943464" lon="17.674264860587">
        <ele>2.2</ele>
        <time>2017-09-02T10:12:50Z</time>
      </trkpt>
      <trkpt lat="59.040989813128" lon="17.674251533366">
        <ele>2.6</ele>
        <time>2017-09-02T10:12:52Z</time>
      </trkpt>
      <trkpt lat="59.041081678752" lon="17.674244241113">
        <ele>3.2</ele>
        <time>2017-09-02T10:12:53Z</time>
      </trkpt>
      <trkpt lat="59.041173879652" lon="17.674237032679">
        <ele>3.6</ele>
        <time>2017-09-02T10:12:54Z</time>
      </trkpt>
      <trkpt lat="59.041356521253" lon="17.674225130381">
        <ele>3.8</ele>
        <time>2017-09-02T10:12:56Z</time>
      </trkpt>
      <trkpt lat="59.041533966076" lon="17.674210713513">
        <ele>4</ele>
        <time>2017-09-02T10:12:58Z</time>
      </trkpt>
      <trkpt lat="59.041714009288" lon="17.674191099867">
        <ele>4.2</ele>
        <time>2017-09-02T10:13:00Z</time>
      </trkpt>
      <trkpt lat="59.041902685857" lon="17.674191435143">
        <ele>4.2</ele>
        <time>2017-09-02T10:13:02Z</time>
      </trkpt>
      <trkpt lat="59.041997485146" lon="17.674191602781">
        <ele>4.2</ele>
        <time>2017-09-02T10:13:03Z</time>
      </trkpt>
      <trkpt lat="59.042090440417" lon="17.674192440971">
        <ele>4.2</ele>
        <time>2017-09-02T10:13:04Z</time>
      </trkpt>
      <trkpt lat="59.042271824733" lon="17.674191602781">
        <ele>4.2</ele>
        <time>2017-09-02T10:13:06Z</time>
      </trkpt>
      <trkpt lat="59.042447928452" lon="17.674181712139">
        <ele>4.2</ele>
        <time>2017-09-02T10:13:08Z</time>
      </trkpt>
      <trkpt lat="59.042622774886" lon="17.674180622492">
        <ele>4.4</ele>
        <time>2017-09-02T10:13:10Z</time>
      </trkpt>
      <trkpt lat="59.042802566641" lon="17.674174336067">
        <ele>4</ele>
        <time>2017-09-02T10:13:12Z</time>
      </trkpt>
      <trkpt lat="59.042984034776" lon="17.67416570271">
        <ele>4.2</ele>
        <time>2017-09-02T10:13:14Z</time>
      </trkpt>
      <trkpt lat="59.043163994169" lon="17.674156314982">
        <ele>4</ele>
        <time>2017-09-02T10:13:16Z</time>
      </trkpt>
      <trkpt lat="59.043344707933" lon="17.674146927254">
        <ele>3.6</ele>
        <time>2017-09-02T10:13:18Z</time>
      </trkpt>
      <trkpt lat="59.043526762801" lon="17.674136198422">
        <ele>3.4</ele>
        <time>2017-09-02T10:13:20Z</time>
      </trkpt>
      <trkpt lat="59.043708566212" lon="17.674132007472">
        <ele>3.2</ele>
        <time>2017-09-02T10:13:22Z</time>
      </trkpt>
      <trkpt lat="59.043890369623" lon="17.674127062151">
        <ele>3.2</ele>
        <time>2017-09-02T10:13:24Z</time>
      </trkpt>
      <trkpt lat="59.044072927405" lon="17.674122452106">
        <ele>3.2</ele>
        <time>2017-09-02T10:13:26Z</time>
      </trkpt>
      <trkpt lat="59.04425691011" lon="17.674110298351">
        <ele>3</ele>
        <time>2017-09-02T10:13:28Z</time>
      </trkpt>
      <trkpt lat="59.04444298829" lon="17.674104850116">
        <ele>3</ele>
        <time>2017-09-02T10:13:30Z</time>
      </trkpt>
      <trkpt lat="59.044630994307" lon="17.674095462388">
        <ele>3</ele>
        <time>2017-09-02T10:13:32Z</time>
      </trkpt>
      <trkpt lat="59.044811205157" lon="17.674083140995">
        <ele>2.8</ele>
        <time>2017-09-02T10:13:34Z</time>
      </trkpt>
      <trkpt lat="59.044983034107" lon="17.674074926733">
        <ele>2.8</ele>
        <time>2017-09-02T10:13:36Z</time>
      </trkpt>
      <trkpt lat="59.045152683763" lon="17.674075848742">
        <ele>2.8</ele>
        <time>2017-09-02T10:13:38Z</time>
      </trkpt>
      <trkpt lat="59.045325267084" lon="17.674071322516">
        <ele>2.6</ele>
        <time>2017-09-02T10:13:40Z</time>
      </trkpt>
      <trkpt lat="59.045497096034" lon="17.67405841439">
        <ele>2.6</ele>
        <time>2017-09-02T10:13:42Z</time>
      </trkpt>
      <trkpt lat="59.045659872532" lon="17.674039638934">
        <ele>2.6</ele>
        <time>2017-09-02T10:13:44Z</time>
      </trkpt>
      <trkpt lat="59.045815775872" lon="17.674027485179">
        <ele>2.6</ele>
        <time>2017-09-02T10:13:46Z</time>
      </trkpt>
      <trkpt lat="59.045966901529" lon="17.674029580654">
        <ele>2.6</ele>
        <time>2017-09-02T10:13:48Z</time>
      </trkpt>
      <trkpt lat="59.046119787385" lon="17.674021282573">
        <ele>2.6</ele>
        <time>2017-09-02T10:13:50Z</time>
      </trkpt>
      <trkpt lat="59.046270996861" lon="17.674013068311">
        <ele>2.8</ele>
        <time>2017-09-02T10:13:52Z</time>
      </trkpt>
      <trkpt lat="59.046425140002" lon="17.67400560842">
        <ele>2.8</ele>
        <time>2017-09-02T10:13:54Z</time>
      </trkpt>
      <trkpt lat="59.046581043342" lon="17.673989766629">
        <ele>3.4</ele>
        <time>2017-09-02T10:13:56Z</time>
      </trkpt>
      <trkpt lat="59.046734683569" lon="17.673988928439">
        <ele>4.6</ele>
        <time>2017-09-02T10:13:58Z</time>
      </trkpt>
      <trkpt lat="59.046892682384" lon="17.673980881815">
        <ele>5.4</ele>
        <time>2017-09-02T10:14:00Z</time>
      </trkpt>
      <trkpt lat="59.046974238271" lon="17.673978115788">
        <ele>5.8</ele>
        <time>2017-09-02T10:14:01Z</time>
      </trkpt>
      <trkpt lat="59.04705646471" lon="17.673977780512">
        <ele>6</ele>
        <time>2017-09-02T10:14:02Z</time>
      </trkpt>
      <trkpt lat="59.047223180701" lon="17.673970823535">
        <ele>6.2</ele>
        <time>2017-09-02T10:14:04Z</time>
      </trkpt>
      <trkpt lat="59.04739425528" lon="17.673960765255">
        <ele>6.2</ele>
        <time>2017-09-02T10:14:06Z</time>
      </trkpt>
      <trkpt lat="59.047576393967" lon="17.67394190598">
        <ele>6.4</ele>
        <time>2017-09-02T10:14:08Z</time>
      </trkpt>
      <trkpt lat="59.047777391929" lon="17.673942408894">
        <ele>6.2</ele>
        <time>2017-09-02T10:14:10Z</time>
      </trkpt>
      <trkpt lat="59.047993980225" lon="17.673941570704">
        <ele>6</ele>
        <time>2017-09-02T10:14:12Z</time>
      </trkpt>
      <trkpt lat="59.048222051724" lon="17.673937128297">
        <ele>5.6</ele>
        <time>2017-09-02T10:14:14Z</time>
      </trkpt>
      <trkpt lat="59.048458505123" lon="17.673935284279">
        <ele>5</ele>
        <time>2017-09-02T10:14:16Z</time>
      </trkpt>
      <trkpt lat="59.048578282474" lon="17.673929500768">
        <ele>4</ele>
        <time>2017-09-02T10:14:17Z</time>
      </trkpt>
      <trkpt lat="59.048698646558" lon="17.673924723085">
        <ele>3.6</ele>
        <time>2017-09-02T10:14:18Z</time>
      </trkpt>
      <trkpt lat="59.048939207088" lon="17.673915000081">
        <ele>3.2</ele>
        <time>2017-09-02T10:14:20Z</time>
      </trkpt>
      <trkpt lat="59.049176079582" lon="17.673904857982">
        <ele>3</ele>
        <time>2017-09-02T10:14:22Z</time>
      </trkpt>
      <trkpt lat="59.049393589887" lon="17.673897649548">
        <ele>3</ele>
        <time>2017-09-02T10:14:24Z</time>
      </trkpt>
      <trkpt lat="59.049594001116" lon="17.673891279304">
        <ele>3</ele>
        <time>2017-09-02T10:14:26Z</time>
      </trkpt>
      <trkpt lat="59.049781336581" lon="17.673873928771">
        <ele>3</ele>
        <time>2017-09-02T10:14:28Z</time>
      </trkpt>
      <trkpt lat="59.049942939613" lon="17.6738647925">
        <ele>3</ele>
        <time>2017-09-02T10:14:30Z</time>
      </trkpt>
      <trkpt lat="59.050021226559" lon="17.673892536589">
        <ele>3.4</ele>
        <time>2017-09-02T10:14:31Z</time>
      </trkpt>
      <trkpt lat="59.050092305071" lon="17.673956239029">
        <ele>4</ele>
        <time>2017-09-02T10:14:32Z</time>
      </trkpt>
      <trkpt lat="59.05014519486" lon="17.67405506163">
        <ele>4.6</ele>
        <time>2017-09-02T10:14:33Z</time>
      </trkpt>
      <trkpt lat="59.050173358044" lon="17.674183472338">
        <ele>5.2</ele>
        <time>2017-09-02T10:14:34Z</time>
      </trkpt>
      <trkpt lat="59.050183583962" lon="17.674326886647">
        <ele>5.6</ele>
        <time>2017-09-02T10:14:35Z</time>
      </trkpt>
      <trkpt lat="59.050180566478" lon="17.674476084467">
        <ele>6.4</ele>
        <time>2017-09-02T10:14:36Z</time>
      </trkpt>
      <trkpt lat="59.050160533737" lon="17.674621845708">
        <ele>7.4</ele>
        <time>2017-09-02T10:14:37Z</time>
      </trkpt>
      <trkpt lat="59.050128933974" lon="17.67476584675">
        <ele>8.2</ele>
        <time>2017-09-02T10:14:38Z</time>
      </trkpt>
      <trkpt lat="59.050092975623" lon="17.674912613819">
        <ele>8.6</ele>
        <time>2017-09-02T10:14:39Z</time>
      </trkpt>
      <trkpt lat="59.05005467034" lon="17.675064074752">
        <ele>8.8</ele>
        <time>2017-09-02T10:14:40Z</time>
      </trkpt>
      <trkpt lat="59.049974958471" lon="17.675387616092">
        <ele>9</ele>
        <time>2017-09-02T10:14:42Z</time>
      </trkpt>
      <trkpt lat="59.049887619073" lon="17.675730519621">
        <ele>9</ele>
        <time>2017-09-02T10:14:44Z</time>
      </trkpt>
      <trkpt lat="59.049785443712" lon="17.676082559421">
        <ele>9</ele>
        <time>2017-09-02T10:14:46Z</time>
      </trkpt>
      <trkpt lat="59.049669019121" lon="17.676439879818">
        <ele>8.2</ele>
        <time>2017-09-02T10:14:48Z</time>
      </trkpt>
      <trkpt lat="59.049604394672" lon="17.676617911374">
        <ele>7.2</ele>
        <time>2017-09-02T10:14:49Z</time>
      </trkpt>
      <trkpt lat="59.049539518766" lon="17.676796697301">
        <ele>6.4</ele>
        <time>2017-09-02T10:14:50Z</time>
      </trkpt>
      <trkpt lat="59.049474307584" lon="17.676974142124">
        <ele>5.6</ele>
        <time>2017-09-02T10:14:51Z</time>
      </trkpt>
      <trkpt lat="59.049409850773" lon="17.677148401825">
        <ele>4.6</ele>
        <time>2017-09-02T10:14:52Z</time>
      </trkpt>
      <trkpt lat="59.049346148333" lon="17.677322410069">
        <ele>3.8</ele>
        <time>2017-09-02T10:14:53Z</time>
      </trkpt>
      <trkpt lat="59.049283367902" lon="17.677496837408">
        <ele>2.8</ele>
        <time>2017-09-02T10:14:54Z</time>
      </trkpt>
      <trkpt lat="59.049220838928" lon="17.677670594195">
        <ele>1.6</ele>
        <time>2017-09-02T10:14:55Z</time>
      </trkpt>
      <trkpt lat="59.049159064325" lon="17.677843261335">
        <ele>0.8</ele>
        <time>2017-09-02T10:14:56Z</time>
      </trkpt>
      <trkpt lat="59.049095110428" lon="17.678013078629">
        <ele>0.2</ele>
        <time>2017-09-02T10:14:57Z</time>
      </trkpt>
      <trkpt lat="59.049030653617" lon="17.67818398557">
        <ele>0</ele>
        <time>2017-09-02T10:14:58Z</time>
      </trkpt>
      <trkpt lat="59.04896753791" lon="17.678356987986">
        <ele>0</ele>
        <time>2017-09-02T10:14:59Z</time>
      </trkpt>
      <trkpt lat="59.048905428031" lon="17.678530828592">
        <ele>0</ele>
        <time>2017-09-02T10:15:00Z</time>
      </trkpt>
      <trkpt lat="59.048842563781" lon="17.678703579551">
        <ele>0</ele>
        <time>2017-09-02T10:15:01Z</time>
      </trkpt>
      <trkpt lat="59.048779448074" lon="17.678875743777">
        <ele>0</ele>
        <time>2017-09-02T10:15:02Z</time>
      </trkpt>
      <trkpt lat="59.04865237847" lon="17.67921831203">
        <ele>0</ele>
        <time>2017-09-02T10:15:04Z</time>
      </trkpt>
      <trkpt lat="59.048589430401" lon="17.679387123496">
        <ele>0</ele>
        <time>2017-09-02T10:15:05Z</time>
      </trkpt>
      <trkpt lat="59.048527069065" lon="17.679554510039">
        <ele>0</ele>
        <time>2017-09-02T10:15:06Z</time>
      </trkpt>
      <trkpt lat="59.048403771316" lon="17.67988215851">
        <ele>0</ele>
        <time>2017-09-02T10:15:08Z</time>
      </trkpt>
      <trkpt lat="59.04828189849" lon="17.680205196936">
        <ele>0</ele>
        <time>2017-09-02T10:15:10Z</time>
      </trkpt>
      <trkpt lat="59.048163546062" lon="17.680522787127">
        <ele>0</ele>
        <time>2017-09-02T10:15:12Z</time>
      </trkpt>
      <trkpt lat="59.048045780367" lon="17.680832330694">
        <ele>0</ele>
        <time>2017-09-02T10:15:14Z</time>
      </trkpt>
      <trkpt lat="59.047931451251" lon="17.681138521501">
        <ele>0</ele>
        <time>2017-09-02T10:15:16Z</time>
      </trkpt>
      <trkpt lat="59.04787537634" lon="17.681288892787">
        <ele>0</ele>
        <time>2017-09-02T10:15:17Z</time>
      </trkpt>
      <trkpt lat="59.04781921761" lon="17.681437420055">
        <ele>0</ele>
        <time>2017-09-02T10:15:18Z</time>
      </trkpt>
      <trkpt lat="59.047710001453" lon="17.681731876202">
        <ele>0</ele>
        <time>2017-09-02T10:15:20Z</time>
      </trkpt>
      <trkpt lat="59.04760715554" lon="17.682024488331">
        <ele>0</ele>
        <time>2017-09-02T10:15:22Z</time>
      </trkpt>
      <trkpt lat="59.047519648504" lon="17.682323470704">
        <ele>0</ele>
        <time>2017-09-02T10:15:24Z</time>
      </trkpt>
      <trkpt lat="59.047470027656" lon="17.682644916569">
        <ele>0</ele>
        <time>2017-09-02T10:15:26Z</time>
      </trkpt>
      <trkpt lat="59.04745376677" lon="17.682973822325">
        <ele>0</ele>
        <time>2017-09-02T10:15:28Z</time>
      </trkpt>
      <trkpt lat="59.047478577194" lon="17.683294094724">
        <ele>0</ele>
        <time>2017-09-02T10:15:30Z</time>
      </trkpt>
      <trkpt lat="59.047532221354" lon="17.683601458997">
        <ele>0</ele>
        <time>2017-09-02T10:15:32Z</time>
      </trkpt>
      <trkpt lat="59.047604389513" lon="17.683886275959">
        <ele>0</ele>
        <time>2017-09-02T10:15:34Z</time>
      </trkpt>
      <trkpt lat="59.047687789418" lon="17.684159777356">
        <ele>0</ele>
        <time>2017-09-02T10:15:36Z</time>
      </trkpt>
      <trkpt lat="59.047775464092" lon="17.684435541866">
        <ele>0</ele>
        <time>2017-09-02T10:15:38Z</time>
      </trkpt>
      <trkpt lat="59.047862552033" lon="17.684712396023">
        <ele>0</ele>
        <time>2017-09-02T10:15:40Z</time>
      </trkpt>
      <trkpt lat="59.047948969422" lon="17.684988160533">
        <ele>0</ele>
        <time>2017-09-02T10:15:42Z</time>
      </trkpt>
      <trkpt lat="59.048038069019" lon="17.685260907559">
        <ele>0</ele>
        <time>2017-09-02T10:15:44Z</time>
      </trkpt>
      <trkpt lat="59.048125408417" lon="17.685537091164">
        <ele>0</ele>
        <time>2017-09-02T10:15:46Z</time>
      </trkpt>
      <trkpt lat="59.048211909625" lon="17.685814196778">
        <ele>0</ele>
        <time>2017-09-02T10:15:48Z</time>
      </trkpt>
      <trkpt lat="59.048299668118" lon="17.686091218573">
        <ele>0</ele>
        <time>2017-09-02T10:15:50Z</time>
      </trkpt>
      <trkpt lat="59.048386001688" lon="17.686364384694">
        <ele>0</ele>
        <time>2017-09-02T10:15:52Z</time>
      </trkpt>
      <trkpt lat="59.048471161792" lon="17.686633359865">
        <ele>0</ele>
        <time>2017-09-02T10:15:54Z</time>
      </trkpt>
      <trkpt lat="59.048552382403" lon="17.686897389715">
        <ele>0</ele>
        <time>2017-09-02T10:15:56Z</time>
      </trkpt>
      <trkpt lat="59.048630082616" lon="17.687153372941">
        <ele>0</ele>
        <time>2017-09-02T10:15:58Z</time>
      </trkpt>
      <trkpt lat="59.0487085372" lon="17.68740239919">
        <ele>0</ele>
        <time>2017-09-02T10:16:00Z</time>
      </trkpt>
      <trkpt lat="59.048781543549" lon="17.687639858417">
        <ele>0</ele>
        <time>2017-09-02T10:16:02Z</time>
      </trkpt>
      <trkpt lat="59.048817669538" lon="17.687755109542">
        <ele>0</ele>
        <time>2017-09-02T10:16:03Z</time>
      </trkpt>
      <trkpt lat="59.048851700052" lon="17.687871198857">
        <ele>0</ele>
        <time>2017-09-02T10:16:04Z</time>
      </trkpt>
      <trkpt lat="59.048914648121" lon="17.688095163225">
        <ele>0</ele>
        <time>2017-09-02T10:16:06Z</time>
      </trkpt>
      <trkpt lat="59.048974578706" lon="17.688304962182">
        <ele>0</ele>
        <time>2017-09-02T10:16:08Z</time>
      </trkpt>
      <trkpt lat="59.049029899246" lon="17.688499170805">
        <ele>0</ele>
        <time>2017-09-02T10:16:10Z</time>
      </trkpt>
      <trkpt lat="59.049082789035" lon="17.688689104659">
        <ele>0</ele>
        <time>2017-09-02T10:16:12Z</time>
      </trkpt>
      <trkpt lat="59.049123273612" lon="17.688856323564">
        <ele>0</ele>
        <time>2017-09-02T10:16:14Z</time>
      </trkpt>
      <trkpt lat="59.04913852867" lon="17.688964282436">
        <ele>0</ele>
        <time>2017-09-02T10:16:16Z</time>
      </trkpt>
      <trkpt lat="59.049133918625" lon="17.688995463104">
        <ele>0</ele>
        <time>2017-09-02T10:16:17Z</time>
      </trkpt>
      <trkpt lat="59.049123189793" lon="17.68901591494">
        <ele>0</ele>
        <time>2017-09-02T10:16:18Z</time>
      </trkpt>
      <trkpt lat="59.049101145396" lon="17.689034103663">
        <ele>0</ele>
        <time>2017-09-02T10:16:20Z</time>
      </trkpt>
      <trkpt lat="59.049096870627" lon="17.689038378432">
        <ele>0</ele>
        <time>2017-09-02T10:16:21Z</time>
      </trkpt>
      <trkpt lat="59.049166524216" lon="17.689110211315">
        <ele>1.6</ele>
        <time>2017-09-02T10:26:39Z</time>
      </trkpt>
      <trkpt lat="59.049186556957" lon="17.689120856328">
        <ele>1.6</ele>
        <time>2017-09-02T10:26:40Z</time>
      </trkpt>
      <trkpt lat="59.049226035706" lon="17.689149606245">
        <ele>1.6</ele>
        <time>2017-09-02T10:26:42Z</time>
      </trkpt>
      <trkpt lat="59.049252354872" lon="17.689182295655">
        <ele>1.6</ele>
        <time>2017-09-02T10:26:44Z</time>
      </trkpt>
      <trkpt lat="59.049266687921" lon="17.689206854622">
        <ele>1.6</ele>
        <time>2017-09-02T10:26:46Z</time>
      </trkpt>
      <trkpt lat="59.049285379558" lon="17.689253038891">
        <ele>1.6</ele>
        <time>2017-09-02T10:26:48Z</time>
      </trkpt>
      <trkpt lat="59.049314967665" lon="17.689313723847">
        <ele>1.4</ele>
        <time>2017-09-02T10:26:50Z</time>
      </trkpt>
      <trkpt lat="59.049343717582" lon="17.689367368007">
        <ele>1.4</ele>
        <time>2017-09-02T10:26:52Z</time>
      </trkpt>
      <trkpt lat="59.049368947101" lon="17.689414809561">
        <ele>1.4</ele>
        <time>2017-09-02T10:26:54Z</time>
      </trkpt>
      <trkpt lat="59.049391159136" lon="17.689467364074">
        <ele>1.4</ele>
        <time>2017-09-02T10:26:56Z</time>
      </trkpt>
      <trkpt lat="59.049410521325" lon="17.689516901103">
        <ele>1.4</ele>
        <time>2017-09-02T10:26:58Z</time>
      </trkpt>
      <trkpt lat="59.049428374772" lon="17.68957079672">
        <ele>1.4</ele>
        <time>2017-09-02T10:27:00Z</time>
      </trkpt>
      <trkpt lat="59.049445809124" lon="17.689624189423">
        <ele>1.4</ele>
        <time>2017-09-02T10:27:02Z</time>
      </trkpt>
      <trkpt lat="59.049461567096" lon="17.689680180515">
        <ele>1.4</ele>
        <time>2017-09-02T10:27:04Z</time>
      </trkpt>
      <trkpt lat="59.049475816326" lon="17.689739440548">
        <ele>1.4</ele>
        <time>2017-09-02T10:27:06Z</time>
      </trkpt>
      <trkpt lat="59.049487886262" lon="17.689796437468">
        <ele>1.4</ele>
        <time>2017-09-02T10:27:08Z</time>
      </trkpt>
      <trkpt lat="59.049504230967" lon="17.689846477411">
        <ele>1.4</ele>
        <time>2017-09-02T10:27:10Z</time>
      </trkpt>
      <trkpt lat="59.049522838785" lon="17.689871371654">
        <ele>1.4</ele>
        <time>2017-09-02T10:27:12Z</time>
      </trkpt>
      <trkpt lat="59.049565418837" lon="17.689870952559">
        <ele>1.2</ele>
        <time>2017-09-02T10:29:41Z</time>
      </trkpt>
      <trkpt lat="59.049585200121" lon="17.689870617283">
        <ele>1.2</ele>
        <time>2017-09-02T10:29:42Z</time>
      </trkpt>
      <trkpt lat="59.049632725494" lon="17.689890733843">
        <ele>1.2</ele>
        <time>2017-09-02T10:29:44Z</time>
      </trkpt>
      <trkpt lat="59.049688465129" lon="17.689929039126">
        <ele>1.2</ele>
        <time>2017-09-02T10:29:46Z</time>
      </trkpt>
      <trkpt lat="59.04975124556" lon="17.689992909204">
        <ele>1.2</ele>
        <time>2017-09-02T10:29:48Z</time>
      </trkpt>
      <trkpt lat="59.049802542788" lon="17.690041356586">
        <ele>1</ele>
        <time>2017-09-02T10:29:50Z</time>
      </trkpt>
      <trkpt lat="59.049847218315" lon="17.69008628357">
        <ele>0.6</ele>
        <time>2017-09-02T10:29:52Z</time>
      </trkpt>
      <trkpt lat="59.049887786711" lon="17.690128444527">
        <ele>0.2</ele>
        <time>2017-09-02T10:29:54Z</time>
      </trkpt>
      <trkpt lat="59.049918129189" lon="17.690168007095">
        <ele>0</ele>
        <time>2017-09-02T10:29:56Z</time>
      </trkpt>
      <trkpt lat="59.049948304029" lon="17.690204971274">
        <ele>0</ele>
        <time>2017-09-02T10:29:58Z</time>
      </trkpt>
      <trkpt lat="59.049981831629" lon="17.69023296682">
        <ele>0</ele>
        <time>2017-09-02T10:30:00Z</time>
      </trkpt>
      <trkpt lat="59.05000102618" lon="17.690245791127">
        <ele>0</ele>
        <time>2017-09-02T10:30:01Z</time>
      </trkpt>
      <trkpt lat="59.050013766668" lon="17.690259621262">
        <ele>0</ele>
        <time>2017-09-02T10:30:02Z</time>
      </trkpt>
      <trkpt lat="59.050020891283" lon="17.690265991506">
        <ele>0</ele>
        <time>2017-09-02T10:30:03Z</time>
      </trkpt>
      <trkpt lat="59.050036062522" lon="17.690264398945">
        <ele>0</ele>
        <time>2017-09-02T10:30:07Z</time>
      </trkpt>
      <trkpt lat="59.050040756386" lon="17.690262554927">
        <ele>0</ele>
        <time>2017-09-02T10:30:08Z</time>
      </trkpt>
      <trkpt lat="59.050156761882" lon="17.690286359523">
        <ele>0.6</ele>
        <time>2017-09-02T10:30:26Z</time>
      </trkpt>
      <trkpt lat="59.0501837516" lon="17.690300441115">
        <ele>0.6</ele>
        <time>2017-09-02T10:30:28Z</time>
      </trkpt>
      <trkpt lat="59.050211998603" lon="17.690317875467">
        <ele>0.6</ele>
        <time>2017-09-02T10:30:30Z</time>
      </trkpt>
      <trkpt lat="59.050241335253" lon="17.690338746398">
        <ele>0.6</ele>
        <time>2017-09-02T10:30:32Z</time>
      </trkpt>
      <trkpt lat="59.050272935016" lon="17.690360623157">
        <ele>0.6</ele>
        <time>2017-09-02T10:30:34Z</time>
      </trkpt>
      <trkpt lat="59.050306546435" lon="17.69038384102">
        <ele>0.6</ele>
        <time>2017-09-02T10:30:36Z</time>
      </trkpt>
      <trkpt lat="59.050342420967" lon="17.690409908729">
        <ele>0.6</ele>
        <time>2017-09-02T10:30:38Z</time>
      </trkpt>
      <trkpt lat="59.05037988806" lon="17.690436227895">
        <ele>0.6</ele>
        <time>2017-09-02T10:30:40Z</time>
      </trkpt>
      <trkpt lat="59.050419031533" lon="17.69046263088">
        <ele>0.6</ele>
        <time>2017-09-02T10:30:42Z</time>
      </trkpt>
      <trkpt lat="59.050459180834" lon="17.690490458788">
        <ele>0.8</ele>
        <time>2017-09-02T10:30:44Z</time>
      </trkpt>
      <trkpt lat="59.050500252144" lon="17.690524573121">
        <ele>0.8</ele>
        <time>2017-09-02T10:30:46Z</time>
      </trkpt>
      <trkpt lat="59.050543167472" lon="17.690566985535">
        <ele>0.8</ele>
        <time>2017-09-02T10:30:48Z</time>
      </trkpt>
      <trkpt lat="59.050586418076" lon="17.690609817044">
        <ele>1</ele>
        <time>2017-09-02T10:30:50Z</time>
      </trkpt>
      <trkpt lat="59.050630842146" lon="17.690655163123">
        <ele>1</ele>
        <time>2017-09-02T10:30:52Z</time>
      </trkpt>
      <trkpt lat="59.050676691139" lon="17.690702269401">
        <ele>1</ele>
        <time>2017-09-02T10:30:54Z</time>
      </trkpt>
      <trkpt lat="59.050723797417" lon="17.690749543317">
        <ele>1.2</ele>
        <time>2017-09-02T10:30:56Z</time>
      </trkpt>
      <trkpt lat="59.050769311134" lon="17.690794973215">
        <ele>1.2</ele>
        <time>2017-09-02T10:30:58Z</time>
      </trkpt>
      <trkpt lat="59.050816417412" lon="17.690840319294">
        <ele>1.2</ele>
        <time>2017-09-02T10:31:00Z</time>
      </trkpt>
      <trkpt lat="59.050863439871" lon="17.690888263762">
        <ele>1</ele>
        <time>2017-09-02T10:31:02Z</time>
      </trkpt>
      <trkpt lat="59.050911049063" lon="17.69093453185">
        <ele>1</ele>
        <time>2017-09-02T10:31:04Z</time>
      </trkpt>
      <trkpt lat="59.050959664083" lon="17.690979877929">
        <ele>1</ele>
        <time>2017-09-02T10:31:06Z</time>
      </trkpt>
      <trkpt lat="59.051007860008" lon="17.691028325311">
        <ele>0.8</ele>
        <time>2017-09-02T10:31:08Z</time>
      </trkpt>
      <trkpt lat="59.051055720657" lon="17.69108205329">
        <ele>0.6</ele>
        <time>2017-09-02T10:31:10Z</time>
      </trkpt>
      <trkpt lat="59.05110492241" lon="17.691135613631">
        <ele>0.6</ele>
        <time>2017-09-02T10:31:12Z</time>
      </trkpt>
      <trkpt lat="59.051155046172" lon="17.691186743221">
        <ele>0.4</ele>
        <time>2017-09-02T10:31:14Z</time>
      </trkpt>
      <trkpt lat="59.051204415563" lon="17.691241812304">
        <ele>0.6</ele>
        <time>2017-09-02T10:31:16Z</time>
      </trkpt>
      <trkpt lat="59.05125412023" lon="17.691298893043">
        <ele>0.6</ele>
        <time>2017-09-02T10:31:18Z</time>
      </trkpt>
      <trkpt lat="59.051305668915" lon="17.691358236895">
        <ele>0.6</ele>
        <time>2017-09-02T10:31:20Z</time>
      </trkpt>
      <trkpt lat="59.051357720514" lon="17.691422190792">
        <ele>0.6</ele>
        <time>2017-09-02T10:31:22Z</time>
      </trkpt>
      <trkpt lat="59.05140667081" lon="17.691485725594">
        <ele>0.6</ele>
        <time>2017-09-02T10:31:24Z</time>
      </trkpt>
      <trkpt lat="59.05145277126" lon="17.691549008939">
        <ele>0.6</ele>
        <time>2017-09-02T10:31:26Z</time>
      </trkpt>
      <trkpt lat="59.05149551895" lon="17.69160759842">
        <ele>0.6</ele>
        <time>2017-09-02T10:31:28Z</time>
      </trkpt>
      <trkpt lat="59.051538182821" lon="17.691663086598">
        <ele>0.6</ele>
        <time>2017-09-02T10:31:30Z</time>
      </trkpt>
      <trkpt lat="59.051579254131" lon="17.691712707446">
        <ele>0.6</ele>
        <time>2017-09-02T10:31:32Z</time>
      </trkpt>
      <trkpt lat="59.051618984337" lon="17.691760149">
        <ele>0.6</ele>
        <time>2017-09-02T10:31:34Z</time>
      </trkpt>
      <trkpt lat="59.051656116154" lon="17.691809183115">
        <ele>0.6</ele>
        <time>2017-09-02T10:31:36Z</time>
      </trkpt>
      <trkpt lat="59.05169165541" lon="17.691855115927">
        <ele>0.4</ele>
        <time>2017-09-02T10:31:38Z</time>
      </trkpt>
      <trkpt lat="59.051725518286" lon="17.691899623816">
        <ele>0.4</ele>
        <time>2017-09-02T10:31:40Z</time>
      </trkpt>
      <trkpt lat="59.051758626791" lon="17.691942622963">
        <ele>0.4</ele>
        <time>2017-09-02T10:31:42Z</time>
      </trkpt>
      <trkpt lat="59.051790645649" lon="17.691985035377">
        <ele>0.4</ele>
        <time>2017-09-02T10:31:44Z</time>
      </trkpt>
      <trkpt lat="59.051820233756" lon="17.692026525782">
        <ele>0.4</ele>
        <time>2017-09-02T10:31:46Z</time>
      </trkpt>
      <trkpt lat="59.051849486587" lon="17.692068183825">
        <ele>0.6</ele>
        <time>2017-09-02T10:31:48Z</time>
      </trkpt>
      <trkpt lat="59.051878152685" lon="17.692110428601">
        <ele>0.8</ele>
        <time>2017-09-02T10:31:50Z</time>
      </trkpt>
      <trkpt lat="59.051905561498" lon="17.692154685033">
        <ele>0.8</ele>
        <time>2017-09-02T10:31:52Z</time>
      </trkpt>
      <trkpt lat="59.051932970311" lon="17.692197767999">
        <ele>0.6</ele>
        <time>2017-09-02T10:31:54Z</time>
      </trkpt>
      <trkpt lat="59.051960043848" lon="17.692242694983">
        <ele>0.6</ele>
        <time>2017-09-02T10:31:56Z</time>
      </trkpt>
      <trkpt lat="59.051985608643" lon="17.692289465985">
        <ele>0.6</ele>
        <time>2017-09-02T10:31:58Z</time>
      </trkpt>
      <trkpt lat="59.05200932942" lon="17.692334979702">
        <ele>0.6</ele>
        <time>2017-09-02T10:32:00Z</time>
      </trkpt>
      <trkpt lat="59.052031373817" lon="17.692378314125">
        <ele>0.6</ele>
        <time>2017-09-02T10:32:02Z</time>
      </trkpt>
      <trkpt lat="59.052052328567" lon="17.692419469254">
        <ele>0.6</ele>
        <time>2017-09-02T10:32:04Z</time>
      </trkpt>
      <trkpt lat="59.052072780403" lon="17.692458696546">
        <ele>0.6</ele>
        <time>2017-09-02T10:32:06Z</time>
      </trkpt>
      <trkpt lat="59.05209063385" lon="17.692497085648">
        <ele>0.6</ele>
        <time>2017-09-02T10:32:08Z</time>
      </trkpt>
      <trkpt lat="59.052108654935" lon="17.692534552741">
        <ele>0.6</ele>
        <time>2017-09-02T10:32:10Z</time>
      </trkpt>
      <trkpt lat="59.052126592201" lon="17.692572941843">
        <ele>0.8</ele>
        <time>2017-09-02T10:32:12Z</time>
      </trkpt>
      <trkpt lat="59.052142517811" lon="17.692612001497">
        <ele>0.8</ele>
        <time>2017-09-02T10:32:14Z</time>
      </trkpt>
      <trkpt lat="59.052157102317" lon="17.692650809694">
        <ele>0.8</ele>
        <time>2017-09-02T10:32:16Z</time>
      </trkpt>
      <trkpt lat="59.052172608832" lon="17.692689617891">
        <ele>0.8</ele>
        <time>2017-09-02T10:32:18Z</time>
      </trkpt>
      <trkpt lat="59.052185852234" lon="17.692726749708">
        <ele>0.8</ele>
        <time>2017-09-02T10:32:20Z</time>
      </trkpt>
      <trkpt lat="59.052196329609" lon="17.692760193489">
        <ele>0.8</ele>
        <time>2017-09-02T10:32:22Z</time>
      </trkpt>
      <trkpt lat="59.052206639346" lon="17.692786345017">
        <ele>0.8</ele>
        <time>2017-09-02T10:32:24Z</time>
      </trkpt>
      <trkpt lat="59.052218625463" lon="17.692806796853">
        <ele>0.8</ele>
        <time>2017-09-02T10:32:26Z</time>
      </trkpt>
      <trkpt lat="59.052230360123" lon="17.69282716487">
        <ele>0.8</ele>
        <time>2017-09-02T10:32:28Z</time>
      </trkpt>
      <trkpt lat="59.052240921317" lon="17.69284644324">
        <ele>0.8</ele>
        <time>2017-09-02T10:32:30Z</time>
      </trkpt>
      <trkpt lat="59.05225072814" lon="17.69286488342">
        <ele>0.8</ele>
        <time>2017-09-02T10:32:32Z</time>
      </trkpt>
      <trkpt lat="59.052258690945" lon="17.692881144306">
        <ele>0.8</ele>
        <time>2017-09-02T10:32:34Z</time>
      </trkpt>
      <trkpt lat="59.052266067017" lon="17.692898075744">
        <ele>0.8</ele>
        <time>2017-09-02T10:32:36Z</time>
      </trkpt>
      <trkpt lat="59.052273191632" lon="17.692920036322">
        <ele>0.8</ele>
        <time>2017-09-02T10:32:38Z</time>
      </trkpt>
      <trkpt lat="59.052277885496" lon="17.692940069063">
        <ele>0.8</ele>
        <time>2017-09-02T10:32:40Z</time>
      </trkpt>
      <trkpt lat="59.052283669007" lon="17.692958509243">
        <ele>0.8</ele>
        <time>2017-09-02T10:32:42Z</time>
      </trkpt>
      <trkpt lat="59.052290458346" lon="17.692974183396">
        <ele>0.8</ele>
        <time>2017-09-02T10:32:44Z</time>
      </trkpt>
      <trkpt lat="59.052294733115" lon="17.692988684083">
        <ele>0.8</ele>
        <time>2017-09-02T10:32:46Z</time>
      </trkpt>
      <trkpt lat="59.052296744771" lon="17.692996227793">
        <ele>0.8</ele>
        <time>2017-09-02T10:32:47Z</time>
      </trkpt>
      <trkpt lat="59.052324069765" lon="17.693078538051">
        <ele>0.6</ele>
        <time>2017-09-02T10:33:17Z</time>
      </trkpt>
      <trkpt lat="59.052344773058" lon="17.693141067025">
        <ele>0.6</ele>
        <time>2017-09-02T10:33:19Z</time>
      </trkpt>
      <trkpt lat="59.052357932641" lon="17.693208289863">
        <ele>0.6</ele>
        <time>2017-09-02T10:33:21Z</time>
      </trkpt>
      <trkpt lat="59.05236975112" lon="17.693296383632">
        <ele>0.6</ele>
        <time>2017-09-02T10:33:23Z</time>
      </trkpt>
      <trkpt lat="59.05239322044" lon="17.693406773255">
        <ele>0.6</ele>
        <time>2017-09-02T10:33:25Z</time>
      </trkpt>
      <trkpt lat="59.052439488528" lon="17.69352705352">
        <ele>0.6</ele>
        <time>2017-09-02T10:33:27Z</time>
      </trkpt>
      <trkpt lat="59.05249296505" lon="17.693646160319">
        <ele>0.6</ele>
        <time>2017-09-02T10:33:29Z</time>
      </trkpt>
      <trkpt lat="59.052551554531" lon="17.693760489435">
        <ele>0.6</ele>
        <time>2017-09-02T10:33:31Z</time>
      </trkpt>
      <trkpt lat="59.05261953174" lon="17.693878003673">
        <ele>0.8</ele>
        <time>2017-09-02T10:33:33Z</time>
      </trkpt>
      <trkpt lat="59.052696058487" lon="17.693996020825">
        <ele>0.8</ele>
        <time>2017-09-02T10:33:35Z</time>
      </trkpt>
      <trkpt lat="59.052775351261" lon="17.694117642194">
        <ele>0.8</ele>
        <time>2017-09-02T10:33:37Z</time>
      </trkpt>
      <trkpt lat="59.052816757847" lon="17.694172376001">
        <ele>0.8</ele>
        <time>2017-09-02T10:33:38Z</time>
      </trkpt>
      <trkpt lat="59.052858164433" lon="17.694220907202">
        <ele>0.8</ele>
        <time>2017-09-02T10:33:39Z</time>
      </trkpt>
      <trkpt lat="59.052941983433" lon="17.694302211632">
        <ele>0.8</ele>
        <time>2017-09-02T10:33:41Z</time>
      </trkpt>
      <trkpt lat="59.053027814089" lon="17.694368931556">
        <ele>0.6</ele>
        <time>2017-09-02T10:33:43Z</time>
      </trkpt>
      <trkpt lat="59.053120936998" lon="17.694433891281">
        <ele>0.6</ele>
        <time>2017-09-02T10:33:45Z</time>
      </trkpt>
      <trkpt lat="59.053170725484" lon="17.6944591208">
        <ele>0.6</ele>
        <time>2017-09-02T10:33:46Z</time>
      </trkpt>
      <trkpt lat="59.053221100703" lon="17.694473789125">
        <ele>0.6</ele>
        <time>2017-09-02T10:33:47Z</time>
      </trkpt>
      <trkpt lat="59.053327718471" lon="17.694479824093">
        <ele>0.6</ele>
        <time>2017-09-02T10:33:49Z</time>
      </trkpt>
      <trkpt lat="59.053384547753" lon="17.694473034754">
        <ele>0.6</ele>
        <time>2017-09-02T10:33:50Z</time>
      </trkpt>
      <trkpt lat="59.053439952112" lon="17.694461886827">
        <ele>0.6</ele>
        <time>2017-09-02T10:33:51Z</time>
      </trkpt>
      <trkpt lat="59.053549419726" lon="17.694430119426">
        <ele>0.6</ele>
        <time>2017-09-02T10:33:53Z</time>
      </trkpt>
      <trkpt lat="59.05365804915" lon="17.694382510234">
        <ele>0.6</ele>
        <time>2017-09-02T10:33:55Z</time>
      </trkpt>
      <trkpt lat="59.05376366109" lon="17.694331883558">
        <ele>0.6</ele>
        <time>2017-09-02T10:33:57Z</time>
      </trkpt>
      <trkpt lat="59.053871619962" lon="17.694276060104">
        <ele>0.8</ele>
        <time>2017-09-02T10:33:59Z</time>
      </trkpt>
      <trkpt lat="59.053977734816" lon="17.694218141175">
        <ele>0.8</ele>
        <time>2017-09-02T10:34:01Z</time>
      </trkpt>
      <trkpt lat="59.05408384967" lon="17.694160054608">
        <ele>0.8</ele>
        <time>2017-09-02T10:34:03Z</time>
      </trkpt>
      <trkpt lat="59.054190215981" lon="17.694105991353">
        <ele>0.8</ele>
        <time>2017-09-02T10:34:05Z</time>
      </trkpt>
      <trkpt lat="59.054297169025" lon="17.694049413528">
        <ele>1.2</ele>
        <time>2017-09-02T10:34:07Z</time>
      </trkpt>
      <trkpt lat="59.054403870612" lon="17.693990656409">
        <ele>1.2</ele>
        <time>2017-09-02T10:34:09Z</time>
      </trkpt>
      <trkpt lat="59.054509398733" lon="17.693930055272">
        <ele>1.4</ele>
        <time>2017-09-02T10:34:11Z</time>
      </trkpt>
      <trkpt lat="59.054613921026" lon="17.69387741694">
        <ele>1.6</ele>
        <time>2017-09-02T10:34:13Z</time>
      </trkpt>
      <trkpt lat="59.054665804987" lon="17.693850343403">
        <ele>1.8</ele>
        <time>2017-09-02T10:34:14Z</time>
      </trkpt>
      <trkpt lat="59.054716264025" lon="17.693824359513">
        <ele>2</ele>
        <time>2017-09-02T10:34:15Z</time>
      </trkpt>
      <trkpt lat="59.054813996979" lon="17.693772727009">
        <ele>2.2</ele>
        <time>2017-09-02T10:34:17Z</time>
      </trkpt>
      <trkpt lat="59.054908377173" lon="17.693721932695">
        <ele>2.4</ele>
        <time>2017-09-02T10:34:19Z</time>
      </trkpt>
      <trkpt lat="59.055003260281" lon="17.693674491141">
        <ele>2.8</ele>
        <time>2017-09-02T10:34:21Z</time>
      </trkpt>
      <trkpt lat="59.055050785654" lon="17.693649261622">
        <ele>3</ele>
        <time>2017-09-02T10:34:22Z</time>
      </trkpt>
      <trkpt lat="59.055097891932" lon="17.69362512175">
        <ele>3.2</ele>
        <time>2017-09-02T10:34:23Z</time>
      </trkpt>
      <trkpt lat="59.055189506099" lon="17.693577512558">
        <ele>3.8</ele>
        <time>2017-09-02T10:34:25Z</time>
      </trkpt>
      <trkpt lat="59.05523468454" lon="17.693557312179">
        <ele>4.2</ele>
        <time>2017-09-02T10:34:26Z</time>
      </trkpt>
      <trkpt lat="59.055278689515" lon="17.693535603058">
        <ele>4.4</ele>
        <time>2017-09-02T10:34:27Z</time>
      </trkpt>
      <trkpt lat="59.055366112732" lon="17.69349268773">
        <ele>5</ele>
        <time>2017-09-02T10:34:29Z</time>
      </trkpt>
      <trkpt lat="59.055410285345" lon="17.693470475695">
        <ele>5.2</ele>
        <time>2017-09-02T10:34:30Z</time>
      </trkpt>
      <trkpt lat="59.05545429032" lon="17.693450610592">
        <ele>5.4</ele>
        <time>2017-09-02T10:34:31Z</time>
      </trkpt>
      <trkpt lat="59.055543306098" lon="17.69341305968">
        <ele>5.8</ele>
        <time>2017-09-02T10:34:33Z</time>
      </trkpt>
      <trkpt lat="59.055631735143" lon="17.693383555392">
        <ele>6.4</ele>
        <time>2017-09-02T10:34:35Z</time>
      </trkpt>
      <trkpt lat="59.055719912731" lon="17.693362600642">
        <ele>7.2</ele>
        <time>2017-09-02T10:34:37Z</time>
      </trkpt>
      <trkpt lat="59.05580716831" lon="17.693355140751">
        <ele>7.6</ele>
        <time>2017-09-02T10:34:39Z</time>
      </trkpt>
      <trkpt lat="59.055894926803" lon="17.693350027792">
        <ele>8</ele>
        <time>2017-09-02T10:34:41Z</time>
      </trkpt>
      <trkpt lat="59.055979332536" lon="17.693348183774">
        <ele>8.4</ele>
        <time>2017-09-02T10:34:43Z</time>
      </trkpt>
      <trkpt lat="59.056065498468" lon="17.693362349185">
        <ele>9</ele>
        <time>2017-09-02T10:34:45Z</time>
      </trkpt>
      <trkpt lat="59.056151832038" lon="17.693382801021">
        <ele>9.6</ele>
        <time>2017-09-02T10:34:47Z</time>
      </trkpt>
      <trkpt lat="59.05623799797" lon="17.693409455463">
        <ele>10</ele>
        <time>2017-09-02T10:34:49Z</time>
      </trkpt>
      <trkpt lat="59.056325085911" lon="17.693432673326">
        <ele>10.4</ele>
        <time>2017-09-02T10:34:51Z</time>
      </trkpt>
      <trkpt lat="59.056413850232" lon="17.693455472094">
        <ele>10.8</ele>
        <time>2017-09-02T10:34:53Z</time>
      </trkpt>
      <trkpt lat="59.056504961485" lon="17.693483383821">
        <ele>11.2</ele>
        <time>2017-09-02T10:34:55Z</time>
      </trkpt>
      <trkpt lat="59.056593222892" lon="17.693514396851">
        <ele>11.6</ele>
        <time>2017-09-02T10:34:57Z</time>
      </trkpt>
      <trkpt lat="59.056680646109" lon="17.693541470388">
        <ele>12</ele>
        <time>2017-09-02T10:34:59Z</time>
      </trkpt>
      <trkpt lat="59.056724567265" lon="17.69355555198">
        <ele>12.2</ele>
        <time>2017-09-02T10:35:00Z</time>
      </trkpt>
      <trkpt lat="59.056769158973" lon="17.693568460106">
        <ele>12.6</ele>
        <time>2017-09-02T10:35:01Z</time>
      </trkpt>
      <trkpt lat="59.05685993495" lon="17.693595533643">
        <ele>13.4</ele>
        <time>2017-09-02T10:35:03Z</time>
      </trkpt>
      <trkpt lat="59.056946855253" lon="17.6936209308">
        <ele>14</ele>
        <time>2017-09-02T10:35:05Z</time>
      </trkpt>
      <trkpt lat="59.057035619574" lon="17.693649848355">
        <ele>14.4</ele>
        <time>2017-09-02T10:35:07Z</time>
      </trkpt>
      <trkpt lat="59.057125054447" lon="17.693676754254">
        <ele>14.8</ele>
        <time>2017-09-02T10:35:09Z</time>
      </trkpt>
      <trkpt lat="59.057213567311" lon="17.693703241058">
        <ele>15.2</ele>
        <time>2017-09-02T10:35:11Z</time>
      </trkpt>
      <trkpt lat="59.05730249927" lon="17.693735176097">
        <ele>15.8</ele>
        <time>2017-09-02T10:35:13Z</time>
      </trkpt>
      <trkpt lat="59.057392939971" lon="17.693765853851">
        <ele>16.4</ele>
        <time>2017-09-02T10:35:15Z</time>
      </trkpt>
      <trkpt lat="59.057483464491" lon="17.693802315116">
        <ele>16.8</ele>
        <time>2017-09-02T10:35:17Z</time>
      </trkpt>
      <trkpt lat="59.057529732579" lon="17.693818073088">
        <ele>17.2</ele>
        <time>2017-09-02T10:35:18Z</time>
      </trkpt>
      <trkpt lat="59.057574994839" lon="17.693834920707">
        <ele>17.6</ele>
        <time>2017-09-02T10:35:19Z</time>
      </trkpt>
      <trkpt lat="59.057673649802" lon="17.693865514642">
        <ele>18</ele>
        <time>2017-09-02T10:35:21Z</time>
      </trkpt>
      <trkpt lat="59.057779513199" lon="17.693895354206">
        <ele>18.2</ele>
        <time>2017-09-02T10:35:23Z</time>
      </trkpt>
      <trkpt lat="59.057885125139" lon="17.693924523218">
        <ele>18.6</ele>
        <time>2017-09-02T10:35:25Z</time>
      </trkpt>
      <trkpt lat="59.057986546129" lon="17.693963331415">
        <ele>18.6</ele>
        <time>2017-09-02T10:35:27Z</time>
      </trkpt>
      <trkpt lat="59.058092325707" lon="17.693995853187">
        <ele>19</ele>
        <time>2017-09-02T10:35:29Z</time>
      </trkpt>
      <trkpt lat="59.058147730066" lon="17.694012197892">
        <ele>19.2</ele>
        <time>2017-09-02T10:35:30Z</time>
      </trkpt>
      <trkpt lat="59.058201541864" lon="17.694026698579">
        <ele>19.4</ele>
        <time>2017-09-02T10:35:31Z</time>
      </trkpt>
      <trkpt lat="59.058310674202" lon="17.69406098055">
        <ele>19.6</ele>
        <time>2017-09-02T10:35:33Z</time>
      </trkpt>
      <trkpt lat="59.058421566739" lon="17.694107332457">
        <ele>19.8</ele>
        <time>2017-09-02T10:35:35Z</time>
      </trkpt>
      <trkpt lat="59.058538997158" lon="17.694153013812">
        <ele>19.8</ele>
        <time>2017-09-02T10:35:37Z</time>
      </trkpt>
      <trkpt lat="59.05867377811" lon="17.694190732362">
        <ele>19.8</ele>
        <time>2017-09-02T10:35:39Z</time>
      </trkpt>
      <trkpt lat="59.058823730301" lon="17.694231552215">
        <ele>19.8</ele>
        <time>2017-09-02T10:35:41Z</time>
      </trkpt>
      <trkpt lat="59.058982064392" lon="17.694280670149">
        <ele>19.6</ele>
        <time>2017-09-02T10:35:43Z</time>
      </trkpt>
      <trkpt lat="59.059153306609" lon="17.694325094219">
        <ele>19</ele>
        <time>2017-09-02T10:35:45Z</time>
      </trkpt>
      <trkpt lat="59.059337876047" lon="17.694375134162">
        <ele>18</ele>
        <time>2017-09-02T10:35:47Z</time>
      </trkpt>
      <trkpt lat="59.059528145177" lon="17.694429616512">
        <ele>17.6</ele>
        <time>2017-09-02T10:35:49Z</time>
      </trkpt>
      <trkpt lat="59.059623782656" lon="17.694459204619">
        <ele>17</ele>
        <time>2017-09-02T10:35:50Z</time>
      </trkpt>
      <trkpt lat="59.059717911393" lon="17.694492899857">
        <ele>16.2</ele>
        <time>2017-09-02T10:35:51Z</time>
      </trkpt>
      <trkpt lat="59.059810615207" lon="17.694531540416">
        <ele>15.8</ele>
        <time>2017-09-02T10:35:52Z</time>
      </trkpt>
      <trkpt lat="59.059898960433" lon="17.694580155436">
        <ele>15.6</ele>
        <time>2017-09-02T10:35:53Z</time>
      </trkpt>
      <trkpt lat="59.060068023356" lon="17.694709907248">
        <ele>14.4</ele>
        <time>2017-09-02T10:35:55Z</time>
      </trkpt>
      <trkpt lat="59.060224010515" lon="17.694865894407">
        <ele>13.8</ele>
        <time>2017-09-02T10:35:57Z</time>
      </trkpt>
      <trkpt lat="59.060292825914" lon="17.694951389787">
        <ele>13.2</ele>
        <time>2017-09-02T10:35:58Z</time>
      </trkpt>
      <trkpt lat="59.060349152282" lon="17.695049290379">
        <ele>12.4</ele>
        <time>2017-09-02T10:35:59Z</time>
      </trkpt>
      <trkpt lat="59.060462810846" lon="17.695253473463">
        <ele>12.2</ele>
        <time>2017-09-02T10:36:01Z</time>
      </trkpt>
      <trkpt lat="59.060571943184" lon="17.695445167516">
        <ele>12.2</ele>
        <time>2017-09-02T10:36:03Z</time>
      </trkpt>
      <trkpt lat="59.060676297839" lon="17.695624791633">
        <ele>12.2</ele>
        <time>2017-09-02T10:36:05Z</time>
      </trkpt>
      <trkpt lat="59.060782077417" lon="17.695797039678">
        <ele>12.2</ele>
        <time>2017-09-02T10:36:07Z</time>
      </trkpt>
      <trkpt lat="59.060896825628" lon="17.695967695162">
        <ele>12.4</ele>
        <time>2017-09-02T10:36:09Z</time>
      </trkpt>
      <trkpt lat="59.060957929679" lon="17.696043886633">
        <ele>13</ele>
        <time>2017-09-02T10:36:10Z</time>
      </trkpt>
      <trkpt lat="59.061024817241" lon="17.696102979028">
        <ele>13.8</ele>
        <time>2017-09-02T10:36:11Z</time>
      </trkpt>
      <trkpt lat="59.06109614721" lon="17.69615310279">
        <ele>14.4</ele>
        <time>2017-09-02T10:36:12Z</time>
      </trkpt>
      <trkpt lat="59.061170662301" lon="17.696197610679">
        <ele>14.6</ele>
        <time>2017-09-02T10:36:13Z</time>
      </trkpt>
      <trkpt lat="59.061319357207" lon="17.696267348087">
        <ele>15.2</ele>
        <time>2017-09-02T10:36:15Z</time>
      </trkpt>
      <trkpt lat="59.061471572511" lon="17.696332559269">
        <ele>15.6</ele>
        <time>2017-09-02T10:36:17Z</time>
      </trkpt>
      <trkpt lat="59.061622446711" lon="17.696384359411">
        <ele>16.2</ele>
        <time>2017-09-02T10:36:19Z</time>
      </trkpt>
      <trkpt lat="59.061768543228" lon="17.696429118757">
        <ele>16.4</ele>
        <time>2017-09-02T10:36:21Z</time>
      </trkpt>
      <trkpt lat="59.061914304469" lon="17.696481254175">
        <ele>16.6</ele>
        <time>2017-09-02T10:36:23Z</time>
      </trkpt>
      <trkpt lat="59.062059143701" lon="17.696536407077">
        <ele>16.8</ele>
        <time>2017-09-02T10:36:25Z</time>
      </trkpt>
      <trkpt lat="59.062201552182" lon="17.696588207219">
        <ele>17</ele>
        <time>2017-09-02T10:36:27Z</time>
      </trkpt>
      <trkpt lat="59.062342116645" lon="17.696643611578">
        <ele>17.4</ele>
        <time>2017-09-02T10:36:29Z</time>
      </trkpt>
      <trkpt lat="59.062482345832" lon="17.696691304589">
        <ele>17.4</ele>
        <time>2017-09-02T10:36:31Z</time>
      </trkpt>
      <trkpt lat="59.062623161752" lon="17.696762299282">
        <ele>17.4</ele>
        <time>2017-09-02T10:36:33Z</time>
      </trkpt>
      <trkpt lat="59.062748387338" lon="17.696903115202">
        <ele>17.4</ele>
        <time>2017-09-02T10:36:35Z</time>
      </trkpt>
      <trkpt lat="59.062842516075" lon="17.697114003806">
        <ele>17.6</ele>
        <time>2017-09-02T10:36:37Z</time>
      </trkpt>
      <trkpt lat="59.062879228797" lon="17.697226069809">
        <ele>17.6</ele>
        <time>2017-09-02T10:36:38Z</time>
      </trkpt>
      <trkpt lat="59.062914265139" lon="17.697338135812">
        <ele>17.6</ele>
        <time>2017-09-02T10:36:39Z</time>
      </trkpt>
      <trkpt lat="59.062988277316" lon="17.697554053556">
        <ele>17.8</ele>
        <time>2017-09-02T10:36:41Z</time>
      </trkpt>
      <trkpt lat="59.063065390796" lon="17.697768714015">
        <ele>17.8</ele>
        <time>2017-09-02T10:36:43Z</time>
      </trkpt>
      <trkpt lat="59.063140660258" lon="17.697985218492">
        <ele>18</ele>
        <time>2017-09-02T10:36:45Z</time>
      </trkpt>
      <trkpt lat="59.063217689919" lon="17.698197029105">
        <ele>18.6</ele>
        <time>2017-09-02T10:36:47Z</time>
      </trkpt>
      <trkpt lat="59.063297317969" lon="17.698405486958">
        <ele>19</ele>
        <time>2017-09-02T10:36:49Z</time>
      </trkpt>
      <trkpt lat="59.063383735358" lon="17.698619560684">
        <ele>19.4</ele>
        <time>2017-09-02T10:36:51Z</time>
      </trkpt>
      <trkpt lat="59.063429165256" lon="17.698729447393">
        <ele>19.8</ele>
        <time>2017-09-02T10:36:52Z</time>
      </trkpt>
      <trkpt lat="59.06347493043" lon="17.698843189776">
        <ele>19.8</ele>
        <time>2017-09-02T10:36:53Z</time>
      </trkpt>
      <trkpt lat="59.063573920669" lon="17.699070925999">
        <ele>20</ele>
        <time>2017-09-02T10:36:55Z</time>
      </trkpt>
      <trkpt lat="59.063680538437" lon="17.699292291978">
        <ele>20</ele>
        <time>2017-09-02T10:36:57Z</time>
      </trkpt>
      <trkpt lat="59.063794448458" lon="17.699513993233">
        <ele>20</ele>
        <time>2017-09-02T10:36:59Z</time>
      </trkpt>
      <trkpt lat="59.06392839122" lon="17.699736197402">
        <ele>19.8</ele>
        <time>2017-09-02T10:37:01Z</time>
      </trkpt>
      <trkpt lat="59.064081696171" lon="17.699970806783">
        <ele>19.6</ele>
        <time>2017-09-02T10:37:03Z</time>
      </trkpt>
      <trkpt lat="59.064253776578" lon="17.70021580972">
        <ele>19.2</ele>
        <time>2017-09-02T10:37:05Z</time>
      </trkpt>
      <trkpt lat="59.064426695175" lon="17.700464584512">
        <ele>18.8</ele>
        <time>2017-09-02T10:37:07Z</time>
      </trkpt>
      <trkpt lat="59.064510765632" lon="17.700585200053">
        <ele>18.6</ele>
        <time>2017-09-02T10:37:08Z</time>
      </trkpt>
      <trkpt lat="59.064591986243" lon="17.700704893585">
        <ele>18.4</ele>
        <time>2017-09-02T10:37:09Z</time>
      </trkpt>
      <trkpt lat="59.064745710289" lon="17.700932797446">
        <ele>17</ele>
        <time>2017-09-02T10:37:11Z</time>
      </trkpt>
      <trkpt lat="59.064818465181" lon="17.701040337223">
        <ele>15.8</ele>
        <time>2017-09-02T10:37:12Z</time>
      </trkpt>
      <trkpt lat="59.064889878969" lon="17.701144440421">
        <ele>14.8</ele>
        <time>2017-09-02T10:37:13Z</time>
      </trkpt>
      <trkpt lat="59.064958359092" lon="17.701249381809">
        <ele>14.2</ele>
        <time>2017-09-02T10:37:14Z</time>
      </trkpt>
      <trkpt lat="59.065025330473" lon="17.701350970437">
        <ele>14</ele>
        <time>2017-09-02T10:37:15Z</time>
      </trkpt>
      <trkpt lat="59.065148963498" lon="17.70155523734">
        <ele>13.8</ele>
        <time>2017-09-02T10:37:17Z</time>
      </trkpt>
      <trkpt lat="59.065253234334" lon="17.701754978017">
        <ele>13.8</ele>
        <time>2017-09-02T10:37:19Z</time>
      </trkpt>
      <trkpt lat="59.065343172121" lon="17.70196259768">
        <ele>13.8</ele>
        <time>2017-09-02T10:37:21Z</time>
      </trkpt>
      <trkpt lat="59.065439815428" lon="17.702178766881">
        <ele>13.8</ele>
        <time>2017-09-02T10:37:23Z</time>
      </trkpt>
      <trkpt lat="59.065548947766" lon="17.702406335466">
        <ele>14.2</ele>
        <time>2017-09-02T10:37:25Z</time>
      </trkpt>
      <trkpt lat="59.065666629642" lon="17.702629294006">
        <ele>15.6</ele>
        <time>2017-09-02T10:37:27Z</time>
      </trkpt>
      <trkpt lat="59.065798057834" lon="17.702830627244">
        <ele>15.8</ele>
        <time>2017-09-02T10:37:29Z</time>
      </trkpt>
      <trkpt lat="59.065943567618" lon="17.703003545841">
        <ele>15.8</ele>
        <time>2017-09-02T10:37:31Z</time>
      </trkpt>
      <trkpt lat="59.066100057691" lon="17.703155174412">
        <ele>15.8</ele>
        <time>2017-09-02T10:37:33Z</time>
      </trkpt>
      <trkpt lat="59.066251099529" lon="17.703324321154">
        <ele>15.8</ele>
        <time>2017-09-02T10:37:35Z</time>
      </trkpt>
      <trkpt lat="59.066383114454" lon="17.703531186446">
        <ele>15.8</ele>
        <time>2017-09-02T10:37:37Z</time>
      </trkpt>
      <trkpt lat="59.066505657832" lon="17.703760850506">
        <ele>15.2</ele>
        <time>2017-09-02T10:37:39Z</time>
      </trkpt>
      <trkpt lat="59.066576903982" lon="17.703867971188">
        <ele>15.2</ele>
        <time>2017-09-02T10:37:40Z</time>
      </trkpt>
      <trkpt lat="59.066657621679" lon="17.703961848468">
        <ele>15</ele>
        <time>2017-09-02T10:37:41Z</time>
      </trkpt>
      <trkpt lat="59.066845543877" lon="17.704094701583">
        <ele>14.8</ele>
        <time>2017-09-02T10:37:43Z</time>
      </trkpt>
      <trkpt lat="59.066943528288" lon="17.704151279408">
        <ele>14.6</ele>
        <time>2017-09-02T10:37:44Z</time>
      </trkpt>
      <trkpt lat="59.067038746672" lon="17.704214646572">
        <ele>14.4</ele>
        <time>2017-09-02T10:37:45Z</time>
      </trkpt>
      <trkpt lat="59.067133294504" lon="17.704291592414">
        <ele>14.2</ele>
        <time>2017-09-02T10:37:46Z</time>
      </trkpt>
      <trkpt lat="59.067219460436" lon="17.704389073911">
        <ele>14.2</ele>
        <time>2017-09-02T10:37:47Z</time>
      </trkpt>
      <trkpt lat="59.067363880573" lon="17.70465234939">
        <ele>13.2</ele>
        <time>2017-09-02T10:37:49Z</time>
      </trkpt>
      <trkpt lat="59.067463457545" lon="17.704979075852">
        <ele>11.8</ele>
        <time>2017-09-02T10:37:51Z</time>
      </trkpt>
      <trkpt lat="59.067558173015" lon="17.705313429843">
        <ele>11.4</ele>
        <time>2017-09-02T10:37:53Z</time>
      </trkpt>
      <trkpt lat="59.067653894313" lon="17.705632612595">
        <ele>11</ele>
        <time>2017-09-02T10:37:55Z</time>
      </trkpt>
      <trkpt lat="59.067703179885" lon="17.705782983881">
        <ele>10.8</ele>
        <time>2017-09-02T10:37:56Z</time>
      </trkpt>
      <trkpt lat="59.067752381638" lon="17.705930840597">
        <ele>10.6</ele>
        <time>2017-09-02T10:37:57Z</time>
      </trkpt>
      <trkpt lat="59.067852712981" lon="17.706216914844">
        <ele>10.4</ele>
        <time>2017-09-02T10:37:59Z</time>
      </trkpt>
      <trkpt lat="59.067962683509" lon="17.706490583879">
        <ele>10.2</ele>
        <time>2017-09-02T10:38:01Z</time>
      </trkpt>
      <trkpt lat="59.068079778652" lon="17.706746567105">
        <ele>10.2</ele>
        <time>2017-09-02T10:38:03Z</time>
      </trkpt>
      <trkpt lat="59.068200394193" lon="17.706982433771">
        <ele>10.2</ele>
        <time>2017-09-02T10:38:05Z</time>
      </trkpt>
      <trkpt lat="59.068329140177" lon="17.707197010411">
        <ele>10.4</ele>
        <time>2017-09-02T10:38:07Z</time>
      </trkpt>
      <trkpt lat="59.068453024659" lon="17.707401947866">
        <ele>10.6</ele>
        <time>2017-09-02T10:38:09Z</time>
      </trkpt>
      <trkpt lat="59.068567940508" lon="17.707603532561">
        <ele>10.6</ele>
        <time>2017-09-02T10:38:11Z</time>
      </trkpt>
      <trkpt lat="59.068680844701" lon="17.70779640008">
        <ele>10.6</ele>
        <time>2017-09-02T10:38:13Z</time>
      </trkpt>
      <trkpt lat="59.068803555717" lon="17.70797493455">
        <ele>11</ele>
        <time>2017-09-02T10:38:15Z</time>
      </trkpt>
      <trkpt lat="59.068932217882" lon="17.708124216189">
        <ele>11.6</ele>
        <time>2017-09-02T10:38:17Z</time>
      </trkpt>
      <trkpt lat="59.06899608796" lon="17.708196468167">
        <ele>12</ele>
        <time>2017-09-02T10:38:18Z</time>
      </trkpt>
      <trkpt lat="59.06906062859" lon="17.708270480344">
        <ele>12.2</ele>
        <time>2017-09-02T10:38:19Z</time>
      </trkpt>
      <trkpt lat="59.069185015986" lon="17.708436022869">
        <ele>12.8</ele>
        <time>2017-09-02T10:38:21Z</time>
      </trkpt>
      <trkpt lat="59.069304458061" lon="17.708623190696">
        <ele>13.2</ele>
        <time>2017-09-02T10:38:23Z</time>
      </trkpt>
      <trkpt lat="59.06941769753" lon="17.708807508677">
        <ele>13.4</ele>
        <time>2017-09-02T10:38:25Z</time>
      </trkpt>
      <trkpt lat="59.069521130176" lon="17.708988809174">
        <ele>14</ele>
        <time>2017-09-02T10:38:27Z</time>
      </trkpt>
      <trkpt lat="59.069572595042" lon="17.709078244047">
        <ele>14.6</ele>
        <time>2017-09-02T10:38:28Z</time>
      </trkpt>
      <trkpt lat="59.069622886442" lon="17.70916767892">
        <ele>14.8</ele>
        <time>2017-09-02T10:38:29Z</time>
      </trkpt>
      <trkpt lat="59.069721038491" lon="17.709347135399">
        <ele>15.4</ele>
        <time>2017-09-02T10:38:31Z</time>
      </trkpt>
      <trkpt lat="59.069771078434" lon="17.709441431774">
        <ele>15.8</ele>
        <time>2017-09-02T10:38:32Z</time>
      </trkpt>
      <trkpt lat="59.069820699282" lon="17.709540338194">
        <ele>16.4</ele>
        <time>2017-09-02T10:38:33Z</time>
      </trkpt>
      <trkpt lat="59.069867637922" lon="17.709642429736">
        <ele>17</ele>
        <time>2017-09-02T10:38:34Z</time>
      </trkpt>
      <trkpt lat="59.069909966517" lon="17.70975273554">
        <ele>17.4</ele>
        <time>2017-09-02T10:38:35Z</time>
      </trkpt>
      <trkpt lat="59.069978530459" lon="17.709989524215">
        <ele>18</ele>
        <time>2017-09-02T10:38:37Z</time>
      </trkpt>
      <trkpt lat="59.07003544356" lon="17.710237376998">
        <ele>18.2</ele>
        <time>2017-09-02T10:38:39Z</time>
      </trkpt>
      <trkpt lat="59.07008154401" lon="17.710487492894">
        <ele>18.4</ele>
        <time>2017-09-02T10:38:41Z</time>
      </trkpt>
      <trkpt lat="59.070108030814" lon="17.71073844698">
        <ele>18.6</ele>
        <time>2017-09-02T10:38:43Z</time>
      </trkpt>
      <trkpt lat="59.070113814325" lon="17.710863085833">
        <ele>18.8</ele>
        <time>2017-09-02T10:38:44Z</time>
      </trkpt>
      <trkpt lat="59.070118927284" lon="17.710985461573">
        <ele>18.8</ele>
        <time>2017-09-02T10:38:45Z</time>
      </trkpt>
      <trkpt lat="59.070121358035" lon="17.711100964155">
        <ele>19</ele>
        <time>2017-09-02T10:38:46Z</time>
      </trkpt>
      <trkpt lat="59.070122028587" lon="17.711214455081">
        <ele>19.4</ele>
        <time>2017-09-02T10:38:47Z</time>
      </trkpt>
      <trkpt lat="59.070124962252" lon="17.711437748897">
        <ele>19.8</ele>
        <time>2017-09-02T10:38:49Z</time>
      </trkpt>
      <trkpt lat="59.070122196225" lon="17.711547132692">
        <ele>20.2</ele>
        <time>2017-09-02T10:38:50Z</time>
      </trkpt>
      <trkpt lat="59.070117669999" lon="17.71165542684">
        <ele>20.4</ele>
        <time>2017-09-02T10:38:51Z</time>
      </trkpt>
      <trkpt lat="59.070110713022" lon="17.711879642665">
        <ele>21.6</ele>
        <time>2017-09-02T10:38:53Z</time>
      </trkpt>
      <trkpt lat="59.070112640859" lon="17.711997324541">
        <ele>22</ele>
        <time>2017-09-02T10:38:54Z</time>
      </trkpt>
      <trkpt lat="59.070117502361" lon="17.712110731648">
        <ele>22.4</ele>
        <time>2017-09-02T10:38:55Z</time>
      </trkpt>
      <trkpt lat="59.070123369691" lon="17.712229000257">
        <ele>23</ele>
        <time>2017-09-02T10:38:56Z</time>
      </trkpt>
      <trkpt lat="59.070131751591" lon="17.71234358083">
        <ele>23.6</ele>
        <time>2017-09-02T10:38:57Z</time>
      </trkpt>
      <trkpt lat="59.070141977509" lon="17.712463944914">
        <ele>24.2</ele>
        <time>2017-09-02T10:38:58Z</time>
      </trkpt>
      <trkpt lat="59.070154215083" lon="17.7125891705">
        <ele>24.6</ele>
        <time>2017-09-02T10:38:59Z</time>
      </trkpt>
      <trkpt lat="59.070167961399" lon="17.712725627832">
        <ele>25.2</ele>
        <time>2017-09-02T10:39:00Z</time>
      </trkpt>
      <trkpt lat="59.070177852041" lon="17.712878597507">
        <ele>25.4</ele>
        <time>2017-09-02T10:39:01Z</time>
      </trkpt>
      <trkpt lat="59.070202494827" lon="17.713201803571">
        <ele>25.6</ele>
        <time>2017-09-02T10:39:03Z</time>
      </trkpt>
      <trkpt lat="59.070217079333" lon="17.713522411246">
        <ele>25.6</ele>
        <time>2017-09-02T10:39:05Z</time>
      </trkpt>
      <trkpt lat="59.070225377414" lon="17.713837738324">
        <ele>25.6</ele>
        <time>2017-09-02T10:39:07Z</time>
      </trkpt>
      <trkpt lat="59.070227472889" lon="17.714146778977">
        <ele>25.6</ele>
        <time>2017-09-02T10:39:09Z</time>
      </trkpt>
      <trkpt lat="59.07022068355" lon="17.714454059431">
        <ele>25.6</ele>
        <time>2017-09-02T10:39:11Z</time>
      </trkpt>
      <trkpt lat="59.070206099044" lon="17.714758573858">
        <ele>25.4</ele>
        <time>2017-09-02T10:39:13Z</time>
      </trkpt>
      <trkpt lat="59.070177600584" lon="17.715044815743">
        <ele>25.2</ele>
        <time>2017-09-02T10:39:15Z</time>
      </trkpt>
      <trkpt lat="59.07014273188" lon="17.715324268289">
        <ele>25.2</ele>
        <time>2017-09-02T10:39:17Z</time>
      </trkpt>
      <trkpt lat="59.070107695538" lon="17.715601541541">
        <ele>25.2</ele>
        <time>2017-09-02T10:39:19Z</time>
      </trkpt>
      <trkpt lat="59.070077520698" lon="17.715876216404">
        <ele>25.4</ele>
        <time>2017-09-02T10:39:21Z</time>
      </trkpt>
      <trkpt lat="59.070057655595" lon="17.716008818062">
        <ele>25.4</ele>
        <time>2017-09-02T10:39:22Z</time>
      </trkpt>
      <trkpt lat="59.070036449388" lon="17.716139240426">
        <ele>25.6</ele>
        <time>2017-09-02T10:39:23Z</time>
      </trkpt>
      <trkpt lat="59.069991773861" lon="17.716402515905">
        <ele>25.6</ele>
        <time>2017-09-02T10:39:25Z</time>
      </trkpt>
      <trkpt lat="59.069940308995" lon="17.716650955421">
        <ele>25.6</ele>
        <time>2017-09-02T10:39:27Z</time>
      </trkpt>
      <trkpt lat="59.069889933776" lon="17.71689830529">
        <ele>25.8</ele>
        <time>2017-09-02T10:39:29Z</time>
      </trkpt>
      <trkpt lat="59.069845090611" lon="17.717155210525">
        <ele>26</ele>
        <time>2017-09-02T10:39:31Z</time>
      </trkpt>
      <trkpt lat="59.06980913226" lon="17.717421838764">
        <ele>26</ele>
        <time>2017-09-02T10:39:33Z</time>
      </trkpt>
      <trkpt lat="59.069775269384" lon="17.717699363473">
        <ele>26.4</ele>
        <time>2017-09-02T10:39:35Z</time>
      </trkpt>
      <trkpt lat="59.069752638254" lon="17.717988287566">
        <ele>27</ele>
        <time>2017-09-02T10:39:37Z</time>
      </trkpt>
      <trkpt lat="59.069746016553" lon="17.718132707703">
        <ele>27.2</ele>
        <time>2017-09-02T10:39:38Z</time>
      </trkpt>
      <trkpt lat="59.069744675449" lon="17.718279055677">
        <ele>27.6</ele>
        <time>2017-09-02T10:39:39Z</time>
      </trkpt>
      <trkpt lat="59.06975800267" lon="17.718570159064">
        <ele>28</ele>
        <time>2017-09-02T10:39:41Z</time>
      </trkpt>
      <trkpt lat="59.069790775899" lon="17.718853215827">
        <ele>28.4</ele>
        <time>2017-09-02T10:39:43Z</time>
      </trkpt>
      <trkpt lat="59.069821788929" lon="17.719154461313">
        <ele>28.6</ele>
        <time>2017-09-02T10:39:45Z</time>
      </trkpt>
      <trkpt lat="59.069852466683" lon="17.719461406491">
        <ele>29</ele>
        <time>2017-09-02T10:39:47Z</time>
      </trkpt>
      <trkpt lat="59.069889682319" lon="17.719768100212">
        <ele>29.2</ele>
        <time>2017-09-02T10:39:49Z</time>
      </trkpt>
      <trkpt lat="59.069930166896" lon="17.720069848612">
        <ele>29.2</ele>
        <time>2017-09-02T10:39:51Z</time>
      </trkpt>
      <trkpt lat="59.069953971492" lon="17.720220638993">
        <ele>29.4</ele>
        <time>2017-09-02T10:39:52Z</time>
      </trkpt>
      <trkpt lat="59.06997928483" lon="17.720373357211">
        <ele>29.4</ele>
        <time>2017-09-02T10:39:53Z</time>
      </trkpt>
      <trkpt lat="59.070027816031" lon="17.720678877466">
        <ele>29.4</ele>
        <time>2017-09-02T10:39:55Z</time>
      </trkpt>
      <trkpt lat="59.070073916481" lon="17.720972076328">
        <ele>29.6</ele>
        <time>2017-09-02T10:39:57Z</time>
      </trkpt>
      <trkpt lat="59.07012345351" lon="17.721259575498">
        <ele>29.6</ele>
        <time>2017-09-02T10:39:59Z</time>
      </trkpt>
      <trkpt lat="59.070163099897" lon="17.721550427428">
        <ele>29.8</ele>
        <time>2017-09-02T10:40:01Z</time>
      </trkpt>
      <trkpt lat="59.070187658864" lon="17.721846643774">
        <ele>29.8</ele>
        <time>2017-09-02T10:40:03Z</time>
      </trkpt>
      <trkpt lat="59.070220432093" lon="17.722135651686">
        <ele>30</ele>
        <time>2017-09-02T10:40:05Z</time>
      </trkpt>
      <trkpt lat="59.070258905014" lon="17.722439327923">
        <ele>30.4</ele>
        <time>2017-09-02T10:40:07Z</time>
      </trkpt>
      <trkpt lat="59.070302155618" lon="17.722742920341">
        <ele>30.6</ele>
        <time>2017-09-02T10:40:09Z</time>
      </trkpt>
      <trkpt lat="59.070343478385" lon="17.723050033157">
        <ele>31.2</ele>
        <time>2017-09-02T10:40:11Z</time>
      </trkpt>
      <trkpt lat="59.070394524156" lon="17.723353793213">
        <ele>31.2</ele>
        <time>2017-09-02T10:40:13Z</time>
      </trkpt>
      <trkpt lat="59.070429560498" lon="17.723498129531">
        <ele>31.4</ele>
        <time>2017-09-02T10:40:14Z</time>
      </trkpt>
      <trkpt lat="59.070464345383" lon="17.723641627659">
        <ele>31.4</ele>
        <time>2017-09-02T10:40:15Z</time>
      </trkpt>
      <trkpt lat="59.070530059479" lon="17.723928875372">
        <ele>31.4</ele>
        <time>2017-09-02T10:40:17Z</time>
      </trkpt>
      <trkpt lat="59.070598623421" lon="17.724218386198">
        <ele>31.6</ele>
        <time>2017-09-02T10:40:19Z</time>
      </trkpt>
      <trkpt lat="59.070660900938" lon="17.72450990868">
        <ele>31.6</ele>
        <time>2017-09-02T10:40:21Z</time>
      </trkpt>
      <trkpt lat="59.070714545098" lon="17.724803442818">
        <ele>31.6</ele>
        <time>2017-09-02T10:40:23Z</time>
      </trkpt>
      <trkpt lat="59.070768105439" lon="17.725093875653">
        <ele>31.8</ele>
        <time>2017-09-02T10:40:25Z</time>
      </trkpt>
      <trkpt lat="59.070835831191" lon="17.725374669303">
        <ele>31.8</ele>
        <time>2017-09-02T10:40:27Z</time>
      </trkpt>
      <trkpt lat="59.070878578881" lon="17.725505510762">
        <ele>32</ele>
        <time>2017-09-02T10:40:28Z</time>
      </trkpt>
      <trkpt lat="59.070931133394" lon="17.725627886502">
        <ele>32</ele>
        <time>2017-09-02T10:40:29Z</time>
      </trkpt>
      <trkpt lat="59.071060717568" lon="17.725834919432">
        <ele>32</ele>
        <time>2017-09-02T10:40:31Z</time>
      </trkpt>
      <trkpt lat="59.071206814085" lon="17.725990571315">
        <ele>32.2</ele>
        <time>2017-09-02T10:40:33Z</time>
      </trkpt>
      <trkpt lat="59.07135978376" lon="17.72611085158">
        <ele>32.2</ele>
        <time>2017-09-02T10:40:35Z</time>
      </trkpt>
      <trkpt lat="59.07150479063" lon="17.726207830163">
        <ele>32.4</ele>
        <time>2017-09-02T10:40:37Z</time>
      </trkpt>
      <trkpt lat="59.071574444219" lon="17.72624831474">
        <ele>32.4</ele>
        <time>2017-09-02T10:40:38Z</time>
      </trkpt>
      <trkpt lat="59.071646109464" lon="17.726287961127">
        <ele>32.4</ele>
        <time>2017-09-02T10:40:39Z</time>
      </trkpt>
      <trkpt lat="59.071811987265" lon="17.726384604434">
        <ele>32.4</ele>
        <time>2017-09-02T10:40:41Z</time>
      </trkpt>
      <trkpt lat="59.071981050188" lon="17.726508321278">
        <ele>32.6</ele>
        <time>2017-09-02T10:40:43Z</time>
      </trkpt>
      <trkpt lat="59.072142485582" lon="17.726652406139">
        <ele>32.8</ele>
        <time>2017-09-02T10:40:45Z</time>
      </trkpt>
      <trkpt lat="59.072310542677" lon="17.726804789081">
        <ele>32.8</ele>
        <time>2017-09-02T10:40:47Z</time>
      </trkpt>
      <trkpt lat="59.072476588116" lon="17.726944263897">
        <ele>32.8</ele>
        <time>2017-09-02T10:40:49Z</time>
      </trkpt>
      <trkpt lat="59.072647411238" lon="17.727061526678">
        <ele>32.4</ele>
        <time>2017-09-02T10:40:51Z</time>
      </trkpt>
      <trkpt lat="59.072822090034" lon="17.727162528573">
        <ele>32</ele>
        <time>2017-09-02T10:40:53Z</time>
      </trkpt>
      <trkpt lat="59.072999031943" lon="17.727251963446">
        <ele>31.8</ele>
        <time>2017-09-02T10:40:55Z</time>
      </trkpt>
      <trkpt lat="59.073179745707" lon="17.727325137433">
        <ele>31.8</ele>
        <time>2017-09-02T10:40:57Z</time>
      </trkpt>
      <trkpt lat="59.0733597051" lon="17.727394288108">
        <ele>31.6</ele>
        <time>2017-09-02T10:40:59Z</time>
      </trkpt>
      <trkpt lat="59.073542011425" lon="17.727457990548">
        <ele>31.6</ele>
        <time>2017-09-02T10:41:01Z</time>
      </trkpt>
      <trkpt lat="59.073714678565" lon="17.727539546435">
        <ele>31.6</ele>
        <time>2017-09-02T10:41:03Z</time>
      </trkpt>
      <trkpt lat="59.073885585506" lon="17.727627724023">
        <ele>31.8</ele>
        <time>2017-09-02T10:41:05Z</time>
      </trkpt>
      <trkpt lat="59.074053307325" lon="17.727701400924">
        <ele>31.8</ele>
        <time>2017-09-02T10:41:07Z</time>
      </trkpt>
      <trkpt lat="59.074139724714" lon="17.727727133357">
        <ele>32</ele>
        <time>2017-09-02T10:41:08Z</time>
      </trkpt>
      <trkpt lat="59.074230165415" lon="17.727743478062">
        <ele>32</ele>
        <time>2017-09-02T10:41:09Z</time>
      </trkpt>
      <trkpt lat="59.07440828079" lon="17.727740376759">
        <ele>32.2</ele>
        <time>2017-09-02T10:41:11Z</time>
      </trkpt>
      <trkpt lat="59.074580612654" lon="17.727734257972">
        <ele>32.6</ele>
        <time>2017-09-02T10:41:13Z</time>
      </trkpt>
      <trkpt lat="59.074752609242" lon="17.727768875219">
        <ele>32.6</ele>
        <time>2017-09-02T10:41:15Z</time>
      </trkpt>
      <trkpt lat="59.074921672165" lon="17.72784674307">
        <ele>33</ele>
        <time>2017-09-02T10:41:17Z</time>
      </trkpt>
      <trkpt lat="59.075085286853" lon="17.727947577327">
        <ele>33</ele>
        <time>2017-09-02T10:41:19Z</time>
      </trkpt>
      <trkpt lat="59.07525066174" lon="17.728056039113">
        <ele>33.2</ele>
        <time>2017-09-02T10:41:21Z</time>
      </trkpt>
      <trkpt lat="59.075428944753" lon="17.728163159795">
        <ele>33.2</ele>
        <time>2017-09-02T10:41:23Z</time>
      </trkpt>
      <trkpt lat="59.075607060128" lon="17.728283272422">
        <ele>33.2</ele>
        <time>2017-09-02T10:41:25Z</time>
      </trkpt>
      <trkpt lat="59.075785510779" lon="17.728399445556">
        <ele>33.2</ele>
        <time>2017-09-02T10:41:27Z</time>
      </trkpt>
      <trkpt lat="59.075972091873" lon="17.728514277586">
        <ele>33</ele>
        <time>2017-09-02T10:41:29Z</time>
      </trkpt>
      <trkpt lat="59.076171916369" lon="17.728599856785">
        <ele>32.8</ele>
        <time>2017-09-02T10:41:31Z</time>
      </trkpt>
      <trkpt lat="59.076370902675" lon="17.728658781542">
        <ele>31.8</ele>
        <time>2017-09-02T10:41:33Z</time>
      </trkpt>
      <trkpt lat="59.076470395828" lon="17.728670935297">
        <ele>31</ele>
        <time>2017-09-02T10:41:34Z</time>
      </trkpt>
      <trkpt lat="59.076571230085" lon="17.728673030772">
        <ele>30.4</ele>
        <time>2017-09-02T10:41:35Z</time>
      </trkpt>
      <trkpt lat="59.076668963039" lon="17.728669426555">
        <ele>29.8</ele>
        <time>2017-09-02T10:41:36Z</time>
      </trkpt>
      <trkpt lat="59.076768707649" lon="17.728658194809">
        <ele>29.2</ele>
        <time>2017-09-02T10:41:37Z</time>
      </trkpt>
      <trkpt lat="59.076970795258" lon="17.728617626413">
        <ele>28.4</ele>
        <time>2017-09-02T10:41:39Z</time>
      </trkpt>
      <trkpt lat="59.077169949202" lon="17.728572950886">
        <ele>27.6</ele>
        <time>2017-09-02T10:41:41Z</time>
      </trkpt>
      <trkpt lat="59.077368935508" lon="17.728542859865">
        <ele>27.2</ele>
        <time>2017-09-02T10:41:43Z</time>
      </trkpt>
      <trkpt lat="59.07756909528" lon="17.728526347522">
        <ele>26.6</ele>
        <time>2017-09-02T10:41:45Z</time>
      </trkpt>
      <trkpt lat="59.077762549532" lon="17.728543111322">
        <ele>26.2</ele>
        <time>2017-09-02T10:41:47Z</time>
      </trkpt>
      <trkpt lat="59.077854834251" lon="17.728555348896">
        <ele>26.2</ele>
        <time>2017-09-02T10:41:48Z</time>
      </trkpt>
      <trkpt lat="59.077943011839" lon="17.728570436316">
        <ele>26.2</ele>
        <time>2017-09-02T10:41:49Z</time>
      </trkpt>
      <trkpt lat="59.078123557965" lon="17.728593318903">
        <ele>26.2</ele>
        <time>2017-09-02T10:41:51Z</time>
      </trkpt>
      <trkpt lat="59.078290190137" lon="17.728624248114">
        <ele>26.2</ele>
        <time>2017-09-02T10:41:53Z</time>
      </trkpt>
      <trkpt lat="59.078449865332" lon="17.728646208692">
        <ele>26.2</ele>
        <time>2017-09-02T10:41:55Z</time>
      </trkpt>
      <trkpt lat="59.078607193595" lon="17.72864972909">
        <ele>26.2</ele>
        <time>2017-09-02T10:41:57Z</time>
      </trkpt>
      <trkpt lat="59.078768377532" lon="17.728668504546">
        <ele>27</ele>
        <time>2017-09-02T10:41:59Z</time>
      </trkpt>
      <trkpt lat="59.078855381654" lon="17.728668923641">
        <ele>27.4</ele>
        <time>2017-09-02T10:42:00Z</time>
      </trkpt>
      <trkpt lat="59.078949007477" lon="17.728664062139">
        <ele>27.8</ele>
        <time>2017-09-02T10:42:01Z</time>
      </trkpt>
      <trkpt lat="59.079041376015" lon="17.728657356619">
        <ele>28.2</ele>
        <time>2017-09-02T10:42:02Z</time>
      </trkpt>
      <trkpt lat="59.079132235811" lon="17.728650483461">
        <ele>28.4</ele>
        <time>2017-09-02T10:42:03Z</time>
      </trkpt>
      <trkpt lat="59.079311943747" lon="17.728647465977">
        <ele>28.6</ele>
        <time>2017-09-02T10:42:05Z</time>
      </trkpt>
      <trkpt lat="59.079491232588" lon="17.728632210919">
        <ele>28.8</ele>
        <time>2017-09-02T10:42:07Z</time>
      </trkpt>
      <trkpt lat="59.079674125646" lon="17.728597593672">
        <ele>28.8</ele>
        <time>2017-09-02T10:42:09Z</time>
      </trkpt>
      <trkpt lat="59.079857856894" lon="17.728533723594">
        <ele>29</ele>
        <time>2017-09-02T10:42:11Z</time>
      </trkpt>
      <trkpt lat="59.08004259397" lon="17.72846197453">
        <ele>28.8</ele>
        <time>2017-09-02T10:42:13Z</time>
      </trkpt>
      <trkpt lat="59.080219619698" lon="17.728385447783">
        <ele>28.8</ele>
        <time>2017-09-02T10:42:15Z</time>
      </trkpt>
      <trkpt lat="59.080400752557" lon="17.728302802249">
        <ele>28.6</ele>
        <time>2017-09-02T10:42:17Z</time>
      </trkpt>
      <trkpt lat="59.080580879588" lon="17.728207667684">
        <ele>28.6</ele>
        <time>2017-09-02T10:42:19Z</time>
      </trkpt>
      <trkpt lat="59.08076679013" lon="17.728081603908">
        <ele>28.6</ele>
        <time>2017-09-02T10:42:21Z</time>
      </trkpt>
      <trkpt lat="59.080949431731" lon="17.727947242051">
        <ele>28.8</ele>
        <time>2017-09-02T10:42:23Z</time>
      </trkpt>
      <trkpt lat="59.081134839359" lon="17.727829308718">
        <ele>28.8</ele>
        <time>2017-09-02T10:42:25Z</time>
      </trkpt>
      <trkpt lat="59.081319324978" lon="17.727728725918">
        <ele>28.8</ele>
        <time>2017-09-02T10:42:27Z</time>
      </trkpt>
      <trkpt lat="59.081506660443" lon="17.727625796186">
        <ele>29</ele>
        <time>2017-09-02T10:42:29Z</time>
      </trkpt>
      <trkpt lat="59.081595592402" lon="17.727566452334">
        <ele>29</ele>
        <time>2017-09-02T10:42:30Z</time>
      </trkpt>
      <trkpt lat="59.081685949284" lon="17.727504929188">
        <ele>29</ele>
        <time>2017-09-02T10:42:31Z</time>
      </trkpt>
      <trkpt lat="59.081860460442" lon="17.727374423005">
        <ele>29.8</ele>
        <time>2017-09-02T10:42:33Z</time>
      </trkpt>
      <trkpt lat="59.08202491332" lon="17.727231679248">
        <ele>30.2</ele>
        <time>2017-09-02T10:42:35Z</time>
      </trkpt>
      <trkpt lat="59.082183498868" lon="17.727079128668">
        <ele>30.4</ele>
        <time>2017-09-02T10:42:37Z</time>
      </trkpt>
      <trkpt lat="59.082333953973" lon="17.726909311374">
        <ele>30.6</ele>
        <time>2017-09-02T10:42:39Z</time>
      </trkpt>
      <trkpt lat="59.082479044662" lon="17.726727843239">
        <ele>30.6</ele>
        <time>2017-09-02T10:42:41Z</time>
      </trkpt>
      <trkpt lat="59.08261751365" lon="17.726540507774">
        <ele>31</ele>
        <time>2017-09-02T10:42:43Z</time>
      </trkpt>
      <trkpt lat="59.082683982117" lon="17.726433806187">
        <ele>31.6</ele>
        <time>2017-09-02T10:42:44Z</time>
      </trkpt>
      <trkpt lat="59.082745002349" lon="17.72631956089">
        <ele>31.6</ele>
        <time>2017-09-02T10:42:45Z</time>
      </trkpt>
      <trkpt lat="59.082856649257" lon="17.726098949282">
        <ele>32</ele>
        <time>2017-09-02T10:42:47Z</time>
      </trkpt>
      <trkpt lat="59.08297206802" lon="17.725907758143">
        <ele>32.6</ele>
        <time>2017-09-02T10:42:49Z</time>
      </trkpt>
      <trkpt lat="59.083034261718" lon="17.725825783161">
        <ele>32.8</ele>
        <time>2017-09-02T10:42:50Z</time>
      </trkpt>
      <trkpt lat="59.083100646366" lon="17.725761913083">
        <ele>33.2</ele>
        <time>2017-09-02T10:42:51Z</time>
      </trkpt>
      <trkpt lat="59.083169797041" lon="17.725710867312">
        <ele>33.6</ele>
        <time>2017-09-02T10:42:52Z</time>
      </trkpt>
      <trkpt lat="59.083244060675" lon="17.725660156817">
        <ele>33.8</ele>
        <time>2017-09-02T10:42:53Z</time>
      </trkpt>
      <trkpt lat="59.083394012866" lon="17.725609027227">
        <ele>34.6</ele>
        <time>2017-09-02T10:42:55Z</time>
      </trkpt>
      <trkpt lat="59.083467186853" lon="17.725597544024">
        <ele>34.8</ele>
        <time>2017-09-02T10:42:56Z</time>
      </trkpt>
      <trkpt lat="59.08353700808" lon="17.725589162124">
        <ele>35</ele>
        <time>2017-09-02T10:42:57Z</time>
      </trkpt>
      <trkpt lat="59.083664161503" lon="17.725569548478">
        <ele>35.2</ele>
        <time>2017-09-02T10:42:59Z</time>
      </trkpt>
      <trkpt lat="59.083776059868" lon="17.725546665891">
        <ele>35.4</ele>
        <time>2017-09-02T10:43:01Z</time>
      </trkpt>
      <trkpt lat="59.083827440915" lon="17.725537864896">
        <ele>35.6</ele>
        <time>2017-09-02T10:43:02Z</time>
      </trkpt>
      <trkpt lat="59.083875804478" lon="17.725529482996">
        <ele>36</ele>
        <time>2017-09-02T10:43:03Z</time>
      </trkpt>
      <trkpt lat="59.08398208697" lon="17.725498218509">
        <ele>36.6</ele>
        <time>2017-09-02T10:43:05Z</time>
      </trkpt>
      <trkpt lat="59.084031791637" lon="17.725484807469">
        <ele>37.2</ele>
        <time>2017-09-02T10:43:06Z</time>
      </trkpt>
      <trkpt lat="59.084079652286" lon="17.725471815524">
        <ele>37.6</ele>
        <time>2017-09-02T10:43:07Z</time>
      </trkpt>
      <trkpt lat="59.084127512935" lon="17.72545454881">
        <ele>38.2</ele>
        <time>2017-09-02T10:43:08Z</time>
      </trkpt>
      <trkpt lat="59.084176044136" lon="17.725445831634">
        <ele>38.8</ele>
        <time>2017-09-02T10:43:09Z</time>
      </trkpt>
      <trkpt lat="59.084224826794" lon="17.725443736159">
        <ele>39.6</ele>
        <time>2017-09-02T10:43:10Z</time>
      </trkpt>
      <trkpt lat="59.084276207841" lon="17.725434935164">
        <ele>40.2</ele>
        <time>2017-09-02T10:43:11Z</time>
      </trkpt>
      <trkpt lat="59.084325241956" lon="17.725439964304">
        <ele>41</ele>
        <time>2017-09-02T10:43:12Z</time>
      </trkpt>
      <trkpt lat="59.084377545012" lon="17.725445915453">
        <ele>42.4</ele>
        <time>2017-09-02T10:43:13Z</time>
      </trkpt>
      <trkpt lat="59.084430853896" lon="17.725469049497">
        <ele>43</ele>
        <time>2017-09-02T10:43:14Z</time>
      </trkpt>
      <trkpt lat="59.084480558563" lon="17.725500733079">
        <ele>43.4</ele>
        <time>2017-09-02T10:43:15Z</time>
      </trkpt>
      <trkpt lat="59.084532274886" lon="17.725542474941">
        <ele>43.8</ele>
        <time>2017-09-02T10:43:16Z</time>
      </trkpt>
      <trkpt lat="59.084578375336" lon="17.725587569563">
        <ele>44.4</ele>
        <time>2017-09-02T10:43:17Z</time>
      </trkpt>
      <trkpt lat="59.084673258444" lon="17.725696031349">
        <ele>45.4</ele>
        <time>2017-09-02T10:43:19Z</time>
      </trkpt>
      <trkpt lat="59.084767219543" lon="17.725810025189">
        <ele>46.2</ele>
        <time>2017-09-02T10:43:21Z</time>
      </trkpt>
      <trkpt lat="59.084809967233" lon="17.725862412064">
        <ele>46.6</ele>
        <time>2017-09-02T10:43:22Z</time>
      </trkpt>
      <trkpt lat="59.084855900045" lon="17.725921001545">
        <ele>46.8</ele>
        <time>2017-09-02T10:43:23Z</time>
      </trkpt>
      <trkpt lat="59.084952543352" lon="17.726032396996">
        <ele>47.4</ele>
        <time>2017-09-02T10:43:25Z</time>
      </trkpt>
      <trkpt lat="59.085005936055" lon="17.72609492597">
        <ele>47.6</ele>
        <time>2017-09-02T10:43:26Z</time>
      </trkpt>
      <trkpt lat="59.085058574387" lon="17.726154940374">
        <ele>48.2</ele>
        <time>2017-09-02T10:43:27Z</time>
      </trkpt>
      <trkpt lat="59.085116828592" lon="17.726214870959">
        <ele>48.8</ele>
        <time>2017-09-02T10:43:28Z</time>
      </trkpt>
      <trkpt lat="59.085174412245" lon="17.726277148476">
        <ele>49.2</ele>
        <time>2017-09-02T10:43:29Z</time>
      </trkpt>
      <trkpt lat="59.085231995898" lon="17.726338420165">
        <ele>49.8</ele>
        <time>2017-09-02T10:43:30Z</time>
      </trkpt>
      <trkpt lat="59.085293183768" lon="17.726392064325">
        <ele>50.4</ele>
        <time>2017-09-02T10:43:31Z</time>
      </trkpt>
      <trkpt lat="59.085415140413" lon="17.726486863614">
        <ele>51</ele>
        <time>2017-09-02T10:43:33Z</time>
      </trkpt>
      <trkpt lat="59.085545981872" lon="17.726558780316">
        <ele>51.4</ele>
        <time>2017-09-02T10:43:35Z</time>
      </trkpt>
      <trkpt lat="59.085683109756" lon="17.726631535208">
        <ele>51.8</ele>
        <time>2017-09-02T10:43:37Z</time>
      </trkpt>
      <trkpt lat="59.085824847685" lon="17.726715689484">
        <ele>52</ele>
        <time>2017-09-02T10:43:39Z</time>
      </trkpt>
      <trkpt lat="59.085966669433" lon="17.726818703035">
        <ele>52.6</ele>
        <time>2017-09-02T10:43:41Z</time>
      </trkpt>
      <trkpt lat="59.086039591963" lon="17.726888608081">
        <ele>52.6</ele>
        <time>2017-09-02T10:43:42Z</time>
      </trkpt>
      <trkpt lat="59.086113687959" lon="17.726973097633">
        <ele>52.8</ele>
        <time>2017-09-02T10:43:43Z</time>
      </trkpt>
      <trkpt lat="59.086271602955" lon="17.727191949042">
        <ele>52.8</ele>
        <time>2017-09-02T10:43:45Z</time>
      </trkpt>
      <trkpt lat="59.086439492412" lon="17.727419601446">
        <ele>52.8</ele>
        <time>2017-09-02T10:43:47Z</time>
      </trkpt>
      <trkpt lat="59.086625319135" lon="17.727617833381">
        <ele>52.8</ele>
        <time>2017-09-02T10:43:49Z</time>
      </trkpt>
      <trkpt lat="59.086837465024" lon="17.727736437266">
        <ele>51.6</ele>
        <time>2017-09-02T10:43:51Z</time>
      </trkpt>
      <trkpt lat="59.086944334249" lon="17.727770886875">
        <ele>50.6</ele>
        <time>2017-09-02T10:43:52Z</time>
      </trkpt>
      <trkpt lat="59.087051371112" lon="17.727795948756">
        <ele>49.6</ele>
        <time>2017-09-02T10:43:53Z</time>
      </trkpt>
      <trkpt lat="59.08727198272" lon="17.727811455271">
        <ele>47.8</ele>
        <time>2017-09-02T10:43:55Z</time>
      </trkpt>
      <trkpt lat="59.087482200772" lon="17.727806090855">
        <ele>46.6</ele>
        <time>2017-09-02T10:43:57Z</time>
      </trkpt>
      <trkpt lat="59.087689066064" lon="17.727789159417">
        <ele>46</ele>
        <time>2017-09-02T10:43:59Z</time>
      </trkpt>
      <trkpt lat="59.087895009347" lon="17.727781531888">
        <ele>45.4</ele>
        <time>2017-09-02T10:44:01Z</time>
      </trkpt>
      <trkpt lat="59.088107741969" lon="17.727810533262">
        <ele>45.4</ele>
        <time>2017-09-02T10:44:03Z</time>
      </trkpt>
      <trkpt lat="59.08821494647" lon="17.727852442762">
        <ele>45.4</ele>
        <time>2017-09-02T10:44:04Z</time>
      </trkpt>
      <trkpt lat="59.088320726048" lon="17.727910780786">
        <ele>45.4</ele>
        <time>2017-09-02T10:44:05Z</time>
      </trkpt>
      <trkpt lat="59.088529602996" lon="17.728044388272">
        <ele>45.4</ele>
        <time>2017-09-02T10:44:07Z</time>
      </trkpt>
      <trkpt lat="59.088737222659" lon="17.728187383486">
        <ele>45.2</ele>
        <time>2017-09-02T10:44:09Z</time>
      </trkpt>
      <trkpt lat="59.088948278901" lon="17.728317722031">
        <ele>44.8</ele>
        <time>2017-09-02T10:44:11Z</time>
      </trkpt>
      <trkpt lat="59.089163693731" lon="17.728439930133">
        <ele>44.2</ele>
        <time>2017-09-02T10:44:13Z</time>
      </trkpt>
      <trkpt lat="59.089375588163" lon="17.728574040533">
        <ele>43.8</ele>
        <time>2017-09-02T10:44:15Z</time>
      </trkpt>
      <trkpt lat="59.089578430143" lon="17.728725920561">
        <ele>43.6</ele>
        <time>2017-09-02T10:44:17Z</time>
      </trkpt>
      <trkpt lat="59.089781439761" lon="17.728892636552">
        <ele>43.6</ele>
        <time>2017-09-02T10:44:19Z</time>
      </trkpt>
      <trkpt lat="59.089967434122" lon="17.729075361972">
        <ele>43.4</ele>
        <time>2017-09-02T10:44:21Z</time>
      </trkpt>
      <trkpt lat="59.090055108796" lon="17.729180387179">
        <ele>43.2</ele>
        <time>2017-09-02T10:44:22Z</time>
      </trkpt>
      <trkpt lat="59.090143873117" lon="17.729279964151">
        <ele>43.2</ele>
        <time>2017-09-02T10:44:23Z</time>
      </trkpt>
      <trkpt lat="59.090335483351" lon="17.729430586894">
        <ele>43.2</ele>
        <time>2017-09-02T10:44:25Z</time>
      </trkpt>
      <trkpt lat="59.090439251273" lon="17.729479872466">
        <ele>43.2</ele>
        <time>2017-09-02T10:44:26Z</time>
      </trkpt>
      <trkpt lat="59.09054511467" lon="17.729521865785">
        <ele>43.2</ele>
        <time>2017-09-02T10:44:27Z</time>
      </trkpt>
      <trkpt lat="59.090759356034" lon="17.729559835792">
        <ele>43</ele>
        <time>2017-09-02T10:44:29Z</time>
      </trkpt>
      <trkpt lat="59.090979883823" lon="17.729575845221">
        <ele>43.2</ele>
        <time>2017-09-02T10:44:31Z</time>
      </trkpt>
      <trkpt lat="59.09121231391" lon="17.729578108334">
        <ele>43.4</ele>
        <time>2017-09-02T10:44:33Z</time>
      </trkpt>
      <trkpt lat="59.091455724286" lon="17.729595626505">
        <ele>43.4</ele>
        <time>2017-09-02T10:44:35Z</time>
      </trkpt>
      <trkpt lat="59.091703325612" lon="17.729667040293">
        <ele>43.4</ele>
        <time>2017-09-02T10:44:37Z</time>
      </trkpt>
      <trkpt lat="59.091944640513" lon="17.729794864268">
        <ele>43.4</ele>
        <time>2017-09-02T10:44:39Z</time>
      </trkpt>
      <trkpt lat="59.092178830799" lon="17.729962250811">
        <ele>42.8</ele>
        <time>2017-09-02T10:44:41Z</time>
      </trkpt>
      <trkpt lat="59.092400196778" lon="17.730157297624">
        <ele>42.2</ele>
        <time>2017-09-02T10:44:43Z</time>
      </trkpt>
      <trkpt lat="59.092508071831" lon="17.73025570113">
        <ele>41.2</ele>
        <time>2017-09-02T10:44:44Z</time>
      </trkpt>
      <trkpt lat="59.092615360151" lon="17.730345136003">
        <ele>40.4</ele>
        <time>2017-09-02T10:44:45Z</time>
      </trkpt>
      <trkpt lat="59.092722061738" lon="17.730414454316">
        <ele>40</ele>
        <time>2017-09-02T10:44:46Z</time>
      </trkpt>
      <trkpt lat="59.092833960103" lon="17.730448652468">
        <ele>39.8</ele>
        <time>2017-09-02T10:44:47Z</time>
      </trkpt>
      <trkpt lat="59.093046860363" lon="17.730364749649">
        <ele>38.6</ele>
        <time>2017-09-02T10:44:49Z</time>
      </trkpt>
      <trkpt lat="59.093202763703" lon="17.730071466968">
        <ele>38.2</ele>
        <time>2017-09-02T10:44:51Z</time>
      </trkpt>
      <trkpt lat="59.093308878557" lon="17.729706519042">
        <ele>38</ele>
        <time>2017-09-02T10:44:53Z</time>
      </trkpt>
      <trkpt lat="59.093423375311" lon="17.729321286918">
        <ele>37.8</ele>
        <time>2017-09-02T10:44:55Z</time>
      </trkpt>
      <trkpt lat="59.093540051359" lon="17.728934546052">
        <ele>37.4</ele>
        <time>2017-09-02T10:44:57Z</time>
      </trkpt>
      <trkpt lat="59.093657481778" lon="17.728578818216">
        <ele>37.2</ele>
        <time>2017-09-02T10:44:59Z</time>
      </trkpt>
      <trkpt lat="59.093706264436" lon="17.728399864651">
        <ele>37.2</ele>
        <time>2017-09-02T10:45:00Z</time>
      </trkpt>
      <trkpt lat="59.093735601086" lon="17.728207332408">
        <ele>37</ele>
        <time>2017-09-02T10:45:01Z</time>
      </trkpt>
      <trkpt lat="59.093731745412" lon="17.727784214096">
        <ele>36.8</ele>
        <time>2017-09-02T10:45:03Z</time>
      </trkpt>
      <trkpt lat="59.093737026009" lon="17.727554298579">
        <ele>36.8</ele>
        <time>2017-09-02T10:45:04Z</time>
      </trkpt>
      <trkpt lat="59.093768039039" lon="17.727325724166">
        <ele>36.8</ele>
        <time>2017-09-02T10:45:05Z</time>
      </trkpt>
      <trkpt lat="59.093896114471" lon="17.726937726015">
        <ele>36.8</ele>
        <time>2017-09-02T10:45:07Z</time>
      </trkpt>
      <trkpt lat="59.09409820208" lon="17.726680485504">
        <ele>36.6</ele>
        <time>2017-09-02T10:45:09Z</time>
      </trkpt>
      <trkpt lat="59.094212028282" lon="17.726616112512">
        <ele>36.2</ele>
        <time>2017-09-02T10:45:10Z</time>
      </trkpt>
      <trkpt lat="59.094332643823" lon="17.726593229925">
        <ele>35.4</ele>
        <time>2017-09-02T10:45:11Z</time>
      </trkpt>
      <trkpt lat="59.094455354839" lon="17.726628517724">
        <ele>33.8</ele>
        <time>2017-09-02T10:45:12Z</time>
      </trkpt>
      <trkpt lat="59.09457177943" lon="17.726736392777">
        <ele>32.4</ele>
        <time>2017-09-02T10:45:13Z</time>
      </trkpt>
      <trkpt lat="59.094667165452" lon="17.726904449872">
        <ele>31.2</ele>
        <time>2017-09-02T10:45:14Z</time>
      </trkpt>
      <trkpt lat="59.094738243964" lon="17.72711332682">
        <ele>30.2</ele>
        <time>2017-09-02T10:45:15Z</time>
      </trkpt>
      <trkpt lat="59.094778393265" lon="17.727349947857">
        <ele>29.6</ele>
        <time>2017-09-02T10:45:16Z</time>
      </trkpt>
      <trkpt lat="59.094795827617" lon="17.727601907771">
        <ele>28.8</ele>
        <time>2017-09-02T10:45:17Z</time>
      </trkpt>
      <trkpt lat="59.094793815961" lon="17.727855208789">
        <ele>27.8</ele>
        <time>2017-09-02T10:45:18Z</time>
      </trkpt>
      <trkpt lat="59.094779818188" lon="17.728107252522">
        <ele>26.8</ele>
        <time>2017-09-02T10:45:19Z</time>
      </trkpt>
      <trkpt lat="59.09476288675" lon="17.72860446683">
        <ele>25.2</ele>
        <time>2017-09-02T10:45:21Z</time>
      </trkpt>
      <trkpt lat="59.094767664433" lon="17.728844608265">
        <ele>24.8</ele>
        <time>2017-09-02T10:45:22Z</time>
      </trkpt>
      <trkpt lat="59.094788367726" lon="17.729073685592">
        <ele>24.6</ele>
        <time>2017-09-02T10:45:23Z</time>
      </trkpt>
      <trkpt lat="59.094903451213" lon="17.729482806131">
        <ele>24.2</ele>
        <time>2017-09-02T10:45:25Z</time>
      </trkpt>
      <trkpt lat="59.095110819419" lon="17.729748260904">
        <ele>24.2</ele>
        <time>2017-09-02T10:45:27Z</time>
      </trkpt>
      <trkpt lat="59.095367724654" lon="17.7298558845">
        <ele>23.4</ele>
        <time>2017-09-02T10:45:29Z</time>
      </trkpt>
      <trkpt lat="59.095501415959" lon="17.729865020771">
        <ele>22.8</ele>
        <time>2017-09-02T10:45:30Z</time>
      </trkpt>
      <trkpt lat="59.095628653201" lon="17.729847334962">
        <ele>22.6</ele>
        <time>2017-09-02T10:45:31Z</time>
      </trkpt>
      <trkpt lat="59.095752872959" lon="17.729815399923">
        <ele>22.2</ele>
        <time>2017-09-02T10:45:32Z</time>
      </trkpt>
      <trkpt lat="59.095875081061" lon="17.729786147092">
        <ele>22.2</ele>
        <time>2017-09-02T10:45:33Z</time>
      </trkpt>
      <trkpt lat="59.096113881392" lon="17.729730575095">
        <ele>22</ele>
        <time>2017-09-02T10:45:35Z</time>
      </trkpt>
      <trkpt lat="59.096349077506" lon="17.729648181018">
        <ele>22</ele>
        <time>2017-09-02T10:45:37Z</time>
      </trkpt>
      <trkpt lat="59.096586536733" lon="17.729503425605">
        <ele>21.8</ele>
        <time>2017-09-02T10:45:39Z</time>
      </trkpt>
      <trkpt lat="59.096835060068" lon="17.729300835082">
        <ele>21.4</ele>
        <time>2017-09-02T10:45:41Z</time>
      </trkpt>
      <trkpt lat="59.096962800224" lon="17.729204275594">
        <ele>20.4</ele>
        <time>2017-09-02T10:45:42Z</time>
      </trkpt>
      <trkpt lat="59.097091210932" lon="17.729117271472">
        <ele>19.8</ele>
        <time>2017-09-02T10:45:43Z</time>
      </trkpt>
      <trkpt lat="59.097342248837" lon="17.728953405327">
        <ele>19.4</ele>
        <time>2017-09-02T10:45:45Z</time>
      </trkpt>
      <trkpt lat="59.097463954025" lon="17.728872855268">
        <ele>19.2</ele>
        <time>2017-09-02T10:45:46Z</time>
      </trkpt>
      <trkpt lat="59.097582054996" lon="17.72879389777">
        <ele>19.2</ele>
        <time>2017-09-02T10:45:47Z</time>
      </trkpt>
      <trkpt lat="59.097805935545" lon="17.728653417126">
        <ele>19.2</ele>
        <time>2017-09-02T10:45:49Z</time>
      </trkpt>
      <trkpt lat="59.098020176909" lon="17.728522408029">
        <ele>19</ele>
        <time>2017-09-02T10:45:51Z</time>
      </trkpt>
      <trkpt lat="59.098231987522" lon="17.72839827209">
        <ele>19</ele>
        <time>2017-09-02T10:45:53Z</time>
      </trkpt>
      <trkpt lat="59.098446228886" lon="17.728280590214">
        <ele>18.8</ele>
        <time>2017-09-02T10:45:55Z</time>
      </trkpt>
      <trkpt lat="59.098663403915" lon="17.728203057639">
        <ele>18.8</ele>
        <time>2017-09-02T10:45:57Z</time>
      </trkpt>
      <trkpt lat="59.098893738527" lon="17.728177492844">
        <ele>18</ele>
        <time>2017-09-02T10:45:59Z</time>
      </trkpt>
      <trkpt lat="59.099016952457" lon="17.728191155341">
        <ele>17</ele>
        <time>2017-09-02T10:46:00Z</time>
      </trkpt>
      <trkpt lat="59.099145195527" lon="17.728228035701">
        <ele>16.4</ele>
        <time>2017-09-02T10:46:01Z</time>
      </trkpt>
      <trkpt lat="59.09927570171" lon="17.728275309617">
        <ele>15.8</ele>
        <time>2017-09-02T10:46:02Z</time>
      </trkpt>
      <trkpt lat="59.099407716635" lon="17.728318392583">
        <ele>15.6</ele>
        <time>2017-09-02T10:46:03Z</time>
      </trkpt>
      <trkpt lat="59.099673171408" lon="17.72836306811">
        <ele>15.2</ele>
        <time>2017-09-02T10:46:05Z</time>
      </trkpt>
      <trkpt lat="59.099929825186" lon="17.728362816653">
        <ele>13.4</ele>
        <time>2017-09-02T10:46:07Z</time>
      </trkpt>
      <trkpt lat="59.100054212582" lon="17.728356530228">
        <ele>12.4</ele>
        <time>2017-09-02T10:46:08Z</time>
      </trkpt>
      <trkpt lat="59.100177175055" lon="17.728348986518">
        <ele>9.6</ele>
        <time>2017-09-02T10:46:09Z</time>
      </trkpt>
      <trkpt lat="59.100297706777" lon="17.728340017885">
        <ele>6.6</ele>
        <time>2017-09-02T10:46:10Z</time>
      </trkpt>
      <trkpt lat="59.100418406137" lon="17.728333982917">
        <ele>4.6</ele>
        <time>2017-09-02T10:46:11Z</time>
      </trkpt>
      <trkpt lat="59.100542458257" lon="17.728334485831">
        <ele>3.2</ele>
        <time>2017-09-02T10:46:12Z</time>
      </trkpt>
      <trkpt lat="59.100671036603" lon="17.728341778084">
        <ele>2.4</ele>
        <time>2017-09-02T10:46:13Z</time>
      </trkpt>
      <trkpt lat="59.100801626605" lon="17.728355859676">
        <ele>2</ele>
        <time>2017-09-02T10:46:14Z</time>
      </trkpt>
      <trkpt lat="59.100931294598" lon="17.728371869105">
        <ele>1.6</ele>
        <time>2017-09-02T10:46:15Z</time>
      </trkpt>
      <trkpt lat="59.101202197606" lon="17.728421825229">
        <ele>1</ele>
        <time>2017-09-02T10:46:17Z</time>
      </trkpt>
      <trkpt lat="59.101337900567" lon="17.728458537951">
        <ele>0.8</ele>
        <time>2017-09-02T10:46:18Z</time>
      </trkpt>
      <trkpt lat="59.101478716487" lon="17.728498687252">
        <ele>0.6</ele>
        <time>2017-09-02T10:46:19Z</time>
      </trkpt>
      <trkpt lat="59.101767053847" lon="17.728570603954">
        <ele>0.2</ele>
        <time>2017-09-02T10:46:21Z</time>
      </trkpt>
      <trkpt lat="59.102059414519" lon="17.728644113217">
        <ele>0</ele>
        <time>2017-09-02T10:46:23Z</time>
      </trkpt>
      <trkpt lat="59.102208779977" lon="17.728683675785">
        <ele>0</ele>
        <time>2017-09-02T10:46:24Z</time>
      </trkpt>
      <trkpt lat="59.102355966141" lon="17.728729021864">
        <ele>0</ele>
        <time>2017-09-02T10:46:25Z</time>
      </trkpt>
      <trkpt lat="59.10264438732" lon="17.728868748137">
        <ele>0</ele>
        <time>2017-09-02T10:46:27Z</time>
      </trkpt>
      <trkpt lat="59.102921325296" lon="17.729041499096">
        <ele>0</ele>
        <time>2017-09-02T10:46:29Z</time>
      </trkpt>
      <trkpt lat="59.103190384286" lon="17.729231265312">
        <ele>0</ele>
        <time>2017-09-02T10:46:31Z</time>
      </trkpt>
      <trkpt lat="59.103323656496" lon="17.729321789832">
        <ele>0</ele>
        <time>2017-09-02T10:46:32Z</time>
      </trkpt>
      <trkpt lat="59.103456677249" lon="17.729413068723">
        <ele>0</ele>
        <time>2017-09-02T10:46:33Z</time>
      </trkpt>
      <trkpt lat="59.1035848365" lon="17.729499067017">
        <ele>0</ele>
        <time>2017-09-02T10:46:34Z</time>
      </trkpt>
      <trkpt lat="59.103708301887" lon="17.729575426126">
        <ele>0</ele>
        <time>2017-09-02T10:46:35Z</time>
      </trkpt>
      <trkpt lat="59.103824139745" lon="17.729651114683">
        <ele>0</ele>
        <time>2017-09-02T10:46:36Z</time>
      </trkpt>
      <trkpt lat="59.103932936807" lon="17.729725462136">
        <ele>0</ele>
        <time>2017-09-02T10:46:37Z</time>
      </trkpt>
      <trkpt lat="59.104137706624" lon="17.72985756088">
        <ele>0</ele>
        <time>2017-09-02T10:46:39Z</time>
      </trkpt>
      <trkpt lat="59.104323868623" lon="17.729982283552">
        <ele>0</ele>
        <time>2017-09-02T10:46:41Z</time>
      </trkpt>
      <trkpt lat="59.104497709229" lon="17.730097115582">
        <ele>0</ele>
        <time>2017-09-02T10:46:43Z</time>
      </trkpt>
      <trkpt lat="59.104658976985" lon="17.73021798258">
        <ele>0</ele>
        <time>2017-09-02T10:46:45Z</time>
      </trkpt>
      <trkpt lat="59.104733408257" lon="17.730288055264">
        <ele>0</ele>
        <time>2017-09-02T10:46:46Z</time>
      </trkpt>
      <trkpt lat="59.104805157321" lon="17.73036466583">
        <ele>0</ele>
        <time>2017-09-02T10:46:47Z</time>
      </trkpt>
      <trkpt lat="59.104875146186" lon="17.730442114586">
        <ele>0</ele>
        <time>2017-09-02T10:46:48Z</time>
      </trkpt>
      <trkpt lat="59.104944715956" lon="17.730517384048">
        <ele>0</ele>
        <time>2017-09-02T10:46:49Z</time>
      </trkpt>
      <trkpt lat="59.105079077813" lon="17.73066725242">
        <ele>0</ele>
        <time>2017-09-02T10:46:51Z</time>
      </trkpt>
      <trkpt lat="59.105207069426" lon="17.730815444412">
        <ele>0.4</ele>
        <time>2017-09-02T10:46:53Z</time>
      </trkpt>
      <trkpt lat="59.105269263124" lon="17.730884175992">
        <ele>0.8</ele>
        <time>2017-09-02T10:46:54Z</time>
      </trkpt>
      <trkpt lat="59.105330618632" lon="17.730951315011">
        <ele>1.2</ele>
        <time>2017-09-02T10:46:55Z</time>
      </trkpt>
      <trkpt lat="59.105445953576" lon="17.731083749031">
        <ele>1.6</ele>
        <time>2017-09-02T10:46:57Z</time>
      </trkpt>
      <trkpt lat="59.105553996267" lon="17.731212495015">
        <ele>1.8</ele>
        <time>2017-09-02T10:46:59Z</time>
      </trkpt>
      <trkpt lat="59.105605125857" lon="17.731271000677">
        <ele>2</ele>
        <time>2017-09-02T10:47:00Z</time>
      </trkpt>
      <trkpt lat="59.105654579067" lon="17.731327327045">
        <ele>2.4</ele>
        <time>2017-09-02T10:47:01Z</time>
      </trkpt>
      <trkpt lat="59.105747701976" lon="17.731430927329">
        <ele>3.2</ele>
        <time>2017-09-02T10:47:03Z</time>
      </trkpt>
      <trkpt lat="59.105833113537" lon="17.731523798781">
        <ele>3.8</ele>
        <time>2017-09-02T10:47:05Z</time>
      </trkpt>
      <trkpt lat="59.105909053551" lon="17.731607533962">
        <ele>4.4</ele>
        <time>2017-09-02T10:47:07Z</time>
      </trkpt>
      <trkpt lat="59.105976276389" lon="17.731686910555">
        <ele>5</ele>
        <time>2017-09-02T10:47:09Z</time>
      </trkpt>
      <trkpt lat="59.106036709888" lon="17.73174935571">
        <ele>5.8</ele>
        <time>2017-09-02T10:47:11Z</time>
      </trkpt>
      <trkpt lat="59.10606671709" lon="17.731762347655">
        <ele>6.4</ele>
        <time>2017-09-02T10:47:12Z</time>
      </trkpt>
      <trkpt lat="59.106090605505" lon="17.731759330171">
        <ele>6.6</ele>
        <time>2017-09-02T10:47:13Z</time>
      </trkpt>
      <trkpt lat="59.106107285486" lon="17.731746422045">
        <ele>7</ele>
        <time>2017-09-02T10:47:14Z</time>
      </trkpt>
      <trkpt lat="59.106118349594" lon="17.731729993521">
        <ele>7.2</ele>
        <time>2017-09-02T10:47:15Z</time>
      </trkpt>
      <trkpt lat="59.106105190011" lon="17.73171415173">
        <ele>7.6</ele>
        <time>2017-09-02T10:47:17Z</time>
      </trkpt>
      <trkpt lat="59.106101753432" lon="17.73171498992">
        <ele>8</ele>
        <time>2017-09-02T10:47:18Z</time>
      </trkpt>
      <trkpt lat="59.106102088708" lon="17.731714570825">
        <ele>8</ele>
        <time>2017-09-02T10:47:19Z</time>
      </trkpt>
      <trkpt lat="59.106100496147" lon="17.731713481178">
        <ele>8.4</ele>
        <time>2017-09-02T10:47:20Z</time>
      </trkpt>
      <trkpt lat="59.106091276057" lon="17.731701830337">
        <ele>9.6</ele>
        <time>2017-09-02T10:47:26Z</time>
      </trkpt>
      <trkpt lat="59.106091108419" lon="17.731699231948">
        <ele>9.6</ele>
        <time>2017-09-02T10:47:27Z</time>
      </trkpt>
      <trkpt lat="59.106122708182" lon="17.731784894966">
        <ele>16.6</ele>
        <time>2017-09-02T11:29:57Z</time>
      </trkpt>
      <trkpt lat="59.106121534716" lon="17.731781626025">
        <ele>13.6</ele>
        <time>2017-09-02T11:29:58Z</time>
      </trkpt>
      <trkpt lat="59.106081133958" lon="17.731862008446">
        <ele>10.4</ele>
        <time>2017-09-02T11:30:08Z</time>
      </trkpt>
      <trkpt lat="59.106086163098" lon="17.731908192715">
        <ele>10.4</ele>
        <time>2017-09-02T11:30:09Z</time>
      </trkpt>
      <trkpt lat="59.10612790496" lon="17.731992263172">
        <ele>10.4</ele>
        <time>2017-09-02T11:30:11Z</time>
      </trkpt>
      <trkpt lat="59.10617987274" lon="17.73207289705">
        <ele>10.4</ele>
        <time>2017-09-02T11:30:13Z</time>
      </trkpt>
      <trkpt lat="59.106243826637" lon="17.732171552013">
        <ele>10.4</ele>
        <time>2017-09-02T11:30:15Z</time>
      </trkpt>
      <trkpt lat="59.106284478852" lon="17.73222712401">
        <ele>10.4</ele>
        <time>2017-09-02T11:30:16Z</time>
      </trkpt>
      <trkpt lat="59.10632404142" lon="17.732282779826">
        <ele>10.4</ele>
        <time>2017-09-02T11:30:17Z</time>
      </trkpt>
      <trkpt lat="59.106408950067" lon="17.732394426734">
        <ele>10.4</ele>
        <time>2017-09-02T11:30:19Z</time>
      </trkpt>
      <trkpt lat="59.106494948361" lon="17.732513282076">
        <ele>10.2</ele>
        <time>2017-09-02T11:30:21Z</time>
      </trkpt>
      <trkpt lat="59.106581533388" lon="17.732643620621">
        <ele>10.2</ele>
        <time>2017-09-02T11:30:23Z</time>
      </trkpt>
      <trkpt lat="59.106666693492" lon="17.732785442369">
        <ele>10</ele>
        <time>2017-09-02T11:30:25Z</time>
      </trkpt>
      <trkpt lat="59.106759732582" lon="17.732921396787">
        <ele>10</ele>
        <time>2017-09-02T11:30:27Z</time>
      </trkpt>
      <trkpt lat="59.106856208251" lon="17.733056177739">
        <ele>10</ele>
        <time>2017-09-02T11:30:29Z</time>
      </trkpt>
      <trkpt lat="59.106953438291" lon="17.733187857388">
        <ele>10.2</ele>
        <time>2017-09-02T11:30:31Z</time>
      </trkpt>
      <trkpt lat="59.107046309743" lon="17.733320794322">
        <ele>10.2</ele>
        <time>2017-09-02T11:30:33Z</time>
      </trkpt>
      <trkpt lat="59.107140606118" lon="17.733446941917">
        <ele>10.4</ele>
        <time>2017-09-02T11:30:35Z</time>
      </trkpt>
      <trkpt lat="59.107233058475" lon="17.733579459756">
        <ele>11</ele>
        <time>2017-09-02T11:30:37Z</time>
      </trkpt>
      <trkpt lat="59.107326097565" lon="17.733714575984">
        <ele>11.4</ele>
        <time>2017-09-02T11:30:39Z</time>
      </trkpt>
      <trkpt lat="59.107418382284" lon="17.733848602565">
        <ele>11.8</ele>
        <time>2017-09-02T11:30:41Z</time>
      </trkpt>
      <trkpt lat="59.10746397982" lon="17.733913729928">
        <ele>12</ele>
        <time>2017-09-02T11:30:42Z</time>
      </trkpt>
      <trkpt lat="59.107508906804" lon="17.733978857291">
        <ele>12.2</ele>
        <time>2017-09-02T11:30:43Z</time>
      </trkpt>
      <trkpt lat="59.107597419668" lon="17.734108944379">
        <ele>12.6</ele>
        <time>2017-09-02T11:30:45Z</time>
      </trkpt>
      <trkpt lat="59.107686351627" lon="17.734238360915">
        <ele>13</ele>
        <time>2017-09-02T11:30:47Z</time>
      </trkpt>
      <trkpt lat="59.107774193939" lon="17.734371800763">
        <ele>13.6</ele>
        <time>2017-09-02T11:30:49Z</time>
      </trkpt>
      <trkpt lat="59.107859689319" lon="17.734507755181">
        <ele>14.2</ele>
        <time>2017-09-02T11:30:51Z</time>
      </trkpt>
      <trkpt lat="59.107941580482" lon="17.734644044875">
        <ele>15</ele>
        <time>2017-09-02T11:30:53Z</time>
      </trkpt>
      <trkpt lat="59.107981813602" lon="17.734712776455">
        <ele>15.4</ele>
        <time>2017-09-02T11:30:54Z</time>
      </trkpt>
      <trkpt lat="59.108020118885" lon="17.734780083112">
        <ele>15.8</ele>
        <time>2017-09-02T11:30:55Z</time>
      </trkpt>
      <trkpt lat="59.108096729451" lon="17.73491771391">
        <ele>16.4</ele>
        <time>2017-09-02T11:30:57Z</time>
      </trkpt>
      <trkpt lat="59.10817141218" lon="17.735060625305">
        <ele>17</ele>
        <time>2017-09-02T11:30:59Z</time>
      </trkpt>
      <trkpt lat="59.108209549825" lon="17.735131703817">
        <ele>17.4</ele>
        <time>2017-09-02T11:31:00Z</time>
      </trkpt>
      <trkpt lat="59.108248441841" lon="17.735200519216">
        <ele>17.8</ele>
        <time>2017-09-02T11:31:01Z</time>
      </trkpt>
      <trkpt lat="59.108326980244" lon="17.735335551625">
        <ele>18.4</ele>
        <time>2017-09-02T11:31:03Z</time>
      </trkpt>
      <trkpt lat="59.108368554468" lon="17.735402103911">
        <ele>18.8</ele>
        <time>2017-09-02T11:31:04Z</time>
      </trkpt>
      <trkpt lat="59.108412224167" lon="17.735467231274">
        <ele>19.2</ele>
        <time>2017-09-02T11:31:05Z</time>
      </trkpt>
      <trkpt lat="59.108500653212" lon="17.735587930634">
        <ele>20</ele>
        <time>2017-09-02T11:31:07Z</time>
      </trkpt>
      <trkpt lat="59.108594195216" lon="17.73571147984">
        <ele>20.8</ele>
        <time>2017-09-02T11:31:09Z</time>
      </trkpt>
      <trkpt lat="59.108643732245" lon="17.735776439565">
        <ele>21.2</ele>
        <time>2017-09-02T11:31:10Z</time>
      </trkpt>
      <trkpt lat="59.108695700025" lon="17.735843746222">
        <ele>21.4</ele>
        <time>2017-09-02T11:31:11Z</time>
      </trkpt>
      <trkpt lat="59.108806257286" lon="17.735986909074">
        <ele>21.6</ele>
        <time>2017-09-02T11:31:13Z</time>
      </trkpt>
      <trkpt lat="59.108923771524" lon="17.736145578441">
        <ele>21.6</ele>
        <time>2017-09-02T11:31:15Z</time>
      </trkpt>
      <trkpt lat="59.109043381237" lon="17.736331153707">
        <ele>21.6</ele>
        <time>2017-09-02T11:31:17Z</time>
      </trkpt>
      <trkpt lat="59.109157877991" lon="17.736555201894">
        <ele>21.6</ele>
        <time>2017-09-02T11:31:19Z</time>
      </trkpt>
      <trkpt lat="59.109263992845" lon="17.736809676378">
        <ele>21.6</ele>
        <time>2017-09-02T11:31:21Z</time>
      </trkpt>
      <trkpt lat="59.10936499474" lon="17.737075298789">
        <ele>21</ele>
        <time>2017-09-02T11:31:23Z</time>
      </trkpt>
      <trkpt lat="59.109474546173" lon="17.737332706938">
        <ele>20.2</ele>
        <time>2017-09-02T11:31:25Z</time>
      </trkpt>
      <trkpt lat="59.10959968794" lon="17.737570752898">
        <ele>19.4</ele>
        <time>2017-09-02T11:31:27Z</time>
      </trkpt>
      <trkpt lat="59.109667246054" lon="17.737684746738">
        <ele>19</ele>
        <time>2017-09-02T11:31:28Z</time>
      </trkpt>
      <trkpt lat="59.109737234919" lon="17.737797148017">
        <ele>18.6</ele>
        <time>2017-09-02T11:31:29Z</time>
      </trkpt>
      <trkpt lat="59.109879811038" lon="17.738013233399">
        <ele>18.2</ele>
        <time>2017-09-02T11:31:31Z</time>
      </trkpt>
      <trkpt lat="59.110015681637" lon="17.738243316554">
        <ele>17.8</ele>
        <time>2017-09-02T11:31:33Z</time>
      </trkpt>
      <trkpt lat="59.110143840888" lon="17.738491253156">
        <ele>17.8</ele>
        <time>2017-09-02T11:31:35Z</time>
      </trkpt>
      <trkpt lat="59.110259762565" lon="17.738756288834">
        <ele>17.6</ele>
        <time>2017-09-02T11:31:37Z</time>
      </trkpt>
      <trkpt lat="59.110365039229" lon="17.7390256831">
        <ele>17.6</ele>
        <time>2017-09-02T11:31:39Z</time>
      </trkpt>
      <trkpt lat="59.110464280925" lon="17.739290886416">
        <ele>17.6</ele>
        <time>2017-09-02T11:31:41Z</time>
      </trkpt>
      <trkpt lat="59.110561008051" lon="17.739549216574">
        <ele>17.6</ele>
        <time>2017-09-02T11:31:43Z</time>
      </trkpt>
      <trkpt lat="59.110657818996" lon="17.73979597971">
        <ele>17.6</ele>
        <time>2017-09-02T11:31:45Z</time>
      </trkpt>
      <trkpt lat="59.110753372656" lon="17.740027739245">
        <ele>17.6</ele>
        <time>2017-09-02T11:31:47Z</time>
      </trkpt>
      <trkpt lat="59.110844148633" lon="17.740246339197">
        <ele>18</ele>
        <time>2017-09-02T11:31:49Z</time>
      </trkpt>
      <trkpt lat="59.110934505515" lon="17.74044473877">
        <ele>18.2</ele>
        <time>2017-09-02T11:31:51Z</time>
      </trkpt>
      <trkpt lat="59.11102041999" lon="17.740618579376">
        <ele>18.6</ele>
        <time>2017-09-02T11:31:53Z</time>
      </trkpt>
      <trkpt lat="59.111104741904" lon="17.740776745829">
        <ele>19</ele>
        <time>2017-09-02T11:31:55Z</time>
      </trkpt>
      <trkpt lat="59.111191997483" lon="17.740920998328">
        <ele>19.8</ele>
        <time>2017-09-02T11:31:57Z</time>
      </trkpt>
      <trkpt lat="59.111240109589" lon="17.740989394632">
        <ele>20.2</ele>
        <time>2017-09-02T11:31:58Z</time>
      </trkpt>
      <trkpt lat="59.111288808428" lon="17.74105913204">
        <ele>20.6</ele>
        <time>2017-09-02T11:31:59Z</time>
      </trkpt>
      <trkpt lat="59.111391235246" lon="17.741193074802">
        <ele>21.8</ele>
        <time>2017-09-02T11:32:01Z</time>
      </trkpt>
      <trkpt lat="59.111492488598" lon="17.741332046704">
        <ele>23.2</ele>
        <time>2017-09-02T11:32:03Z</time>
      </trkpt>
      <trkpt lat="59.111598100538" lon="17.74144386125">
        <ele>24.2</ele>
        <time>2017-09-02T11:32:05Z</time>
      </trkpt>
      <trkpt lat="59.111649313947" lon="17.741495074659">
        <ele>24.4</ele>
        <time>2017-09-02T11:32:06Z</time>
      </trkpt>
      <trkpt lat="59.111696084949" lon="17.741548215905">
        <ele>24.8</ele>
        <time>2017-09-02T11:32:07Z</time>
      </trkpt>
      <trkpt lat="59.111784094899" lon="17.741658773166">
        <ele>25</ele>
        <time>2017-09-02T11:32:09Z</time>
      </trkpt>
      <trkpt lat="59.111872104849" lon="17.74177913725">
        <ele>25.6</ele>
        <time>2017-09-02T11:32:11Z</time>
      </trkpt>
      <trkpt lat="59.111959444247" lon="17.741905955397">
        <ele>25.8</ele>
        <time>2017-09-02T11:32:13Z</time>
      </trkpt>
      <trkpt lat="59.1120505555" lon="17.74203562339">
        <ele>26.8</ele>
        <time>2017-09-02T11:32:15Z</time>
      </trkpt>
      <trkpt lat="59.112145187151" lon="17.742160346062">
        <ele>27.6</ele>
        <time>2017-09-02T11:32:17Z</time>
      </trkpt>
      <trkpt lat="59.112191203782" lon="17.742221031018">
        <ele>28.6</ele>
        <time>2017-09-02T11:32:18Z</time>
      </trkpt>
      <trkpt lat="59.112237807146" lon="17.742282554164">
        <ele>29</ele>
        <time>2017-09-02T11:32:19Z</time>
      </trkpt>
      <trkpt lat="59.112333444625" lon="17.742412892709">
        <ele>29.8</ele>
        <time>2017-09-02T11:32:21Z</time>
      </trkpt>
      <trkpt lat="59.112434949434" lon="17.742555552647">
        <ele>31</ele>
        <time>2017-09-02T11:32:23Z</time>
      </trkpt>
      <trkpt lat="59.112546093428" lon="17.742694692187">
        <ele>32.2</ele>
        <time>2017-09-02T11:32:25Z</time>
      </trkpt>
      <trkpt lat="59.112666708969" lon="17.742826204198">
        <ele>33</ele>
        <time>2017-09-02T11:32:27Z</time>
      </trkpt>
      <trkpt lat="59.112811883477" lon="17.742935504174">
        <ele>33.6</ele>
        <time>2017-09-02T11:32:29Z</time>
      </trkpt>
      <trkpt lat="59.112963009134" lon="17.743007001781">
        <ele>33.8</ele>
        <time>2017-09-02T11:32:31Z</time>
      </trkpt>
      <trkpt lat="59.113113548058" lon="17.743046815806">
        <ele>34</ele>
        <time>2017-09-02T11:32:33Z</time>
      </trkpt>
      <trkpt lat="59.113190074805" lon="17.743057628457">
        <ele>34</ele>
        <time>2017-09-02T11:32:34Z</time>
      </trkpt>
      <trkpt lat="59.113268110294" lon="17.743062322321">
        <ele>34.2</ele>
        <time>2017-09-02T11:32:35Z</time>
      </trkpt>
      <trkpt lat="59.113431222068" lon="17.743055449163">
        <ele>34.4</ele>
        <time>2017-09-02T11:32:37Z</time>
      </trkpt>
      <trkpt lat="59.113576983309" lon="17.743030303463">
        <ele>34.6</ele>
        <time>2017-09-02T11:32:39Z</time>
      </trkpt>
      <trkpt lat="59.11373028826" lon="17.742986549945">
        <ele>34.6</ele>
        <time>2017-09-02T11:32:41Z</time>
      </trkpt>
      <trkpt lat="59.113882335926" lon="17.742916058166">
        <ele>34.6</ele>
        <time>2017-09-02T11:32:43Z</time>
      </trkpt>
      <trkpt lat="59.11401946381" lon="17.74281262552">
        <ele>35</ele>
        <time>2017-09-02T11:32:45Z</time>
      </trkpt>
      <trkpt lat="59.114146533414" lon="17.742701062431">
        <ele>35.6</ele>
        <time>2017-09-02T11:32:47Z</time>
      </trkpt>
      <trkpt lat="59.114210822587" lon="17.742645993348">
        <ele>35.6</ele>
        <time>2017-09-02T11:32:48Z</time>
      </trkpt>
      <trkpt lat="59.114277793968" lon="17.74259218155">
        <ele>35.8</ele>
        <time>2017-09-02T11:32:49Z</time>
      </trkpt>
      <trkpt lat="59.11442430958" lon="17.742497633718">
        <ele>36.4</ele>
        <time>2017-09-02T11:32:51Z</time>
      </trkpt>
      <trkpt lat="59.114504272906" lon="17.742453796381">
        <ele>36.8</ele>
        <time>2017-09-02T11:32:52Z</time>
      </trkpt>
      <trkpt lat="59.114588678639" lon="17.742408115026">
        <ele>37</ele>
        <time>2017-09-02T11:32:53Z</time>
      </trkpt>
      <trkpt lat="59.114767716023" lon="17.742317339049">
        <ele>37.2</ele>
        <time>2017-09-02T11:32:55Z</time>
      </trkpt>
      <trkpt lat="59.114955219126" lon="17.742233603868">
        <ele>37.4</ele>
        <time>2017-09-02T11:32:57Z</time>
      </trkpt>
      <trkpt lat="59.115148338102" lon="17.742156909483">
        <ele>37.4</ele>
        <time>2017-09-02T11:32:59Z</time>
      </trkpt>
      <trkpt lat="59.115341959992" lon="17.742091865939">
        <ele>37.4</ele>
        <time>2017-09-02T11:33:01Z</time>
      </trkpt>
      <trkpt lat="59.115537342081" lon="17.742031851535">
        <ele>37.2</ele>
        <time>2017-09-02T11:33:03Z</time>
      </trkpt>
      <trkpt lat="59.115737250396" lon="17.741979045565">
        <ele>37.2</ele>
        <time>2017-09-02T11:33:05Z</time>
      </trkpt>
      <trkpt lat="59.115935901426" lon="17.741949960372">
        <ele>37.2</ele>
        <time>2017-09-02T11:33:07Z</time>
      </trkpt>
      <trkpt lat="59.116129607135" lon="17.741940740282">
        <ele>37.2</ele>
        <time>2017-09-02T11:33:09Z</time>
      </trkpt>
      <trkpt lat="59.11631945717" lon="17.741938309531">
        <ele>37.2</ele>
        <time>2017-09-02T11:33:11Z</time>
      </trkpt>
      <trkpt lat="59.116505032436" lon="17.74194677525">
        <ele>37.4</ele>
        <time>2017-09-02T11:33:13Z</time>
      </trkpt>
      <trkpt lat="59.11668155525" lon="17.741984409981">
        <ele>37.4</ele>
        <time>2017-09-02T11:33:15Z</time>
      </trkpt>
      <trkpt lat="59.116843409739" lon="17.742039059969">
        <ele>37.8</ele>
        <time>2017-09-02T11:33:17Z</time>
      </trkpt>
      <trkpt lat="59.116991014998" lon="17.742102427133">
        <ele>38.2</ele>
        <time>2017-09-02T11:33:19Z</time>
      </trkpt>
      <trkpt lat="59.117136357144" lon="17.742175098206">
        <ele>38.8</ele>
        <time>2017-09-02T11:33:21Z</time>
      </trkpt>
      <trkpt lat="59.117211878063" lon="17.742211894747">
        <ele>39.2</ele>
        <time>2017-09-02T11:33:22Z</time>
      </trkpt>
      <trkpt lat="59.117288656267" lon="17.742252295505">
        <ele>39.6</ele>
        <time>2017-09-02T11:33:23Z</time>
      </trkpt>
      <trkpt lat="59.117443134684" lon="17.742346424242">
        <ele>40.4</ele>
        <time>2017-09-02T11:33:25Z</time>
      </trkpt>
      <trkpt lat="59.117598618929" lon="17.742450695078">
        <ele>41.2</ele>
        <time>2017-09-02T11:33:27Z</time>
      </trkpt>
      <trkpt lat="59.11767313402" lon="17.742509787473">
        <ele>41.6</ele>
        <time>2017-09-02T11:33:28Z</time>
      </trkpt>
      <trkpt lat="59.117750163681" lon="17.742576088302">
        <ele>41.8</ele>
        <time>2017-09-02T11:33:29Z</time>
      </trkpt>
      <trkpt lat="59.11790782722" lon="17.742731237271">
        <ele>42</ele>
        <time>2017-09-02T11:33:31Z</time>
      </trkpt>
      <trkpt lat="59.118061299809" lon="17.742934917441">
        <ele>42</ele>
        <time>2017-09-02T11:33:33Z</time>
      </trkpt>
      <trkpt lat="59.118195242571" lon="17.743211520141">
        <ele>42</ele>
        <time>2017-09-02T11:33:35Z</time>
      </trkpt>
      <trkpt lat="59.118299513407" lon="17.743557105878">
        <ele>42</ele>
        <time>2017-09-02T11:33:37Z</time>
      </trkpt>
      <trkpt lat="59.118346452047" lon="17.743747961741">
        <ele>42</ele>
        <time>2017-09-02T11:33:38Z</time>
      </trkpt>
      <trkpt lat="59.118392217221" lon="17.74394837297">
        <ele>41.8</ele>
        <time>2017-09-02T11:33:39Z</time>
      </trkpt>
      <trkpt lat="59.118483244655" lon="17.744353637835">
        <ele>41.4</ele>
        <time>2017-09-02T11:33:41Z</time>
      </trkpt>
      <trkpt lat="59.118568991492" lon="17.744755298483">
        <ele>40.8</ele>
        <time>2017-09-02T11:33:43Z</time>
      </trkpt>
      <trkpt lat="59.118611655363" lon="17.744957972825">
        <ele>40.4</ele>
        <time>2017-09-02T11:33:44Z</time>
      </trkpt>
      <trkpt lat="59.118654151596" lon="17.745154444561">
        <ele>39</ele>
        <time>2017-09-02T11:33:45Z</time>
      </trkpt>
      <trkpt lat="59.118696899286" lon="17.745346138614">
        <ele>37.6</ele>
        <time>2017-09-02T11:33:46Z</time>
      </trkpt>
      <trkpt lat="59.11873847351" lon="17.745533557898">
        <ele>36.6</ele>
        <time>2017-09-02T11:33:47Z</time>
      </trkpt>
      <trkpt lat="59.118819023569" lon="17.745894231055">
        <ele>35.6</ele>
        <time>2017-09-02T11:33:49Z</time>
      </trkpt>
      <trkpt lat="59.118858167042" lon="17.746069245127">
        <ele>35.4</ele>
        <time>2017-09-02T11:33:50Z</time>
      </trkpt>
      <trkpt lat="59.118895047402" lon="17.746242079905">
        <ele>35.4</ele>
        <time>2017-09-02T11:33:51Z</time>
      </trkpt>
      <trkpt lat="59.118966880285" lon="17.746576350077">
        <ele>35.2</ele>
        <time>2017-09-02T11:33:53Z</time>
      </trkpt>
      <trkpt lat="59.119040389548" lon="17.746902070711">
        <ele>35</ele>
        <time>2017-09-02T11:33:55Z</time>
      </trkpt>
      <trkpt lat="59.119115994286" lon="17.747227539888">
        <ele>35</ele>
        <time>2017-09-02T11:33:57Z</time>
      </trkpt>
      <trkpt lat="59.119193023947" lon="17.747557283834">
        <ele>35</ele>
        <time>2017-09-02T11:33:59Z</time>
      </trkpt>
      <trkpt lat="59.119270640341" lon="17.747889877626">
        <ele>34.8</ele>
        <time>2017-09-02T11:34:01Z</time>
      </trkpt>
      <trkpt lat="59.119345909803" lon="17.748220292124">
        <ele>34.6</ele>
        <time>2017-09-02T11:34:03Z</time>
      </trkpt>
      <trkpt lat="59.119420173437" lon="17.748551628631">
        <ele>34.6</ele>
        <time>2017-09-02T11:34:05Z</time>
      </trkpt>
      <trkpt lat="59.119457305254" lon="17.74871348312">
        <ele>34.4</ele>
        <time>2017-09-02T11:34:06Z</time>
      </trkpt>
      <trkpt lat="59.119493598881" lon="17.748875672885">
        <ele>34.2</ele>
        <time>2017-09-02T11:34:07Z</time>
      </trkpt>
      <trkpt lat="59.119567275782" lon="17.749196112922">
        <ele>33.6</ele>
        <time>2017-09-02T11:34:09Z</time>
      </trkpt>
      <trkpt lat="59.119604156142" lon="17.749353692642">
        <ele>33.4</ele>
        <time>2017-09-02T11:34:10Z</time>
      </trkpt>
      <trkpt lat="59.11963952776" lon="17.749509428344">
        <ele>33.2</ele>
        <time>2017-09-02T11:34:11Z</time>
      </trkpt>
      <trkpt lat="59.119707504969" lon="17.74981737935">
        <ele>33</ele>
        <time>2017-09-02T11:34:13Z</time>
      </trkpt>
      <trkpt lat="59.119773554341" lon="17.750122731967">
        <ele>32.8</ele>
        <time>2017-09-02T11:34:15Z</time>
      </trkpt>
      <trkpt lat="59.119837759695" lon="17.750427246394">
        <ele>32.8</ele>
        <time>2017-09-02T11:34:17Z</time>
      </trkpt>
      <trkpt lat="59.119896684452" lon="17.750733101925">
        <ele>32.8</ele>
        <time>2017-09-02T11:34:19Z</time>
      </trkpt>
      <trkpt lat="59.119945718567" lon="17.751047674632">
        <ele>32.8</ele>
        <time>2017-09-02T11:34:21Z</time>
      </trkpt>
      <trkpt lat="59.119985113497" lon="17.751362582615">
        <ele>32.8</ele>
        <time>2017-09-02T11:34:23Z</time>
      </trkpt>
      <trkpt lat="59.120004894781" lon="17.751667851413">
        <ele>33</ele>
        <time>2017-09-02T11:34:25Z</time>
      </trkpt>
      <trkpt lat="59.120005313876" lon="17.751818893251">
        <ele>33</ele>
        <time>2017-09-02T11:34:26Z</time>
      </trkpt>
      <trkpt lat="59.119999698003" lon="17.751969599813">
        <ele>33</ele>
        <time>2017-09-02T11:34:27Z</time>
      </trkpt>
      <trkpt lat="59.119984694402" lon="17.752277467">
        <ele>33.2</ele>
        <time>2017-09-02T11:34:29Z</time>
      </trkpt>
      <trkpt lat="59.119971199543" lon="17.752605366928">
        <ele>33.2</ele>
        <time>2017-09-02T11:34:31Z</time>
      </trkpt>
      <trkpt lat="59.119964829299" lon="17.752950952665">
        <ele>33.2</ele>
        <time>2017-09-02T11:34:33Z</time>
      </trkpt>
      <trkpt lat="59.119971534819" lon="17.753302070456">
        <ele>33.2</ele>
        <time>2017-09-02T11:34:35Z</time>
      </trkpt>
      <trkpt lat="59.120000620012" lon="17.753653607342">
        <ele>33.2</ele>
        <time>2017-09-02T11:34:37Z</time>
      </trkpt>
      <trkpt lat="59.120026603902" lon="17.753824681921">
        <ele>33.2</ele>
        <time>2017-09-02T11:34:38Z</time>
      </trkpt>
      <trkpt lat="59.120057449294" lon="17.753997684337">
        <ele>33.2</ele>
        <time>2017-09-02T11:34:39Z</time>
      </trkpt>
      <trkpt lat="59.120112434558" lon="17.75436120734">
        <ele>33</ele>
        <time>2017-09-02T11:34:41Z</time>
      </trkpt>
      <trkpt lat="59.120151242755" lon="17.754743254342">
        <ele>32.4</ele>
        <time>2017-09-02T11:34:43Z</time>
      </trkpt>
      <trkpt lat="59.120168006555" lon="17.754937714422">
        <ele>32.2</ele>
        <time>2017-09-02T11:34:44Z</time>
      </trkpt>
      <trkpt lat="59.120183010156" lon="17.755132090683">
        <ele>32</ele>
        <time>2017-09-02T11:34:45Z</time>
      </trkpt>
      <trkpt lat="59.120223494733" lon="17.755526123802">
        <ele>31.4</ele>
        <time>2017-09-02T11:34:47Z</time>
      </trkpt>
      <trkpt lat="59.120254340125" lon="17.755722176443">
        <ele>30.8</ele>
        <time>2017-09-02T11:34:48Z</time>
      </trkpt>
      <trkpt lat="59.120290717571" lon="17.755915714514">
        <ele>30.4</ele>
        <time>2017-09-02T11:34:49Z</time>
      </trkpt>
      <trkpt lat="59.120332459433" lon="17.756105816006">
        <ele>29.8</ele>
        <time>2017-09-02T11:34:50Z</time>
      </trkpt>
      <trkpt lat="59.120379062797" lon="17.756298515887">
        <ele>29.4</ele>
        <time>2017-09-02T11:34:51Z</time>
      </trkpt>
      <trkpt lat="59.120483752728" lon="17.756654746637">
        <ele>28.8</ele>
        <time>2017-09-02T11:34:53Z</time>
      </trkpt>
      <trkpt lat="59.120596070188" lon="17.756983400936">
        <ele>28</ele>
        <time>2017-09-02T11:34:55Z</time>
      </trkpt>
      <trkpt lat="59.120646529226" lon="17.75714651271">
        <ele>27.6</ele>
        <time>2017-09-02T11:34:56Z</time>
      </trkpt>
      <trkpt lat="59.120689612192" lon="17.75731415071">
        <ele>27.2</ele>
        <time>2017-09-02T11:34:57Z</time>
      </trkpt>
      <trkpt lat="59.120723642706" lon="17.757488242773">
        <ele>26.8</ele>
        <time>2017-09-02T11:34:58Z</time>
      </trkpt>
      <trkpt lat="59.120745854741" lon="17.757669124175">
        <ele>26.4</ele>
        <time>2017-09-02T11:34:59Z</time>
      </trkpt>
      <trkpt lat="59.120737137565" lon="17.75804169963">
        <ele>25.6</ele>
        <time>2017-09-02T11:35:01Z</time>
      </trkpt>
      <trkpt lat="59.120699251377" lon="17.758223083946">
        <ele>25.4</ele>
        <time>2017-09-02T11:35:02Z</time>
      </trkpt>
      <trkpt lat="59.120645523398" lon="17.758394745258">
        <ele>25.4</ele>
        <time>2017-09-02T11:35:03Z</time>
      </trkpt>
      <trkpt lat="59.120581737139" lon="17.758565233104">
        <ele>25.2</ele>
        <time>2017-09-02T11:35:04Z</time>
      </trkpt>
      <trkpt lat="59.120519711079" lon="17.758740833909">
        <ele>25.2</ele>
        <time>2017-09-02T11:35:05Z</time>
      </trkpt>
      <trkpt lat="59.120466066919" lon="17.758934288161">
        <ele>25</ele>
        <time>2017-09-02T11:35:06Z</time>
      </trkpt>
      <trkpt lat="59.120426252894" lon="17.759148613344">
        <ele>25</ele>
        <time>2017-09-02T11:35:07Z</time>
      </trkpt>
      <trkpt lat="59.120405465782" lon="17.759622358332">
        <ele>24.4</ele>
        <time>2017-09-02T11:35:09Z</time>
      </trkpt>
      <trkpt lat="59.120441759409" lon="17.760105658686">
        <ele>23.8</ele>
        <time>2017-09-02T11:35:11Z</time>
      </trkpt>
      <trkpt lat="59.120477885398" lon="17.760339681334">
        <ele>23</ele>
        <time>2017-09-02T11:35:12Z</time>
      </trkpt>
      <trkpt lat="59.120530104635" lon="17.760567417557">
        <ele>22.4</ele>
        <time>2017-09-02T11:35:13Z</time>
      </trkpt>
      <trkpt lat="59.120677709894" lon="17.760979387942">
        <ele>21</ele>
        <time>2017-09-02T11:35:15Z</time>
      </trkpt>
      <trkpt lat="59.120770665165" lon="17.76115809005">
        <ele>20</ele>
        <time>2017-09-02T11:35:16Z</time>
      </trkpt>
      <trkpt lat="59.120869906861" lon="17.761316088865">
        <ele>18.8</ele>
        <time>2017-09-02T11:35:17Z</time>
      </trkpt>
      <trkpt lat="59.121094709419" lon="17.761549357142">
        <ele>17.4</ele>
        <time>2017-09-02T11:35:19Z</time>
      </trkpt>
      <trkpt lat="59.121210966372" lon="17.761644575526">
        <ele>17.2</ele>
        <time>2017-09-02T11:35:20Z</time>
      </trkpt>
      <trkpt lat="59.121327810058" lon="17.761738704263">
        <ele>17</ele>
        <time>2017-09-02T11:35:21Z</time>
      </trkpt>
      <trkpt lat="59.121555294824" lon="17.761919920941">
        <ele>16</ele>
        <time>2017-09-02T11:35:23Z</time>
      </trkpt>
      <trkpt lat="59.121774481509" lon="17.762107843139">
        <ele>15</ele>
        <time>2017-09-02T11:35:25Z</time>
      </trkpt>
      <trkpt lat="59.121880931639" lon="17.76220079841">
        <ele>14.8</ele>
        <time>2017-09-02T11:35:26Z</time>
      </trkpt>
      <trkpt lat="59.121986627398" lon="17.762292412577">
        <ele>14.2</ele>
        <time>2017-09-02T11:35:27Z</time>
      </trkpt>
      <trkpt lat="59.122193744147" lon="17.762464576803">
        <ele>13.8</ele>
        <time>2017-09-02T11:35:29Z</time>
      </trkpt>
      <trkpt lat="59.122294494585" lon="17.762544037215">
        <ele>13.6</ele>
        <time>2017-09-02T11:35:30Z</time>
      </trkpt>
      <trkpt lat="59.122394490652" lon="17.762612098243">
        <ele>13.4</ele>
        <time>2017-09-02T11:35:31Z</time>
      </trkpt>
      <trkpt lat="59.122494067624" lon="17.762664988032">
        <ele>13.2</ele>
        <time>2017-09-02T11:35:32Z</time>
      </trkpt>
      <trkpt lat="59.122596410623" lon="17.762697509804">
        <ele>13.2</ele>
        <time>2017-09-02T11:35:33Z</time>
      </trkpt>
      <trkpt lat="59.122806796313" lon="17.762690971922">
        <ele>13</ele>
        <time>2017-09-02T11:35:35Z</time>
      </trkpt>
      <trkpt lat="59.123011985225" lon="17.762615031908">
        <ele>13</ele>
        <time>2017-09-02T11:35:37Z</time>
      </trkpt>
      <trkpt lat="59.123111059283" lon="17.762563147947">
        <ele>13</ele>
        <time>2017-09-02T11:35:38Z</time>
      </trkpt>
      <trkpt lat="59.123208121685" lon="17.762509839063">
        <ele>13</ele>
        <time>2017-09-02T11:35:39Z</time>
      </trkpt>
      <trkpt lat="59.12338958982" lon="17.76241286048">
        <ele>13</ele>
        <time>2017-09-02T11:35:41Z</time>
      </trkpt>
      <trkpt lat="59.123560915856" lon="17.762358461949">
        <ele>13</ele>
        <time>2017-09-02T11:35:43Z</time>
      </trkpt>
      <trkpt lat="59.12372821858" lon="17.762395509947">
        <ele>13.2</ele>
        <time>2017-09-02T11:35:45Z</time>
      </trkpt>
      <trkpt lat="59.123885546843" lon="17.762549150174">
        <ele>13.4</ele>
        <time>2017-09-02T11:35:47Z</time>
      </trkpt>
      <trkpt lat="59.124015131017" lon="17.762778730415">
        <ele>14</ele>
        <time>2017-09-02T11:35:49Z</time>
      </trkpt>
      <trkpt lat="59.124119820948" lon="17.763042508808">
        <ele>14.6</ele>
        <time>2017-09-02T11:35:51Z</time>
      </trkpt>
      <trkpt lat="59.124165334665" lon="17.763181983624">
        <ele>15</ele>
        <time>2017-09-02T11:35:52Z</time>
      </trkpt>
      <trkpt lat="59.124205819242" lon="17.763325062657">
        <ele>15.4</ele>
        <time>2017-09-02T11:35:53Z</time>
      </trkpt>
      <trkpt lat="59.124278993229" lon="17.763620440813">
        <ele>16</ele>
        <time>2017-09-02T11:35:55Z</time>
      </trkpt>
      <trkpt lat="59.124314029571" lon="17.763776847067">
        <ele>16.2</ele>
        <time>2017-09-02T11:35:56Z</time>
      </trkpt>
      <trkpt lat="59.124349485008" lon="17.76394171904">
        <ele>16.4</ele>
        <time>2017-09-02T11:35:57Z</time>
      </trkpt>
      <trkpt lat="59.124413271267" lon="17.764294261754">
        <ele>16.4</ele>
        <time>2017-09-02T11:35:59Z</time>
      </trkpt>
      <trkpt lat="59.124475800241" lon="17.76466256244">
        <ele>16.4</ele>
        <time>2017-09-02T11:36:01Z</time>
      </trkpt>
      <trkpt lat="59.124542017251" lon="17.765037987741">
        <ele>16.4</ele>
        <time>2017-09-02T11:36:03Z</time>
      </trkpt>
      <trkpt lat="59.124618460179" lon="17.765417855449">
        <ele>16.4</ele>
        <time>2017-09-02T11:36:05Z</time>
      </trkpt>
      <trkpt lat="59.124709487613" lon="17.76576897324">
        <ele>16</ele>
        <time>2017-09-02T11:36:07Z</time>
      </trkpt>
      <trkpt lat="59.124816608295" lon="17.766091760209">
        <ele>15.2</ele>
        <time>2017-09-02T11:36:09Z</time>
      </trkpt>
      <trkpt lat="59.124880143097" lon="17.766257051277">
        <ele>14.8</ele>
        <time>2017-09-02T11:36:10Z</time>
      </trkpt>
      <trkpt lat="59.124951221609" lon="17.76641940868">
        <ele>14.2</ele>
        <time>2017-09-02T11:36:11Z</time>
      </trkpt>
      <trkpt lat="59.12512799588" lon="17.766699280321">
        <ele>14</ele>
        <time>2017-09-02T11:36:13Z</time>
      </trkpt>
      <trkpt lat="59.125232434354" lon="17.766801371863">
        <ele>13.8</ele>
        <time>2017-09-02T11:36:14Z</time>
      </trkpt>
      <trkpt lat="59.125346931108" lon="17.766870187262">
        <ele>13.6</ele>
        <time>2017-09-02T11:36:15Z</time>
      </trkpt>
      <trkpt lat="59.12558480943" lon="17.766906061794">
        <ele>13.4</ele>
        <time>2017-09-02T11:36:17Z</time>
      </trkpt>
      <trkpt lat="59.125700563469" lon="17.766892902211">
        <ele>12.8</ele>
        <time>2017-09-02T11:36:18Z</time>
      </trkpt>
      <trkpt lat="59.125809360531" lon="17.76687203128">
        <ele>12</ele>
        <time>2017-09-02T11:36:19Z</time>
      </trkpt>
      <trkpt lat="59.125912793177" lon="17.766855435118">
        <ele>11</ele>
        <time>2017-09-02T11:36:20Z</time>
      </trkpt>
      <trkpt lat="59.126009101208" lon="17.766848059046">
        <ele>10</ele>
        <time>2017-09-02T11:36:21Z</time>
      </trkpt>
      <trkpt lat="59.126191156076" lon="17.766857111498">
        <ele>8.6</ele>
        <time>2017-09-02T11:36:23Z</time>
      </trkpt>
      <trkpt lat="59.126357117696" lon="17.7669206463">
        <ele>8.4</ele>
        <time>2017-09-02T11:36:25Z</time>
      </trkpt>
      <trkpt lat="59.126513859226" lon="17.767041680936">
        <ele>8.2</ele>
        <time>2017-09-02T11:36:27Z</time>
      </trkpt>
      <trkpt lat="59.126659536648" lon="17.767248127133">
        <ele>8.2</ele>
        <time>2017-09-02T11:36:29Z</time>
      </trkpt>
      <trkpt lat="59.126775206868" lon="17.76751324663">
        <ele>8.2</ele>
        <time>2017-09-02T11:36:31Z</time>
      </trkpt>
      <trkpt lat="59.126823989526" lon="17.767649201048">
        <ele>8.4</ele>
        <time>2017-09-02T11:36:32Z</time>
      </trkpt>
      <trkpt lat="59.126873023641" lon="17.767786077475">
        <ele>8.6</ele>
        <time>2017-09-02T11:36:33Z</time>
      </trkpt>
      <trkpt lat="59.126974779907" lon="17.768048430945">
        <ele>8.8</ele>
        <time>2017-09-02T11:36:35Z</time>
      </trkpt>
      <trkpt lat="59.12709271324" lon="17.768300558497">
        <ele>9</ele>
        <time>2017-09-02T11:36:37Z</time>
      </trkpt>
      <trkpt lat="59.127230763133" lon="17.768551596402">
        <ele>9</ele>
        <time>2017-09-02T11:36:39Z</time>
      </trkpt>
      <trkpt lat="59.127310726459" lon="17.768668020993">
        <ele>9</ele>
        <time>2017-09-02T11:36:40Z</time>
      </trkpt>
      <trkpt lat="59.127396389477" lon="17.768772794743">
        <ele>9</ele>
        <time>2017-09-02T11:36:41Z</time>
      </trkpt>
      <trkpt lat="59.127599315276" lon="17.768947557358">
        <ele>9</ele>
        <time>2017-09-02T11:36:43Z</time>
      </trkpt>
      <trkpt lat="59.127710794546" lon="17.76901947406">
        <ele>9</ele>
        <time>2017-09-02T11:36:44Z</time>
      </trkpt>
      <trkpt lat="59.127823195825" lon="17.76908150012">
        <ele>8.8</ele>
        <time>2017-09-02T11:36:45Z</time>
      </trkpt>
      <trkpt lat="59.128048417478" lon="17.769187866431">
        <ele>8.2</ele>
        <time>2017-09-02T11:36:47Z</time>
      </trkpt>
      <trkpt lat="59.128263329394" lon="17.769284090643">
        <ele>7.8</ele>
        <time>2017-09-02T11:36:49Z</time>
      </trkpt>
      <trkpt lat="59.128366594402" lon="17.769330694007">
        <ele>7.2</ele>
        <time>2017-09-02T11:36:50Z</time>
      </trkpt>
      <trkpt lat="59.128467177202" lon="17.769381655959">
        <ele>6.4</ele>
        <time>2017-09-02T11:36:51Z</time>
      </trkpt>
      <trkpt lat="59.128563820509" lon="17.76943856906">
        <ele>5.8</ele>
        <time>2017-09-02T11:36:52Z</time>
      </trkpt>
      <trkpt lat="59.128656943418" lon="17.769502439138">
        <ele>5.2</ele>
        <time>2017-09-02T11:36:53Z</time>
      </trkpt>
      <trkpt lat="59.128829945834" lon="17.769650044397">
        <ele>4.8</ele>
        <time>2017-09-02T11:36:55Z</time>
      </trkpt>
      <trkpt lat="59.128911250264" lon="17.76973612651">
        <ele>4.6</ele>
        <time>2017-09-02T11:36:56Z</time>
      </trkpt>
      <trkpt lat="59.128987777011" lon="17.769831931627">
        <ele>4.6</ele>
        <time>2017-09-02T11:36:57Z</time>
      </trkpt>
      <trkpt lat="59.129134124985" lon="17.77004541862">
        <ele>4.6</ele>
        <time>2017-09-02T11:36:59Z</time>
      </trkpt>
      <trkpt lat="59.12927116905" lon="17.770255552853">
        <ele>4.6</ele>
        <time>2017-09-02T11:37:01Z</time>
      </trkpt>
      <trkpt lat="59.129416092101" lon="17.770451354037">
        <ele>4.8</ele>
        <time>2017-09-02T11:37:03Z</time>
      </trkpt>
      <trkpt lat="59.129564451731" lon="17.770638102769">
        <ele>5.2</ele>
        <time>2017-09-02T11:37:05Z</time>
      </trkpt>
      <trkpt lat="59.129721025623" lon="17.770814206488">
        <ele>5.8</ele>
        <time>2017-09-02T11:37:07Z</time>
      </trkpt>
      <trkpt lat="59.129884221216" lon="17.770971702389">
        <ele>6.6</ele>
        <time>2017-09-02T11:37:09Z</time>
      </trkpt>
      <trkpt lat="59.130044986058" lon="17.771110674291">
        <ele>6.8</ele>
        <time>2017-09-02T11:37:11Z</time>
      </trkpt>
      <trkpt lat="59.130202481959" lon="17.77121469367">
        <ele>6.8</ele>
        <time>2017-09-02T11:37:13Z</time>
      </trkpt>
      <trkpt lat="59.130279008706" lon="17.771259033921">
        <ele>6.8</ele>
        <time>2017-09-02T11:37:14Z</time>
      </trkpt>
      <trkpt lat="59.130356541281" lon="17.771303877086">
        <ele>7</ele>
        <time>2017-09-02T11:37:15Z</time>
      </trkpt>
      <trkpt lat="59.130512109345" lon="17.771395826529">
        <ele>7.2</ele>
        <time>2017-09-02T11:37:17Z</time>
      </trkpt>
      <trkpt lat="59.130667509771" lon="17.771501438469">
        <ele>7.8</ele>
        <time>2017-09-02T11:37:19Z</time>
      </trkpt>
      <trkpt lat="59.130827101147" lon="17.771651474479">
        <ele>8</ele>
        <time>2017-09-02T11:37:21Z</time>
      </trkpt>
      <trkpt lat="59.130998594821" lon="17.771824979809">
        <ele>8</ele>
        <time>2017-09-02T11:37:23Z</time>
      </trkpt>
      <trkpt lat="59.131181487879" lon="17.771996892578">
        <ele>8</ele>
        <time>2017-09-02T11:37:25Z</time>
      </trkpt>
      <trkpt lat="59.131368404249" lon="17.772126979666">
        <ele>8</ele>
        <time>2017-09-02T11:37:27Z</time>
      </trkpt>
      <trkpt lat="59.13155691318" lon="17.772170817003">
        <ele>7.8</ele>
        <time>2017-09-02T11:37:29Z</time>
      </trkpt>
      <trkpt lat="59.131735280012" lon="17.7720922786">
        <ele>6.8</ele>
        <time>2017-09-02T11:37:31Z</time>
      </trkpt>
      <trkpt lat="59.131917586337" lon="17.771988007764">
        <ele>5.8</ele>
        <time>2017-09-02T11:37:33Z</time>
      </trkpt>
      <trkpt lat="59.132005093373" lon="17.771928328636">
        <ele>5.4</ele>
        <time>2017-09-02T11:37:34Z</time>
      </trkpt>
      <trkpt lat="59.132089415287" lon="17.771867895137">
        <ele>5.4</ele>
        <time>2017-09-02T11:37:35Z</time>
      </trkpt>
      <trkpt lat="59.132253784346" lon="17.771739819705">
        <ele>5.4</ele>
        <time>2017-09-02T11:37:37Z</time>
      </trkpt>
      <trkpt lat="59.132418656319" lon="17.771607553323">
        <ele>5.2</ele>
        <time>2017-09-02T11:37:39Z</time>
      </trkpt>
      <trkpt lat="59.132586545776" lon="17.771458187865">
        <ele>5.2</ele>
        <time>2017-09-02T11:37:41Z</time>
      </trkpt>
      <trkpt lat="59.132753597043" lon="17.771283006155">
        <ele>5.2</ele>
        <time>2017-09-02T11:37:43Z</time>
      </trkpt>
      <trkpt lat="59.132921737957" lon="17.771100364554">
        <ele>5.2</ele>
        <time>2017-09-02T11:37:45Z</time>
      </trkpt>
      <trkpt lat="59.133087280482" lon="17.770923506464">
        <ele>5.2</ele>
        <time>2017-09-02T11:37:47Z</time>
      </trkpt>
      <trkpt lat="59.133173278776" lon="17.770852008857">
        <ele>5.2</ele>
        <time>2017-09-02T11:37:48Z</time>
      </trkpt>
      <trkpt lat="59.133263216563" lon="17.770801717457">
        <ele>5.2</ele>
        <time>2017-09-02T11:37:49Z</time>
      </trkpt>
      <trkpt lat="59.133449127105" lon="17.770779924517">
        <ele>5.2</ele>
        <time>2017-09-02T11:37:51Z</time>
      </trkpt>
      <trkpt lat="59.133630930516" lon="17.770827868985">
        <ele>5.2</ele>
        <time>2017-09-02T11:37:53Z</time>
      </trkpt>
      <trkpt lat="59.13371860519" lon="17.770865755173">
        <ele>5.2</ele>
        <time>2017-09-02T11:37:54Z</time>
      </trkpt>
      <trkpt lat="59.133803932932" lon="17.770910933614">
        <ele>5.2</ele>
        <time>2017-09-02T11:37:55Z</time>
      </trkpt>
      <trkpt lat="59.133966793249" lon="17.771024340721">
        <ele>5.2</ele>
        <time>2017-09-02T11:37:57Z</time>
      </trkpt>
      <trkpt lat="59.134118673277" lon="17.771166581564">
        <ele>5.2</ele>
        <time>2017-09-02T11:37:59Z</time>
      </trkpt>
      <trkpt lat="59.134263763966" lon="17.771346121862">
        <ele>5.2</ele>
        <time>2017-09-02T11:38:01Z</time>
      </trkpt>
      <trkpt lat="59.134404076972" lon="17.771572349343">
        <ele>5.2</ele>
        <time>2017-09-02T11:38:03Z</time>
      </trkpt>
      <trkpt lat="59.13452745854" lon="17.771842162704">
        <ele>5.2</ele>
        <time>2017-09-02T11:38:05Z</time>
      </trkpt>
      <trkpt lat="59.134633657213" lon="17.772132092625">
        <ele>5.4</ele>
        <time>2017-09-02T11:38:07Z</time>
      </trkpt>
      <trkpt lat="59.134730049063" lon="17.772441217097">
        <ele>5.4</ele>
        <time>2017-09-02T11:38:09Z</time>
      </trkpt>
      <trkpt lat="59.134823842524" lon="17.772762746781">
        <ele>5.6</ele>
        <time>2017-09-02T11:38:11Z</time>
      </trkpt>
      <trkpt lat="59.134915121415" lon="17.7730729609">
        <ele>5.6</ele>
        <time>2017-09-02T11:38:13Z</time>
      </trkpt>
      <trkpt lat="59.13500606503" lon="17.773350317971">
        <ele>5.6</ele>
        <time>2017-09-02T11:38:15Z</time>
      </trkpt>
      <trkpt lat="59.135097511559" lon="17.773605295369">
        <ele>5.6</ele>
        <time>2017-09-02T11:38:17Z</time>
      </trkpt>
      <trkpt lat="59.135196250341" lon="17.773862116785">
        <ele>5.8</ele>
        <time>2017-09-02T11:38:19Z</time>
      </trkpt>
      <trkpt lat="59.135305382679" lon="17.774125559902">
        <ele>6.2</ele>
        <time>2017-09-02T11:38:21Z</time>
      </trkpt>
      <trkpt lat="59.135363050151" lon="17.774256820456">
        <ele>6.6</ele>
        <time>2017-09-02T11:38:22Z</time>
      </trkpt>
      <trkpt lat="59.135419879433" lon="17.774382884232">
        <ele>6.8</ele>
        <time>2017-09-02T11:38:23Z</time>
      </trkpt>
      <trkpt lat="59.135530352875" lon="17.774627635712">
        <ele>7.6</ele>
        <time>2017-09-02T11:38:25Z</time>
      </trkpt>
      <trkpt lat="59.135585421958" lon="17.77475017909">
        <ele>7.6</ele>
        <time>2017-09-02T11:38:26Z</time>
      </trkpt>
      <trkpt lat="59.135639988127" lon="17.774872890106">
        <ele>7.8</ele>
        <time>2017-09-02T11:38:27Z</time>
      </trkpt>
      <trkpt lat="59.135752976139" lon="17.775123508916">
        <ele>7.8</ele>
        <time>2017-09-02T11:38:29Z</time>
      </trkpt>
      <trkpt lat="59.135870741834" lon="17.775382341988">
        <ele>7.8</ele>
        <time>2017-09-02T11:38:31Z</time>
      </trkpt>
      <trkpt lat="59.135985573864" lon="17.775651736254">
        <ele>8</ele>
        <time>2017-09-02T11:38:33Z</time>
      </trkpt>
      <trkpt lat="59.136100992627" lon="17.775915933742">
        <ele>8.2</ele>
        <time>2017-09-02T11:38:35Z</time>
      </trkpt>
      <trkpt lat="59.13621724958" lon="17.776179879773">
        <ele>8.6</ele>
        <time>2017-09-02T11:38:37Z</time>
      </trkpt>
      <trkpt lat="59.136329315583" lon="17.776447681478">
        <ele>8.6</ele>
        <time>2017-09-02T11:38:39Z</time>
      </trkpt>
      <trkpt lat="59.136438699378" lon="17.776718835943">
        <ele>8.6</ele>
        <time>2017-09-02T11:38:41Z</time>
      </trkpt>
      <trkpt lat="59.136543556947" lon="17.777001222154">
        <ele>8.6</ele>
        <time>2017-09-02T11:38:43Z</time>
      </trkpt>
      <trkpt lat="59.13664807924" lon="17.777296935586">
        <ele>8.4</ele>
        <time>2017-09-02T11:38:45Z</time>
      </trkpt>
      <trkpt lat="59.136752936809" lon="17.77759583414">
        <ele>8.4</ele>
        <time>2017-09-02T11:38:47Z</time>
      </trkpt>
      <trkpt lat="59.136857459102" lon="17.777890457925">
        <ele>8.4</ele>
        <time>2017-09-02T11:38:49Z</time>
      </trkpt>
      <trkpt lat="59.136963490137" lon="17.77818256714">
        <ele>8</ele>
        <time>2017-09-02T11:38:51Z</time>
      </trkpt>
      <trkpt lat="59.137069940267" lon="17.778474592536">
        <ele>7.8</ele>
        <time>2017-09-02T11:38:53Z</time>
      </trkpt>
      <trkpt lat="59.137178234415" lon="17.778760666783">
        <ele>7.6</ele>
        <time>2017-09-02T11:38:55Z</time>
      </trkpt>
      <trkpt lat="59.137289629866" lon="17.779039784053">
        <ele>7.6</ele>
        <time>2017-09-02T11:38:57Z</time>
      </trkpt>
      <trkpt lat="59.137411502692" lon="17.779309178319">
        <ele>7.4</ele>
        <time>2017-09-02T11:38:59Z</time>
      </trkpt>
      <trkpt lat="59.137543601436" lon="17.779567927572">
        <ele>7.6</ele>
        <time>2017-09-02T11:39:01Z</time>
      </trkpt>
      <trkpt lat="59.137685171727" lon="17.779826676825">
        <ele>7.4</ele>
        <time>2017-09-02T11:39:03Z</time>
      </trkpt>
      <trkpt lat="59.137834788642" lon="17.78009196396">
        <ele>7.4</ele>
        <time>2017-09-02T11:39:05Z</time>
      </trkpt>
      <trkpt lat="59.137989602335" lon="17.780340319657">
        <ele>7.4</ele>
        <time>2017-09-02T11:39:07Z</time>
      </trkpt>
      <trkpt lat="59.138143829295" lon="17.780571995373">
        <ele>7</ele>
        <time>2017-09-02T11:39:09Z</time>
      </trkpt>
      <trkpt lat="59.13822052368" lon="17.780680708616">
        <ele>6.8</ele>
        <time>2017-09-02T11:39:10Z</time>
      </trkpt>
      <trkpt lat="59.138296212237" lon="17.78078179433">
        <ele>6.4</ele>
        <time>2017-09-02T11:39:11Z</time>
      </trkpt>
      <trkpt lat="59.138448008446" lon="17.780969967985">
        <ele>6.2</ele>
        <time>2017-09-02T11:39:13Z</time>
      </trkpt>
      <trkpt lat="59.138596368076" lon="17.781159315106">
        <ele>6</ele>
        <time>2017-09-02T11:39:15Z</time>
      </trkpt>
      <trkpt lat="59.138740117661" lon="17.781357463222">
        <ele>6</ele>
        <time>2017-09-02T11:39:17Z</time>
      </trkpt>
      <trkpt lat="59.138880598305" lon="17.781564077057">
        <ele>6</ele>
        <time>2017-09-02T11:39:19Z</time>
      </trkpt>
      <trkpt lat="59.139013535239" lon="17.781792316194">
        <ele>6.2</ele>
        <time>2017-09-02T11:39:21Z</time>
      </trkpt>
      <trkpt lat="59.13914420906" lon="17.782040420434">
        <ele>6.8</ele>
        <time>2017-09-02T11:39:23Z</time>
      </trkpt>
      <trkpt lat="59.139274296148" lon="17.782291123063">
        <ele>7</ele>
        <time>2017-09-02T11:39:25Z</time>
      </trkpt>
      <trkpt lat="59.139400779019" lon="17.782536796552">
        <ele>7.2</ele>
        <time>2017-09-02T11:39:27Z</time>
      </trkpt>
      <trkpt lat="59.139528435356" lon="17.782778614367">
        <ele>7.4</ele>
        <time>2017-09-02T11:39:29Z</time>
      </trkpt>
      <trkpt lat="59.139663803041" lon="17.783008613703">
        <ele>7.4</ele>
        <time>2017-09-02T11:39:31Z</time>
      </trkpt>
      <trkpt lat="59.13980721735" lon="17.783227046017">
        <ele>7.4</ele>
        <time>2017-09-02T11:39:33Z</time>
      </trkpt>
      <trkpt lat="59.139956498989" lon="17.783424188305">
        <ele>7.6</ele>
        <time>2017-09-02T11:39:35Z</time>
      </trkpt>
      <trkpt lat="59.140103182239" lon="17.783599872929">
        <ele>7.6</ele>
        <time>2017-09-02T11:39:37Z</time>
      </trkpt>
      <trkpt lat="59.140245087806" lon="17.783766421282">
        <ele>7.6</ele>
        <time>2017-09-02T11:39:39Z</time>
      </trkpt>
      <trkpt lat="59.140386071364" lon="17.783937495861">
        <ele>7.8</ele>
        <time>2017-09-02T11:39:41Z</time>
      </trkpt>
      <trkpt lat="59.140526719646" lon="17.784125250421">
        <ele>7.8</ele>
        <time>2017-09-02T11:39:43Z</time>
      </trkpt>
      <trkpt lat="59.140677510027" lon="17.78433069079">
        <ele>7.8</ele>
        <time>2017-09-02T11:39:45Z</time>
      </trkpt>
      <trkpt lat="59.140832658996" lon="17.784552056769">
        <ele>7.8</ele>
        <time>2017-09-02T11:39:47Z</time>
      </trkpt>
      <trkpt lat="59.140984371386" lon="17.784780547363">
        <ele>7.8</ele>
        <time>2017-09-02T11:39:49Z</time>
      </trkpt>
      <trkpt lat="59.141137508699" lon="17.78500375736">
        <ele>7.8</ele>
        <time>2017-09-02T11:39:51Z</time>
      </trkpt>
      <trkpt lat="59.141287712347" lon="17.7852267159">
        <ele>7.4</ele>
        <time>2017-09-02T11:39:53Z</time>
      </trkpt>
      <trkpt lat="59.141432132484" lon="17.785443304196">
        <ele>7</ele>
        <time>2017-09-02T11:39:55Z</time>
      </trkpt>
      <trkpt lat="59.14156909273" lon="17.785663831985">
        <ele>7</ele>
        <time>2017-09-02T11:39:57Z</time>
      </trkpt>
      <trkpt lat="59.141700185646" lon="17.785920485763">
        <ele>7</ele>
        <time>2017-09-02T11:39:59Z</time>
      </trkpt>
      <trkpt lat="59.141813760391" lon="17.786229610235">
        <ele>7</ele>
        <time>2017-09-02T11:40:01Z</time>
      </trkpt>
      <trkpt lat="59.141899423409" lon="17.786572765221">
        <ele>7</ele>
        <time>2017-09-02T11:40:03Z</time>
      </trkpt>
      <trkpt lat="59.141964466953" lon="17.786916339302">
        <ele>7</ele>
        <time>2017-09-02T11:40:05Z</time>
      </trkpt>
      <trkpt lat="59.142029929592" lon="17.787236108787">
        <ele>7</ele>
        <time>2017-09-02T11:40:07Z</time>
      </trkpt>
      <trkpt lat="59.142106540158" lon="17.787524027052">
        <ele>7.2</ele>
        <time>2017-09-02T11:40:09Z</time>
      </trkpt>
      <trkpt lat="59.142200585076" lon="17.787789649463">
        <ele>7.2</ele>
        <time>2017-09-02T11:40:11Z</time>
      </trkpt>
      <trkpt lat="59.142313153993" lon="17.788031718735">
        <ele>7.4</ele>
        <time>2017-09-02T11:40:13Z</time>
      </trkpt>
      <trkpt lat="59.142377275528" lon="17.788138755598">
        <ele>7.4</ele>
        <time>2017-09-02T11:40:14Z</time>
      </trkpt>
      <trkpt lat="59.142448773135" lon="17.788231794688">
        <ele>7.4</ele>
        <time>2017-09-02T11:40:15Z</time>
      </trkpt>
      <trkpt lat="59.142607945416" lon="17.788363139061">
        <ele>7.6</ele>
        <time>2017-09-02T11:40:17Z</time>
      </trkpt>
      <trkpt lat="59.142687992561" lon="17.788409826244">
        <ele>7.8</ele>
        <time>2017-09-02T11:40:18Z</time>
      </trkpt>
      <trkpt lat="59.142765525136" lon="17.788449891726">
        <ele>8</ele>
        <time>2017-09-02T11:40:19Z</time>
      </trkpt>
      <trkpt lat="59.142909609997" lon="17.788519629134">
        <ele>8.8</ele>
        <time>2017-09-02T11:40:21Z</time>
      </trkpt>
      <trkpt lat="59.143044139492" lon="17.788584840316">
        <ele>9.4</ele>
        <time>2017-09-02T11:40:23Z</time>
      </trkpt>
      <trkpt lat="59.143166515232" lon="17.788652985163">
        <ele>10</ele>
        <time>2017-09-02T11:40:25Z</time>
      </trkpt>
      <trkpt lat="59.143218063917" lon="17.7886884406">
        <ele>10.2</ele>
        <time>2017-09-02T11:40:26Z</time>
      </trkpt>
      <trkpt lat="59.143268439136" lon="17.788728757539">
        <ele>10.6</ele>
        <time>2017-09-02T11:40:27Z</time>
      </trkpt>
      <trkpt lat="59.143320406916" lon="17.78877058322">
        <ele>11</ele>
        <time>2017-09-02T11:40:28Z</time>
      </trkpt>
      <trkpt lat="59.143374134895" lon="17.788813582367">
        <ele>11.6</ele>
        <time>2017-09-02T11:40:29Z</time>
      </trkpt>
      <trkpt lat="59.143485781803" lon="17.788907292009">
        <ele>12.4</ele>
        <time>2017-09-02T11:40:31Z</time>
      </trkpt>
      <trkpt lat="59.143599440367" lon="17.788998989995">
        <ele>13.8</ele>
        <time>2017-09-02T11:40:33Z</time>
      </trkpt>
      <trkpt lat="59.143703292108" lon="17.789084401556">
        <ele>14.6</ele>
        <time>2017-09-02T11:40:35Z</time>
      </trkpt>
      <trkpt lat="59.143758361191" lon="17.789127316884">
        <ele>15</ele>
        <time>2017-09-02T11:40:36Z</time>
      </trkpt>
      <trkpt lat="59.14381711831" lon="17.78917207623">
        <ele>15</ele>
        <time>2017-09-02T11:40:37Z</time>
      </trkpt>
      <trkpt lat="59.143939996964" lon="17.789268887175">
        <ele>15.8</ele>
        <time>2017-09-02T11:40:39Z</time>
      </trkpt>
      <trkpt lat="59.144004705232" lon="17.789320016765">
        <ele>16.2</ele>
        <time>2017-09-02T11:40:40Z</time>
      </trkpt>
      <trkpt lat="59.1440694135" lon="17.789372738916">
        <ele>16.8</ele>
        <time>2017-09-02T11:40:41Z</time>
      </trkpt>
      <trkpt lat="59.144134708501" lon="17.789429232922">
        <ele>17.4</ele>
        <time>2017-09-02T11:40:42Z</time>
      </trkpt>
      <trkpt lat="59.144200422597" lon="17.789486984213">
        <ele>18</ele>
        <time>2017-09-02T11:40:43Z</time>
      </trkpt>
      <trkpt lat="59.144336628472" lon="17.78960290589">
        <ele>18.6</ele>
        <time>2017-09-02T11:40:45Z</time>
      </trkpt>
      <trkpt lat="59.144478869315" lon="17.789717402644">
        <ele>18.8</ele>
        <time>2017-09-02T11:40:47Z</time>
      </trkpt>
      <trkpt lat="59.14462094252" lon="17.789831647941">
        <ele>18.8</ele>
        <time>2017-09-02T11:40:49Z</time>
      </trkpt>
      <trkpt lat="59.144689757919" lon="17.78988537592">
        <ele>18.8</ele>
        <time>2017-09-02T11:40:50Z</time>
      </trkpt>
      <trkpt lat="59.144760417336" lon="17.789934326216">
        <ele>18.8</ele>
        <time>2017-09-02T11:40:51Z</time>
      </trkpt>
      <trkpt lat="59.144914644296" lon="17.790016552655">
        <ele>19</ele>
        <time>2017-09-02T11:40:53Z</time>
      </trkpt>
      <trkpt lat="59.145089909825" lon="17.790068268978">
        <ele>19</ele>
        <time>2017-09-02T11:40:55Z</time>
      </trkpt>
      <trkpt lat="59.145276239462" lon="17.790081177104">
        <ele>19</ele>
        <time>2017-09-02T11:40:57Z</time>
      </trkpt>
      <trkpt lat="59.145463910203" lon="17.790059384164">
        <ele>19</ele>
        <time>2017-09-02T11:40:59Z</time>
      </trkpt>
      <trkpt lat="59.145644456329" lon="17.790023258175">
        <ele>18.8</ele>
        <time>2017-09-02T11:41:01Z</time>
      </trkpt>
      <trkpt lat="59.145817207288" lon="17.78999014967">
        <ele>18.2</ele>
        <time>2017-09-02T11:41:03Z</time>
      </trkpt>
      <trkpt lat="59.145986689306" lon="17.789976319535">
        <ele>18</ele>
        <time>2017-09-02T11:41:05Z</time>
      </trkpt>
      <trkpt lat="59.146149298166" lon="17.789997358104">
        <ele>18</ele>
        <time>2017-09-02T11:41:07Z</time>
      </trkpt>
      <trkpt lat="59.146297825434" lon="17.790080087457">
        <ele>18</ele>
        <time>2017-09-02T11:41:09Z</time>
      </trkpt>
      <trkpt lat="59.146438725173" lon="17.790238756824">
        <ele>18</ele>
        <time>2017-09-02T11:41:11Z</time>
      </trkpt>
      <trkpt lat="59.146565627139" lon="17.790449393971">
        <ele>18</ele>
        <time>2017-09-02T11:41:13Z</time>
      </trkpt>
      <trkpt lat="59.146625222448" lon="17.790567746399">
        <ele>18.2</ele>
        <time>2017-09-02T11:41:14Z</time>
      </trkpt>
      <trkpt lat="59.146682638463" lon="17.79068500918">
        <ele>18.4</ele>
        <time>2017-09-02T11:41:15Z</time>
      </trkpt>
      <trkpt lat="59.146799649787" lon="17.790927832823">
        <ele>19</ele>
        <time>2017-09-02T11:41:17Z</time>
      </trkpt>
      <trkpt lat="59.146909536496" lon="17.791177110529">
        <ele>19.2</ele>
        <time>2017-09-02T11:41:19Z</time>
      </trkpt>
      <trkpt lat="59.147028308019" lon="17.791420185629">
        <ele>19.2</ele>
        <time>2017-09-02T11:41:21Z</time>
      </trkpt>
      <trkpt lat="59.147146660447" lon="17.791651526069">
        <ele>19.4</ele>
        <time>2017-09-02T11:41:23Z</time>
      </trkpt>
      <trkpt lat="59.147272472766" lon="17.791879178473">
        <ele>19.4</ele>
        <time>2017-09-02T11:41:25Z</time>
      </trkpt>
      <trkpt lat="59.14740457151" lon="17.792106663239">
        <ele>19.4</ele>
        <time>2017-09-02T11:41:27Z</time>
      </trkpt>
      <trkpt lat="59.147540190652" lon="17.792340937344">
        <ele>19.2</ele>
        <time>2017-09-02T11:41:29Z</time>
      </trkpt>
      <trkpt lat="59.147669774826" lon="17.792579486218">
        <ele>18.8</ele>
        <time>2017-09-02T11:41:31Z</time>
      </trkpt>
      <trkpt lat="59.147789803634" lon="17.792802109482">
        <ele>18.8</ele>
        <time>2017-09-02T11:41:33Z</time>
      </trkpt>
      <trkpt lat="59.147902959284" lon="17.792994641725">
        <ele>18.8</ele>
        <time>2017-09-02T11:41:35Z</time>
      </trkpt>
      <trkpt lat="59.148017623676" lon="17.793172673281">
        <ele>18.8</ele>
        <time>2017-09-02T11:41:37Z</time>
      </trkpt>
      <trkpt lat="59.148154919198" lon="17.793344502231">
        <ele>19</ele>
        <time>2017-09-02T11:41:39Z</time>
      </trkpt>
      <trkpt lat="59.148301686267" lon="17.793499232105">
        <ele>19.6</ele>
        <time>2017-09-02T11:41:41Z</time>
      </trkpt>
      <trkpt lat="59.148384080344" lon="17.793566874038">
        <ele>19.8</ele>
        <time>2017-09-02T11:41:42Z</time>
      </trkpt>
      <trkpt lat="59.148471335923" lon="17.79363292341">
        <ele>19.8</ele>
        <time>2017-09-02T11:41:43Z</time>
      </trkpt>
      <trkpt lat="59.148647774918" lon="17.793774745158">
        <ele>20</ele>
        <time>2017-09-02T11:41:45Z</time>
      </trkpt>
      <trkpt lat="59.148843911378" lon="17.793921176951">
        <ele>20</ele>
        <time>2017-09-02T11:41:47Z</time>
      </trkpt>
      <trkpt lat="59.149042813865" lon="17.794070877685">
        <ele>20</ele>
        <time>2017-09-02T11:41:49Z</time>
      </trkpt>
      <trkpt lat="59.149236435755" lon="17.794235498201">
        <ele>20</ele>
        <time>2017-09-02T11:41:51Z</time>
      </trkpt>
      <trkpt lat="59.149327044094" lon="17.794332141508">
        <ele>20</ele>
        <time>2017-09-02T11:41:52Z</time>
      </trkpt>
      <trkpt lat="59.149411785103" lon="17.794443956054">
        <ele>19.6</ele>
        <time>2017-09-02T11:41:53Z</time>
      </trkpt>
      <trkpt lat="59.14955369067" lon="17.794717373632">
        <ele>18.8</ele>
        <time>2017-09-02T11:41:55Z</time>
      </trkpt>
      <trkpt lat="59.149607418649" lon="17.794875540085">
        <ele>18.4</ele>
        <time>2017-09-02T11:41:56Z</time>
      </trkpt>
      <trkpt lat="59.149648909054" lon="17.795040747334">
        <ele>17.8</ele>
        <time>2017-09-02T11:41:57Z</time>
      </trkpt>
      <trkpt lat="59.14968277193" lon="17.79520788242">
        <ele>17.6</ele>
        <time>2017-09-02T11:41:58Z</time>
      </trkpt>
      <trkpt lat="59.149712527675" lon="17.795372922031">
        <ele>17.4</ele>
        <time>2017-09-02T11:41:59Z</time>
      </trkpt>
      <trkpt lat="59.149770949518" lon="17.795687243281">
        <ele>17.4</ele>
        <time>2017-09-02T11:42:01Z</time>
      </trkpt>
      <trkpt lat="59.149832556483" lon="17.795986896206">
        <ele>17.4</ele>
        <time>2017-09-02T11:42:03Z</time>
      </trkpt>
      <trkpt lat="59.149918387139" lon="17.796277245222">
        <ele>17.4</ele>
        <time>2017-09-02T11:42:05Z</time>
      </trkpt>
      <trkpt lat="59.150046127295" lon="17.79653557538">
        <ele>17.8</ele>
        <time>2017-09-02T11:42:07Z</time>
      </trkpt>
      <trkpt lat="59.150200605712" lon="17.796753001866">
        <ele>18.4</ele>
        <time>2017-09-02T11:42:09Z</time>
      </trkpt>
      <trkpt lat="59.150280317581" lon="17.79684822025">
        <ele>18.4</ele>
        <time>2017-09-02T11:42:10Z</time>
      </trkpt>
      <trkpt lat="59.150357347242" lon="17.796940002055">
        <ele>18.4</ele>
        <time>2017-09-02T11:42:11Z</time>
      </trkpt>
      <trkpt lat="59.150506628881" lon="17.797129181538">
        <ele>18.4</ele>
        <time>2017-09-02T11:42:13Z</time>
      </trkpt>
      <trkpt lat="59.150641828928" lon="17.797348954956">
        <ele>18.6</ele>
        <time>2017-09-02T11:42:15Z</time>
      </trkpt>
      <trkpt lat="59.150764959039" lon="17.797603680897">
        <ele>18.8</ele>
        <time>2017-09-02T11:42:17Z</time>
      </trkpt>
      <trkpt lat="59.150877444137" lon="17.797896628302">
        <ele>19</ele>
        <time>2017-09-02T11:42:19Z</time>
      </trkpt>
      <trkpt lat="59.150970315589" lon="17.798200975091">
        <ele>18.8</ele>
        <time>2017-09-02T11:42:21Z</time>
      </trkpt>
      <trkpt lat="59.151037957522" lon="17.798501214749">
        <ele>18.8</ele>
        <time>2017-09-02T11:42:23Z</time>
      </trkpt>
      <trkpt lat="59.151084560886" lon="17.798794832706">
        <ele>18.8</ele>
        <time>2017-09-02T11:42:25Z</time>
      </trkpt>
      <trkpt lat="59.151102414333" lon="17.798944868716">
        <ele>19</ele>
        <time>2017-09-02T11:42:26Z</time>
      </trkpt>
      <trkpt lat="59.151120351599" lon="17.799100017685">
        <ele>19.2</ele>
        <time>2017-09-02T11:42:27Z</time>
      </trkpt>
      <trkpt lat="59.151175839777" lon="17.799417356419">
        <ele>19.2</ele>
        <time>2017-09-02T11:42:29Z</time>
      </trkpt>
      <trkpt lat="59.151212049585" lon="17.799576612519">
        <ele>19.4</ele>
        <time>2017-09-02T11:42:30Z</time>
      </trkpt>
      <trkpt lat="59.151255719284" lon="17.799735617162">
        <ele>19.8</ele>
        <time>2017-09-02T11:42:31Z</time>
      </trkpt>
      <trkpt lat="59.151354709523" lon="17.800045747462">
        <ele>20.2</ele>
        <time>2017-09-02T11:42:33Z</time>
      </trkpt>
      <trkpt lat="59.151466775526" lon="17.80033341427">
        <ele>20.4</ele>
        <time>2017-09-02T11:42:35Z</time>
      </trkpt>
      <trkpt lat="59.1515879778" lon="17.800606999486">
        <ele>20.6</ele>
        <time>2017-09-02T11:42:37Z</time>
      </trkpt>
      <trkpt lat="59.151720914734" lon="17.800870442603">
        <ele>20.6</ele>
        <time>2017-09-02T11:42:39Z</time>
      </trkpt>
      <trkpt lat="59.151861982111" lon="17.801143021991">
        <ele>20.6</ele>
        <time>2017-09-02T11:42:41Z</time>
      </trkpt>
      <trkpt lat="59.152004390592" lon="17.801430353523">
        <ele>20.6</ele>
        <time>2017-09-02T11:42:43Z</time>
      </trkpt>
      <trkpt lat="59.15215375605" lon="17.801721624548">
        <ele>20.4</ele>
        <time>2017-09-02T11:42:45Z</time>
      </trkpt>
      <trkpt lat="59.152305133164" lon="17.802000993275">
        <ele>20.4</ele>
        <time>2017-09-02T11:42:47Z</time>
      </trkpt>
      <trkpt lat="59.152442680143" lon="17.802268124428">
        <ele>20</ele>
        <time>2017-09-02T11:42:49Z</time>
      </trkpt>
      <trkpt lat="59.152572431955" lon="17.802531064631">
        <ele>19.4</ele>
        <time>2017-09-02T11:42:51Z</time>
      </trkpt>
      <trkpt lat="59.152635631481" lon="17.802656122579">
        <ele>19.2</ele>
        <time>2017-09-02T11:42:52Z</time>
      </trkpt>
      <trkpt lat="59.152693885686" lon="17.802779168871">
        <ele>19</ele>
        <time>2017-09-02T11:42:53Z</time>
      </trkpt>
      <trkpt lat="59.152799413807" lon="17.803028362758">
        <ele>18.8</ele>
        <time>2017-09-02T11:42:55Z</time>
      </trkpt>
      <trkpt lat="59.15288549592" lon="17.803274455342">
        <ele>18.8</ele>
        <time>2017-09-02T11:42:57Z</time>
      </trkpt>
      <trkpt lat="59.152955400966" lon="17.803550722766">
        <ele>18.8</ele>
        <time>2017-09-02T11:42:59Z</time>
      </trkpt>
      <trkpt lat="59.153026395659" lon="17.803851130062">
        <ele>19</ele>
        <time>2017-09-02T11:43:01Z</time>
      </trkpt>
      <trkpt lat="59.153107364813" lon="17.804166373321">
        <ele>19.8</ele>
        <time>2017-09-02T11:43:03Z</time>
      </trkpt>
      <trkpt lat="59.153191267632" lon="17.804474994879">
        <ele>20.2</ele>
        <time>2017-09-02T11:43:05Z</time>
      </trkpt>
      <trkpt lat="59.153275421908" lon="17.804798703857">
        <ele>20.4</ele>
        <time>2017-09-02T11:43:07Z</time>
      </trkpt>
      <trkpt lat="59.153370975568" lon="17.805136745884">
        <ele>20.4</ele>
        <time>2017-09-02T11:43:09Z</time>
      </trkpt>
      <trkpt lat="59.153473234748" lon="17.805484762372">
        <ele>20.4</ele>
        <time>2017-09-02T11:43:11Z</time>
      </trkpt>
      <trkpt lat="59.153578343774" lon="17.805826660073">
        <ele>20.4</ele>
        <time>2017-09-02T11:43:13Z</time>
      </trkpt>
      <trkpt lat="59.153680267678" lon="17.806153302716">
        <ele>20.4</ele>
        <time>2017-09-02T11:43:15Z</time>
      </trkpt>
      <trkpt lat="59.153777749175" lon="17.806473742753">
        <ele>19.6</ele>
        <time>2017-09-02T11:43:17Z</time>
      </trkpt>
      <trkpt lat="59.153877242328" lon="17.806807342373">
        <ele>18.8</ele>
        <time>2017-09-02T11:43:19Z</time>
      </trkpt>
      <trkpt lat="59.153983105725" lon="17.807142115459">
        <ele>18.2</ele>
        <time>2017-09-02T11:43:21Z</time>
      </trkpt>
      <trkpt lat="59.154093160072" lon="17.807491305413">
        <ele>18</ele>
        <time>2017-09-02T11:43:23Z</time>
      </trkpt>
      <trkpt lat="59.154192988501" lon="17.807829012164">
        <ele>17.8</ele>
        <time>2017-09-02T11:43:25Z</time>
      </trkpt>
      <trkpt lat="59.154295834414" lon="17.80815624154">
        <ele>17.8</ele>
        <time>2017-09-02T11:43:27Z</time>
      </trkpt>
      <trkpt lat="59.154406056399" lon="17.808489338246">
        <ele>17.6</ele>
        <time>2017-09-02T11:43:29Z</time>
      </trkpt>
      <trkpt lat="59.154516529841" lon="17.808840791313">
        <ele>17.6</ele>
        <time>2017-09-02T11:43:31Z</time>
      </trkpt>
      <trkpt lat="59.154618956659" lon="17.809198866081">
        <ele>17.2</ele>
        <time>2017-09-02T11:43:33Z</time>
      </trkpt>
      <trkpt lat="59.154705290229" lon="17.809566580034">
        <ele>17.2</ele>
        <time>2017-09-02T11:43:35Z</time>
      </trkpt>
      <trkpt lat="59.154779889139" lon="17.809943011163">
        <ele>17</ele>
        <time>2017-09-02T11:43:37Z</time>
      </trkpt>
      <trkpt lat="59.154841999018" lon="17.810330087305">
        <ele>16.6</ele>
        <time>2017-09-02T11:43:39Z</time>
      </trkpt>
      <trkpt lat="59.154889775848" lon="17.810724288062">
        <ele>16.4</ele>
        <time>2017-09-02T11:43:41Z</time>
      </trkpt>
      <trkpt lat="59.154917519937" lon="17.811108262901">
        <ele>16.2</ele>
        <time>2017-09-02T11:43:43Z</time>
      </trkpt>
      <trkpt lat="59.154939648153" lon="17.811480000166">
        <ele>16</ele>
        <time>2017-09-02T11:43:45Z</time>
      </trkpt>
      <trkpt lat="59.154958507428" lon="17.811856766571">
        <ele>16</ele>
        <time>2017-09-02T11:43:47Z</time>
      </trkpt>
      <trkpt lat="59.154975438866" lon="17.812236466641">
        <ele>15.8</ele>
        <time>2017-09-02T11:43:49Z</time>
      </trkpt>
      <trkpt lat="59.154987592621" lon="17.812616585806">
        <ele>15.6</ele>
        <time>2017-09-02T11:43:51Z</time>
      </trkpt>
      <trkpt lat="59.155003434412" lon="17.813002991396">
        <ele>15.6</ele>
        <time>2017-09-02T11:43:53Z</time>
      </trkpt>
      <trkpt lat="59.155021120221" lon="17.813386966235">
        <ele>15.6</ele>
        <time>2017-09-02T11:43:55Z</time>
      </trkpt>
      <trkpt lat="59.155042242609" lon="17.813764151735">
        <ele>15.8</ele>
        <time>2017-09-02T11:43:57Z</time>
      </trkpt>
      <trkpt lat="59.155064454644" lon="17.814142762158">
        <ele>15.6</ele>
        <time>2017-09-02T11:43:59Z</time>
      </trkpt>
      <trkpt lat="59.155078871512" lon="17.814515924346">
        <ele>15.8</ele>
        <time>2017-09-02T11:44:01Z</time>
      </trkpt>
      <trkpt lat="59.155083816833" lon="17.814876262227">
        <ele>15.8</ele>
        <time>2017-09-02T11:44:03Z</time>
      </trkpt>
      <trkpt lat="59.155081218444" lon="17.815238276488">
        <ele>15.8</ele>
        <time>2017-09-02T11:44:05Z</time>
      </trkpt>
      <trkpt lat="59.155080547892" lon="17.815607331545">
        <ele>15.6</ele>
        <time>2017-09-02T11:44:07Z</time>
      </trkpt>
      <trkpt lat="59.155090857629" lon="17.815986277244">
        <ele>15.6</ele>
        <time>2017-09-02T11:44:09Z</time>
      </trkpt>
      <trkpt lat="59.155109549266" lon="17.816362373097">
        <ele>15.4</ele>
        <time>2017-09-02T11:44:11Z</time>
      </trkpt>
      <trkpt lat="59.15512011046" lon="17.816546020526">
        <ele>15.2</ele>
        <time>2017-09-02T11:44:12Z</time>
      </trkpt>
      <trkpt lat="59.155131509844" lon="17.816727153385">
        <ele>15.2</ele>
        <time>2017-09-02T11:44:13Z</time>
      </trkpt>
      <trkpt lat="59.155159002476" lon="17.817086569257">
        <ele>15</ele>
        <time>2017-09-02T11:44:15Z</time>
      </trkpt>
      <trkpt lat="59.155192613895" lon="17.817445733672">
        <ele>15</ele>
        <time>2017-09-02T11:44:17Z</time>
      </trkpt>
      <trkpt lat="59.155232679377" lon="17.817800707137">
        <ele>15</ele>
        <time>2017-09-02T11:44:19Z</time>
      </trkpt>
      <trkpt lat="59.155291520315" lon="17.818145873779">
        <ele>15</ele>
        <time>2017-09-02T11:44:21Z</time>
      </trkpt>
      <trkpt lat="59.155361257723" lon="17.818478886666">
        <ele>14.8</ele>
        <time>2017-09-02T11:44:23Z</time>
      </trkpt>
      <trkpt lat="59.155447758931" lon="17.818790106613">
        <ele>14.8</ele>
        <time>2017-09-02T11:44:25Z</time>
      </trkpt>
      <trkpt lat="59.155545240428" lon="17.819071067901">
        <ele>14.8</ele>
        <time>2017-09-02T11:44:27Z</time>
      </trkpt>
      <trkpt lat="59.155628388876" lon="17.819299558495">
        <ele>14.6</ele>
        <time>2017-09-02T11:44:29Z</time>
      </trkpt>
      <trkpt lat="59.155677171534" lon="17.81943157342">
        <ele>14.6</ele>
        <time>2017-09-02T11:44:31Z</time>
      </trkpt>
      <trkpt lat="59.155713381342" lon="17.819535006066">
        <ele>14.6</ele>
        <time>2017-09-02T11:44:33Z</time>
      </trkpt>
      <trkpt lat="59.155751183711" lon="17.819631146459">
        <ele>14.8</ele>
        <time>2017-09-02T11:44:35Z</time>
      </trkpt>
      <trkpt lat="59.155796110695" lon="17.819708511396">
        <ele>14.8</ele>
        <time>2017-09-02T11:44:37Z</time>
      </trkpt>
      <trkpt lat="59.155870541967" lon="17.81973667458">
        <ele>14.8</ele>
        <time>2017-09-02T11:44:39Z</time>
      </trkpt>
      <trkpt lat="59.155949248008" lon="17.819691747596">
        <ele>14.8</ele>
        <time>2017-09-02T11:44:41Z</time>
      </trkpt>
      <trkpt lat="59.156012950448" lon="17.81957658029">
        <ele>14.8</ele>
        <time>2017-09-02T11:44:43Z</time>
      </trkpt>
      <trkpt lat="59.15604547222" lon="17.819508435443">
        <ele>15</ele>
        <time>2017-09-02T11:44:44Z</time>
      </trkpt>
      <trkpt lat="59.15607899982" lon="17.819436854017">
        <ele>15</ele>
        <time>2017-09-02T11:44:45Z</time>
      </trkpt>
      <trkpt lat="59.15611001285" lon="17.819357225967">
        <ele>15</ele>
        <time>2017-09-02T11:44:46Z</time>
      </trkpt>
      <trkpt lat="59.156141277337" lon="17.819277178822">
        <ele>15</ele>
        <time>2017-09-02T11:44:47Z</time>
      </trkpt>
      <trkpt lat="59.156201794655" lon="17.81912395769">
        <ele>15</ele>
        <time>2017-09-02T11:44:49Z</time>
      </trkpt>
      <trkpt lat="59.156253008064" lon="17.81897727444">
        <ele>14.8</ele>
        <time>2017-09-02T11:44:51Z</time>
      </trkpt>
      <trkpt lat="59.156298773238" lon="17.818835117416">
        <ele>14.8</ele>
        <time>2017-09-02T11:44:53Z</time>
      </trkpt>
      <trkpt lat="59.156334731589" lon="17.81868306975">
        <ele>14.8</ele>
        <time>2017-09-02T11:44:55Z</time>
      </trkpt>
      <trkpt lat="59.156367504818" lon="17.818524148926">
        <ele>15</ele>
        <time>2017-09-02T11:44:57Z</time>
      </trkpt>
      <trkpt lat="59.156399272219" lon="17.818361623885">
        <ele>15</ele>
        <time>2017-09-02T11:44:59Z</time>
      </trkpt>
      <trkpt lat="59.156435817303" lon="17.818204379441">
        <ele>15.2</ele>
        <time>2017-09-02T11:45:01Z</time>
      </trkpt>
      <trkpt lat="59.156467584704" lon="17.818050152481">
        <ele>15.2</ele>
        <time>2017-09-02T11:45:03Z</time>
      </trkpt>
      <trkpt lat="59.156500274114" lon="17.817906319077">
        <ele>15.4</ele>
        <time>2017-09-02T11:45:05Z</time>
      </trkpt>
      <trkpt lat="59.156535981008" lon="17.817764162053">
        <ele>15.4</ele>
        <time>2017-09-02T11:45:07Z</time>
      </trkpt>
      <trkpt lat="59.156567916047" lon="17.817614461319">
        <ele>15.6</ele>
        <time>2017-09-02T11:45:09Z</time>
      </trkpt>
      <trkpt lat="59.156595995412" lon="17.817481356747">
        <ele>15.6</ele>
        <time>2017-09-02T11:45:11Z</time>
      </trkpt>
      <trkpt lat="59.156624493872" lon="17.817367530545">
        <ele>15.6</ele>
        <time>2017-09-02T11:45:13Z</time>
      </trkpt>
      <trkpt lat="59.156648382287" lon="17.817262840614">
        <ele>16</ele>
        <time>2017-09-02T11:45:15Z</time>
      </trkpt>
      <trkpt lat="59.156668163571" lon="17.817166616402">
        <ele>16</ele>
        <time>2017-09-02T11:45:17Z</time>
      </trkpt>
      <trkpt lat="59.15669087852" lon="17.817078690271">
        <ele>16.2</ele>
        <time>2017-09-02T11:45:19Z</time>
      </trkpt>
      <trkpt lat="59.156710408347" lon="17.816997050565">
        <ele>16.4</ele>
        <time>2017-09-02T11:45:21Z</time>
      </trkpt>
      <trkpt lat="59.156726753052" lon="17.816922954569">
        <ele>16.8</ele>
        <time>2017-09-02T11:45:23Z</time>
      </trkpt>
      <trkpt lat="59.156741337558" lon="17.816851121686">
        <ele>17.2</ele>
        <time>2017-09-02T11:45:25Z</time>
      </trkpt>
      <trkpt lat="59.156757682263" lon="17.816782641563">
        <ele>17.2</ele>
        <time>2017-09-02T11:45:27Z</time>
      </trkpt>
      <trkpt lat="59.156775451891" lon="17.816716340734">
        <ele>17.4</ele>
        <time>2017-09-02T11:45:29Z</time>
      </trkpt>
      <trkpt lat="59.156784588162" lon="17.816681807306">
        <ele>17.6</ele>
        <time>2017-09-02T11:45:30Z</time>
      </trkpt>
      <trkpt lat="59.156793724433" lon="17.816646100412">
        <ele>17.6</ele>
        <time>2017-09-02T11:45:31Z</time>
      </trkpt>
      <trkpt lat="59.156811326423" lon="17.816570663312">
        <ele>18</ele>
        <time>2017-09-02T11:45:33Z</time>
      </trkpt>
      <trkpt lat="59.156828844594" lon="17.816493298375">
        <ele>18.2</ele>
        <time>2017-09-02T11:45:35Z</time>
      </trkpt>
      <trkpt lat="59.156849715525" lon="17.816413335049">
        <ele>18.2</ele>
        <time>2017-09-02T11:45:37Z</time>
      </trkpt>
      <trkpt lat="59.156872179017" lon="17.816326750022">
        <ele>18.4</ele>
        <time>2017-09-02T11:45:39Z</time>
      </trkpt>
      <trkpt lat="59.15689958783" lon="17.816237147511">
        <ele>18.4</ele>
        <time>2017-09-02T11:45:41Z</time>
      </trkpt>
      <trkpt lat="59.156926829005" lon="17.816146790629">
        <ele>18.4</ele>
        <time>2017-09-02T11:45:43Z</time>
      </trkpt>
      <trkpt lat="59.156951974705" lon="17.816049309132">
        <ele>18.4</ele>
        <time>2017-09-02T11:45:45Z</time>
      </trkpt>
      <trkpt lat="59.156979299699" lon="17.815950318893">
        <ele>18.4</ele>
        <time>2017-09-02T11:45:47Z</time>
      </trkpt>
      <trkpt lat="59.157005032132" lon="17.815851412473">
        <ele>18.6</ele>
        <time>2017-09-02T11:45:49Z</time>
      </trkpt>
      <trkpt lat="59.157032608583" lon="17.815749488569">
        <ele>18.6</ele>
        <time>2017-09-02T11:45:51Z</time>
      </trkpt>
      <trkpt lat="59.157065297993" lon="17.815640104774">
        <ele>18.6</ele>
        <time>2017-09-02T11:45:53Z</time>
      </trkpt>
      <trkpt lat="59.157098574136" lon="17.815519992147">
        <ele>18.6</ele>
        <time>2017-09-02T11:45:55Z</time>
      </trkpt>
      <trkpt lat="59.157134197211" lon="17.815393341638">
        <ele>18.4</ele>
        <time>2017-09-02T11:45:57Z</time>
      </trkpt>
      <trkpt lat="59.15717116139" lon="17.815260069428">
        <ele>18.4</ele>
        <time>2017-09-02T11:45:59Z</time>
      </trkpt>
      <trkpt lat="59.157210472501" lon="17.815124701743">
        <ele>18.4</ele>
        <time>2017-09-02T11:46:01Z</time>
      </trkpt>
      <trkpt lat="59.157250621802" lon="17.814989585515">
        <ele>18.4</ele>
        <time>2017-09-02T11:46:03Z</time>
      </trkpt>
      <trkpt lat="59.157291441655" lon="17.814852038536">
        <ele>18.4</ele>
        <time>2017-09-02T11:46:05Z</time>
      </trkpt>
      <trkpt lat="59.15733209387" lon="17.814702756897">
        <ele>18.4</ele>
        <time>2017-09-02T11:46:07Z</time>
      </trkpt>
      <trkpt lat="59.157375344474" lon="17.814547524109">
        <ele>18.2</ele>
        <time>2017-09-02T11:46:09Z</time>
      </trkpt>
      <trkpt lat="59.157419936182" lon="17.814394302977">
        <ele>18.2</ele>
        <time>2017-09-02T11:46:11Z</time>
      </trkpt>
      <trkpt lat="59.157467713012" lon="17.814246697718">
        <ele>18.2</ele>
        <time>2017-09-02T11:46:13Z</time>
      </trkpt>
      <trkpt lat="59.15751649567" lon="17.814102193762">
        <ele>18.2</ele>
        <time>2017-09-02T11:46:15Z</time>
      </trkpt>
      <trkpt lat="59.157562177025" lon="17.813953750313">
        <ele>18.2</ele>
        <time>2017-09-02T11:46:17Z</time>
      </trkpt>
      <trkpt lat="59.157606517276" lon="17.813802037923">
        <ele>18.2</ele>
        <time>2017-09-02T11:46:19Z</time>
      </trkpt>
      <trkpt lat="59.157654126468" lon="17.81364722423">
        <ele>18</ele>
        <time>2017-09-02T11:46:21Z</time>
      </trkpt>
      <trkpt lat="59.157700226918" lon="17.8134904827">
        <ele>18</ele>
        <time>2017-09-02T11:46:23Z</time>
      </trkpt>
      <trkpt lat="59.157745656816" lon="17.81333541755">
        <ele>18</ele>
        <time>2017-09-02T11:46:25Z</time>
      </trkpt>
      <trkpt lat="59.157792846913" lon="17.813185046264">
        <ele>18</ele>
        <time>2017-09-02T11:46:27Z</time>
      </trkpt>
      <trkpt lat="59.157840288467" lon="17.813030148752">
        <ele>18.2</ele>
        <time>2017-09-02T11:46:29Z</time>
      </trkpt>
      <trkpt lat="59.157885466908" lon="17.812875083602">
        <ele>18.2</ele>
        <time>2017-09-02T11:46:31Z</time>
      </trkpt>
      <trkpt lat="59.157930812987" lon="17.81272437704">
        <ele>18.4</ele>
        <time>2017-09-02T11:46:33Z</time>
      </trkpt>
      <trkpt lat="59.157975237057" lon="17.812573251383">
        <ele>18.4</ele>
        <time>2017-09-02T11:46:35Z</time>
      </trkpt>
      <trkpt lat="59.15801773329" lon="17.812420533165">
        <ele>18.4</ele>
        <time>2017-09-02T11:46:37Z</time>
      </trkpt>
      <trkpt lat="59.158062408817" lon="17.812270329517">
        <ele>18.6</ele>
        <time>2017-09-02T11:46:39Z</time>
      </trkpt>
      <trkpt lat="59.158106329973" lon="17.81212088024">
        <ele>18.8</ele>
        <time>2017-09-02T11:46:41Z</time>
      </trkpt>
      <trkpt lat="59.158147401283" lon="17.81197084423">
        <ele>19</ele>
        <time>2017-09-02T11:46:43Z</time>
      </trkpt>
      <trkpt lat="59.158186460937" lon="17.811820137668">
        <ele>19.2</ele>
        <time>2017-09-02T11:46:45Z</time>
      </trkpt>
      <trkpt lat="59.158224850039" lon="17.811669766382">
        <ele>19.4</ele>
        <time>2017-09-02T11:46:47Z</time>
      </trkpt>
      <trkpt lat="59.1582599702" lon="17.811522664037">
        <ele>19.6</ele>
        <time>2017-09-02T11:46:49Z</time>
      </trkpt>
      <trkpt lat="59.158276901638" lon="17.811449741507">
        <ele>19.6</ele>
        <time>2017-09-02T11:46:50Z</time>
      </trkpt>
      <trkpt lat="59.15829265961" lon="17.81137572933">
        <ele>19.8</ele>
        <time>2017-09-02T11:46:51Z</time>
      </trkpt>
      <trkpt lat="59.158323421183" lon="17.811226112415">
        <ele>20</ele>
        <time>2017-09-02T11:46:53Z</time>
      </trkpt>
      <trkpt lat="59.158351165272" lon="17.811076160224">
        <ele>20.2</ele>
        <time>2017-09-02T11:46:55Z</time>
      </trkpt>
      <trkpt lat="59.158375388963" lon="17.81092143035">
        <ele>20.2</ele>
        <time>2017-09-02T11:46:57Z</time>
      </trkpt>
      <trkpt lat="59.158398606826" lon="17.810765024096">
        <ele>20.4</ele>
        <time>2017-09-02T11:46:59Z</time>
      </trkpt>
      <trkpt lat="59.158417214644" lon="17.810606773824">
        <ele>20.6</ele>
        <time>2017-09-02T11:47:01Z</time>
      </trkpt>
      <trkpt lat="59.158432385883" lon="17.810442153308">
        <ele>20.6</ele>
        <time>2017-09-02T11:47:03Z</time>
      </trkpt>
      <trkpt lat="59.158439091403" lon="17.810359172498">
        <ele>20.6</ele>
        <time>2017-09-02T11:47:04Z</time>
      </trkpt>
      <trkpt lat="59.158444288181" lon="17.810276191688">
        <ele>20.6</ele>
        <time>2017-09-02T11:47:05Z</time>
      </trkpt>
      <trkpt lat="59.158451580434" lon="17.810114001923">
        <ele>20.8</ele>
        <time>2017-09-02T11:47:07Z</time>
      </trkpt>
      <trkpt lat="59.1584611358" lon="17.809956757479">
        <ele>20.8</ele>
        <time>2017-09-02T11:47:09Z</time>
      </trkpt>
      <trkpt lat="59.158473541012" lon="17.809805380365">
        <ele>21.2</ele>
        <time>2017-09-02T11:47:11Z</time>
      </trkpt>
      <trkpt lat="59.158484186025" lon="17.809660708771">
        <ele>21.2</ele>
        <time>2017-09-02T11:47:13Z</time>
      </trkpt>
      <trkpt lat="59.158490723907" lon="17.809523748525">
        <ele>21.4</ele>
        <time>2017-09-02T11:47:15Z</time>
      </trkpt>
      <trkpt lat="59.158493070839" lon="17.809391565962">
        <ele>21.4</ele>
        <time>2017-09-02T11:47:17Z</time>
      </trkpt>
      <trkpt lat="59.15849717797" lon="17.809257874657">
        <ele>21.8</ele>
        <time>2017-09-02T11:47:19Z</time>
      </trkpt>
      <trkpt lat="59.15849885435" lon="17.809185287403">
        <ele>21.8</ele>
        <time>2017-09-02T11:47:20Z</time>
      </trkpt>
      <trkpt lat="59.158500027816" lon="17.809111275226">
        <ele>22</ele>
        <time>2017-09-02T11:47:21Z</time>
      </trkpt>
      <trkpt lat="59.158500363092" lon="17.80895336023">
        <ele>22.2</ele>
        <time>2017-09-02T11:47:23Z</time>
      </trkpt>
      <trkpt lat="59.158500363092" lon="17.808788823533">
        <ele>22.2</ele>
        <time>2017-09-02T11:47:25Z</time>
      </trkpt>
      <trkpt lat="59.158500027816" lon="17.808610037606">
        <ele>22.2</ele>
        <time>2017-09-02T11:47:27Z</time>
      </trkpt>
      <trkpt lat="59.158499441083" lon="17.808418930286">
        <ele>22.2</ele>
        <time>2017-09-02T11:47:29Z</time>
      </trkpt>
      <trkpt lat="59.158501033644" lon="17.808219524885">
        <ele>22.2</ele>
        <time>2017-09-02T11:47:31Z</time>
      </trkpt>
      <trkpt lat="59.158500279273" lon="17.8080087201">
        <ele>22</ele>
        <time>2017-09-02T11:47:33Z</time>
      </trkpt>
      <trkpt lat="59.158498099979" lon="17.807790287786">
        <ele>21.4</ele>
        <time>2017-09-02T11:47:35Z</time>
      </trkpt>
      <trkpt lat="59.158484940396" lon="17.807564730857">
        <ele>21.2</ele>
        <time>2017-09-02T11:47:37Z</time>
      </trkpt>
      <trkpt lat="59.158458202135" lon="17.807338084281">
        <ele>20.8</ele>
        <time>2017-09-02T11:47:39Z</time>
      </trkpt>
      <trkpt lat="59.158450323149" lon="17.807111353886">
        <ele>20.6</ele>
        <time>2017-09-02T11:47:41Z</time>
      </trkpt>
      <trkpt lat="59.158455352289" lon="17.806887640975">
        <ele>20</ele>
        <time>2017-09-02T11:47:43Z</time>
      </trkpt>
      <trkpt lat="59.158462560723" lon="17.806669041023">
        <ele>19.8</ele>
        <time>2017-09-02T11:47:45Z</time>
      </trkpt>
      <trkpt lat="59.15847873779" lon="17.80645639222">
        <ele>19.4</ele>
        <time>2017-09-02T11:47:47Z</time>
      </trkpt>
      <trkpt lat="59.15850136892" lon="17.806249946023">
        <ele>19.4</ele>
        <time>2017-09-02T11:47:49Z</time>
      </trkpt>
      <trkpt lat="59.158532298131" lon="17.806048612785">
        <ele>19.2</ele>
        <time>2017-09-02T11:47:51Z</time>
      </trkpt>
      <trkpt lat="59.158577057477" lon="17.80585708637">
        <ele>19.2</ele>
        <time>2017-09-02T11:47:53Z</time>
      </trkpt>
      <trkpt lat="59.158634054397" lon="17.805677043158">
        <ele>19.2</ele>
        <time>2017-09-02T11:47:55Z</time>
      </trkpt>
      <trkpt lat="59.158699517036" lon="17.805504459837">
        <ele>19.2</ele>
        <time>2017-09-02T11:47:57Z</time>
      </trkpt>
      <trkpt lat="59.158765901684" lon="17.805320393313">
        <ele>19.2</ele>
        <time>2017-09-02T11:47:59Z</time>
      </trkpt>
      <trkpt lat="59.158834465626" lon="17.805132638753">
        <ele>19.2</ele>
        <time>2017-09-02T11:48:01Z</time>
      </trkpt>
      <trkpt lat="59.158903532482" lon="17.804948656048">
        <ele>19.2</ele>
        <time>2017-09-02T11:48:03Z</time>
      </trkpt>
      <trkpt lat="59.158966061456" lon="17.804761320583">
        <ele>19</ele>
        <time>2017-09-02T11:48:05Z</time>
      </trkpt>
      <trkpt lat="59.159025908222" lon="17.804570883815">
        <ele>19</ele>
        <time>2017-09-02T11:48:07Z</time>
      </trkpt>
      <trkpt lat="59.159077373088" lon="17.804374831174">
        <ele>18.6</ele>
        <time>2017-09-02T11:48:09Z</time>
      </trkpt>
      <trkpt lat="59.159119366407" lon="17.804165870407">
        <ele>18.6</ele>
        <time>2017-09-02T11:48:11Z</time>
      </trkpt>
      <trkpt lat="59.159170076902" lon="17.80396780611">
        <ele>18.6</ele>
        <time>2017-09-02T11:48:13Z</time>
      </trkpt>
      <trkpt lat="59.159230175125" lon="17.803783991043">
        <ele>18.8</ele>
        <time>2017-09-02T11:48:15Z</time>
      </trkpt>
      <trkpt lat="59.159304438759" lon="17.803615682491">
        <ele>18.6</ele>
        <time>2017-09-02T11:48:17Z</time>
      </trkpt>
      <trkpt lat="59.159391275243" lon="17.803466652309">
        <ele>18.6</ele>
        <time>2017-09-02T11:48:19Z</time>
      </trkpt>
      <trkpt lat="59.159440560815" lon="17.803401441127">
        <ele>18.6</ele>
        <time>2017-09-02T11:48:20Z</time>
      </trkpt>
      <trkpt lat="59.159491187491" lon="17.803336984316">
        <ele>18.6</ele>
        <time>2017-09-02T11:48:21Z</time>
      </trkpt>
      <trkpt lat="59.159592273205" lon="17.803207148685">
        <ele>18.4</ele>
        <time>2017-09-02T11:48:23Z</time>
      </trkpt>
      <trkpt lat="59.159697633688" lon="17.803097848709">
        <ele>18.4</ele>
        <time>2017-09-02T11:48:25Z</time>
      </trkpt>
      <trkpt lat="59.159805844017" lon="17.803008330017">
        <ele>18.2</ele>
        <time>2017-09-02T11:48:27Z</time>
      </trkpt>
      <trkpt lat="59.159918329115" lon="17.802929372519">
        <ele>18.2</ele>
        <time>2017-09-02T11:48:29Z</time>
      </trkpt>
      <trkpt lat="59.160036430086" lon="17.80285804255">
        <ele>18</ele>
        <time>2017-09-02T11:48:31Z</time>
      </trkpt>
      <trkpt lat="59.160159560197" lon="17.802796351766">
        <ele>18</ele>
        <time>2017-09-02T11:48:33Z</time>
      </trkpt>
      <trkpt lat="59.160283193222" lon="17.802738768113">
        <ele>17.8</ele>
        <time>2017-09-02T11:48:35Z</time>
      </trkpt>
      <trkpt lat="59.160408586446" lon="17.802681855012">
        <ele>17.8</ele>
        <time>2017-09-02T11:48:37Z</time>
      </trkpt>
      <trkpt lat="59.160533309118" lon="17.802636844209">
        <ele>17.8</ele>
        <time>2017-09-02T11:48:39Z</time>
      </trkpt>
      <trkpt lat="59.160660211084" lon="17.802595521442">
        <ele>17.8</ele>
        <time>2017-09-02T11:48:41Z</time>
      </trkpt>
      <trkpt lat="59.160724584076" lon="17.802575404882">
        <ele>17.6</ele>
        <time>2017-09-02T11:48:42Z</time>
      </trkpt>
      <trkpt lat="59.160789459982" lon="17.802554366313">
        <ele>17.6</ele>
        <time>2017-09-02T11:48:43Z</time>
      </trkpt>
      <trkpt lat="59.160920720536" lon="17.802495441556">
        <ele>17.2</ele>
        <time>2017-09-02T11:48:45Z</time>
      </trkpt>
      <trkpt lat="59.161057513144" lon="17.802441126844">
        <ele>17</ele>
        <time>2017-09-02T11:48:47Z</time>
      </trkpt>
      <trkpt lat="59.161196568865" lon="17.80238781796">
        <ele>16.6</ele>
        <time>2017-09-02T11:48:49Z</time>
      </trkpt>
      <trkpt lat="59.161266222454" lon="17.80235596674">
        <ele>16.4</ele>
        <time>2017-09-02T11:48:50Z</time>
      </trkpt>
      <trkpt lat="59.161335037853" lon="17.802323947882">
        <ele>16.2</ele>
        <time>2017-09-02T11:48:51Z</time>
      </trkpt>
      <trkpt lat="59.161466633683" lon="17.802252617913">
        <ele>15.8</ele>
        <time>2017-09-02T11:48:53Z</time>
      </trkpt>
      <trkpt lat="59.161590769622" lon="17.802172906044">
        <ele>15.4</ele>
        <time>2017-09-02T11:48:55Z</time>
      </trkpt>
      <trkpt lat="59.161648185637" lon="17.802125213033">
        <ele>15.2</ele>
        <time>2017-09-02T11:48:56Z</time>
      </trkpt>
      <trkpt lat="59.161705601652" lon="17.80206762938">
        <ele>14.8</ele>
        <time>2017-09-02T11:48:57Z</time>
      </trkpt>
      <trkpt lat="59.161799814208" lon="17.801891358023">
        <ele>14.6</ele>
        <time>2017-09-02T11:48:59Z</time>
      </trkpt>
      <trkpt lat="59.161840382604" lon="17.801794463259">
        <ele>14.6</ele>
        <time>2017-09-02T11:49:00Z</time>
      </trkpt>
      <trkpt lat="59.161879526077" lon="17.801701256531">
        <ele>14.4</ele>
        <time>2017-09-02T11:49:01Z</time>
      </trkpt>
      <trkpt lat="59.16195471172" lon="17.801508472831">
        <ele>14.4</ele>
        <time>2017-09-02T11:49:03Z</time>
      </trkpt>
      <trkpt lat="59.161987568768" lon="17.801415936655">
        <ele>14.4</ele>
        <time>2017-09-02T11:49:04Z</time>
      </trkpt>
      <trkpt lat="59.162014474667" lon="17.80131912571">
        <ele>14.4</ele>
        <time>2017-09-02T11:49:05Z</time>
      </trkpt>
      <trkpt lat="59.162055210701" lon="17.801122318698">
        <ele>14.4</ele>
        <time>2017-09-02T11:49:07Z</time>
      </trkpt>
      <trkpt lat="59.162095779097" lon="17.800937330165">
        <ele>14.4</ele>
        <time>2017-09-02T11:49:09Z</time>
      </trkpt>
      <trkpt lat="59.162138442968" lon="17.800749072691">
        <ele>14.6</ele>
        <time>2017-09-02T11:49:11Z</time>
      </trkpt>
      <trkpt lat="59.162183789047" lon="17.80056475471">
        <ele>14.6</ele>
        <time>2017-09-02T11:49:13Z</time>
      </trkpt>
      <trkpt lat="59.162230727687" lon="17.800377251607">
        <ele>14.8</ele>
        <time>2017-09-02T11:49:15Z</time>
      </trkpt>
      <trkpt lat="59.162275319395" lon="17.800188742676">
        <ele>15.4</ele>
        <time>2017-09-02T11:49:17Z</time>
      </trkpt>
      <trkpt lat="59.162320916931" lon="17.800004089419">
        <ele>16</ele>
        <time>2017-09-02T11:49:19Z</time>
      </trkpt>
      <trkpt lat="59.162368693761" lon="17.799821447818">
        <ele>16.2</ele>
        <time>2017-09-02T11:49:21Z</time>
      </trkpt>
      <trkpt lat="59.162394007099" lon="17.799730504203">
        <ele>16.4</ele>
        <time>2017-09-02T11:49:22Z</time>
      </trkpt>
      <trkpt lat="59.162419236618" lon="17.799638890036">
        <ele>16.4</ele>
        <time>2017-09-02T11:49:23Z</time>
      </trkpt>
      <trkpt lat="59.162472964597" lon="17.799461612851">
        <ele>16.8</ele>
        <time>2017-09-02T11:49:25Z</time>
      </trkpt>
      <trkpt lat="59.162522250169" lon="17.799291376462">
        <ele>17.2</ele>
        <time>2017-09-02T11:49:27Z</time>
      </trkpt>
      <trkpt lat="59.162561226004" lon="17.79911720058">
        <ele>17.4</ele>
        <time>2017-09-02T11:49:29Z</time>
      </trkpt>
      <trkpt lat="59.162582432211" lon="17.799037740168">
        <ele>17.6</ele>
        <time>2017-09-02T11:49:30Z</time>
      </trkpt>
      <trkpt lat="59.162609589567" lon="17.798967248389">
        <ele>17.6</ele>
        <time>2017-09-02T11:49:31Z</time>
      </trkpt>
      <trkpt lat="59.1626688496" lon="17.798833976179">
        <ele>17.8</ele>
        <time>2017-09-02T11:49:33Z</time>
      </trkpt>
      <trkpt lat="59.162727774357" lon="17.798711097525">
        <ele>18</ele>
        <time>2017-09-02T11:49:35Z</time>
      </trkpt>
      <trkpt lat="59.162786112381" lon="17.798588135052">
        <ele>18</ele>
        <time>2017-09-02T11:49:37Z</time>
      </trkpt>
      <trkpt lat="59.162846713518" lon="17.79847095609">
        <ele>18</ele>
        <time>2017-09-02T11:49:39Z</time>
      </trkpt>
      <trkpt lat="59.162907482293" lon="17.798355369689">
        <ele>18.2</ele>
        <time>2017-09-02T11:49:41Z</time>
      </trkpt>
      <trkpt lat="59.162969675991" lon="17.798240956754">
        <ele>18.2</ele>
        <time>2017-09-02T11:49:43Z</time>
      </trkpt>
      <trkpt lat="59.163041760331" lon="17.79812562181">
        <ele>18.6</ele>
        <time>2017-09-02T11:49:45Z</time>
      </trkpt>
      <trkpt lat="59.163114431404" lon="17.798001904966">
        <ele>18.6</ele>
        <time>2017-09-02T11:49:47Z</time>
      </trkpt>
      <trkpt lat="59.163189197952" lon="17.797887072936">
        <ele>18.6</ele>
        <time>2017-09-02T11:49:49Z</time>
      </trkpt>
      <trkpt lat="59.163267652536" lon="17.797764697196">
        <ele>18.6</ele>
        <time>2017-09-02T11:49:51Z</time>
      </trkpt>
      <trkpt lat="59.163356081581" lon="17.797636621764">
        <ele>18.6</ele>
        <time>2017-09-02T11:49:53Z</time>
      </trkpt>
      <trkpt lat="59.163453060164" lon="17.797501337898">
        <ele>18.6</ele>
        <time>2017-09-02T11:49:55Z</time>
      </trkpt>
      <trkpt lat="59.163551296032" lon="17.797363874738">
        <ele>18.4</ele>
        <time>2017-09-02T11:49:57Z</time>
      </trkpt>
      <trkpt lat="59.163650789185" lon="17.797223561732">
        <ele>18.2</ele>
        <time>2017-09-02T11:49:59Z</time>
      </trkpt>
      <trkpt lat="59.163753635098" lon="17.797080985613">
        <ele>18</ele>
        <time>2017-09-02T11:50:01Z</time>
      </trkpt>
      <trkpt lat="59.163806441068" lon="17.797018037544">
        <ele>18</ele>
        <time>2017-09-02T11:50:02Z</time>
      </trkpt>
      <trkpt lat="59.163861174875" lon="17.796964393384">
        <ele>17.8</ele>
        <time>2017-09-02T11:50:03Z</time>
      </trkpt>
      <trkpt lat="59.163914064664" lon="17.796910078672">
        <ele>17.8</ele>
        <time>2017-09-02T11:50:04Z</time>
      </trkpt>
      <trkpt lat="59.163964523702" lon="17.79685073482">
        <ele>17.6</ele>
        <time>2017-09-02T11:50:05Z</time>
      </trkpt>
      <trkpt lat="59.164016407663" lon="17.796793318805">
        <ele>17.6</ele>
        <time>2017-09-02T11:50:06Z</time>
      </trkpt>
      <trkpt lat="59.164072147298" lon="17.796754426789">
        <ele>17.6</ele>
        <time>2017-09-02T11:50:07Z</time>
      </trkpt>
      <trkpt lat="59.164189912993" lon="17.796766245268">
        <ele>17.6</ele>
        <time>2017-09-02T11:50:09Z</time>
      </trkpt>
      <trkpt lat="59.164250933225" lon="17.796798599402">
        <ele>17.6</ele>
        <time>2017-09-02T11:50:10Z</time>
      </trkpt>
      <trkpt lat="59.164314300389" lon="17.796829277156">
        <ele>17.6</ele>
        <time>2017-09-02T11:50:11Z</time>
      </trkpt>
      <trkpt lat="59.164440112708" lon="17.796889962112">
        <ele>17.6</ele>
        <time>2017-09-02T11:50:13Z</time>
      </trkpt>
      <trkpt lat="59.16455226253" lon="17.796949976516">
        <ele>18</ele>
        <time>2017-09-02T11:50:15Z</time>
      </trkpt>
      <trkpt lat="59.16465033076" lon="17.797006302884">
        <ele>18.2</ele>
        <time>2017-09-02T11:50:17Z</time>
      </trkpt>
      <trkpt lat="59.164747141705" lon="17.797065395279">
        <ele>18.4</ele>
        <time>2017-09-02T11:50:19Z</time>
      </trkpt>
      <trkpt lat="59.164844120288" lon="17.797136222334">
        <ele>18.6</ele>
        <time>2017-09-02T11:50:21Z</time>
      </trkpt>
      <trkpt lat="59.164938081387" lon="17.797218364954">
        <ele>19.2</ele>
        <time>2017-09-02T11:50:23Z</time>
      </trkpt>
      <trkpt lat="59.16498476857" lon="17.797259687721">
        <ele>19.4</ele>
        <time>2017-09-02T11:50:24Z</time>
      </trkpt>
      <trkpt lat="59.1650325454" lon="17.797299417927">
        <ele>19.6</ele>
        <time>2017-09-02T11:50:25Z</time>
      </trkpt>
      <trkpt lat="59.165130194535" lon="17.797368484783">
        <ele>20.2</ele>
        <time>2017-09-02T11:50:27Z</time>
      </trkpt>
      <trkpt lat="59.165232202258" lon="17.797425816979">
        <ele>20.4</ele>
        <time>2017-09-02T11:50:29Z</time>
      </trkpt>
      <trkpt lat="59.165345860822" lon="17.797447442281">
        <ele>20.8</ele>
        <time>2017-09-02T11:50:31Z</time>
      </trkpt>
      <trkpt lat="59.165459938481" lon="17.7974978175">
        <ele>21</ele>
        <time>2017-09-02T11:50:33Z</time>
      </trkpt>
      <trkpt lat="59.165573261769" lon="17.797555987886">
        <ele>21.4</ele>
        <time>2017-09-02T11:50:35Z</time>
      </trkpt>
      <trkpt lat="59.165628749947" lon="17.797584821622">
        <ele>21.4</ele>
        <time>2017-09-02T11:50:36Z</time>
      </trkpt>
      <trkpt lat="59.165681555917" lon="17.797613739177">
        <ele>21.6</ele>
        <time>2017-09-02T11:50:37Z</time>
      </trkpt>
      <trkpt lat="59.165791023531" lon="17.79766713188">
        <ele>21.6</ele>
        <time>2017-09-02T11:50:39Z</time>
      </trkpt>
      <trkpt lat="59.165899066222" lon="17.797727816836">
        <ele>21.8</ele>
        <time>2017-09-02T11:50:41Z</time>
      </trkpt>
      <trkpt lat="59.166001241583" lon="17.797794117665">
        <ele>22</ele>
        <time>2017-09-02T11:50:43Z</time>
      </trkpt>
      <trkpt lat="59.166096459967" lon="17.797854634983">
        <ele>22.2</ele>
        <time>2017-09-02T11:50:45Z</time>
      </trkpt>
      <trkpt lat="59.166188074134" lon="17.797929401531">
        <ele>22.2</ele>
        <time>2017-09-02T11:50:47Z</time>
      </trkpt>
      <trkpt lat="59.166230821824" lon="17.797967287719">
        <ele>22.6</ele>
        <time>2017-09-02T11:50:48Z</time>
      </trkpt>
      <trkpt lat="59.166269043288" lon="17.797997797835">
        <ele>22.6</ele>
        <time>2017-09-02T11:50:49Z</time>
      </trkpt>
      <trkpt lat="59.166343893655" lon="17.798055549126">
        <ele>22.8</ele>
        <time>2017-09-02T11:50:51Z</time>
      </trkpt>
      <trkpt lat="59.166417486737" lon="17.798107349268">
        <ele>23.2</ele>
        <time>2017-09-02T11:50:53Z</time>
      </trkpt>
      <trkpt lat="59.166454534735" lon="17.798136266823">
        <ele>23.6</ele>
        <time>2017-09-02T11:50:54Z</time>
      </trkpt>
      <trkpt lat="59.166494013484" lon="17.798164094731">
        <ele>23.6</ele>
        <time>2017-09-02T11:50:55Z</time>
      </trkpt>
      <trkpt lat="59.166571797516" lon="17.798212374475">
        <ele>24.6</ele>
        <time>2017-09-02T11:50:57Z</time>
      </trkpt>
      <trkpt lat="59.166654023955" lon="17.798250679758">
        <ele>25.4</ele>
        <time>2017-09-02T11:50:59Z</time>
      </trkpt>
      <trkpt lat="59.166697693654" lon="17.798267611196">
        <ele>25.8</ele>
        <time>2017-09-02T11:51:00Z</time>
      </trkpt>
      <trkpt lat="59.166742117724" lon="17.798282614797">
        <ele>26.2</ele>
        <time>2017-09-02T11:51:01Z</time>
      </trkpt>
      <trkpt lat="59.166830882045" lon="17.798309772153">
        <ele>27</ele>
        <time>2017-09-02T11:51:03Z</time>
      </trkpt>
      <trkpt lat="59.166915874511" lon="17.798325865401">
        <ele>28</ele>
        <time>2017-09-02T11:51:05Z</time>
      </trkpt>
      <trkpt lat="59.167000280244" lon="17.798311197076">
        <ele>28.8</ele>
        <time>2017-09-02T11:51:07Z</time>
      </trkpt>
      <trkpt lat="59.167045123409" lon="17.798301557891">
        <ele>29</ele>
        <time>2017-09-02T11:51:08Z</time>
      </trkpt>
      <trkpt lat="59.167091223859" lon="17.798291331973">
        <ele>29.4</ele>
        <time>2017-09-02T11:51:09Z</time>
      </trkpt>
      <trkpt lat="59.167191806659" lon="17.798263168789">
        <ele>29.6</ele>
        <time>2017-09-02T11:51:11Z</time>
      </trkpt>
      <trkpt lat="59.16729901116" lon="17.798231401388">
        <ele>30</ele>
        <time>2017-09-02T11:51:13Z</time>
      </trkpt>
      <trkpt lat="59.167406048023" lon="17.798200388358">
        <ele>30.8</ele>
        <time>2017-09-02T11:51:15Z</time>
      </trkpt>
      <trkpt lat="59.167512162877" lon="17.798169291509">
        <ele>31</ele>
        <time>2017-09-02T11:51:17Z</time>
      </trkpt>
      <trkpt lat="59.167563208648" lon="17.798150348415">
        <ele>31.2</ele>
        <time>2017-09-02T11:51:18Z</time>
      </trkpt>
      <trkpt lat="59.1676141706" lon="17.798130986226">
        <ele>31.2</ele>
        <time>2017-09-02T11:51:19Z</time>
      </trkpt>
      <trkpt lat="59.167703437835" lon="17.798108606553">
        <ele>31.2</ele>
        <time>2017-09-02T11:51:21Z</time>
      </trkpt>
      <trkpt lat="59.167793291803" lon="17.798091926572">
        <ele>31.4</ele>
        <time>2017-09-02T11:51:23Z</time>
      </trkpt>
      <trkpt lat="59.16790083158" lon="17.798053621289">
        <ele>31.8</ele>
        <time>2017-09-02T11:51:25Z</time>
      </trkpt>
      <trkpt lat="59.168002504027" lon="17.798020764241">
        <ele>32</ele>
        <time>2017-09-02T11:51:27Z</time>
      </trkpt>
      <trkpt lat="59.168052795427" lon="17.798005593002">
        <ele>32.2</ele>
        <time>2017-09-02T11:51:28Z</time>
      </trkpt>
      <trkpt lat="59.168105936673" lon="17.797991595229">
        <ele>32.4</ele>
        <time>2017-09-02T11:51:29Z</time>
      </trkpt>
      <trkpt lat="59.168219176142" lon="17.797969550832">
        <ele>32.4</ele>
        <time>2017-09-02T11:51:31Z</time>
      </trkpt>
      <trkpt lat="59.168338785855" lon="17.79796552752">
        <ele>32.8</ele>
        <time>2017-09-02T11:51:33Z</time>
      </trkpt>
      <trkpt lat="59.168458479387" lon="17.797971897764">
        <ele>33.2</ele>
        <time>2017-09-02T11:51:35Z</time>
      </trkpt>
      <trkpt lat="59.168513883746" lon="17.797974915248">
        <ele>33.4</ele>
        <time>2017-09-02T11:51:36Z</time>
      </trkpt>
      <trkpt lat="59.16857054539" lon="17.797976088714">
        <ele>33.8</ele>
        <time>2017-09-02T11:51:37Z</time>
      </trkpt>
      <trkpt lat="59.168677498434" lon="17.797978184189">
        <ele>34</ele>
        <time>2017-09-02T11:51:39Z</time>
      </trkpt>
      <trkpt lat="59.168784451478" lon="17.797979692931">
        <ele>34</ele>
        <time>2017-09-02T11:51:41Z</time>
      </trkpt>
      <trkpt lat="59.168897942404" lon="17.797980782578">
        <ele>34.2</ele>
        <time>2017-09-02T11:51:43Z</time>
      </trkpt>
      <trkpt lat="59.169012522977" lon="17.79797810037">
        <ele>34.4</ele>
        <time>2017-09-02T11:51:45Z</time>
      </trkpt>
      <trkpt lat="59.169131629776" lon="17.797978854741">
        <ele>35</ele>
        <time>2017-09-02T11:51:47Z</time>
      </trkpt>
      <trkpt lat="59.169252580593" lon="17.797983716243">
        <ele>35.4</ele>
        <time>2017-09-02T11:51:49Z</time>
      </trkpt>
      <trkpt lat="59.169374453419" lon="17.797990924677">
        <ele>35.6</ele>
        <time>2017-09-02T11:51:51Z</time>
      </trkpt>
      <trkpt lat="59.169500349557" lon="17.797993103971">
        <ele>35.6</ele>
        <time>2017-09-02T11:51:53Z</time>
      </trkpt>
      <trkpt lat="59.169627083885" lon="17.797999222758">
        <ele>35.6</ele>
        <time>2017-09-02T11:51:55Z</time>
      </trkpt>
      <trkpt lat="59.169756668059" lon="17.798007939934">
        <ele>35.6</ele>
        <time>2017-09-02T11:51:57Z</time>
      </trkpt>
      <trkpt lat="59.169890778459" lon="17.79802000987">
        <ele>35.6</ele>
        <time>2017-09-02T11:51:59Z</time>
      </trkpt>
      <trkpt lat="59.170022458108" lon="17.798047167226">
        <ele>35.8</ele>
        <time>2017-09-02T11:52:01Z</time>
      </trkpt>
      <trkpt lat="59.1701455044" lon="17.798060410628">
        <ele>35.8</ele>
        <time>2017-09-02T11:52:03Z</time>
      </trkpt>
      <trkpt lat="59.170251032521" lon="17.798035348747">
        <ele>35.8</ele>
        <time>2017-09-02T11:52:05Z</time>
      </trkpt>
      <trkpt lat="59.170350609493" lon="17.798028810865">
        <ele>35.8</ele>
        <time>2017-09-02T11:52:07Z</time>
      </trkpt>
      <trkpt lat="59.17040115235" lon="17.798036019299">
        <ele>35.8</ele>
        <time>2017-09-02T11:52:08Z</time>
      </trkpt>
      <trkpt lat="59.170456640528" lon="17.79805269928">
        <ele>35.8</ele>
        <time>2017-09-02T11:52:09Z</time>
      </trkpt>
      <trkpt lat="59.170577339888" lon="17.798093938228">
        <ele>36</ele>
        <time>2017-09-02T11:52:11Z</time>
      </trkpt>
      <trkpt lat="59.170716060333" lon="17.798146828017">
        <ele>36.2</ele>
        <time>2017-09-02T11:52:13Z</time>
      </trkpt>
      <trkpt lat="59.170854948416" lon="17.798204579308">
        <ele>36.4</ele>
        <time>2017-09-02T11:52:15Z</time>
      </trkpt>
      <trkpt lat="59.170988974997" lon="17.798258558744">
        <ele>36.4</ele>
        <time>2017-09-02T11:52:17Z</time>
      </trkpt>
      <trkpt lat="59.171117888619" lon="17.798334917853">
        <ele>36.6</ele>
        <time>2017-09-02T11:52:19Z</time>
      </trkpt>
      <trkpt lat="59.171240683454" lon="17.798419575043">
        <ele>36.6</ele>
        <time>2017-09-02T11:52:21Z</time>
      </trkpt>
      <trkpt lat="59.171360544624" lon="17.798504232233">
        <ele>36.8</ele>
        <time>2017-09-02T11:52:23Z</time>
      </trkpt>
      <trkpt lat="59.171480824889" lon="17.798589559975">
        <ele>36.8</ele>
        <time>2017-09-02T11:52:25Z</time>
      </trkpt>
      <trkpt lat="59.171593142349" lon="17.798671367319">
        <ele>37.2</ele>
        <time>2017-09-02T11:52:27Z</time>
      </trkpt>
      <trkpt lat="59.171684924154" lon="17.798741942917">
        <ele>37.6</ele>
        <time>2017-09-02T11:52:29Z</time>
      </trkpt>
      <trkpt lat="59.171724738179" lon="17.798776224888">
        <ele>37.6</ele>
        <time>2017-09-02T11:52:30Z</time>
      </trkpt>
      <trkpt lat="59.171760025978" lon="17.798808914298">
        <ele>37.8</ele>
        <time>2017-09-02T11:52:31Z</time>
      </trkpt>
      <trkpt lat="59.171824985703" lon="17.798866162675">
        <ele>38.2</ele>
        <time>2017-09-02T11:52:33Z</time>
      </trkpt>
      <trkpt lat="59.171896148034" lon="17.798945455449">
        <ele>38.8</ele>
        <time>2017-09-02T11:52:35Z</time>
      </trkpt>
      <trkpt lat="59.17193168729" lon="17.798992813184">
        <ele>39.2</ele>
        <time>2017-09-02T11:52:36Z</time>
      </trkpt>
      <trkpt lat="59.171969657297" lon="17.799048217543">
        <ele>39.8</ele>
        <time>2017-09-02T11:52:37Z</time>
      </trkpt>
      <trkpt lat="59.172041657818" lon="17.799171766749">
        <ele>41.4</ele>
        <time>2017-09-02T11:52:39Z</time>
      </trkpt>
      <trkpt lat="59.172109635027" lon="17.799325155519">
        <ele>42.4</ele>
        <time>2017-09-02T11:52:41Z</time>
      </trkpt>
      <trkpt lat="59.172178366607" lon="17.799484914533">
        <ele>43</ele>
        <time>2017-09-02T11:52:43Z</time>
      </trkpt>
      <trkpt lat="59.172243661608" lon="17.799642913348">
        <ele>43.4</ele>
        <time>2017-09-02T11:52:45Z</time>
      </trkpt>
      <trkpt lat="59.172300826166" lon="17.799808120597">
        <ele>44.2</ele>
        <time>2017-09-02T11:52:47Z</time>
      </trkpt>
      <trkpt lat="59.172331252463" lon="17.79988917357">
        <ele>44.4</ele>
        <time>2017-09-02T11:52:48Z</time>
      </trkpt>
      <trkpt lat="59.172361008208" lon="17.799971400009">
        <ele>44.6</ele>
        <time>2017-09-02T11:52:49Z</time>
      </trkpt>
      <trkpt lat="59.172422447535" lon="17.800138451276">
        <ele>45</ele>
        <time>2017-09-02T11:52:51Z</time>
      </trkpt>
      <trkpt lat="59.17248992183" lon="17.800309442036">
        <ele>45.2</ele>
        <time>2017-09-02T11:52:53Z</time>
      </trkpt>
      <trkpt lat="59.172553288994" lon="17.800481019529">
        <ele>46</ele>
        <time>2017-09-02T11:52:55Z</time>
      </trkpt>
      <trkpt lat="59.172611627018" lon="17.800657123248">
        <ele>46.8</ele>
        <time>2017-09-02T11:52:57Z</time>
      </trkpt>
      <trkpt lat="59.17266929449" lon="17.800827778732">
        <ele>47.2</ele>
        <time>2017-09-02T11:52:59Z</time>
      </trkpt>
      <trkpt lat="59.172727213419" lon="17.801006816116">
        <ele>47.6</ele>
        <time>2017-09-02T11:53:01Z</time>
      </trkpt>
      <trkpt lat="59.172784797072" lon="17.801194570676">
        <ele>47.8</ele>
        <time>2017-09-02T11:53:03Z</time>
      </trkpt>
      <trkpt lat="59.172845062933" lon="17.801380648856">
        <ele>48.4</ele>
        <time>2017-09-02T11:53:05Z</time>
      </trkpt>
      <trkpt lat="59.172907005174" lon="17.801563374276">
        <ele>49.2</ele>
        <time>2017-09-02T11:53:07Z</time>
      </trkpt>
      <trkpt lat="59.172935922729" lon="17.801653395882">
        <ele>49.4</ele>
        <time>2017-09-02T11:53:08Z</time>
      </trkpt>
      <trkpt lat="59.172966265207" lon="17.801741741108">
        <ele>49.6</ele>
        <time>2017-09-02T11:53:09Z</time>
      </trkpt>
      <trkpt lat="59.173021501928" lon="17.801923293062">
        <ele>50</ele>
        <time>2017-09-02T11:53:11Z</time>
      </trkpt>
      <trkpt lat="59.173071374233" lon="17.802105599387">
        <ele>50.4</ele>
        <time>2017-09-02T11:53:13Z</time>
      </trkpt>
      <trkpt lat="59.173094340639" lon="17.802200398676">
        <ele>50.6</ele>
        <time>2017-09-02T11:53:14Z</time>
      </trkpt>
      <trkpt lat="59.173114541018" lon="17.802297963992">
        <ele>50.6</ele>
        <time>2017-09-02T11:53:15Z</time>
      </trkpt>
      <trkpt lat="59.173147314247" lon="17.802497034117">
        <ele>51</ele>
        <time>2017-09-02T11:53:17Z</time>
      </trkpt>
      <trkpt lat="59.173167598445" lon="17.802587893913">
        <ele>51.2</ele>
        <time>2017-09-02T11:53:18Z</time>
      </trkpt>
      <trkpt lat="59.173191905955" lon="17.80267615532">
        <ele>51.2</ele>
        <time>2017-09-02T11:53:19Z</time>
      </trkpt>
      <trkpt lat="59.173217973664" lon="17.802764584365">
        <ele>51.6</ele>
        <time>2017-09-02T11:53:20Z</time>
      </trkpt>
      <trkpt lat="59.173249070513" lon="17.80285301341">
        <ele>51.8</ele>
        <time>2017-09-02T11:53:21Z</time>
      </trkpt>
      <trkpt lat="59.173324591432" lon="17.803016125184">
        <ele>52.2</ele>
        <time>2017-09-02T11:53:23Z</time>
      </trkpt>
      <trkpt lat="59.17340857807" lon="17.80315979095">
        <ele>52.6</ele>
        <time>2017-09-02T11:53:25Z</time>
      </trkpt>
      <trkpt lat="59.173453588873" lon="17.803225002132">
        <ele>52.8</ele>
        <time>2017-09-02T11:53:26Z</time>
      </trkpt>
      <trkpt lat="59.17349994078" lon="17.803287866382">
        <ele>53.2</ele>
        <time>2017-09-02T11:53:27Z</time>
      </trkpt>
      <trkpt lat="59.173545957411" lon="17.803349892442">
        <ele>53.8</ele>
        <time>2017-09-02T11:53:28Z</time>
      </trkpt>
      <trkpt lat="59.173592728413" lon="17.80341124795">
        <ele>54</ele>
        <time>2017-09-02T11:53:29Z</time>
      </trkpt>
      <trkpt lat="59.173688449711" lon="17.803534294242">
        <ele>54.4</ele>
        <time>2017-09-02T11:53:31Z</time>
      </trkpt>
      <trkpt lat="59.173783668095" lon="17.803644851503">
        <ele>54.8</ele>
        <time>2017-09-02T11:53:33Z</time>
      </trkpt>
      <trkpt lat="59.173829517088" lon="17.80369790893">
        <ele>54.8</ele>
        <time>2017-09-02T11:53:34Z</time>
      </trkpt>
      <trkpt lat="59.173876539547" lon="17.803749457615">
        <ele>55</ele>
        <time>2017-09-02T11:53:35Z</time>
      </trkpt>
      <trkpt lat="59.173969159542" lon="17.803852554985">
        <ele>55.8</ele>
        <time>2017-09-02T11:53:37Z</time>
      </trkpt>
      <trkpt lat="59.174015846725" lon="17.803900834729">
        <ele>56</ele>
        <time>2017-09-02T11:53:38Z</time>
      </trkpt>
      <trkpt lat="59.174064377926" lon="17.80394852774">
        <ele>56.4</ele>
        <time>2017-09-02T11:53:39Z</time>
      </trkpt>
      <trkpt lat="59.174163954898" lon="17.804056318974">
        <ele>56.8</ele>
        <time>2017-09-02T11:53:41Z</time>
      </trkpt>
      <trkpt lat="59.174215587402" lon="17.804110130772">
        <ele>57.2</ele>
        <time>2017-09-02T11:53:42Z</time>
      </trkpt>
      <trkpt lat="59.174268477191" lon="17.80417148628">
        <ele>57.4</ele>
        <time>2017-09-02T11:53:43Z</time>
      </trkpt>
      <trkpt lat="59.174388338361" lon="17.804297382418">
        <ele>58.2</ele>
        <time>2017-09-02T11:53:45Z</time>
      </trkpt>
      <trkpt lat="59.174507528979" lon="17.804420344891">
        <ele>58.6</ele>
        <time>2017-09-02T11:53:47Z</time>
      </trkpt>
      <trkpt lat="59.174629569443" lon="17.804541547165">
        <ele>58.8</ele>
        <time>2017-09-02T11:53:49Z</time>
      </trkpt>
      <trkpt lat="59.174753370106" lon="17.80466015105">
        <ele>59</ele>
        <time>2017-09-02T11:53:51Z</time>
      </trkpt>
      <trkpt lat="59.174880272072" lon="17.804783197342">
        <ele>59</ele>
        <time>2017-09-02T11:53:53Z</time>
      </trkpt>
      <trkpt lat="59.175005162382" lon="17.804912697697">
        <ele>59</ele>
        <time>2017-09-02T11:53:55Z</time>
      </trkpt>
      <trkpt lat="59.175137261126" lon="17.805041611319">
        <ele>58.8</ele>
        <time>2017-09-02T11:53:57Z</time>
      </trkpt>
      <trkpt lat="59.175272125897" lon="17.805176559909">
        <ele>58.8</ele>
        <time>2017-09-02T11:53:59Z</time>
      </trkpt>
      <trkpt lat="59.175407996496" lon="17.805319136028">
        <ele>58.6</ele>
        <time>2017-09-02T11:54:01Z</time>
      </trkpt>
      <trkpt lat="59.17554428619" lon="17.80545643155">
        <ele>58.6</ele>
        <time>2017-09-02T11:54:03Z</time>
      </trkpt>
      <trkpt lat="59.175673870364" lon="17.805590374312">
        <ele>58.4</ele>
        <time>2017-09-02T11:54:05Z</time>
      </trkpt>
      <trkpt lat="59.175805550013" lon="17.80574309253">
        <ele>58.4</ele>
        <time>2017-09-02T11:54:07Z</time>
      </trkpt>
      <trkpt lat="59.175938067852" lon="17.805908467417">
        <ele>58</ele>
        <time>2017-09-02T11:54:09Z</time>
      </trkpt>
      <trkpt lat="59.176073603175" lon="17.806091360475">
        <ele>57.8</ele>
        <time>2017-09-02T11:54:11Z</time>
      </trkpt>
      <trkpt lat="59.176204025539" lon="17.806286491107">
        <ele>57.6</ele>
        <time>2017-09-02T11:54:13Z</time>
      </trkpt>
      <trkpt lat="59.176326904193" lon="17.806494026951">
        <ele>57.2</ele>
        <time>2017-09-02T11:54:15Z</time>
      </trkpt>
      <trkpt lat="59.176453051788" lon="17.80670701103">
        <ele>56.8</ele>
        <time>2017-09-02T11:54:17Z</time>
      </trkpt>
      <trkpt lat="59.176580372849" lon="17.806940195488">
        <ele>56.6</ele>
        <time>2017-09-02T11:54:19Z</time>
      </trkpt>
      <trkpt lat="59.176709957023" lon="17.807176481249">
        <ele>56.4</ele>
        <time>2017-09-02T11:54:21Z</time>
      </trkpt>
      <trkpt lat="59.176833590048" lon="17.807425088403">
        <ele>56</ele>
        <time>2017-09-02T11:54:23Z</time>
      </trkpt>
      <trkpt lat="59.176951020467" lon="17.807681071629">
        <ele>55.8</ele>
        <time>2017-09-02T11:54:25Z</time>
      </trkpt>
      <trkpt lat="59.177067445058" lon="17.807936887217">
        <ele>55.4</ele>
        <time>2017-09-02T11:54:27Z</time>
      </trkpt>
      <trkpt lat="59.177184540201" lon="17.808191026425">
        <ele>54.8</ele>
        <time>2017-09-02T11:54:29Z</time>
      </trkpt>
      <trkpt lat="59.177297444394" lon="17.808446590556">
        <ele>54.4</ele>
        <time>2017-09-02T11:54:31Z</time>
      </trkpt>
      <trkpt lat="59.177412779338" lon="17.808695952081">
        <ele>54.2</ele>
        <time>2017-09-02T11:54:33Z</time>
      </trkpt>
      <trkpt lat="59.177529036291" lon="17.808943218131">
        <ele>54</ele>
        <time>2017-09-02T11:54:35Z</time>
      </trkpt>
      <trkpt lat="59.177651747307" lon="17.809183359566">
        <ele>53.8</ele>
        <time>2017-09-02T11:54:37Z</time>
      </trkpt>
      <trkpt lat="59.177713941005" lon="17.809297353406">
        <ele>53.6</ele>
        <time>2017-09-02T11:54:38Z</time>
      </trkpt>
      <trkpt lat="59.177777475807" lon="17.809408665038">
        <ele>53.4</ele>
        <time>2017-09-02T11:54:39Z</time>
      </trkpt>
      <trkpt lat="59.177907898171" lon="17.809617374348">
        <ele>53</ele>
        <time>2017-09-02T11:54:41Z</time>
      </trkpt>
      <trkpt lat="59.178040332191" lon="17.809814432817">
        <ele>53</ele>
        <time>2017-09-02T11:54:43Z</time>
      </trkpt>
      <trkpt lat="59.178170922193" lon="17.80999690678">
        <ele>53</ele>
        <time>2017-09-02T11:54:45Z</time>
      </trkpt>
      <trkpt lat="59.178294806675" lon="17.810174183965">
        <ele>53</ele>
        <time>2017-09-02T11:54:47Z</time>
      </trkpt>
      <trkpt lat="59.178411650361" lon="17.810356993204">
        <ele>53</ele>
        <time>2017-09-02T11:54:49Z</time>
      </trkpt>
      <trkpt lat="59.178529248418" lon="17.810557823528">
        <ele>53.2</ele>
        <time>2017-09-02T11:54:51Z</time>
      </trkpt>
      <trkpt lat="59.178651875615" lon="17.810750271952">
        <ele>53.4</ele>
        <time>2017-09-02T11:54:53Z</time>
      </trkpt>
      <trkpt lat="59.178779867228" lon="17.810932075363">
        <ele>53.6</ele>
        <time>2017-09-02T11:54:55Z</time>
      </trkpt>
      <trkpt lat="59.178919425863" lon="17.811086889056">
        <ele>53.6</ele>
        <time>2017-09-02T11:54:57Z</time>
      </trkpt>
      <trkpt lat="59.179063594543" lon="17.811236338333">
        <ele>53.8</ele>
        <time>2017-09-02T11:54:59Z</time>
      </trkpt>
      <trkpt lat="59.179205332472" lon="17.811377824805">
        <ele>53.8</ele>
        <time>2017-09-02T11:55:01Z</time>
      </trkpt>
      <trkpt lat="59.179343466184" lon="17.811522915494">
        <ele>53.8</ele>
        <time>2017-09-02T11:55:03Z</time>
      </trkpt>
      <trkpt lat="59.179414628515" lon="17.811606818313">
        <ele>53.8</ele>
        <time>2017-09-02T11:55:04Z</time>
      </trkpt>
      <trkpt lat="59.179479839697" lon="17.811703964534">
        <ele>53.8</ele>
        <time>2017-09-02T11:55:05Z</time>
      </trkpt>
      <trkpt lat="59.17960950769" lon="17.811907728523">
        <ele>53.6</ele>
        <time>2017-09-02T11:55:07Z</time>
      </trkpt>
      <trkpt lat="59.179734565638" lon="17.812111073417">
        <ele>53.2</ele>
        <time>2017-09-02T11:55:09Z</time>
      </trkpt>
      <trkpt lat="59.17985845012" lon="17.812308383343">
        <ele>53</ele>
        <time>2017-09-02T11:55:11Z</time>
      </trkpt>
      <trkpt lat="59.179982837516" lon="17.812504435984">
        <ele>52.8</ele>
        <time>2017-09-02T11:55:13Z</time>
      </trkpt>
      <trkpt lat="59.18010068703" lon="17.812706439774">
        <ele>52.8</ele>
        <time>2017-09-02T11:55:15Z</time>
      </trkpt>
      <trkpt lat="59.180216860164" lon="17.81290626427">
        <ele>52.6</ele>
        <time>2017-09-02T11:55:17Z</time>
      </trkpt>
      <trkpt lat="59.180322555923" lon="17.813116398503">
        <ele>52.8</ele>
        <time>2017-09-02T11:55:19Z</time>
      </trkpt>
      <trkpt lat="59.180396400462" lon="17.813343128898">
        <ele>52.8</ele>
        <time>2017-09-02T11:55:21Z</time>
      </trkpt>
      <trkpt lat="59.180456750142" lon="17.813532559838">
        <ele>52.8</ele>
        <time>2017-09-02T11:55:23Z</time>
      </trkpt>
      <trkpt lat="59.180554231639" lon="17.813650828447">
        <ele>53</ele>
        <time>2017-09-02T11:55:25Z</time>
      </trkpt>
      <trkpt lat="59.180680965967" lon="17.813750656876">
        <ele>53</ele>
        <time>2017-09-02T11:55:27Z</time>
      </trkpt>
      <trkpt lat="59.180749362271" lon="17.813817795895">
        <ele>53</ele>
        <time>2017-09-02T11:55:28Z</time>
      </trkpt>
      <trkpt lat="59.180819518774" lon="17.813899267963">
        <ele>53</ele>
        <time>2017-09-02T11:55:29Z</time>
      </trkpt>
      <trkpt lat="59.180949270586" lon="17.814089704731">
        <ele>53</ele>
        <time>2017-09-02T11:55:31Z</time>
      </trkpt>
      <trkpt lat="59.181093020171" lon="17.814283494259">
        <ele>53</ele>
        <time>2017-09-02T11:55:33Z</time>
      </trkpt>
      <trkpt lat="59.181247247131" lon="17.81446613586">
        <ele>53</ele>
        <time>2017-09-02T11:55:35Z</time>
      </trkpt>
      <trkpt lat="59.181417902615" lon="17.814641485208">
        <ele>52.4</ele>
        <time>2017-09-02T11:55:37Z</time>
      </trkpt>
      <trkpt lat="59.181605908632" lon="17.81479470634">
        <ele>52</ele>
        <time>2017-09-02T11:55:39Z</time>
      </trkpt>
      <trkpt lat="59.181800620169" lon="17.814921356849">
        <ele>51.6</ele>
        <time>2017-09-02T11:55:41Z</time>
      </trkpt>
      <trkpt lat="59.181991392213" lon="17.815021939649">
        <ele>51</ele>
        <time>2017-09-02T11:55:43Z</time>
      </trkpt>
      <trkpt lat="59.182084179846" lon="17.815062340407">
        <ele>49.8</ele>
        <time>2017-09-02T11:55:44Z</time>
      </trkpt>
      <trkpt lat="59.182170597235" lon="17.815099472224">
        <ele>48.4</ele>
        <time>2017-09-02T11:55:45Z</time>
      </trkpt>
      <trkpt lat="59.182333541371" lon="17.815152362013">
        <ele>47.2</ele>
        <time>2017-09-02T11:55:47Z</time>
      </trkpt>
      <trkpt lat="59.182474692567" lon="17.815188907097">
        <ele>47</ele>
        <time>2017-09-02T11:55:49Z</time>
      </trkpt>
      <trkpt lat="59.182588015855" lon="17.815216232091">
        <ele>46.6</ele>
        <time>2017-09-02T11:55:51Z</time>
      </trkpt>
      <trkpt lat="59.182664542602" lon="17.815233498805">
        <ele>46.6</ele>
        <time>2017-09-02T11:55:53Z</time>
      </trkpt>
      <trkpt lat="59.182702261152" lon="17.815242048343">
        <ele>46.6</ele>
        <time>2017-09-02T11:55:55Z</time>
      </trkpt>
      <trkpt lat="59.182725981929" lon="17.815246742207">
        <ele>46.8</ele>
        <time>2017-09-02T11:55:57Z</time>
      </trkpt>
      <trkpt lat="59.182751630543" lon="17.815243473266">
        <ele>46.8</ele>
        <time>2017-09-02T11:55:59Z</time>
      </trkpt>
      <trkpt lat="59.182779626089" lon="17.815247915673">
        <ele>47</ele>
        <time>2017-09-02T11:56:01Z</time>
      </trkpt>
      <trkpt lat="59.182833856982" lon="17.81525990179">
        <ele>47</ele>
        <time>2017-09-02T11:56:03Z</time>
      </trkpt>
      <trkpt lat="59.182924046226" lon="17.815293513209">
        <ele>47</ele>
        <time>2017-09-02T11:56:05Z</time>
      </trkpt>
      <trkpt lat="59.182980204956" lon="17.815303739127">
        <ele>47</ele>
        <time>2017-09-02T11:56:06Z</time>
      </trkpt>
      <trkpt lat="59.18304357212" lon="17.815314970873">
        <ele>47</ele>
        <time>2017-09-02T11:56:07Z</time>
      </trkpt>
      <trkpt lat="59.183174916493" lon="17.815346822093">
        <ele>47</ele>
        <time>2017-09-02T11:56:09Z</time>
      </trkpt>
      <trkpt lat="59.183317911707" lon="17.815377080752">
        <ele>47</ele>
        <time>2017-09-02T11:56:11Z</time>
      </trkpt>
      <trkpt lat="59.183471468115" lon="17.815423432659">
        <ele>46.6</ele>
        <time>2017-09-02T11:56:13Z</time>
      </trkpt>
      <trkpt lat="59.183635753355" lon="17.815485626357">
        <ele>46</ele>
        <time>2017-09-02T11:56:15Z</time>
      </trkpt>
      <trkpt lat="59.183813617273" lon="17.815572127565">
        <ele>45.8</ele>
        <time>2017-09-02T11:56:17Z</time>
      </trkpt>
      <trkpt lat="59.184005981878" lon="17.815676566039">
        <ele>45.2</ele>
        <time>2017-09-02T11:56:19Z</time>
      </trkpt>
      <trkpt lat="59.184102792823" lon="17.815740268479">
        <ele>44.8</ele>
        <time>2017-09-02T11:56:20Z</time>
      </trkpt>
      <trkpt lat="59.184201363967" lon="17.815811514629">
        <ele>44.4</ele>
        <time>2017-09-02T11:56:21Z</time>
      </trkpt>
      <trkpt lat="59.184396997513" lon="17.815977895344">
        <ele>43.2</ele>
        <time>2017-09-02T11:56:23Z</time>
      </trkpt>
      <trkpt lat="59.184590367946" lon="17.816172774519">
        <ele>42.2</ele>
        <time>2017-09-02T11:56:25Z</time>
      </trkpt>
      <trkpt lat="59.184784241293" lon="17.816378382526">
        <ele>41</ele>
        <time>2017-09-02T11:56:27Z</time>
      </trkpt>
      <trkpt lat="59.184996219544" lon="17.816566723819">
        <ele>39.8</ele>
        <time>2017-09-02T11:56:29Z</time>
      </trkpt>
      <trkpt lat="59.185225464509" lon="17.816735032371">
        <ele>39</ele>
        <time>2017-09-02T11:56:31Z</time>
      </trkpt>
      <trkpt lat="59.185345996231" lon="17.816812984041">
        <ele>38.6</ele>
        <time>2017-09-02T11:56:32Z</time>
      </trkpt>
      <trkpt lat="59.185469629256" lon="17.816889678426">
        <ele>38.4</ele>
        <time>2017-09-02T11:56:33Z</time>
      </trkpt>
      <trkpt lat="59.185724690473" lon="17.817044156843">
        <ele>37.6</ele>
        <time>2017-09-02T11:56:35Z</time>
      </trkpt>
      <trkpt lat="59.185857459769" lon="17.81712403635">
        <ele>37</ele>
        <time>2017-09-02T11:56:36Z</time>
      </trkpt>
      <trkpt lat="59.18599148635" lon="17.817200898373">
        <ele>36.4</ele>
        <time>2017-09-02T11:56:37Z</time>
      </trkpt>
      <trkpt lat="59.186127692225" lon="17.817267618297">
        <ele>35.4</ele>
        <time>2017-09-02T11:56:38Z</time>
      </trkpt>
      <trkpt lat="59.186264233376" lon="17.817322855018">
        <ele>34.6</ele>
        <time>2017-09-02T11:56:39Z</time>
      </trkpt>
      <trkpt lat="59.186401109803" lon="17.817362501405">
        <ele>33.6</ele>
        <time>2017-09-02T11:56:40Z</time>
      </trkpt>
      <trkpt lat="59.186541925723" lon="17.817395274634">
        <ele>32.6</ele>
        <time>2017-09-02T11:56:41Z</time>
      </trkpt>
      <trkpt lat="59.186683160738" lon="17.817425533293">
        <ele>31.4</ele>
        <time>2017-09-02T11:56:42Z</time>
      </trkpt>
      <trkpt lat="59.186825653038" lon="17.817472052838">
        <ele>30.4</ele>
        <time>2017-09-02T11:56:43Z</time>
      </trkpt>
      <trkpt lat="59.186969989356" lon="17.8175473223">
        <ele>29.6</ele>
        <time>2017-09-02T11:56:44Z</time>
      </trkpt>
      <trkpt lat="59.187117343158" lon="17.817654275344">
        <ele>29</ele>
        <time>2017-09-02T11:56:45Z</time>
      </trkpt>
      <trkpt lat="59.187258661992" lon="17.817789726848">
        <ele>28</ele>
        <time>2017-09-02T11:56:46Z</time>
      </trkpt>
      <trkpt lat="59.187386653605" lon="17.81795468264">
        <ele>25.8</ele>
        <time>2017-09-02T11:56:47Z</time>
      </trkpt>
      <trkpt lat="59.187606594661" lon="17.818352403795">
        <ele>24.2</ele>
        <time>2017-09-02T11:56:49Z</time>
      </trkpt>
      <trkpt lat="59.187705333443" lon="17.81855147392">
        <ele>23.2</ele>
        <time>2017-09-02T11:56:50Z</time>
      </trkpt>
      <trkpt lat="59.187801892931" lon="17.81873252296">
        <ele>22</ele>
        <time>2017-09-02T11:56:51Z</time>
      </trkpt>
      <trkpt lat="59.188002052703" lon="17.819044748735">
        <ele>20.6</ele>
        <time>2017-09-02T11:56:53Z</time>
      </trkpt>
      <trkpt lat="59.188203721217" lon="17.819307772757">
        <ele>19.8</ele>
        <time>2017-09-02T11:56:55Z</time>
      </trkpt>
      <trkpt lat="59.188397846021" lon="17.819560487042">
        <ele>19.6</ele>
        <time>2017-09-02T11:56:57Z</time>
      </trkpt>
      <trkpt lat="59.188589288617" lon="17.819799622649">
        <ele>19.6</ele>
        <time>2017-09-02T11:56:59Z</time>
      </trkpt>
      <trkpt lat="59.188771594942" lon="17.820030460175">
        <ele>19.2</ele>
        <time>2017-09-02T11:57:01Z</time>
      </trkpt>
      <trkpt lat="59.188952141068" lon="17.820261716796">
        <ele>19</ele>
        <time>2017-09-02T11:57:03Z</time>
      </trkpt>
      <trkpt lat="59.189122293638" lon="17.820504624258">
        <ele>19</ele>
        <time>2017-09-02T11:57:05Z</time>
      </trkpt>
      <trkpt lat="59.189285740688" lon="17.820751219756">
        <ele>18.8</ele>
        <time>2017-09-02T11:57:07Z</time>
      </trkpt>
      <trkpt lat="59.18944147639" lon="17.820987421698">
        <ele>18.6</ele>
        <time>2017-09-02T11:57:09Z</time>
      </trkpt>
      <trkpt lat="59.189517416404" lon="17.821099655339">
        <ele>18.4</ele>
        <time>2017-09-02T11:57:10Z</time>
      </trkpt>
      <trkpt lat="59.189593440237" lon="17.821206189288">
        <ele>18.4</ele>
        <time>2017-09-02T11:57:11Z</time>
      </trkpt>
      <trkpt lat="59.189743057152" lon="17.821393943848">
        <ele>18.2</ele>
        <time>2017-09-02T11:57:13Z</time>
      </trkpt>
      <trkpt lat="59.189882951063" lon="17.821546745885">
        <ele>18</ele>
        <time>2017-09-02T11:57:15Z</time>
      </trkpt>
      <trkpt lat="59.189999627111" lon="17.821686388339">
        <ele>17.8</ele>
        <time>2017-09-02T11:57:17Z</time>
      </trkpt>
      <trkpt lat="59.190080847722" lon="17.821779511248">
        <ele>17.8</ele>
        <time>2017-09-02T11:57:19Z</time>
      </trkpt>
      <trkpt lat="59.190140107755" lon="17.821851511769">
        <ele>17.8</ele>
        <time>2017-09-02T11:57:21Z</time>
      </trkpt>
      <trkpt lat="59.190183525997" lon="17.82189166107">
        <ele>17.8</ele>
        <time>2017-09-02T11:57:23Z</time>
      </trkpt>
      <trkpt lat="59.190213030285" lon="17.821919656616">
        <ele>18</ele>
        <time>2017-09-02T11:57:25Z</time>
      </trkpt>
      <trkpt lat="59.190235074682" lon="17.821933822027">
        <ele>18.8</ele>
        <time>2017-09-02T11:57:27Z</time>
      </trkpt>
      <trkpt lat="59.19024362422" lon="17.82193021781">
        <ele>20</ele>
        <time>2017-09-02T11:57:39Z</time>
      </trkpt>
      <trkpt lat="59.190245719695" lon="17.821936001321">
        <ele>20</ele>
        <time>2017-09-02T11:57:40Z</time>
      </trkpt>
      <trkpt lat="59.190257705812" lon="17.821956620795">
        <ele>20</ele>
        <time>2017-09-02T11:57:41Z</time>
      </trkpt>
      <trkpt lat="59.190291736326" lon="17.821999117028">
        <ele>20</ele>
        <time>2017-09-02T11:57:43Z</time>
      </trkpt>
      <trkpt lat="59.190351415454" lon="17.822032057895">
        <ele>20</ele>
        <time>2017-09-02T11:57:45Z</time>
      </trkpt>
      <trkpt lat="59.190448645494" lon="17.821990064576">
        <ele>20</ele>
        <time>2017-09-02T11:57:47Z</time>
      </trkpt>
      <trkpt lat="59.190529698467" lon="17.821821839843">
        <ele>20</ele>
        <time>2017-09-02T11:57:49Z</time>
      </trkpt>
      <trkpt lat="59.190579486953" lon="17.821592175783">
        <ele>19.8</ele>
        <time>2017-09-02T11:57:51Z</time>
      </trkpt>
      <trkpt lat="59.190597591857" lon="17.821468542758">
        <ele>19.6</ele>
        <time>2017-09-02T11:57:52Z</time>
      </trkpt>
      <trkpt lat="59.190615110028" lon="17.821342730439">
        <ele>19.6</ele>
        <time>2017-09-02T11:57:53Z</time>
      </trkpt>
      <trkpt lat="59.190648302352" lon="17.821088423593">
        <ele>19</ele>
        <time>2017-09-02T11:57:55Z</time>
      </trkpt>
      <trkpt lat="59.190687445825" lon="17.820830931625">
        <ele>18.6</ele>
        <time>2017-09-02T11:57:57Z</time>
      </trkpt>
      <trkpt lat="59.190730361153" lon="17.820570757449">
        <ele>18.6</ele>
        <time>2017-09-02T11:57:59Z</time>
      </trkpt>
      <trkpt lat="59.190768666436" lon="17.820303458658">
        <ele>18.6</ele>
        <time>2017-09-02T11:58:01Z</time>
      </trkpt>
      <trkpt lat="59.190797919267" lon="17.820028280881">
        <ele>18.6</ele>
        <time>2017-09-02T11:58:03Z</time>
      </trkpt>
      <trkpt lat="59.190832201238" lon="17.819751594362">
        <ele>18.6</ele>
        <time>2017-09-02T11:58:05Z</time>
      </trkpt>
      <trkpt lat="59.190868243408" lon="17.81946510102">
        <ele>18.8</ele>
        <time>2017-09-02T11:58:07Z</time>
      </trkpt>
      <trkpt lat="59.190898082972" lon="17.819169136131">
        <ele>19</ele>
        <time>2017-09-02T11:58:09Z</time>
      </trkpt>
      <trkpt lat="59.19092674907" lon="17.818862274772">
        <ele>19</ele>
        <time>2017-09-02T11:58:11Z</time>
      </trkpt>
      <trkpt lat="59.190953822607" lon="17.818545941866">
        <ele>19</ele>
        <time>2017-09-02T11:58:13Z</time>
      </trkpt>
      <trkpt lat="59.190978465393" lon="17.8182178743">
        <ele>19</ele>
        <time>2017-09-02T11:58:15Z</time>
      </trkpt>
      <trkpt lat="59.191002437627" lon="17.817885280508">
        <ele>19</ele>
        <time>2017-09-02T11:58:17Z</time>
      </trkpt>
      <trkpt lat="59.191025068757" lon="17.817547741395">
        <ele>19</ele>
        <time>2017-09-02T11:58:19Z</time>
      </trkpt>
      <trkpt lat="59.191045185317" lon="17.817207100979">
        <ele>19</ele>
        <time>2017-09-02T11:58:21Z</time>
      </trkpt>
      <trkpt lat="59.191066391524" lon="17.816863526898">
        <ele>19</ele>
        <time>2017-09-02T11:58:23Z</time>
      </trkpt>
      <trkpt lat="59.191089022654" lon="17.816517857342">
        <ele>19.2</ele>
        <time>2017-09-02T11:58:25Z</time>
      </trkpt>
      <trkpt lat="59.191112240517" lon="17.816165398447">
        <ele>19.2</ele>
        <time>2017-09-02T11:58:27Z</time>
      </trkpt>
      <trkpt lat="59.19113713476" lon="17.815800031426">
        <ele>19.2</ele>
        <time>2017-09-02T11:58:29Z</time>
      </trkpt>
      <trkpt lat="59.191170997636" lon="17.815418571157">
        <ele>19.2</ele>
        <time>2017-09-02T11:58:31Z</time>
      </trkpt>
      <trkpt lat="59.191220869941" lon="17.815035099232">
        <ele>19</ele>
        <time>2017-09-02T11:58:33Z</time>
      </trkpt>
      <trkpt lat="59.191261689794" lon="17.814654477153">
        <ele>19</ele>
        <time>2017-09-02T11:58:35Z</time>
      </trkpt>
      <trkpt lat="59.191289182426" lon="17.814277207834">
        <ele>18.8</ele>
        <time>2017-09-02T11:58:37Z</time>
      </trkpt>
      <trkpt lat="59.191308544615" lon="17.81390538675">
        <ele>18.4</ele>
        <time>2017-09-02T11:58:39Z</time>
      </trkpt>
      <trkpt lat="59.191332516849" lon="17.813548569267">
        <ele>17.6</ele>
        <time>2017-09-02T11:58:41Z</time>
      </trkpt>
      <trkpt lat="59.191362943146" lon="17.813210275783">
        <ele>17.4</ele>
        <time>2017-09-02T11:58:43Z</time>
      </trkpt>
      <trkpt lat="59.191404685008" lon="17.812897966189">
        <ele>17.4</ele>
        <time>2017-09-02T11:58:45Z</time>
      </trkpt>
      <trkpt lat="59.191462603937" lon="17.812613065408">
        <ele>17.2</ele>
        <time>2017-09-02T11:58:47Z</time>
      </trkpt>
      <trkpt lat="59.191543405453" lon="17.812345850436">
        <ele>17.6</ele>
        <time>2017-09-02T11:58:49Z</time>
      </trkpt>
      <trkpt lat="59.191620854209" lon="17.812071846125">
        <ele>18.4</ele>
        <time>2017-09-02T11:58:51Z</time>
      </trkpt>
      <trkpt lat="59.191705595218" lon="17.811782670575">
        <ele>19.2</ele>
        <time>2017-09-02T11:58:53Z</time>
      </trkpt>
      <trkpt lat="59.191745157786" lon="17.811630790547">
        <ele>19.4</ele>
        <time>2017-09-02T11:58:54Z</time>
      </trkpt>
      <trkpt lat="59.191779272119" lon="17.811473965198">
        <ele>19.8</ele>
        <time>2017-09-02T11:58:55Z</time>
      </trkpt>
      <trkpt lat="59.191841549636" lon="17.811143969795">
        <ele>20</ele>
        <time>2017-09-02T11:58:57Z</time>
      </trkpt>
      <trkpt lat="59.191899468565" lon="17.81080324556">
        <ele>20.2</ele>
        <time>2017-09-02T11:58:59Z</time>
      </trkpt>
      <trkpt lat="59.19195101725" lon="17.810439303462">
        <ele>20.2</ele>
        <time>2017-09-02T11:59:01Z</time>
      </trkpt>
      <trkpt lat="59.191986556506" lon="17.810062620876">
        <ele>20.2</ele>
        <time>2017-09-02T11:59:03Z</time>
      </trkpt>
      <trkpt lat="59.19201555788" lon="17.809677640209">
        <ele>20.2</ele>
        <time>2017-09-02T11:59:05Z</time>
      </trkpt>
      <trkpt lat="59.19203651263" lon="17.809288468592">
        <ele>20.2</ele>
        <time>2017-09-02T11:59:07Z</time>
      </trkpt>
      <trkpt lat="59.192056880647" lon="17.808895608939">
        <ele>19.8</ele>
        <time>2017-09-02T11:59:09Z</time>
      </trkpt>
      <trkpt lat="59.19208261308" lon="17.808500402354">
        <ele>19.2</ele>
        <time>2017-09-02T11:59:11Z</time>
      </trkpt>
      <trkpt lat="59.192121588915" lon="17.80810678833">
        <ele>18.2</ele>
        <time>2017-09-02T11:59:13Z</time>
      </trkpt>
      <trkpt lat="59.192168611374" lon="17.807714347772">
        <ele>17.6</ele>
        <time>2017-09-02T11:59:15Z</time>
      </trkpt>
      <trkpt lat="59.192199205309" lon="17.807522737538">
        <ele>17.4</ele>
        <time>2017-09-02T11:59:16Z</time>
      </trkpt>
      <trkpt lat="59.192242958827" lon="17.807344119249">
        <ele>17.2</ele>
        <time>2017-09-02T11:59:17Z</time>
      </trkpt>
      <trkpt lat="59.192384612937" lon="17.807047064713">
        <ele>16.8</ele>
        <time>2017-09-02T11:59:19Z</time>
      </trkpt>
      <trkpt lat="59.192568511823" lon="17.80681429935">
        <ele>16.8</ele>
        <time>2017-09-02T11:59:21Z</time>
      </trkpt>
      <trkpt lat="59.19276741431" lon="17.80658882624">
        <ele>16.4</ele>
        <time>2017-09-02T11:59:23Z</time>
      </trkpt>
      <trkpt lat="59.192969334281" lon="17.806363604587">
        <ele>16.2</ele>
        <time>2017-09-02T11:59:25Z</time>
      </trkpt>
      <trkpt lat="59.193165303103" lon="17.806144920816">
        <ele>16</ele>
        <time>2017-09-02T11:59:27Z</time>
      </trkpt>
      <trkpt lat="59.193356494242" lon="17.805923135742">
        <ele>15.2</ele>
        <time>2017-09-02T11:59:29Z</time>
      </trkpt>
      <trkpt lat="59.193450706798" lon="17.805810315368">
        <ele>14.4</ele>
        <time>2017-09-02T11:59:30Z</time>
      </trkpt>
      <trkpt lat="59.193544919354" lon="17.805697075899">
        <ele>14</ele>
        <time>2017-09-02T11:59:31Z</time>
      </trkpt>
      <trkpt lat="59.193729572611" lon="17.805473949721">
        <ele>13.6</ele>
        <time>2017-09-02T11:59:33Z</time>
      </trkpt>
      <trkpt lat="59.193912800945" lon="17.805249733896">
        <ele>13.4</ele>
        <time>2017-09-02T11:59:35Z</time>
      </trkpt>
      <trkpt lat="59.194004163655" lon="17.805138589902">
        <ele>13</ele>
        <time>2017-09-02T11:59:36Z</time>
      </trkpt>
      <trkpt lat="59.194094688175" lon="17.80502811646">
        <ele>13</ele>
        <time>2017-09-02T11:59:37Z</time>
      </trkpt>
      <trkpt lat="59.19427364174" lon="17.804803984454">
        <ele>13</ele>
        <time>2017-09-02T11:59:39Z</time>
      </trkpt>
      <trkpt lat="59.194444129586" lon="17.804558310965">
        <ele>13</ele>
        <time>2017-09-02T11:59:41Z</time>
      </trkpt>
      <trkpt lat="59.194603972419" lon="17.804300148445">
        <ele>13</ele>
        <time>2017-09-02T11:59:43Z</time>
      </trkpt>
      <trkpt lat="59.19475727737" lon="17.804057408621">
        <ele>13</ele>
        <time>2017-09-02T11:59:45Z</time>
      </trkpt>
      <trkpt lat="59.194899350575" lon="17.803834450081">
        <ele>13.2</ele>
        <time>2017-09-02T11:59:47Z</time>
      </trkpt>
      <trkpt lat="59.195037903382" lon="17.803618532337">
        <ele>13.2</ele>
        <time>2017-09-02T11:59:49Z</time>
      </trkpt>
      <trkpt lat="59.195169918307" lon="17.803398004548">
        <ele>13.4</ele>
        <time>2017-09-02T11:59:51Z</time>
      </trkpt>
      <trkpt lat="59.195302855241" lon="17.803176638569">
        <ele>14.4</ele>
        <time>2017-09-02T11:59:53Z</time>
      </trkpt>
      <trkpt lat="59.195449789948" lon="17.802943705568">
        <ele>15.4</ele>
        <time>2017-09-02T11:59:55Z</time>
      </trkpt>
      <trkpt lat="59.195611057704" lon="17.802695098414">
        <ele>15.8</ele>
        <time>2017-09-02T11:59:57Z</time>
      </trkpt>
      <trkpt lat="59.195772409279" lon="17.802432661125">
        <ele>15.8</ele>
        <time>2017-09-02T11:59:59Z</time>
      </trkpt>
      <trkpt lat="59.195936023967" lon="17.802187574369">
        <ele>15.8</ele>
        <time>2017-09-02T12:00:01Z</time>
      </trkpt>
      <trkpt lat="59.196090083289" lon="17.801955479558">
        <ele>15.8</ele>
        <time>2017-09-02T12:00:03Z</time>
      </trkpt>
      <trkpt lat="59.196229474286" lon="17.801748698085">
        <ele>15.6</ele>
        <time>2017-09-02T12:00:05Z</time>
      </trkpt>
      <trkpt lat="59.196355370424" lon="17.801557842222">
        <ele>15.4</ele>
        <time>2017-09-02T12:00:07Z</time>
      </trkpt>
      <trkpt lat="59.196480847467" lon="17.801385175082">
        <ele>15.4</ele>
        <time>2017-09-02T12:00:09Z</time>
      </trkpt>
      <trkpt lat="59.196598613162" lon="17.801201611472">
        <ele>15.4</ele>
        <time>2017-09-02T12:00:11Z</time>
      </trkpt>
      <trkpt lat="59.196722330006" lon="17.801007738125">
        <ele>15.4</ele>
        <time>2017-09-02T12:00:13Z</time>
      </trkpt>
      <trkpt lat="59.196857865329" lon="17.800792826209">
        <ele>16.2</ele>
        <time>2017-09-02T12:00:15Z</time>
      </trkpt>
      <trkpt lat="59.196922908873" lon="17.800674976695">
        <ele>16.4</ele>
        <time>2017-09-02T12:00:16Z</time>
      </trkpt>
      <trkpt lat="59.196978229413" lon="17.800537848811">
        <ele>16.4</ele>
        <time>2017-09-02T12:00:17Z</time>
      </trkpt>
      <trkpt lat="59.197007314606" lon="17.80038035291">
        <ele>16.4</ele>
        <time>2017-09-02T12:00:18Z</time>
      </trkpt>
      <trkpt lat="59.197006895511" lon="17.800210619435">
        <ele>16.4</ele>
        <time>2017-09-02T12:00:19Z</time>
      </trkpt>
      <trkpt lat="59.196995077032" lon="17.800042143245">
        <ele>16.4</ele>
        <time>2017-09-02T12:00:20Z</time>
      </trkpt>
      <trkpt lat="59.196985521666" lon="17.799873750874">
        <ele>16.4</ele>
        <time>2017-09-02T12:00:21Z</time>
      </trkpt>
      <trkpt lat="59.196971607712" lon="17.799546940593">
        <ele>16.4</ele>
        <time>2017-09-02T12:00:23Z</time>
      </trkpt>
      <trkpt lat="59.196948892763" lon="17.799252568265">
        <ele>16.6</ele>
        <time>2017-09-02T12:00:25Z</time>
      </trkpt>
      <trkpt lat="59.19693321861" lon="17.799049977742">
        <ele>16.6</ele>
        <time>2017-09-02T12:00:27Z</time>
      </trkpt>
      <trkpt lat="59.196921651588" lon="17.798942354146">
        <ele>16.6</ele>
        <time>2017-09-02T12:00:29Z</time>
      </trkpt>
      <trkpt lat="59.196918047371" lon="17.79883305417">
        <ele>16.6</ele>
        <time>2017-09-02T12:00:31Z</time>
      </trkpt>
      <trkpt lat="59.196911593308" lon="17.798640941022">
        <ele>16.6</ele>
        <time>2017-09-02T12:00:33Z</time>
      </trkpt>
      <trkpt lat="59.196916035715" lon="17.798429298047">
        <ele>17</ele>
        <time>2017-09-02T12:00:35Z</time>
      </trkpt>
      <trkpt lat="59.196954005722" lon="17.798236849623">
        <ele>17.4</ele>
        <time>2017-09-02T12:00:37Z</time>
      </trkpt>
      <trkpt lat="59.196979486698" lon="17.798180271798">
        <ele>17.6</ele>
        <time>2017-09-02T12:00:38Z</time>
      </trkpt>
      <trkpt lat="59.197001698733" lon="17.798152276252">
        <ele>17.8</ele>
        <time>2017-09-02T12:00:39Z</time>
      </trkpt>
      <trkpt lat="59.197038327636" lon="17.798138278479">
        <ele>18</ele>
        <time>2017-09-02T12:00:41Z</time>
      </trkpt>
      <trkpt lat="59.197084511905" lon="17.798119083928">
        <ele>18.2</ele>
        <time>2017-09-02T12:00:43Z</time>
      </trkpt>
      <trkpt lat="59.197157769711" lon="17.798122185231">
        <ele>18.4</ele>
        <time>2017-09-02T12:00:45Z</time>
      </trkpt>
      <trkpt lat="59.197249802973" lon="17.798190497716">
        <ele>18.6</ele>
        <time>2017-09-02T12:00:47Z</time>
      </trkpt>
      <trkpt lat="59.197300429649" lon="17.798233329225">
        <ele>18.6</ele>
        <time>2017-09-02T12:00:48Z</time>
      </trkpt>
      <trkpt lat="59.197349547583" lon="17.798275490182">
        <ele>18.8</ele>
        <time>2017-09-02T12:00:49Z</time>
      </trkpt>
      <trkpt lat="59.197438898637" lon="17.79836199139">
        <ele>19</ele>
        <time>2017-09-02T12:00:51Z</time>
      </trkpt>
      <trkpt lat="59.197506037656" lon="17.79842988478">
        <ele>19.2</ele>
        <time>2017-09-02T12:00:53Z</time>
      </trkpt>
      <trkpt lat="59.197536463953" lon="17.798465004941">
        <ele>19.2</ele>
        <time>2017-09-02T12:00:55Z</time>
      </trkpt>
      <trkpt lat="59.197555490866" lon="17.798480846732">
        <ele>19.2</ele>
        <time>2017-09-02T12:00:57Z</time>
      </trkpt>
      <trkpt lat="59.19756856663" lon="17.798515212522">
        <ele>19.2</ele>
        <time>2017-09-02T12:00:59Z</time>
      </trkpt>
      <trkpt lat="59.19758113948" lon="17.798531641046">
        <ele>19.4</ele>
        <time>2017-09-02T12:01:00Z</time>
      </trkpt>
      <trkpt lat="59.197600920764" lon="17.79853382034">
        <ele>19.8</ele>
        <time>2017-09-02T12:01:01Z</time>
      </trkpt>
      <trkpt lat="59.197663114462" lon="17.798502388215">
        <ele>20.2</ele>
        <time>2017-09-02T12:01:03Z</time>
      </trkpt>
      <trkpt lat="59.197694881863" lon="17.798465675493">
        <ele>20.2</ele>
        <time>2017-09-02T12:01:04Z</time>
      </trkpt>
      <trkpt lat="59.197718015907" lon="17.798398368836">
        <ele>20.4</ele>
        <time>2017-09-02T12:01:05Z</time>
      </trkpt>
      <trkpt lat="59.197765792737" lon="17.798214218493">
        <ele>20.4</ele>
        <time>2017-09-02T12:01:07Z</time>
      </trkpt>
      <trkpt lat="59.197815665042" lon="17.797997797835">
        <ele>20.4</ele>
        <time>2017-09-02T12:01:09Z</time>
      </trkpt>
      <trkpt lat="59.197879702758" lon="17.797770648345">
        <ele>20.4</ele>
        <time>2017-09-02T12:01:11Z</time>
      </trkpt>
      <trkpt lat="59.197960588093" lon="17.797541990113">
        <ele>20.2</ele>
        <time>2017-09-02T12:01:13Z</time>
      </trkpt>
      <trkpt lat="59.198042060161" lon="17.797308721836">
        <ele>20.2</ele>
        <time>2017-09-02T12:01:15Z</time>
      </trkpt>
      <trkpt lat="59.198114731234" lon="17.797070089143">
        <ele>20.2</ele>
        <time>2017-09-02T12:01:17Z</time>
      </trkpt>
      <trkpt lat="59.198171309059" lon="17.796828690423">
        <ele>20.2</ele>
        <time>2017-09-02T12:01:19Z</time>
      </trkpt>
      <trkpt lat="59.198233418938" lon="17.79662023257">
        <ele>20.2</ele>
        <time>2017-09-02T12:01:21Z</time>
      </trkpt>
      <trkpt lat="59.198292259876" lon="17.79642661068">
        <ele>20.2</ele>
        <time>2017-09-02T12:01:23Z</time>
      </trkpt>
      <trkpt lat="59.198343557104" lon="17.796236928283">
        <ele>20.2</ele>
        <time>2017-09-02T12:01:25Z</time>
      </trkpt>
      <trkpt lat="59.198394099961" lon="17.796042216746">
        <ele>20.8</ele>
        <time>2017-09-02T12:01:27Z</time>
      </trkpt>
      <trkpt lat="59.198442966438" lon="17.795838704214">
        <ele>21.2</ele>
        <time>2017-09-02T12:01:29Z</time>
      </trkpt>
      <trkpt lat="59.19848806106" lon="17.795633012388">
        <ele>22</ele>
        <time>2017-09-02T12:01:31Z</time>
      </trkpt>
      <trkpt lat="59.19850733943" lon="17.795531759036">
        <ele>22.2</ele>
        <time>2017-09-02T12:01:32Z</time>
      </trkpt>
      <trkpt lat="59.198523516497" lon="17.795431511512">
        <ele>22.4</ele>
        <time>2017-09-02T12:01:33Z</time>
      </trkpt>
      <trkpt lat="59.198561402685" lon="17.795221544917">
        <ele>23</ele>
        <time>2017-09-02T12:01:35Z</time>
      </trkpt>
      <trkpt lat="59.198598031588" lon="17.795006884458">
        <ele>23.8</ele>
        <time>2017-09-02T12:01:37Z</time>
      </trkpt>
      <trkpt lat="59.198613705741" lon="17.794898003577">
        <ele>24.2</ele>
        <time>2017-09-02T12:01:38Z</time>
      </trkpt>
      <trkpt lat="59.198630888636" lon="17.794790212343">
        <ele>24.2</ele>
        <time>2017-09-02T12:01:39Z</time>
      </trkpt>
      <trkpt lat="59.198666260254" lon="17.794574546056">
        <ele>24.6</ele>
        <time>2017-09-02T12:01:41Z</time>
      </trkpt>
      <trkpt lat="59.198701464234" lon="17.794355862285">
        <ele>25.4</ele>
        <time>2017-09-02T12:01:43Z</time>
      </trkpt>
      <trkpt lat="59.198738847508" lon="17.794129215709">
        <ele>25.8</ele>
        <time>2017-09-02T12:01:45Z</time>
      </trkpt>
      <trkpt lat="59.198775141135" lon="17.793891253568">
        <ele>26.4</ele>
        <time>2017-09-02T12:01:47Z</time>
      </trkpt>
      <trkpt lat="59.198813362599" lon="17.793645077165">
        <ele>26.8</ele>
        <time>2017-09-02T12:01:49Z</time>
      </trkpt>
      <trkpt lat="59.198855104461" lon="17.793394123079">
        <ele>27</ele>
        <time>2017-09-02T12:01:51Z</time>
      </trkpt>
      <trkpt lat="59.198897768332" lon="17.793134535636">
        <ele>27</ele>
        <time>2017-09-02T12:01:53Z</time>
      </trkpt>
      <trkpt lat="59.198943868782" lon="17.792876624573">
        <ele>27.2</ele>
        <time>2017-09-02T12:01:55Z</time>
      </trkpt>
      <trkpt lat="59.198993405811" lon="17.792619384062">
        <ele>27.2</ele>
        <time>2017-09-02T12:01:57Z</time>
      </trkpt>
      <trkpt lat="59.199043026659" lon="17.792364658121">
        <ele>27.2</ele>
        <time>2017-09-02T12:01:59Z</time>
      </trkpt>
      <trkpt lat="59.199089378566" lon="17.792115045139">
        <ele>27.2</ele>
        <time>2017-09-02T12:02:01Z</time>
      </trkpt>
      <trkpt lat="59.199132210075" lon="17.791869790745">
        <ele>27.2</ele>
        <time>2017-09-02T12:02:03Z</time>
      </trkpt>
      <trkpt lat="59.199179651629" lon="17.791629397853">
        <ele>27.4</ele>
        <time>2017-09-02T12:02:05Z</time>
      </trkpt>
      <trkpt lat="59.19922902102" lon="17.791394369377">
        <ele>27.6</ele>
        <time>2017-09-02T12:02:07Z</time>
      </trkpt>
      <trkpt lat="59.199267745398" lon="17.791155904322">
        <ele>28</ele>
        <time>2017-09-02T12:02:09Z</time>
      </trkpt>
      <trkpt lat="59.199290125071" lon="17.790910566109">
        <ele>28.2</ele>
        <time>2017-09-02T12:02:11Z</time>
      </trkpt>
      <trkpt lat="59.199302111188" lon="17.790657600367">
        <ele>28.2</ele>
        <time>2017-09-02T12:02:13Z</time>
      </trkpt>
      <trkpt lat="59.199275540565" lon="17.790448807238">
        <ele>28.2</ele>
        <time>2017-09-02T12:02:15Z</time>
      </trkpt>
      <trkpt lat="59.19924913758" lon="17.790253676606">
        <ele>28.2</ele>
        <time>2017-09-02T12:02:17Z</time>
      </trkpt>
      <trkpt lat="59.199253412349" lon="17.78997841501">
        <ele>28.2</ele>
        <time>2017-09-02T12:02:19Z</time>
      </trkpt>
      <trkpt lat="59.199261375154" lon="17.789663590846">
        <ele>27.6</ele>
        <time>2017-09-02T12:02:21Z</time>
      </trkpt>
      <trkpt lat="59.199269757054" lon="17.789327392837">
        <ele>27.2</ele>
        <time>2017-09-02T12:02:23Z</time>
      </trkpt>
      <trkpt lat="59.199278641868" lon="17.78897929253">
        <ele>27</ele>
        <time>2017-09-02T12:02:25Z</time>
      </trkpt>
      <trkpt lat="59.199288029596" lon="17.788623480875">
        <ele>26.4</ele>
        <time>2017-09-02T12:02:27Z</time>
      </trkpt>
      <trkpt lat="59.199288951605" lon="17.788262807718">
        <ele>25.6</ele>
        <time>2017-09-02T12:02:29Z</time>
      </trkpt>
      <trkpt lat="59.199291214718" lon="17.788079747022">
        <ele>25.6</ele>
        <time>2017-09-02T12:02:30Z</time>
      </trkpt>
      <trkpt lat="59.199302530283" lon="17.787895596679">
        <ele>25.4</ele>
        <time>2017-09-02T12:02:31Z</time>
      </trkpt>
      <trkpt lat="59.199311079821" lon="17.787712703621">
        <ele>25.2</ele>
        <time>2017-09-02T12:02:32Z</time>
      </trkpt>
      <trkpt lat="59.199316276599" lon="17.787528134183">
        <ele>25</ele>
        <time>2017-09-02T12:02:33Z</time>
      </trkpt>
      <trkpt lat="59.199324909956" lon="17.7871545529">
        <ele>24.8</ele>
        <time>2017-09-02T12:02:35Z</time>
      </trkpt>
      <trkpt lat="59.199333962408" lon="17.786779798151">
        <ele>24.6</ele>
        <time>2017-09-02T12:02:37Z</time>
      </trkpt>
      <trkpt lat="59.199341254661" lon="17.78639850552">
        <ele>24.4</ele>
        <time>2017-09-02T12:02:39Z</time>
      </trkpt>
      <trkpt lat="59.199352737864" lon="17.786007154609">
        <ele>24.2</ele>
        <time>2017-09-02T12:02:41Z</time>
      </trkpt>
      <trkpt lat="59.199360030117" lon="17.785808922674">
        <ele>24</ele>
        <time>2017-09-02T12:02:42Z</time>
      </trkpt>
      <trkpt lat="59.199371345682" lon="17.785609684911">
        <ele>23.8</ele>
        <time>2017-09-02T12:02:43Z</time>
      </trkpt>
      <trkpt lat="59.199391210785" lon="17.785411033881">
        <ele>23.8</ele>
        <time>2017-09-02T12:02:44Z</time>
      </trkpt>
      <trkpt lat="59.19942515748" lon="17.785219339828">
        <ele>23.6</ele>
        <time>2017-09-02T12:02:45Z</time>
      </trkpt>
      <trkpt lat="59.199531272334" lon="17.784875011376">
        <ele>23.4</ele>
        <time>2017-09-02T12:02:47Z</time>
      </trkpt>
      <trkpt lat="59.19966990896" lon="17.784587596025">
        <ele>22.8</ele>
        <time>2017-09-02T12:02:49Z</time>
      </trkpt>
      <trkpt lat="59.199814580554" lon="17.784330187876">
        <ele>22.2</ele>
        <time>2017-09-02T12:02:51Z</time>
      </trkpt>
      <trkpt lat="59.199958916872" lon="17.784077808867">
        <ele>22.2</ele>
        <time>2017-09-02T12:02:53Z</time>
      </trkpt>
      <trkpt lat="59.20008397482" lon="17.783802463452">
        <ele>22</ele>
        <time>2017-09-02T12:02:55Z</time>
      </trkpt>
      <trkpt lat="59.200133847125" lon="17.783648907044">
        <ele>22</ele>
        <time>2017-09-02T12:02:56Z</time>
      </trkpt>
      <trkpt lat="59.200175505168" lon="17.783506833839">
        <ele>22</ele>
        <time>2017-09-02T12:02:57Z</time>
      </trkpt>
      <trkpt lat="59.200262676928" lon="17.78327876234">
        <ele>22</ele>
        <time>2017-09-02T12:02:59Z</time>
      </trkpt>
      <trkpt lat="59.200354626371" lon="17.783094863454">
        <ele>22.2</ele>
        <time>2017-09-02T12:03:01Z</time>
      </trkpt>
      <trkpt lat="59.200324786807" lon="17.78288481304">
        <ele>22.4</ele>
        <time>2017-09-02T12:03:03Z</time>
      </trkpt>
      <trkpt lat="59.200276674701" lon="17.782789343199">
        <ele>22.8</ele>
        <time>2017-09-02T12:03:04Z</time>
      </trkpt>
      <trkpt lat="59.200225042197" lon="17.782688928037">
        <ele>23.2</ele>
        <time>2017-09-02T12:03:05Z</time>
      </trkpt>
      <trkpt lat="59.20017449934" lon="17.782578622233">
        <ele>23.6</ele>
        <time>2017-09-02T12:03:06Z</time>
      </trkpt>
      <trkpt lat="59.200131081098" lon="17.782451971724">
        <ele>23.8</ele>
        <time>2017-09-02T12:03:07Z</time>
      </trkpt>
      <trkpt lat="59.200088668684" lon="17.782141003234">
        <ele>24</ele>
        <time>2017-09-02T12:03:09Z</time>
      </trkpt>
      <trkpt lat="59.200115658402" lon="17.781806230148">
        <ele>24</ele>
        <time>2017-09-02T12:03:11Z</time>
      </trkpt>
      <trkpt lat="59.200178941747" lon="17.78148922669">
        <ele>24</ele>
        <time>2017-09-02T12:03:13Z</time>
      </trkpt>
      <trkpt lat="59.200245158757" lon="17.781178844933">
        <ele>24</ele>
        <time>2017-09-02T12:03:15Z</time>
      </trkpt>
      <trkpt lat="59.200300479297" lon="17.78085806962">
        <ele>23.6</ele>
        <time>2017-09-02T12:03:17Z</time>
      </trkpt>
      <trkpt lat="59.200337275838" lon="17.78052698457">
        <ele>23.2</ele>
        <time>2017-09-02T12:03:19Z</time>
      </trkpt>
      <trkpt lat="59.200362086262" lon="17.780190954199">
        <ele>23</ele>
        <time>2017-09-02T12:03:21Z</time>
      </trkpt>
      <trkpt lat="59.200387315781" lon="17.779850649059">
        <ele>23</ele>
        <time>2017-09-02T12:03:23Z</time>
      </trkpt>
      <trkpt lat="59.200418831725" lon="17.779508080806">
        <ele>23</ele>
        <time>2017-09-02T12:03:25Z</time>
      </trkpt>
      <trkpt lat="59.200470296591" lon="17.779171882797">
        <ele>23</ele>
        <time>2017-09-02T12:03:27Z</time>
      </trkpt>
      <trkpt lat="59.200538776714" lon="17.778851023665">
        <ele>23.2</ele>
        <time>2017-09-02T12:03:29Z</time>
      </trkpt>
      <trkpt lat="59.200622679533" lon="17.778554388224">
        <ele>23.8</ele>
        <time>2017-09-02T12:03:31Z</time>
      </trkpt>
      <trkpt lat="59.20071177913" lon="17.778280048637">
        <ele>24</ele>
        <time>2017-09-02T12:03:33Z</time>
      </trkpt>
      <trkpt lat="59.200796520139" lon="17.778023730135">
        <ele>24.2</ele>
        <time>2017-09-02T12:03:35Z</time>
      </trkpt>
      <trkpt lat="59.200883356623" lon="17.777805800735">
        <ele>24.4</ele>
        <time>2017-09-02T12:03:37Z</time>
      </trkpt>
      <trkpt lat="59.200980335206" lon="17.77762097984">
        <ele>25</ele>
        <time>2017-09-02T12:03:39Z</time>
      </trkpt>
      <trkpt lat="59.201101872756" lon="17.777487791449">
        <ele>25.4</ele>
        <time>2017-09-02T12:03:41Z</time>
      </trkpt>
      <trkpt lat="59.201167670671" lon="17.777433728194">
        <ele>25.6</ele>
        <time>2017-09-02T12:03:42Z</time>
      </trkpt>
      <trkpt lat="59.201237156622" lon="17.777395925825">
        <ele>26</ele>
        <time>2017-09-02T12:03:43Z</time>
      </trkpt>
      <trkpt lat="59.201377134352" lon="17.777348065176">
        <ele>27.4</ele>
        <time>2017-09-02T12:03:45Z</time>
      </trkpt>
      <trkpt lat="59.201444441009" lon="17.777325266408">
        <ele>28</ele>
        <time>2017-09-02T12:03:46Z</time>
      </trkpt>
      <trkpt lat="59.201518285548" lon="17.777364912795">
        <ele>28.6</ele>
        <time>2017-09-02T12:03:47Z</time>
      </trkpt>
      <trkpt lat="59.201665471712" lon="17.777417215851">
        <ele>29.8</ele>
        <time>2017-09-02T12:03:49Z</time>
      </trkpt>
      <trkpt lat="59.20181483717" lon="17.777470860011">
        <ele>31.2</ele>
        <time>2017-09-02T12:03:51Z</time>
      </trkpt>
      <trkpt lat="59.201966298103" lon="17.777506986">
        <ele>32</ele>
        <time>2017-09-02T12:03:53Z</time>
      </trkpt>
      <trkpt lat="59.20203779571" lon="17.77751955885">
        <ele>32.4</ele>
        <time>2017-09-02T12:03:54Z</time>
      </trkpt>
      <trkpt lat="59.202111221154" lon="17.77753296989">
        <ele>32.8</ele>
        <time>2017-09-02T12:03:55Z</time>
      </trkpt>
      <trkpt lat="59.202258826413" lon="17.777529365673">
        <ele>34.2</ele>
        <time>2017-09-02T12:03:57Z</time>
      </trkpt>
      <trkpt lat="59.202412550459" lon="17.777513020968">
        <ele>35.2</ele>
        <time>2017-09-02T12:03:59Z</time>
      </trkpt>
      <trkpt lat="59.202486394998" lon="17.77750028048">
        <ele>35.6</ele>
        <time>2017-09-02T12:04:00Z</time>
      </trkpt>
      <trkpt lat="59.202560574813" lon="17.777483181404">
        <ele>35.8</ele>
        <time>2017-09-02T12:04:01Z</time>
      </trkpt>
      <trkpt lat="59.202715304687" lon="17.777430459253">
        <ele>36.4</ele>
        <time>2017-09-02T12:04:03Z</time>
      </trkpt>
      <trkpt lat="59.202791579977" lon="17.777395674368">
        <ele>36.8</ele>
        <time>2017-09-02T12:04:04Z</time>
      </trkpt>
      <trkpt lat="59.20287095657" lon="17.77736197913">
        <ele>37</ele>
        <time>2017-09-02T12:04:05Z</time>
      </trkpt>
      <trkpt lat="59.203033900706" lon="17.777283021632">
        <ele>37.4</ele>
        <time>2017-09-02T12:04:07Z</time>
      </trkpt>
      <trkpt lat="59.203115205136" lon="17.777242285598">
        <ele>37.8</ele>
        <time>2017-09-02T12:04:08Z</time>
      </trkpt>
      <trkpt lat="59.203193240625" lon="17.777189814904">
        <ele>38.2</ele>
        <time>2017-09-02T12:04:09Z</time>
      </trkpt>
      <trkpt lat="59.2033462103" lon="17.777082358946">
        <ele>38.8</ele>
        <time>2017-09-02T12:04:11Z</time>
      </trkpt>
      <trkpt lat="59.203498090328" lon="17.776964509432">
        <ele>39.4</ele>
        <time>2017-09-02T12:04:13Z</time>
      </trkpt>
      <trkpt lat="59.203636978411" lon="17.776839200027">
        <ele>39.8</ele>
        <time>2017-09-02T12:04:15Z</time>
      </trkpt>
      <trkpt lat="59.203768825698" lon="17.776691762406">
        <ele>40.2</ele>
        <time>2017-09-02T12:04:17Z</time>
      </trkpt>
      <trkpt lat="59.203895811483" lon="17.776534182686">
        <ele>40.4</ele>
        <time>2017-09-02T12:04:19Z</time>
      </trkpt>
      <trkpt lat="59.203959262466" lon="17.776454973731">
        <ele>41</ele>
        <time>2017-09-02T12:04:20Z</time>
      </trkpt>
      <trkpt lat="59.204020701793" lon="17.77637040036">
        <ele>41.4</ele>
        <time>2017-09-02T12:04:21Z</time>
      </trkpt>
      <trkpt lat="59.204140143868" lon="17.776193709908">
        <ele>42.4</ele>
        <time>2017-09-02T12:04:23Z</time>
      </trkpt>
      <trkpt lat="59.204254892079" lon="17.77600075857">
        <ele>43.6</ele>
        <time>2017-09-02T12:04:25Z</time>
      </trkpt>
      <trkpt lat="59.204362348037" lon="17.77578618193">
        <ele>44</ele>
        <time>2017-09-02T12:04:27Z</time>
      </trkpt>
      <trkpt lat="59.204466115959" lon="17.775552662196">
        <ele>44.2</ele>
        <time>2017-09-02T12:04:29Z</time>
      </trkpt>
      <trkpt lat="59.204567201673" lon="17.775302797757">
        <ele>44.2</ele>
        <time>2017-09-02T12:04:31Z</time>
      </trkpt>
      <trkpt lat="59.204662587695" lon="17.775032900577">
        <ele>44.2</ele>
        <time>2017-09-02T12:04:33Z</time>
      </trkpt>
      <trkpt lat="59.204742048107" lon="17.774737270964">
        <ele>44.2</ele>
        <time>2017-09-02T12:04:35Z</time>
      </trkpt>
      <trkpt lat="59.204794183525" lon="17.774417501479">
        <ele>44.2</ele>
        <time>2017-09-02T12:04:37Z</time>
      </trkpt>
      <trkpt lat="59.204829638962" lon="17.774083734221">
        <ele>44.2</ele>
        <time>2017-09-02T12:04:39Z</time>
      </trkpt>
      <trkpt lat="59.204845061658" lon="17.773736388285">
        <ele>44.2</ele>
        <time>2017-09-02T12:04:41Z</time>
      </trkpt>
      <trkpt lat="59.204838775233" lon="17.773387365969">
        <ele>44</ele>
        <time>2017-09-02T12:04:43Z</time>
      </trkpt>
      <trkpt lat="59.204804074167" lon="17.773040103852">
        <ele>43.8</ele>
        <time>2017-09-02T12:04:45Z</time>
      </trkpt>
      <trkpt lat="59.204750849102" lon="17.772691500631">
        <ele>43.6</ele>
        <time>2017-09-02T12:04:47Z</time>
      </trkpt>
      <trkpt lat="59.204681782246" lon="17.772338287365">
        <ele>43.4</ele>
        <time>2017-09-02T12:04:49Z</time>
      </trkpt>
      <trkpt lat="59.204611961019" lon="17.771971830697">
        <ele>43.2</ele>
        <time>2017-09-02T12:04:51Z</time>
      </trkpt>
      <trkpt lat="59.204545073457" lon="17.771590873342">
        <ele>43</ele>
        <time>2017-09-02T12:04:53Z</time>
      </trkpt>
      <trkpt lat="59.204480951922" lon="17.771201450268">
        <ele>42.8</ele>
        <time>2017-09-02T12:04:55Z</time>
      </trkpt>
      <trkpt lat="59.204432588359" lon="17.771020401228">
        <ele>42.2</ele>
        <time>2017-09-02T12:04:56Z</time>
      </trkpt>
      <trkpt lat="59.204357989449" lon="17.770893080167">
        <ele>41.6</ele>
        <time>2017-09-02T12:04:57Z</time>
      </trkpt>
      <trkpt lat="59.204155231288" lon="17.770790318073">
        <ele>40.6</ele>
        <time>2017-09-02T12:04:59Z</time>
      </trkpt>
      <trkpt lat="59.20393378149" lon="17.770708929824">
        <ele>39.4</ele>
        <time>2017-09-02T12:05:01Z</time>
      </trkpt>
      <trkpt lat="59.203704704163" lon="17.770579010374">
        <ele>38.2</ele>
        <time>2017-09-02T12:05:03Z</time>
      </trkpt>
      <trkpt lat="59.203477889949" lon="17.770404666854">
        <ele>37.2</ele>
        <time>2017-09-02T12:05:05Z</time>
      </trkpt>
      <trkpt lat="59.203258619445" lon="17.770175086613">
        <ele>36.4</ele>
        <time>2017-09-02T12:05:07Z</time>
      </trkpt>
      <trkpt lat="59.203151582582" lon="17.770043909878">
        <ele>35.8</ele>
        <time>2017-09-02T12:05:08Z</time>
      </trkpt>
      <trkpt lat="59.203046389737" lon="17.769904351243">
        <ele>35</ele>
        <time>2017-09-02T12:05:09Z</time>
      </trkpt>
      <trkpt lat="59.202941113073" lon="17.769759847287">
        <ele>34.2</ele>
        <time>2017-09-02T12:05:10Z</time>
      </trkpt>
      <trkpt lat="59.202835836409" lon="17.769613080218">
        <ele>33.2</ele>
        <time>2017-09-02T12:05:11Z</time>
      </trkpt>
      <trkpt lat="59.202730895021" lon="17.769465055864">
        <ele>32.6</ele>
        <time>2017-09-02T12:05:12Z</time>
      </trkpt>
      <trkpt lat="59.202625953633" lon="17.769317618243">
        <ele>31.8</ele>
        <time>2017-09-02T12:05:13Z</time>
      </trkpt>
      <trkpt lat="59.202520676969" lon="17.769173365744">
        <ele>31</ele>
        <time>2017-09-02T12:05:14Z</time>
      </trkpt>
      <trkpt lat="59.202415735581" lon="17.769036573136">
        <ele>30.4</ele>
        <time>2017-09-02T12:05:15Z</time>
      </trkpt>
      <trkpt lat="59.202313224944" lon="17.768906569867">
        <ele>29.8</ele>
        <time>2017-09-02T12:05:16Z</time>
      </trkpt>
      <trkpt lat="59.202214821438" lon="17.768777907702">
        <ele>29.2</ele>
        <time>2017-09-02T12:05:17Z</time>
      </trkpt>
      <trkpt lat="59.202035784054" lon="17.768513626395">
        <ele>28.8</ele>
        <time>2017-09-02T12:05:19Z</time>
      </trkpt>
      <trkpt lat="59.201953054701" lon="17.768385383325">
        <ele>28.8</ele>
        <time>2017-09-02T12:05:20Z</time>
      </trkpt>
      <trkpt lat="59.201873091375" lon="17.768266695621">
        <ele>28.8</ele>
        <time>2017-09-02T12:05:21Z</time>
      </trkpt>
      <trkpt lat="59.201723139184" lon="17.768048598583">
        <ele>28.6</ele>
        <time>2017-09-02T12:05:23Z</time>
      </trkpt>
      <trkpt lat="59.201584502558" lon="17.76784433168">
        <ele>28.6</ele>
        <time>2017-09-02T12:05:25Z</time>
      </trkpt>
      <trkpt lat="59.201454499289" lon="17.767644758641">
        <ele>29.4</ele>
        <time>2017-09-02T12:05:27Z</time>
      </trkpt>
      <trkpt lat="59.201387695546" lon="17.767550043171">
        <ele>30.2</ele>
        <time>2017-09-02T12:05:28Z</time>
      </trkpt>
      <trkpt lat="59.201319634518" lon="17.767458680461">
        <ele>31</ele>
        <time>2017-09-02T12:05:29Z</time>
      </trkpt>
      <trkpt lat="59.201250400024" lon="17.767369748502">
        <ele>31.8</ele>
        <time>2017-09-02T12:05:30Z</time>
      </trkpt>
      <trkpt lat="59.201180159702" lon="17.767280397448">
        <ele>32.6</ele>
        <time>2017-09-02T12:05:31Z</time>
      </trkpt>
      <trkpt lat="59.201110506113" lon="17.767187442177">
        <ele>33.4</ele>
        <time>2017-09-02T12:05:32Z</time>
      </trkpt>
      <trkpt lat="59.201039846696" lon="17.767093145802">
        <ele>34</ele>
        <time>2017-09-02T12:05:33Z</time>
      </trkpt>
      <trkpt lat="59.200970863659" lon="17.766998849427">
        <ele>34.4</ele>
        <time>2017-09-02T12:05:34Z</time>
      </trkpt>
      <trkpt lat="59.200901796803" lon="17.766902625215">
        <ele>34.8</ele>
        <time>2017-09-02T12:05:35Z</time>
      </trkpt>
      <trkpt lat="59.200762573444" lon="17.766708919506">
        <ele>35.2</ele>
        <time>2017-09-02T12:05:37Z</time>
      </trkpt>
      <trkpt lat="59.200623936818" lon="17.766513453598">
        <ele>35.4</ele>
        <time>2017-09-02T12:05:39Z</time>
      </trkpt>
      <trkpt lat="59.200496448119" lon="17.766326872504">
        <ele>35.4</ele>
        <time>2017-09-02T12:05:41Z</time>
      </trkpt>
      <trkpt lat="59.200377257501" lon="17.766154289183">
        <ele>35.4</ele>
        <time>2017-09-02T12:05:43Z</time>
      </trkpt>
      <trkpt lat="59.200269298629" lon="17.766000816594">
        <ele>35.6</ele>
        <time>2017-09-02T12:05:45Z</time>
      </trkpt>
      <trkpt lat="59.200226131844" lon="17.765912890463">
        <ele>35.8</ele>
        <time>2017-09-02T12:05:46Z</time>
      </trkpt>
      <trkpt lat="59.200202913981" lon="17.765801243555">
        <ele>36</ele>
        <time>2017-09-02T12:05:47Z</time>
      </trkpt>
      <trkpt lat="59.200231244803" lon="17.765555402428">
        <ele>36.6</ele>
        <time>2017-09-02T12:05:49Z</time>
      </trkpt>
      <trkpt lat="59.200264101851" lon="17.765430763575">
        <ele>37.4</ele>
        <time>2017-09-02T12:05:50Z</time>
      </trkpt>
      <trkpt lat="59.200300982211" lon="17.765309812758">
        <ele>38</ele>
        <time>2017-09-02T12:05:51Z</time>
      </trkpt>
      <trkpt lat="59.200380023528" lon="17.765070006599">
        <ele>39</ele>
        <time>2017-09-02T12:05:53Z</time>
      </trkpt>
      <trkpt lat="59.200462166148" lon="17.764824919843">
        <ele>39.8</ele>
        <time>2017-09-02T12:05:55Z</time>
      </trkpt>
      <trkpt lat="59.200545649872" lon="17.764572540834">
        <ele>40</ele>
        <time>2017-09-02T12:05:57Z</time>
      </trkpt>
      <trkpt lat="59.200624691189" lon="17.764310606459">
        <ele>40.2</ele>
        <time>2017-09-02T12:05:59Z</time>
      </trkpt>
      <trkpt lat="59.200704570696" lon="17.764039284356">
        <ele>40.2</ele>
        <time>2017-09-02T12:06:01Z</time>
      </trkpt>
      <trkpt lat="59.200781516538" lon="17.763759328896">
        <ele>40.4</ele>
        <time>2017-09-02T12:06:03Z</time>
      </trkpt>
      <trkpt lat="59.200853852335" lon="17.763464537473">
        <ele>40.4</ele>
        <time>2017-09-02T12:06:05Z</time>
      </trkpt>
      <trkpt lat="59.200918309146" lon="17.763155329182">
        <ele>40.4</ele>
        <time>2017-09-02T12:06:07Z</time>
      </trkpt>
      <trkpt lat="59.200975138428" lon="17.76283614643">
        <ele>40.2</ele>
        <time>2017-09-02T12:06:09Z</time>
      </trkpt>
      <trkpt lat="59.201029872235" lon="17.762506905398">
        <ele>40.2</ele>
        <time>2017-09-02T12:06:11Z</time>
      </trkpt>
      <trkpt lat="59.201082594386" lon="17.762160984385">
        <ele>40.2</ele>
        <time>2017-09-02T12:06:13Z</time>
      </trkpt>
      <trkpt lat="59.201136657641" lon="17.761810704784">
        <ele>40</ele>
        <time>2017-09-02T12:06:15Z</time>
      </trkpt>
      <trkpt lat="59.201196588226" lon="17.761461682468">
        <ele>39.6</ele>
        <time>2017-09-02T12:06:17Z</time>
      </trkpt>
      <trkpt lat="59.201266996186" lon="17.761109391211">
        <ele>39</ele>
        <time>2017-09-02T12:06:19Z</time>
      </trkpt>
      <trkpt lat="59.20135550905" lon="17.760767661148">
        <ele>38.4</ele>
        <time>2017-09-02T12:06:21Z</time>
      </trkpt>
      <trkpt lat="59.201460534257" lon="17.76043473208">
        <ele>38</ele>
        <time>2017-09-02T12:06:23Z</time>
      </trkpt>
      <trkpt lat="59.201517195901" lon="17.760274386333">
        <ele>37.8</ele>
        <time>2017-09-02T12:06:24Z</time>
      </trkpt>
      <trkpt lat="59.201577964676" lon="17.760122422486">
        <ele>37.6</ele>
        <time>2017-09-02T12:06:25Z</time>
      </trkpt>
      <trkpt lat="59.201711572162" lon="17.759845903605">
        <ele>37</ele>
        <time>2017-09-02T12:06:27Z</time>
      </trkpt>
      <trkpt lat="59.201851466073" lon="17.759585980886">
        <ele>36.6</ele>
        <time>2017-09-02T12:06:29Z</time>
      </trkpt>
      <trkpt lat="59.201996137667" lon="17.759357825568">
        <ele>36.4</ele>
        <time>2017-09-02T12:06:31Z</time>
      </trkpt>
      <trkpt lat="59.202145000211" lon="17.759164622773">
        <ele>36.2</ele>
        <time>2017-09-02T12:06:33Z</time>
      </trkpt>
      <trkpt lat="59.202297299334" lon="17.758999080248">
        <ele>36.2</ele>
        <time>2017-09-02T12:06:35Z</time>
      </trkpt>
      <trkpt lat="59.202453118855" lon="17.758868322608">
        <ele>36.2</ele>
        <time>2017-09-02T12:06:37Z</time>
      </trkpt>
      <trkpt lat="59.202607178177" lon="17.758750724551">
        <ele>36.4</ele>
        <time>2017-09-02T12:06:39Z</time>
      </trkpt>
      <trkpt lat="59.202758722929" lon="17.758640251109">
        <ele>37.6</ele>
        <time>2017-09-02T12:06:41Z</time>
      </trkpt>
      <trkpt lat="59.202833489477" lon="17.75859155227">
        <ele>38.2</ele>
        <time>2017-09-02T12:06:42Z</time>
      </trkpt>
      <trkpt lat="59.202907334016" lon="17.758546625286">
        <ele>38.6</ele>
        <time>2017-09-02T12:06:43Z</time>
      </trkpt>
      <trkpt lat="59.20305535837" lon="17.758453334739">
        <ele>39.2</ele>
        <time>2017-09-02T12:06:45Z</time>
      </trkpt>
      <trkpt lat="59.203200951973" lon="17.758361301477">
        <ele>39.8</ele>
        <time>2017-09-02T12:06:47Z</time>
      </trkpt>
      <trkpt lat="59.203274042141" lon="17.75831830233">
        <ele>40.4</ele>
        <time>2017-09-02T12:06:48Z</time>
      </trkpt>
      <trkpt lat="59.203348389594" lon="17.758276225192">
        <ele>40.4</ele>
        <time>2017-09-02T12:06:49Z</time>
      </trkpt>
      <trkpt lat="59.203491133351" lon="17.758184275749">
        <ele>40.8</ele>
        <time>2017-09-02T12:06:51Z</time>
      </trkpt>
      <trkpt lat="59.203631111081" lon="17.758073131755">
        <ele>41.2</ele>
        <time>2017-09-02T12:06:53Z</time>
      </trkpt>
      <trkpt lat="59.203767652232" lon="17.757926616143">
        <ele>41.2</ele>
        <time>2017-09-02T12:06:55Z</time>
      </trkpt>
      <trkpt lat="59.203834623613" lon="17.7578430486">
        <ele>41.4</ele>
        <time>2017-09-02T12:06:56Z</time>
      </trkpt>
      <trkpt lat="59.20390025389" lon="17.757754032822">
        <ele>41.4</ele>
        <time>2017-09-02T12:06:57Z</time>
      </trkpt>
      <trkpt lat="59.204023384001" lon="17.757565272434">
        <ele>41.8</ele>
        <time>2017-09-02T12:06:59Z</time>
      </trkpt>
      <trkpt lat="59.20414165261" lon="17.757360418798">
        <ele>42.4</ele>
        <time>2017-09-02T12:07:01Z</time>
      </trkpt>
      <trkpt lat="59.204254724441" lon="17.757139723371">
        <ele>42.6</ele>
        <time>2017-09-02T12:07:03Z</time>
      </trkpt>
      <trkpt lat="59.204368466824" lon="17.756912406243">
        <ele>42.6</ele>
        <time>2017-09-02T12:07:05Z</time>
      </trkpt>
      <trkpt lat="59.204485729605" lon="17.756679305604">
        <ele>42.6</ele>
        <time>2017-09-02T12:07:07Z</time>
      </trkpt>
      <trkpt lat="59.204603662938" lon="17.756439583264">
        <ele>42.6</ele>
        <time>2017-09-02T12:07:09Z</time>
      </trkpt>
      <trkpt lat="59.204729559076" lon="17.756209248652">
        <ele>42.6</ele>
        <time>2017-09-02T12:07:11Z</time>
      </trkpt>
      <trkpt lat="59.204856796318" lon="17.755968436665">
        <ele>42.2</ele>
        <time>2017-09-02T12:07:13Z</time>
      </trkpt>
      <trkpt lat="59.204929970305" lon="17.755652941949">
        <ele>41.8</ele>
        <time>2017-09-02T12:07:15Z</time>
      </trkpt>
      <trkpt lat="59.204936759644" lon="17.755308529678">
        <ele>41.4</ele>
        <time>2017-09-02T12:07:17Z</time>
      </trkpt>
      <trkpt lat="59.204929718848" lon="17.755145082628">
        <ele>41.4</ele>
        <time>2017-09-02T12:07:18Z</time>
      </trkpt>
      <trkpt lat="59.204922678052" lon="17.754988508736">
        <ele>41.4</ele>
        <time>2017-09-02T12:07:19Z</time>
      </trkpt>
      <trkpt lat="59.204923180966" lon="17.754701847756">
        <ele>41.4</ele>
        <time>2017-09-02T12:07:21Z</time>
      </trkpt>
      <trkpt lat="59.204935334721" lon="17.754445780711">
        <ele>41.2</ele>
        <time>2017-09-02T12:07:23Z</time>
      </trkpt>
      <trkpt lat="59.204944890087" lon="17.754225001465">
        <ele>41.2</ele>
        <time>2017-09-02T12:07:25Z</time>
      </trkpt>
      <trkpt lat="59.204898957275" lon="17.754055519447">
        <ele>41.6</ele>
        <time>2017-09-02T12:07:27Z</time>
      </trkpt>
      <trkpt lat="59.20482226289" lon="17.753976310492">
        <ele>42.6</ele>
        <time>2017-09-02T12:07:29Z</time>
      </trkpt>
      <trkpt lat="59.204747915437" lon="17.753977651596">
        <ele>43.8</ele>
        <time>2017-09-02T12:07:31Z</time>
      </trkpt>
      <trkpt lat="59.204669544672" lon="17.753990392084">
        <ele>44.4</ele>
        <time>2017-09-02T12:07:33Z</time>
      </trkpt>
      <trkpt lat="59.204632915769" lon="17.753994331577">
        <ele>45</ele>
        <time>2017-09-02T12:07:34Z</time>
      </trkpt>
      <trkpt lat="59.204596035409" lon="17.754002042925">
        <ele>45.2</ele>
        <time>2017-09-02T12:07:35Z</time>
      </trkpt>
      <trkpt lat="59.204510959124" lon="17.754012604119">
        <ele>45.6</ele>
        <time>2017-09-02T12:07:37Z</time>
      </trkpt>
    </trkseg>
  </trk>
</gpx>